GFSSE_sfc_wetblb_009.txt.gz
Wetbulb
63.83 67.17 70.73 71.89 71.91 71.94 71.51 72.19 72.36 72.21 72.31 72.79 72.94 72.06 71.55 71.15 71.04 71.34 71.26 71.02 71.04 71.51 70.43 69.51 69.93 69.83 70.45 69.52 69.80 69.74 69.91 70.34 70.64 71.54 71.51 70.52 70.41 70.32 70.67 71.67 71.27 69.82 71.46
64.32 66.92 69.54 70.90 71.70 72.29 72.00 72.20 72.55 72.50 72.61 72.59 72.56 71.56 71.07 70.61 70.51 70.43 70.48 70.45 71.16 69.38 68.18 68.22 69.20 69.75 70.11 69.71 69.35 69.61 69.51 69.06 69.21 70.27 70.98 71.09 70.54 70.47 70.08 70.41 68.96 70.27 71.08
63.93 66.26 67.78 69.76 71.26 71.82 71.87 72.35 72.54 72.96 73.08 72.79 72.25 71.57 71.02 70.48 70.39 70.16 69.99 68.43 67.00 67.81 67.26 67.24 68.74 69.84 68.18 68.67 68.30 68.48 68.44 69.25 69.52 69.61 70.77 67.81 67.42 70.08 70.09 70.19 69.15 71.04 70.83
65.02 66.20 67.22 69.63 70.43 70.66 70.78 71.05 71.59 71.45 71.93 72.43 72.55 71.63 71.19 70.61 70.29 70.27 68.89 66.27 66.06 66.58 67.69 68.12 68.18 69.51 67.87 68.12 67.95 68.21 68.01 67.99 68.64 69.32 68.58 67.70 68.07 69.67 70.00 69.59 70.21 70.72 70.87
65.04 65.45 66.33 68.79 69.53 70.00 70.10 70.10 70.23 70.29 71.02 70.95 71.34 71.19 70.70 70.34 69.74 69.16 67.02 66.75 65.73 66.31 67.19 67.38 68.11 68.19 67.15 65.72 66.67 66.19 67.44 68.06 68.08 67.99 66.28 66.87 66.72 68.71 69.76 69.89 70.24 70.81 70.62
63.63 64.16 65.74 67.65 68.97 69.60 69.55 69.36 69.30 69.38 69.84 70.39 70.22 70.01 70.07 69.68 69.50 68.77 66.80 65.87 65.51 66.02 66.65 67.64 67.22 66.93 67.13 66.15 66.21 65.24 67.12 65.98 65.43 64.67 65.65 66.68 66.55 67.69 69.45 69.89 69.71 70.00 69.90
63.09 64.10 65.03 66.73 68.14 69.20 68.83 68.50 68.94 69.02 69.17 69.19 69.83 69.54 69.25 68.77 67.86 66.52 66.79 66.92 66.61 66.35 67.00 67.64 68.49 68.11 66.76 65.80 65.62 66.21 66.34 65.70 63.70 64.52 64.86 64.83 64.43 67.06 69.57 69.80 69.45 69.27 69.61
63.54 64.62 65.14 67.09 67.28 67.46 68.00 68.04 67.77 68.07 68.35 68.21 68.39 68.86 68.92 68.38 68.16 67.71 66.75 65.77 66.15 66.67 67.13 66.12 65.88 64.99 66.05 64.71 64.84 65.25 64.66 64.35 64.19 64.21 65.43 63.97 65.80 68.22 68.64 69.98 69.15 69.33 69.60
64.56 64.39 64.37 64.90 66.04 66.50 65.88 65.86 66.20 66.78 67.28 67.46 67.08 67.03 66.99 66.79 66.88 66.81 66.56 66.93 66.86 66.80 66.62 65.05 65.60 64.54 64.56 64.87 65.01 64.63 64.20 65.07 64.17 64.52 64.86 64.25 65.94 67.00 68.18 69.96 69.42 68.98 69.06
63.34 63.88 62.92 63.27 63.43 62.02 61.53 64.83 64.72 65.59 66.28 66.45 66.14 65.65 64.87 64.90 65.30 65.08 64.43 65.49 64.91 64.93 64.24 63.87 64.24 64.65 64.85 64.19 63.68 62.81 62.48 63.30 61.34 62.07 62.87 62.54 65.25 67.15 68.16 69.07 69.61 68.70 68.63
64.24 63.05 62.77 62.56 61.96 60.64 59.29 62.09 64.54 65.42 65.76 65.85 65.58 64.80 62.48 61.23 60.03 60.22 63.02 63.62 63.93 63.07 62.68 62.31 61.94 61.49 60.39 59.75 60.34 61.07 60.87 59.96 59.58 59.49 59.46 61.72 63.79 66.55 67.57 67.78 68.75 68.28 68.27
61.78 62.43 62.63 62.43 62.38 61.09 62.49 61.36 61.33 63.02 62.67 62.82 63.53 61.98 61.30 59.27 58.54 59.72 61.18 62.37 61.54 61.39 61.21 60.73 60.77 59.66 58.33 56.07 56.31 57.96 56.26 57.07 57.83 58.64 59.10 62.26 63.38 65.69 66.88 68.08 67.59 68.11 67.87
61.05 60.36 60.83 61.82 61.24 61.04 61.24 60.98 60.80 61.23 60.92 60.93 60.65 61.08 59.64 58.58 58.43 57.65 57.11 57.17 55.59 58.21 55.55 56.13 55.13 54.85 53.84 53.40 53.87 54.33 54.74 55.00 55.11 56.33 57.91 60.45 61.43 63.29 65.33 66.63 67.40 67.31 67.27
54.85 56.73 58.48 59.21 57.96 56.20 59.74 61.08 61.22 60.68 60.62 59.94 59.69 59.06 57.61 56.15 55.97 56.17 55.73 55.85 54.75 54.61 53.99 54.15 53.98 54.12 53.92 54.10 54.28 53.93 54.47 54.65 54.48 55.41 56.47 59.32 60.30 61.96 62.84 64.97 66.22 66.74 66.83
52.72 54.40 56.90 57.57 57.22 55.87 56.44 55.20 56.68 57.14 59.72 58.51 58.25 58.14 57.75 56.05 55.05 55.15 54.31 54.51 53.75 54.25 53.74 53.02 52.77 53.43 53.50 53.74 54.18 54.64 55.28 55.51 55.27 55.79 55.75 58.71 59.38 60.29 62.30 63.25 64.51 65.52 65.89
51.42 52.98 55.11 56.06 56.95 55.30 53.77 52.78 52.48 52.60 53.27 53.37 53.53 54.07 56.74 56.51 55.33 55.11 54.77 54.13 53.81 53.11 52.08 50.54 49.37 48.81 48.46 49.62 50.62 51.49 53.31 54.25 54.29 54.66 54.73 54.76 57.30 58.38 59.02 61.52 63.12 63.14 63.88
50.94 52.52 54.48 54.59 55.51 54.97 54.34 53.08 51.17 50.20 50.70 50.61 52.08 53.38 54.96 54.90 53.34 53.65 53.55 53.33 52.97 51.77 50.85 49.99 48.48 47.83 45.46 47.27 45.41 46.42 46.99 49.33 51.07 49.05 50.01 52.68 53.93 56.71 58.84 60.02 61.00 62.63 63.00
49.13 50.99 51.98 55.07 53.15 51.89 53.24 52.81 52.06 50.46 49.15 49.17 50.66 51.32 53.08 52.95 50.95 49.28 48.87 50.04 50.39 48.52 50.55 46.86 43.33 42.76 42.34 42.09 41.99 42.42 43.23 46.09 45.18 44.11 45.76 47.56 50.71 53.06 56.74 59.36 60.38 61.21 61.78
48.46 49.17 48.29 51.06 51.03 50.14 51.07 51.16 49.95 49.40 47.34 47.36 49.53 50.47 50.87 51.91 51.70 49.74 48.99 48.35 46.85 46.19 46.72 44.09 43.15 42.68 41.49 41.28 41.86 42.32 41.59 41.49 41.96 44.83 44.10 44.66 46.78 49.54 54.40 58.65 59.86 60.04 60.80
47.34 46.80 45.87 48.09 48.25 47.33 46.73 45.94 45.41 45.46 46.02 46.12 47.33 49.92 51.07 50.63 50.78 47.94 48.12 48.11 45.92 44.72 44.36 43.22 42.75 42.44 42.17 41.65 43.23 43.18 40.97 41.72 41.37 41.34 41.71 45.33 45.43 48.43 50.23 52.28 55.11 56.60 58.61
45.43 45.94 45.21 44.80 44.87 45.01 44.44 44.04 43.44 43.87 44.57 44.87 45.43 48.34 50.61 50.42 49.77 47.27 46.33 47.15 45.95 44.51 44.12 43.68 42.44 41.59 41.16 40.90 39.80 39.60 40.20 40.78 40.84 41.28 42.23 43.24 44.08 45.99 46.53 48.96 48.63 50.44 53.55
44.79 45.22 45.32 45.86 45.57 44.93 44.14 43.91 43.96 43.15 43.54 44.25 45.00 46.12 49.37 50.37 49.88 48.22 45.97 46.29 46.43 44.88 43.60 43.25 42.45 41.24 41.15 41.25 39.23 37.65 35.69 37.90 38.72 41.84 41.63 42.56 43.03 43.94 45.64 46.54 46.89 48.75 50.13
43.76 44.45 45.30 45.59 45.32 45.29 45.26 43.92 43.38 42.89 43.00 42.67 43.69 43.37 45.85 49.43 50.60 48.72 46.61 45.84 45.44 45.72 44.55 43.01 42.30 41.42 39.80 40.59 40.52 39.12 34.89 33.32 36.73 39.32 39.61 40.84 41.11 41.61 43.32 44.25 46.04 47.16 48.03
45.02 44.52 45.03 45.51 45.42 45.99 45.47 44.26 42.84 43.67 44.02 46.53 46.15 45.70 45.81 46.12 48.02 49.53 48.41 45.89 44.95 43.39 41.61 41.25 42.34 41.15 40.36 38.07 38.33 42.23 39.78 38.57 32.34 30.85 36.23 36.99 37.74 40.04 40.96 42.55 42.93 43.48 44.25
44.52 44.48 44.77 45.85 47.04 47.04 46.71 45.78 44.80 43.55 45.14 46.22 45.61 42.87 43.62 43.68 45.84 47.25 47.78 46.08 44.11 44.26 43.14 41.31 39.74 38.08 38.39 37.88 37.33 36.26 35.72 36.27 36.54 34.44 30.35 33.03 36.11 37.17 39.24 40.68 41.20 41.39 42.25
45.16 44.92 45.39 46.36 46.75 47.60 47.08 46.50 44.80 43.33 44.15 43.53 43.84 42.95 43.87 42.01 42.03 44.07 43.99 43.55 41.87 41.06 40.37 39.17 39.60 39.39 38.54 38.12 38.97 38.72 37.59 35.23 33.53 32.06 31.12 32.17 33.30 35.84 38.11 38.97 38.95 39.26 41.42

GFSSE_sfc_wetblb_012.txt.gz
Wetbulb
62.35 66.41 70.84 71.95 72.02 71.58 71.74 71.92 71.88 71.93 72.50 72.79 72.76 72.11 71.53 71.72 71.39 71.61 71.77 71.34 71.34 71.07 69.78 69.82 69.75 70.21 69.55 69.12 69.87 70.48 70.65 70.67 70.65 70.99 71.41 70.49 70.62 70.27 70.94 71.69 71.15 70.01 71.20
63.61 65.42 69.98 71.29 71.92 71.81 72.22 71.88 71.60 72.11 72.79 72.64 72.14 71.35 70.63 71.20 70.98 70.92 70.55 68.83 70.30 68.83 68.82 69.44 69.35 69.42 69.89 69.42 69.39 69.59 69.30 69.80 70.11 70.92 71.56 71.34 70.69 70.34 69.85 71.08 70.44 69.93 70.44
64.09 65.61 67.99 70.44 71.46 71.72 72.01 72.36 72.82 72.97 72.93 72.05 71.87 71.40 70.85 70.60 70.38 70.48 69.00 67.39 67.57 67.71 67.57 67.02 68.69 69.94 68.86 69.13 69.28 69.63 69.33 69.40 69.22 69.76 70.77 67.76 67.94 70.16 70.21 70.41 69.53 71.15 70.66
64.48 65.45 67.33 69.81 70.22 70.47 70.64 71.16 71.64 71.86 72.32 72.55 71.98 71.51 70.64 70.21 70.20 69.62 67.26 66.81 66.70 67.04 67.77 68.00 68.01 69.35 68.69 68.56 68.50 67.94 68.30 68.48 68.01 69.23 68.31 67.92 67.93 69.18 69.87 70.34 69.97 70.48 70.58
64.16 64.76 67.51 68.85 68.88 69.58 69.67 69.82 70.21 70.59 70.92 71.42 71.65 71.23 70.97 70.30 69.76 68.95 66.45 66.72 65.62 65.87 67.04 67.43 68.13 68.18 68.11 66.56 66.40 65.63 67.05 67.26 66.60 66.19 65.56 66.95 67.28 68.29 69.52 69.20 69.92 70.04 70.42
62.34 62.66 66.59 67.81 68.50 69.04 69.23 69.05 68.90 69.20 69.98 69.95 69.94 70.28 70.07 69.80 69.32 68.79 67.73 66.44 65.63 66.28 66.84 67.71 68.08 67.71 66.51 66.58 66.24 66.23 66.49 66.20 64.44 62.79 64.46 65.98 67.30 67.96 68.59 68.89 69.08 69.37 69.74
61.49 62.18 64.58 66.96 68.01 68.84 68.65 68.40 68.71 68.79 68.99 69.38 69.53 69.40 69.36 68.69 67.78 66.85 66.58 67.12 66.93 66.49 67.23 67.68 67.40 67.06 66.38 66.12 65.64 65.42 65.74 65.21 64.35 63.52 64.54 64.85 64.94 67.63 68.64 69.96 69.53 69.04 69.55
61.97 62.86 63.37 66.74 67.24 67.67 68.07 67.72 67.57 67.71 67.94 67.75 68.22 68.77 68.67 68.25 67.98 67.57 66.69 65.62 65.95 66.64 67.35 66.16 65.48 65.44 64.71 64.82 65.65 64.39 64.12 64.46 64.08 64.01 64.65 65.05 65.54 67.89 68.60 69.08 69.11 68.28 68.76
62.57 62.57 62.82 63.32 65.09 66.21 65.77 65.87 66.11 66.69 67.12 66.92 66.56 66.65 66.36 66.52 66.48 66.27 66.32 66.33 66.06 66.00 65.84 65.49 65.23 65.65 65.30 64.99 64.30 63.01 62.86 63.90 62.16 62.61 63.61 63.64 65.39 66.90 67.74 68.57 68.98 68.68 68.72
62.26 62.28 61.55 61.73 62.46 61.35 61.13 64.77 64.88 65.54 65.90 66.01 65.74 65.19 64.45 64.36 64.48 64.39 63.46 64.87 64.38 63.85 63.42 63.16 62.87 62.59 61.85 61.35 61.45 61.33 61.37 61.57 59.73 60.05 60.51 61.41 63.76 65.46 67.38 67.69 68.95 68.66 68.71
62.64 61.87 61.41 61.42 61.12 59.55 58.80 61.59 64.28 65.40 65.56 65.72 65.12 64.47 61.81 60.00 58.97 59.09 62.89 63.71 63.20 62.68 62.24 61.89 61.65 61.03 59.87 59.12 59.47 59.58 58.67 57.62 58.34 58.67 58.79 61.83 63.08 65.13 66.70 67.11 68.13 68.53 68.44
61.06 61.99 61.70 61.62 60.99 59.93 61.00 59.92 60.37 61.88 61.88 62.14 62.67 61.07 60.03 58.56 57.88 59.15 60.46 62.22 61.15 61.07 60.89 60.28 59.86 58.77 56.01 53.91 54.22 56.40 54.84 55.30 55.91 56.59 57.27 60.27 61.57 63.17 64.54 65.30 67.05 67.22 67.28
61.24 61.66 62.40 61.83 61.19 60.59 60.60 59.56 59.32 60.10 60.02 60.05 60.28 60.44 59.34 58.78 57.59 56.91 56.15 56.25 54.62 57.77 54.25 54.96 54.40 54.47 54.06 53.59 53.79 54.17 54.61 54.77 54.59 55.49 56.96 59.78 61.09 62.77 63.28 63.73 64.49 65.91 66.36
59.77 61.53 61.28 60.86 60.45 59.26 59.41 59.76 59.45 59.90 59.68 59.40 59.35 59.16 57.71 56.41 55.25 55.57 55.19 54.99 54.47 53.87 53.22 53.25 53.32 53.54 53.68 53.75 53.81 53.46 53.90 54.03 54.47 55.59 56.31 58.66 58.49 59.32 61.75 63.48 63.67 64.19 65.37
57.38 58.14 57.57 57.95 57.40 55.69 57.68 58.25 58.90 59.10 59.52 59.17 58.43 57.89 57.15 55.57 54.61 54.67 54.53 53.71 53.58 53.45 53.40 52.95 51.66 51.26 50.45 51.06 51.50 52.31 52.75 53.76 54.21 54.10 53.35 55.14 55.83 55.96 57.34 59.28 61.99 63.90 63.75
54.64 54.36 56.05 56.16 56.44 54.80 54.08 54.12 55.38 55.08 56.51 56.19 56.11 56.73 56.27 56.25 54.65 53.97 54.03 53.67 52.89 53.16 52.55 50.75 48.94 47.68 46.74 47.81 48.43 47.74 48.64 49.62 51.48 50.47 48.87 49.32 53.37 54.87 56.23 57.93 59.48 60.98 63.07
51.54 52.52 54.10 55.06 55.57 54.33 53.25 52.21 51.01 51.20 51.60 51.35 52.50 52.97 53.30 55.20 54.67 54.22 53.69 53.26 53.35 52.59 50.77 49.27 48.06 47.19 44.84 45.36 44.19 45.20 45.52 46.62 49.68 47.38 45.81 47.52 48.99 52.01 54.90 57.89 59.07 60.35 61.29
49.55 51.27 53.19 55.44 54.19 53.61 52.87 52.56 51.53 49.87 49.16 48.77 49.86 51.06 52.30 53.78 53.36 51.66 51.40 51.53 52.25 51.09 50.20 48.81 44.26 43.14 42.31 42.14 42.06 42.40 42.91 44.05 44.44 44.17 45.26 45.45 47.22 48.91 52.18 56.12 56.27 58.68 57.70
49.11 50.60 51.39 51.08 51.92 51.08 50.88 51.56 50.89 50.15 48.69 47.91 47.96 49.41 50.53 51.74 52.18 49.50 48.62 48.82 49.50 48.29 47.94 47.87 42.86 42.39 41.06 40.91 41.39 41.54 41.62 41.47 42.55 44.43 43.92 45.27 45.87 47.32 49.86 52.15 53.59 54.33 54.46
47.51 48.97 48.82 48.81 50.04 48.83 46.70 45.74 45.48 45.08 45.32 46.11 45.95 47.33 49.74 50.36 51.01 49.96 48.62 48.19 47.45 45.22 44.44 43.70 42.59 41.95 41.94 41.56 42.92 42.58 41.29 41.68 41.79 41.62 42.68 44.77 44.91 46.46 46.97 48.02 49.76 49.15 52.20
45.47 45.41 45.14 45.98 46.25 44.85 43.97 43.93 43.40 44.08 44.00 44.60 45.30 46.47 48.06 49.81 50.43 49.80 48.51 47.59 47.11 45.34 45.13 43.71 42.36 41.57 40.79 41.24 40.14 39.52 40.20 41.10 40.92 41.11 42.31 43.22 44.52 45.60 46.02 46.95 46.99 48.07 49.19
45.11 45.26 44.65 44.55 44.17 43.49 43.22 42.81 42.87 42.20 42.83 43.11 44.12 44.95 45.92 47.38 49.29 49.83 48.50 47.14 46.56 46.37 43.40 42.91 41.90 40.53 40.91 40.41 38.97 37.57 36.15 37.95 38.68 41.08 41.54 42.17 42.36 44.07 43.70 45.64 45.40 47.05 47.47
43.42 43.70 44.14 44.05 43.91 43.86 44.51 43.81 43.26 42.89 43.06 42.92 44.02 43.42 45.05 45.74 47.52 48.84 49.24 48.12 46.27 46.10 45.82 44.22 42.99 41.12 41.05 39.91 40.60 38.80 34.80 33.56 35.13 38.02 39.52 39.18 41.10 39.51 42.24 42.29 44.02 45.43 45.05
43.03 43.15 43.84 44.91 45.02 45.97 45.40 44.07 42.96 41.95 41.97 44.13 44.09 44.55 45.49 44.83 44.93 47.01 48.83 47.93 46.15 45.04 44.50 41.62 42.39 41.42 39.83 38.47 39.23 41.80 38.94 38.19 31.96 31.10 35.99 39.33 38.06 38.91 39.15 40.58 41.81 42.40 43.40
43.07 43.62 44.01 45.26 45.82 45.91 45.22 44.59 43.67 44.00 45.05 44.52 44.36 43.26 43.97 44.05 43.20 44.22 45.25 45.99 43.83 42.63 42.14 43.02 39.28 38.99 39.78 38.19 37.90 36.98 36.08 36.83 36.89 33.69 30.62 33.42 36.52 37.90 38.51 39.45 40.20 41.01 41.87
43.44 43.34 43.82 44.49 45.13 45.73 45.12 45.25 43.40 41.76 41.77 41.93 42.27 42.26 42.83 42.34 41.07 40.79 42.68 41.32 39.56 38.81 38.44 39.10 40.51 40.50 40.09 40.07 39.03 38.52 37.50 35.35 35.08 34.41 33.57 33.48 32.57 36.19 38.20 39.09 39.05 39.65 40.89

GFSSE_sfc_wetblb_015.txt.gz
Wetbulb
66.02 69.86 70.75 71.86 71.93 72.18 71.68 71.91 71.83 71.76 72.05 72.47 72.48 72.41 72.32 72.20 72.00 71.51 71.06 70.99 70.99 70.29 69.94 69.77 69.77 70.14 69.32 69.07 69.03 70.57 71.68 71.26 70.40 71.29 71.48 70.56 70.40 71.16 71.70 72.11 71.50 71.20 72.14
67.58 69.86 69.94 71.40 71.52 71.65 72.00 72.15 71.37 71.94 72.21 71.97 72.12 71.64 71.28 71.31 70.91 70.47 69.54 70.08 69.35 68.70 68.20 68.29 69.29 69.46 69.79 69.12 68.76 69.35 69.69 69.92 70.21 70.82 71.40 70.53 70.33 69.93 70.67 71.02 70.66 70.93 71.49
67.48 69.64 70.52 70.50 71.03 71.52 72.23 72.86 72.84 72.45 72.57 72.08 71.51 71.30 71.17 70.89 71.03 69.70 68.05 67.36 67.26 68.16 68.57 67.88 69.02 69.56 68.79 68.86 69.18 69.29 69.15 68.99 68.99 69.49 70.50 69.21 69.10 70.05 69.83 70.51 69.86 70.55 70.30
66.80 68.67 70.00 69.64 70.22 70.43 70.73 71.32 72.09 72.70 72.48 72.21 71.61 71.14 70.43 70.18 70.27 69.41 67.96 67.35 66.92 67.16 68.07 68.82 68.56 69.37 68.63 67.44 67.04 66.35 67.87 67.95 67.85 68.43 69.67 69.50 68.65 69.35 69.60 70.18 69.54 70.08 70.25
65.80 68.14 69.46 68.84 69.06 69.55 69.68 70.26 70.66 70.86 71.42 71.90 71.81 71.41 70.88 70.39 70.01 69.09 67.22 67.13 66.18 66.29 66.92 67.98 68.20 68.46 67.77 67.11 66.47 66.27 66.64 66.46 65.61 66.77 68.26 68.62 68.32 68.47 69.54 69.49 69.59 69.77 69.96
65.31 67.81 68.02 67.69 68.16 68.86 69.18 69.34 69.05 69.44 69.91 70.06 70.30 70.53 70.49 70.14 69.70 68.36 68.24 66.80 65.88 66.33 66.86 67.72 68.20 67.96 67.22 66.67 66.03 65.77 66.17 66.38 66.01 66.12 66.64 66.75 67.96 68.10 68.47 69.47 69.28 68.98 69.10
64.69 66.21 67.77 66.91 67.76 68.64 68.56 68.25 68.54 68.54 68.68 68.98 69.08 69.19 69.17 68.57 67.82 67.17 66.18 66.51 66.92 66.66 67.60 67.09 66.13 65.77 65.27 65.35 64.77 64.73 64.85 64.87 65.52 65.61 65.59 66.49 67.31 67.20 68.59 68.79 69.32 69.43 68.99
63.67 65.36 66.57 67.17 67.52 67.81 67.67 67.58 67.43 67.61 67.61 67.68 68.27 68.49 68.37 68.07 67.80 67.68 67.41 67.27 66.98 66.97 66.85 66.08 66.20 65.84 65.20 65.54 65.32 64.74 64.67 64.89 66.41 66.41 65.93 66.58 66.46 67.23 68.22 68.23 68.32 67.98 68.05
64.95 65.24 66.10 66.52 66.64 66.19 65.79 65.89 66.11 66.73 66.96 66.55 66.56 66.25 66.34 66.36 65.96 66.09 66.31 66.03 65.83 65.12 64.91 64.80 64.45 64.41 63.68 63.02 62.19 62.02 62.47 62.69 65.16 65.10 64.13 65.17 64.23 65.78 67.26 67.72 68.43 68.38 68.14
65.53 65.72 66.00 66.77 66.47 66.53 66.68 64.89 65.14 65.67 66.09 65.89 65.69 64.92 64.48 64.30 64.28 63.66 63.53 64.44 64.33 64.05 63.75 63.33 62.87 62.39 61.71 61.38 61.21 60.60 60.10 61.17 63.59 64.08 64.27 63.68 63.66 65.52 66.85 67.14 67.53 67.84 68.46
64.95 66.01 66.34 66.17 66.04 65.22 64.83 65.03 65.30 65.69 65.72 65.72 65.56 64.30 63.94 66.23 64.76 63.88 63.11 63.31 63.15 62.61 62.17 61.74 61.15 60.34 58.86 58.44 59.01 58.62 58.74 61.92 61.89 62.15 62.29 60.96 62.41 63.87 64.93 65.42 66.25 67.01 68.00
64.73 65.76 66.01 66.49 66.20 65.31 63.49 65.00 66.07 65.93 67.28 67.42 67.31 66.41 66.32 65.46 64.90 63.25 62.29 61.78 61.39 61.19 60.58 60.08 59.52 58.61 58.41 60.92 61.54 59.36 62.01 61.84 61.89 61.76 62.05 60.68 62.10 63.31 63.89 64.08 64.32 66.03 66.59
65.81 66.15 65.98 66.43 66.71 65.99 65.18 65.42 65.68 66.14 66.48 66.60 66.36 66.33 66.15 65.70 65.52 64.80 64.06 63.49 62.96 60.09 60.98 60.42 60.88 61.57 60.65 60.89 60.88 60.69 60.58 60.55 61.49 62.02 60.41 59.04 58.93 60.84 62.39 63.41 63.72 64.18 65.78
65.52 66.59 67.01 66.82 66.43 66.49 66.27 65.92 65.38 65.36 65.94 66.08 66.22 65.49 65.79 64.78 64.33 63.50 62.82 62.69 62.54 62.14 60.91 61.42 61.77 60.67 60.10 59.61 58.86 58.38 58.29 59.81 60.26 59.64 56.79 56.04 55.88 56.54 57.89 59.80 61.59 63.53 63.98
64.73 66.24 66.99 66.51 65.75 64.96 63.26 64.64 65.06 65.22 65.69 66.03 65.57 65.37 64.86 64.02 63.31 62.24 61.89 61.78 61.57 61.42 60.57 60.91 60.20 58.33 56.70 55.75 56.41 55.75 55.62 56.10 57.73 55.91 55.15 53.13 54.79 55.97 57.63 58.54 59.35 60.95 62.35
64.11 64.93 65.19 63.60 63.12 62.36 61.98 63.41 64.41 64.68 64.99 64.86 64.94 64.59 64.18 63.45 62.91 61.98 61.58 61.19 61.00 60.79 60.83 60.72 58.94 56.07 55.00 54.33 54.11 53.28 53.43 54.43 56.10 54.86 54.23 54.27 52.76 54.87 57.15 57.88 59.05 60.12 60.95
62.15 62.24 62.06 61.84 62.40 62.06 60.77 60.46 60.55 61.37 60.56 62.29 62.80 62.83 62.57 62.18 61.89 61.26 61.10 60.97 61.11 61.14 60.61 59.27 56.55 55.68 54.08 52.75 52.44 52.44 52.48 53.01 54.26 53.20 53.48 54.01 54.23 53.09 54.68 55.51 57.40 56.38 57.09
58.77 59.53 60.26 60.19 61.11 61.25 60.41 60.27 59.83 59.03 58.44 58.23 58.21 58.76 59.36 59.64 60.13 60.40 59.89 60.01 60.74 60.25 59.62 58.36 56.81 54.61 52.48 51.73 51.69 51.74 51.65 51.95 51.98 51.66 52.16 53.04 53.41 53.54 53.88 53.57 53.90 54.01 55.20
57.39 58.51 59.03 59.97 59.97 59.88 58.84 58.95 59.18 58.66 58.35 58.11 57.27 56.81 57.48 58.05 58.70 58.89 58.59 58.62 58.82 58.04 58.07 57.68 56.37 53.99 52.32 51.37 50.66 51.26 51.48 51.02 51.55 50.46 51.01 52.16 52.18 52.83 53.70 51.61 51.60 52.21 52.71
56.44 57.51 58.49 58.36 58.12 57.69 56.79 56.12 55.48 55.10 55.37 55.09 55.22 55.15 55.52 56.12 57.06 57.41 57.54 57.31 56.97 55.82 55.74 55.55 54.93 53.79 52.13 51.39 49.39 49.30 51.25 51.26 51.04 51.16 50.73 50.66 51.73 51.87 52.33 51.63 51.72 51.31 51.00
54.04 55.44 56.58 55.70 55.31 55.29 54.26 53.09 53.37 53.02 53.31 53.74 54.00 53.73 53.88 54.17 54.76 55.54 55.64 56.12 56.10 54.94 54.86 54.63 53.64 52.50 50.96 50.69 48.98 49.37 49.77 50.60 50.58 50.57 50.74 50.15 50.34 51.23 50.99 51.58 50.42 49.24 49.65
52.87 53.56 52.37 51.17 51.01 50.90 51.62 52.01 51.97 51.59 52.18 51.77 52.55 53.36 53.67 53.26 53.37 53.24 54.19 54.12 54.57 53.69 54.40 53.86 52.41 51.20 50.43 50.96 48.38 48.18 45.27 47.78 48.40 49.34 49.65 49.37 49.17 50.32 48.96 48.70 47.69 48.55 48.68
50.61 50.15 50.02 50.37 50.88 51.60 51.52 51.99 52.38 52.44 52.76 52.26 52.58 52.34 52.94 53.01 52.68 52.47 52.61 52.78 53.18 53.31 52.18 53.73 53.14 51.25 50.32 50.25 49.83 48.04 44.84 43.21 46.76 47.76 47.82 48.08 47.94 46.73 48.01 46.63 47.28 46.72 47.10
49.71 51.37 51.82 51.96 52.22 51.79 52.20 51.51 50.39 49.17 48.19 49.91 50.23 50.83 51.14 51.95 51.69 51.46 51.10 51.31 51.92 52.38 51.62 51.61 51.91 50.82 49.82 48.38 47.75 47.46 47.17 45.53 43.49 42.85 44.22 45.25 46.34 44.73 44.74 46.66 46.11 45.59 47.60
50.27 50.63 51.34 51.73 51.56 51.31 51.11 49.92 49.25 48.74 49.03 49.27 49.27 48.83 49.49 50.34 50.66 49.71 49.05 49.27 49.84 50.51 50.40 49.52 49.63 48.35 48.32 48.09 46.05 45.28 43.99 43.81 43.99 40.87 40.42 42.13 42.10 43.82 44.20 44.77 45.05 45.51 46.15
51.01 51.13 51.44 51.18 51.12 51.58 51.34 49.41 48.56 48.00 47.67 47.68 47.97 47.66 48.04 48.00 48.11 46.74 46.86 46.97 46.74 46.04 45.70 46.00 45.79 45.09 44.56 44.29 44.23 43.17 42.46 40.32 39.97 39.81 37.29 37.04 38.25 42.43 43.06 43.47 43.76 44.90 45.18

GFSSE_sfc_wetblb_018.txt.gz
Wetbulb
68.22 72.03 71.43 71.71 71.84 72.15 72.18 71.83 71.55 71.60 72.33 72.87 72.91 72.79 72.71 72.59 72.29 72.16 71.70 71.69 71.38 70.39 70.09 69.76 69.59 69.81 69.50 69.48 69.00 69.72 70.17 70.03 70.20 70.18 70.60 70.49 70.48 71.18 71.55 71.20 71.35 70.99 71.40
69.53 71.82 70.85 71.37 71.70 72.35 72.30 72.15 71.58 71.83 72.19 72.51 72.43 72.04 71.87 71.79 71.18 70.58 70.43 69.26 68.94 69.00 69.08 68.40 69.33 69.78 70.04 69.25 69.46 69.58 69.41 69.67 69.95 70.05 70.27 70.09 69.94 70.13 70.64 70.22 70.52 71.27 71.16
68.49 71.16 71.72 71.11 71.45 72.28 72.96 72.78 72.30 72.24 71.82 71.48 71.23 71.30 71.08 71.24 70.14 69.42 67.92 67.88 67.87 68.78 68.85 68.94 69.01 69.56 69.54 68.80 67.40 68.11 68.58 68.40 68.79 69.10 69.17 69.69 69.21 70.16 69.77 69.80 69.88 70.35 70.25
68.31 70.06 71.05 69.91 70.72 71.08 71.50 72.01 72.31 72.50 72.09 71.71 71.50 70.97 70.61 70.12 69.65 68.87 68.32 67.32 67.57 67.57 68.13 68.69 69.19 69.41 68.64 67.33 66.81 66.41 67.03 66.96 66.98 67.62 69.72 69.91 68.87 69.06 69.60 69.66 69.58 70.15 70.13
67.86 69.28 70.45 69.25 69.44 69.90 70.18 70.28 70.43 70.66 71.29 71.38 71.31 70.82 70.31 69.80 69.53 68.73 68.45 67.65 66.81 66.77 67.17 68.37 69.05 68.56 67.64 66.67 65.71 65.78 66.09 66.41 65.83 66.38 68.63 68.90 69.65 69.09 68.75 69.14 69.73 69.71 70.11
65.93 67.48 68.14 68.10 68.34 69.10 69.14 68.85 69.25 69.74 69.90 69.85 70.13 70.49 70.53 69.91 69.23 68.69 67.94 67.10 67.09 67.14 67.58 68.26 67.35 66.52 65.60 66.31 65.33 64.88 65.13 65.67 65.43 67.87 67.49 67.62 67.71 68.30 67.89 68.61 69.11 68.88 69.03
65.44 67.11 67.55 67.47 68.18 68.58 68.19 68.24 68.32 68.40 68.65 68.97 68.87 69.29 68.89 68.45 68.13 67.47 66.44 66.30 66.76 66.90 67.65 66.49 66.45 65.16 64.90 64.79 64.92 64.79 64.78 64.59 66.83 68.22 68.17 68.26 68.62 66.60 67.76 67.78 69.30 68.67 69.68
65.50 67.13 67.22 66.92 67.98 67.92 67.59 67.73 67.94 67.86 67.79 68.07 68.27 68.56 68.22 67.91 67.73 67.59 67.68 67.41 67.19 66.83 66.64 66.03 66.19 65.92 65.93 65.29 64.51 63.96 64.03 64.10 67.04 67.87 67.80 68.23 65.88 66.05 67.30 67.42 68.73 68.41 68.80
65.97 66.87 68.02 68.40 67.62 66.35 66.39 66.34 66.76 67.21 66.92 66.76 66.63 66.57 66.44 66.28 66.21 66.03 66.29 66.06 65.59 65.35 65.05 64.79 64.34 63.77 63.39 62.62 61.68 61.47 61.78 62.23 67.40 67.97 66.96 67.71 64.73 66.07 66.72 66.37 66.87 67.96 68.50
67.01 67.21 68.30 68.73 68.69 69.12 68.32 65.16 65.95 66.56 66.44 66.26 65.58 65.10 64.91 65.10 64.45 63.65 64.30 64.73 64.32 63.97 63.52 63.32 62.82 62.26 61.52 61.30 60.80 60.05 59.90 61.52 66.34 66.85 68.17 65.75 63.08 65.13 66.31 66.12 66.42 66.62 67.51
67.02 68.37 69.12 68.84 69.29 69.44 68.58 67.26 65.15 65.66 66.21 65.95 66.13 64.35 64.75 68.91 67.92 65.98 62.94 62.97 62.76 62.40 61.95 61.51 60.80 59.81 58.78 59.23 59.04 58.59 59.34 65.13 65.07 65.42 65.54 61.45 62.23 63.67 64.11 64.63 65.05 66.23 66.35
66.93 68.32 69.67 69.96 69.53 69.39 67.23 68.80 68.96 68.43 69.66 69.43 69.43 69.01 69.02 68.69 68.13 65.24 63.85 61.56 61.05 60.65 60.05 59.55 59.27 59.15 59.65 62.69 63.24 60.09 63.22 63.54 63.61 63.96 64.41 60.67 61.36 62.83 63.39 63.75 63.96 64.58 65.74
67.55 68.49 69.36 70.04 70.03 69.35 68.87 69.00 68.28 68.41 69.16 69.65 69.48 68.94 68.72 68.11 67.98 67.61 66.75 65.80 65.77 61.91 63.49 62.12 62.67 62.30 61.92 62.12 61.41 61.84 61.59 61.62 61.60 61.88 61.05 56.86 56.81 58.29 60.14 61.27 62.50 63.72 64.08
66.46 68.44 69.61 70.05 69.83 69.81 68.69 68.06 68.38 67.30 68.20 67.68 68.47 68.57 68.23 66.99 66.88 66.32 65.19 64.53 64.42 64.04 63.26 62.58 62.64 63.01 62.09 61.03 60.31 59.79 59.77 59.74 60.29 61.14 58.40 54.51 55.42 56.47 57.65 58.96 60.13 61.30 63.05
66.69 68.23 69.86 70.67 70.27 68.78 67.87 68.16 68.20 67.74 67.47 67.83 67.34 67.16 67.86 66.22 65.39 64.88 63.96 63.51 62.94 62.66 62.28 62.04 61.96 61.42 60.34 58.67 57.53 57.07 56.34 56.90 57.69 57.52 58.03 52.93 54.47 56.65 57.74 58.58 59.32 60.41 61.17
67.04 68.36 70.14 70.35 70.11 67.59 66.07 66.94 67.38 67.95 66.95 67.02 66.02 65.75 67.06 66.58 64.84 63.53 62.41 61.68 61.52 61.68 61.57 61.51 61.22 60.77 59.07 58.20 56.73 56.68 55.83 56.02 56.60 57.01 56.26 55.63 53.10 54.97 56.25 57.37 58.99 58.82 58.80
66.43 67.70 69.05 69.70 67.98 66.22 65.36 65.05 65.57 65.97 65.32 64.35 64.15 64.71 65.04 65.30 63.97 63.26 61.78 61.12 61.05 61.69 62.29 62.12 61.54 60.57 59.03 57.90 56.12 55.92 55.72 55.82 55.92 56.18 55.49 55.85 54.74 53.82 54.61 55.18 55.19 55.53 56.29
65.07 65.59 67.53 66.90 65.84 65.61 64.45 64.59 64.37 64.14 63.48 62.90 63.02 62.75 62.69 62.87 62.87 62.31 61.04 60.86 61.40 61.46 60.96 60.33 60.10 58.93 58.43 57.34 56.00 55.46 55.19 55.32 55.37 55.38 55.18 55.25 55.41 54.85 53.39 53.61 53.55 54.18 54.69
63.04 63.75 65.49 66.61 64.77 64.08 63.79 63.45 63.68 63.00 62.73 62.52 62.57 61.57 61.37 61.33 61.46 61.18 60.39 60.54 61.43 60.45 59.89 59.69 59.15 59.01 57.62 56.67 55.69 55.28 55.36 54.88 54.90 54.16 54.46 54.82 55.16 54.46 54.75 52.34 51.95 52.01 52.15
60.91 62.47 64.84 64.68 62.91 62.52 63.19 62.49 61.18 60.30 60.25 60.47 59.82 59.74 59.28 59.05 59.17 59.31 59.25 59.75 60.34 59.49 59.00 58.60 58.47 58.71 57.81 56.85 54.79 53.85 54.47 55.20 55.23 54.59 54.47 54.36 54.79 54.51 54.73 54.45 54.34 52.96 50.47
60.27 60.87 61.26 60.92 59.55 60.84 60.76 58.18 58.34 57.69 58.00 58.23 58.87 58.53 58.90 58.65 58.24 58.43 57.88 58.10 58.46 58.01 58.12 58.56 58.02 57.32 56.82 57.37 54.84 53.90 54.03 54.94 54.88 54.59 54.59 54.31 53.92 53.68 54.48 53.95 53.40 52.86 52.51
58.07 57.96 57.24 56.23 55.89 56.40 57.99 57.81 57.40 56.95 57.82 58.07 58.56 58.02 57.57 56.81 56.70 55.96 56.33 56.03 56.40 56.07 56.55 57.00 57.02 56.09 56.36 56.68 53.68 52.51 49.36 51.71 53.67 54.15 54.37 53.68 53.95 53.54 52.90 52.66 51.91 51.41 51.84
56.19 56.26 55.76 56.22 56.76 57.11 57.05 58.02 57.92 58.09 57.78 55.96 54.58 54.36 55.12 54.99 54.91 55.17 55.04 55.12 55.19 55.17 54.32 55.34 55.63 55.11 53.70 55.55 56.34 52.13 48.95 47.35 50.72 53.69 53.18 53.20 53.19 52.51 52.55 51.36 50.18 50.40 50.51
56.07 57.05 56.72 56.49 56.36 56.27 56.44 55.63 54.77 53.72 52.37 53.28 53.95 54.11 53.86 54.23 53.59 53.65 53.64 53.87 53.96 54.04 53.65 54.06 54.20 54.21 53.97 52.21 54.07 53.93 53.97 52.19 48.03 46.29 50.67 51.86 52.27 50.77 51.01 50.57 49.72 49.88 49.74
56.19 56.42 56.98 56.27 55.91 55.90 55.24 54.28 54.16 53.24 53.94 53.92 53.53 53.00 53.42 53.08 52.83 52.41 52.47 52.38 52.90 53.07 53.10 52.34 51.75 51.91 51.63 49.70 49.47 48.85 46.93 48.15 50.08 46.05 45.37 45.69 49.59 49.99 49.37 48.66 49.48 49.68 49.61
56.48 56.49 56.39 55.34 54.54 55.03 55.18 54.22 53.36 52.58 51.33 51.00 51.52 50.70 50.53 50.78 50.95 51.40 51.12 51.38 51.56 51.23 50.86 49.85 47.10 45.21 44.65 44.31 42.92 41.82 41.26 39.74 39.98 39.56 41.08 44.29 44.34 45.86 46.88 48.46 48.31 48.37 49.24

GFSSE_sfc_wetblb_021.txt.gz
Wetbulb
70.73 71.86 71.93 72.00 72.16 72.56 72.23 71.74 71.50 72.02 73.05 73.11 72.39 72.47 72.49 72.89 72.56 72.35 72.06 71.84 71.38 70.08 69.45 69.65 69.91 70.14 70.50 69.70 69.75 69.69 70.25 70.44 70.30 70.05 70.14 69.59 70.04 70.85 71.40 71.18 71.59 70.37 71.53
71.49 72.36 71.60 72.12 72.52 72.60 72.17 72.10 71.72 72.41 72.32 72.02 72.31 71.97 72.21 71.60 71.46 70.69 69.48 69.05 69.66 69.37 69.56 69.19 69.80 70.40 69.67 69.95 69.29 69.30 69.23 69.07 69.34 69.30 69.59 69.45 69.72 70.59 70.23 70.41 71.22 70.67 70.81
71.22 71.89 71.91 71.33 72.15 72.67 72.53 72.43 72.17 72.29 72.02 71.53 71.48 71.32 71.41 70.69 69.98 68.96 68.49 67.96 68.53 68.85 69.26 69.61 69.67 70.35 69.26 68.30 67.43 67.96 68.19 68.07 68.25 68.66 69.81 67.39 68.20 70.73 70.14 69.49 70.25 70.27 70.02
70.28 71.63 71.69 70.43 71.01 71.27 71.82 71.90 72.51 72.28 72.01 71.57 71.13 70.79 70.69 70.48 69.49 68.85 68.10 67.73 68.13 68.03 68.16 68.86 69.34 69.18 68.04 66.97 66.67 66.29 66.56 66.76 66.91 67.62 67.83 69.58 68.17 69.46 70.30 69.56 69.32 69.64 69.51
69.15 70.63 70.37 69.53 69.72 70.27 70.62 70.57 70.96 71.40 71.42 71.36 71.21 70.81 70.27 69.78 69.42 69.22 68.59 67.65 67.16 67.59 68.25 68.56 68.74 68.16 67.49 66.78 66.01 65.68 66.00 66.60 66.78 66.58 67.70 68.46 69.04 68.52 69.39 68.66 69.46 69.81 69.95
67.49 68.82 67.96 68.31 68.87 69.23 68.67 69.14 69.53 69.76 69.96 70.23 70.68 70.78 70.58 70.05 69.55 68.70 68.02 67.65 67.97 67.91 68.38 67.52 66.97 65.73 65.62 66.06 65.10 64.78 64.83 65.43 66.02 67.28 67.42 68.07 67.72 68.84 68.05 68.03 68.86 68.91 69.25
65.10 66.34 66.80 67.60 68.67 68.51 68.29 68.42 68.47 68.50 68.77 69.01 69.34 69.27 68.88 68.65 68.25 67.61 66.93 67.05 67.52 68.06 67.48 66.93 66.78 65.55 65.28 65.64 65.65 65.55 65.57 65.59 65.75 66.85 66.52 66.21 67.22 67.67 67.84 67.96 69.02 68.76 68.64
65.22 66.38 66.02 66.91 68.22 68.12 67.80 67.75 67.74 67.70 67.84 67.97 68.45 68.22 68.11 67.74 67.60 67.65 67.41 67.25 66.82 66.74 66.21 66.25 66.32 65.98 65.45 64.56 63.69 63.54 63.74 64.01 66.49 66.36 66.68 66.28 66.31 66.33 66.99 67.64 68.07 68.02 68.35
65.73 66.41 66.94 67.66 67.48 66.92 66.77 67.05 67.34 67.40 66.81 66.72 66.51 66.60 66.38 66.36 66.16 66.37 66.14 65.84 65.57 65.29 65.05 64.55 64.10 63.77 62.97 62.16 61.50 61.46 61.66 62.79 65.09 65.77 65.66 65.23 65.10 65.95 67.28 66.97 67.08 67.31 67.59
65.87 67.18 67.80 68.12 68.07 68.68 67.90 66.02 66.74 66.73 66.33 66.06 65.50 65.04 65.22 65.46 65.22 64.50 65.44 64.82 64.36 64.01 63.40 63.12 62.63 62.15 61.85 61.52 61.04 60.82 61.24 62.28 64.59 64.98 65.34 62.30 63.59 64.58 65.42 66.24 66.36 66.83 66.68
66.03 68.04 68.21 67.67 67.77 67.42 66.53 66.61 65.47 66.51 66.64 66.08 65.92 65.04 65.31 67.86 67.51 66.55 63.68 63.30 62.81 62.46 62.07 61.75 60.98 60.65 61.05 61.24 61.02 60.85 61.29 63.29 63.85 63.78 64.15 62.42 62.85 63.17 64.35 64.47 64.70 65.35 66.48
65.56 66.70 68.47 69.32 68.46 67.19 65.41 67.15 67.20 66.53 68.06 67.83 68.23 67.90 67.35 67.61 67.36 65.51 64.17 62.89 62.72 62.34 61.91 61.46 61.12 60.77 60.82 62.28 62.48 61.20 62.65 62.45 62.08 61.96 63.63 60.99 60.53 61.52 63.28 63.82 63.98 64.39 64.86
65.75 66.38 67.86 70.09 69.36 68.21 66.95 65.96 66.86 66.78 67.28 67.83 68.23 67.88 67.48 67.05 67.54 66.38 66.04 65.80 66.00 63.09 64.25 62.29 62.44 62.53 62.65 62.30 61.35 61.09 60.88 61.02 60.55 60.61 59.46 57.04 56.56 58.29 59.97 61.12 62.00 63.37 64.15
64.62 65.71 67.53 70.65 69.97 68.65 67.44 66.29 65.96 66.02 66.69 66.68 67.18 67.19 66.60 65.54 65.81 65.33 63.87 63.56 63.51 62.76 62.91 62.67 62.19 62.63 62.91 62.07 60.94 60.03 59.49 58.97 58.33 59.52 58.31 55.50 54.46 56.40 58.00 59.21 60.22 61.17 62.66
64.16 65.48 66.98 69.94 71.05 68.68 67.60 66.75 66.52 66.08 66.47 66.58 66.88 66.04 65.69 64.70 64.51 63.89 63.45 62.57 62.23 62.00 61.82 61.61 61.43 61.09 61.22 60.78 59.79 58.61 57.78 57.61 57.84 57.74 57.94 55.24 54.40 56.78 57.84 58.37 59.41 60.41 61.18
64.70 65.61 67.31 68.95 71.07 68.88 65.72 66.43 65.97 66.69 66.36 66.02 65.50 64.42 64.79 64.84 64.66 63.46 62.64 61.86 61.61 61.31 61.31 61.30 60.99 60.58 60.37 59.82 59.09 58.60 57.70 56.88 56.87 57.62 57.17 55.80 55.24 55.64 56.40 57.36 59.13 58.95 58.67
64.62 65.73 66.99 68.94 70.54 68.41 65.56 65.19 64.44 65.06 63.73 64.04 64.13 64.19 63.69 63.71 63.34 63.09 61.81 61.61 61.35 62.34 63.96 62.02 61.30 60.96 60.21 59.95 58.84 58.30 57.25 57.31 56.65 56.70 57.15 56.39 55.11 54.92 56.12 56.68 55.93 55.75 56.20
64.45 63.88 65.81 68.04 69.15 67.61 65.27 64.93 64.24 64.09 63.30 62.67 62.99 63.18 62.64 62.72 62.80 62.44 61.16 61.19 61.97 62.15 61.24 60.41 59.98 59.26 59.20 58.92 58.89 58.08 57.48 56.87 56.56 56.63 56.65 56.23 55.86 55.77 55.27 55.32 54.82 54.84 55.02
63.52 64.05 64.64 67.83 67.54 66.41 64.91 63.86 63.97 63.47 62.50 62.41 62.97 61.94 61.66 61.74 61.41 61.12 60.55 60.73 62.49 60.79 61.31 60.91 60.03 60.35 58.70 58.57 57.99 58.88 58.25 56.53 57.01 55.68 55.77 56.42 56.69 55.89 55.63 55.48 54.79 54.47 53.80
63.35 63.23 64.52 66.48 66.26 64.52 64.26 63.39 61.68 61.30 60.75 61.35 60.57 60.23 60.61 60.52 60.52 60.03 59.73 60.11 60.23 59.24 59.50 60.05 60.35 59.96 59.34 58.88 57.48 57.21 58.86 58.04 57.53 57.36 55.78 55.59 55.84 56.55 55.71 55.37 52.98 52.17 53.39
62.94 63.73 64.45 64.17 62.41 61.80 61.16 59.12 58.85 58.63 59.23 59.40 59.81 60.18 60.04 59.50 58.99 58.65 57.85 58.01 58.36 56.83 58.21 59.21 58.65 58.21 57.93 59.42 57.76 57.53 58.06 58.53 58.12 56.90 57.47 56.57 55.92 55.77 56.31 55.23 55.45 54.72 51.87
59.74 60.07 59.66 59.23 58.72 58.83 59.30 58.53 58.85 58.68 58.85 59.17 59.74 59.13 58.78 57.61 56.99 56.27 56.50 55.59 56.99 55.55 57.05 57.41 57.55 55.84 56.71 58.12 55.65 55.24 52.21 54.12 57.01 57.24 56.78 56.52 56.94 56.35 55.54 55.54 55.35 54.74 53.98
58.58 58.54 58.33 58.46 58.54 58.56 58.70 58.92 58.50 58.67 58.66 57.34 57.07 57.05 57.52 57.38 56.21 55.34 55.32 54.72 55.19 55.69 54.57 56.04 55.93 54.99 53.39 55.28 56.91 53.95 49.87 48.78 52.56 55.98 56.17 55.52 56.01 56.32 56.08 55.40 55.09 53.67 52.61
58.02 58.77 58.37 58.06 57.83 57.91 58.04 56.75 56.25 55.33 54.50 56.18 56.63 57.05 56.35 56.53 55.52 54.63 53.90 53.64 53.68 53.95 54.19 54.32 53.59 53.61 53.35 51.18 53.39 53.33 53.24 52.51 47.21 47.17 53.64 53.17 53.85 53.00 53.66 55.04 54.46 52.49 52.06
58.25 58.51 58.49 57.79 57.26 57.38 57.04 56.43 55.93 55.09 55.49 55.83 54.78 54.04 54.16 53.87 53.66 52.76 52.84 53.14 52.36 52.40 52.77 52.54 51.92 50.89 50.57 49.13 47.59 46.28 47.22 49.15 49.24 43.34 43.03 48.11 49.91 51.49 51.73 50.81 53.42 51.63 51.39
58.19 58.08 57.83 57.18 56.88 57.09 57.12 56.58 55.21 53.90 53.22 52.41 52.49 51.70 51.45 51.58 51.57 51.98 51.37 51.80 51.77 51.84 51.35 49.84 48.14 46.21 45.17 44.80 43.58 41.53 39.61 38.15 37.91 36.66 36.89 38.27 37.16 44.42 45.44 48.15 47.94 48.59 50.10

GFSSE_sfc_wetblb_024.txt.gz
Wetbulb
69.15 70.75 72.35 72.88 73.20 72.96 72.60 72.43 72.55 72.82 72.87 73.18 73.24 73.09 73.16 72.92 72.34 71.69 71.36 71.22 70.90 70.50 69.65 69.87 71.32 70.80 70.44 70.28 69.79 69.88 70.52 70.47 70.45 70.96 70.77 70.28 70.29 70.59 71.21 71.44 70.98 69.33 71.90
70.43 70.86 71.74 72.74 72.91 72.82 72.72 72.80 72.58 72.37 72.73 72.65 72.58 72.71 72.26 71.78 70.84 69.96 70.40 70.75 70.70 70.10 70.28 70.16 70.49 70.53 70.01 68.79 68.90 68.91 69.10 69.31 69.47 69.88 70.35 70.52 70.60 69.87 70.21 71.12 71.12 70.62 71.75
69.85 70.47 70.89 71.76 72.64 72.83 72.96 73.11 73.07 72.76 72.51 72.46 72.45 72.21 71.50 70.51 69.73 69.45 69.40 69.06 69.11 69.02 69.40 70.00 69.96 69.89 68.88 68.16 67.58 67.30 67.65 68.20 68.25 68.58 69.24 66.42 67.48 68.39 69.46 70.45 70.90 71.26 71.24
70.68 70.16 69.69 70.58 71.29 71.92 72.04 72.49 72.85 72.57 72.48 71.98 71.69 71.81 71.05 70.10 69.52 69.06 68.69 68.49 68.45 68.64 68.93 69.54 69.57 68.90 68.27 67.22 66.77 66.90 66.97 67.17 67.46 67.66 65.10 65.47 68.05 67.94 67.24 68.82 69.99 70.26 70.41
69.13 69.22 68.70 69.15 69.86 70.60 70.94 71.26 71.50 71.47 71.57 71.74 71.57 71.33 71.04 70.11 69.77 69.45 68.60 68.22 68.35 68.45 68.77 68.52 68.16 68.03 67.23 67.15 66.59 65.91 65.90 66.63 67.15 66.03 63.38 65.67 66.12 67.64 68.48 69.07 69.52 70.06 70.09
67.25 67.32 66.91 67.92 68.87 69.36 69.81 70.14 70.10 70.16 70.48 70.82 70.98 70.93 70.52 69.98 69.19 68.43 67.94 67.92 67.96 68.20 67.83 67.36 66.48 65.56 65.60 65.80 65.77 65.65 65.93 66.12 65.99 62.46 63.57 65.96 65.16 67.61 68.82 68.57 69.11 68.90 68.78
64.75 65.33 65.84 67.57 68.68 69.06 68.95 68.51 68.99 69.18 69.43 69.53 69.44 69.20 69.06 68.82 68.45 67.95 67.75 67.83 67.94 67.66 67.17 66.92 66.42 66.02 66.15 65.96 65.51 65.31 65.47 65.41 64.50 63.17 64.24 65.48 66.11 63.01 66.81 67.29 68.59 68.73 68.59
63.66 63.95 64.91 67.80 68.33 68.43 68.50 68.38 68.16 68.30 68.33 68.61 68.53 68.47 68.04 67.67 67.74 67.50 67.15 66.69 66.43 66.21 65.95 66.03 65.87 65.31 64.58 64.02 63.47 63.57 63.67 63.82 63.43 62.99 64.16 64.48 67.09 66.92 67.07 67.43 68.21 68.15 68.05
64.07 64.30 65.11 65.23 66.62 67.25 66.99 67.08 66.95 67.02 66.97 67.02 67.08 67.02 66.90 66.89 66.86 66.64 66.32 65.83 65.47 65.19 64.89 64.37 63.94 63.57 63.15 62.75 62.52 62.63 62.51 62.81 61.34 62.23 64.10 63.39 66.88 66.66 66.61 67.07 67.65 68.06 67.45
64.69 65.16 65.59 65.99 66.08 65.82 65.37 66.00 66.33 66.33 66.24 66.28 66.07 65.72 65.68 65.72 65.91 66.27 65.75 65.00 64.26 63.76 63.30 62.79 62.60 62.67 62.83 63.00 62.87 62.67 62.13 62.01 59.73 61.50 63.05 62.29 65.83 65.55 65.02 65.22 65.57 66.05 67.33
64.31 66.58 66.75 65.84 66.44 66.96 65.88 65.77 66.03 66.49 66.30 66.02 65.63 65.12 64.04 65.60 65.09 65.48 64.07 64.28 63.75 63.23 62.97 62.62 62.32 62.14 62.18 62.23 62.75 62.27 62.05 58.77 59.51 58.88 60.79 63.55 63.82 63.81 63.96 64.22 64.71 64.96 65.80
64.23 65.35 66.92 66.82 66.29 65.62 64.32 64.99 66.44 66.86 66.18 66.47 66.49 66.41 66.19 65.57 65.25 64.86 64.47 63.76 63.95 63.63 63.42 63.02 62.74 62.38 61.51 58.56 59.59 61.42 59.46 59.41 57.82 57.58 59.80 62.20 61.46 61.05 61.89 63.67 64.23 64.58 64.90
64.43 64.82 66.94 68.57 67.60 67.42 66.03 64.19 65.57 65.41 65.87 67.01 67.63 65.68 66.12 64.94 66.03 64.59 64.04 62.74 62.40 62.84 62.06 61.42 60.68 59.59 60.59 59.60 58.78 58.27 57.92 56.88 56.03 56.84 58.17 59.78 59.37 58.45 59.10 61.13 62.25 63.38 64.34
63.81 65.19 67.89 68.97 68.38 66.87 66.31 65.06 64.80 64.67 65.14 65.25 65.13 65.46 64.22 63.49 63.65 62.15 61.49 60.44 60.16 59.79 59.47 59.14 58.71 60.04 59.31 60.19 59.35 57.65 56.75 55.73 54.60 54.66 54.47 57.75 57.59 56.22 57.75 59.90 61.27 61.96 62.77
62.62 64.43 66.05 68.94 69.53 68.00 66.08 65.90 65.27 64.56 65.44 64.57 64.73 64.64 64.00 62.58 62.24 62.04 60.87 60.44 59.77 59.33 58.24 58.14 57.62 57.69 58.01 58.31 58.20 56.89 55.75 55.03 54.92 54.13 53.55 56.13 56.59 56.46 57.31 59.19 60.55 61.51 62.16
63.50 64.87 66.69 67.95 69.94 68.44 65.62 64.81 64.38 65.06 65.12 64.67 63.41 62.66 63.24 62.51 62.10 61.22 60.25 59.87 59.14 59.03 58.75 57.81 57.42 57.64 57.21 57.50 56.80 56.85 55.36 54.38 53.87 53.61 53.63 52.04 56.17 57.89 58.37 58.20 59.31 60.58 61.59
62.82 65.26 66.40 65.57 69.27 68.16 65.24 64.23 63.22 63.24 61.93 61.79 62.53 62.04 61.79 61.64 60.79 60.39 59.49 59.12 59.00 59.64 59.14 58.43 58.09 57.38 56.87 57.39 56.32 56.53 55.91 54.94 54.11 53.71 53.58 53.41 52.31 56.34 57.55 57.99 59.06 58.56 58.45
63.56 62.22 64.29 66.53 68.78 67.87 65.78 63.87 62.66 62.36 61.58 61.11 60.90 61.24 60.98 61.03 60.81 59.63 59.07 58.79 59.56 59.42 58.35 57.81 56.91 56.02 55.40 55.35 54.96 55.21 54.51 54.43 53.78 53.40 53.31 53.29 52.64 52.21 55.05 57.76 58.47 57.50 57.27
63.58 63.53 63.95 66.49 67.13 66.87 65.21 63.14 62.44 61.98 60.75 60.75 61.28 60.05 60.58 59.71 60.28 58.62 57.80 58.03 58.89 57.59 57.08 57.14 55.93 55.92 54.54 54.61 54.96 54.40 54.77 54.03 53.50 54.53 52.58 52.71 52.89 52.42 51.85 55.28 56.95 56.87 57.35
63.32 63.81 64.31 65.61 64.99 63.98 63.23 61.86 60.64 59.97 59.75 59.84 59.25 59.03 59.13 58.16 58.79 57.56 56.64 56.77 57.37 55.50 54.72 54.70 54.76 54.67 54.51 54.42 55.93 55.42 54.60 55.17 54.75 52.56 52.29 53.82 52.26 52.60 52.45 51.84 52.60 52.68 55.46
63.25 62.42 62.58 60.77 61.14 60.22 59.63 57.49 57.37 56.98 57.75 57.72 58.30 59.12 58.02 57.92 56.54 55.54 54.79 54.36 54.26 53.40 53.45 53.70 52.67 51.46 51.84 52.91 52.64 52.31 53.02 54.35 54.81 55.03 53.68 51.95 51.96 52.53 52.38 52.30 50.64 49.56 50.68
58.61 58.98 58.93 58.53 58.47 58.01 57.60 57.13 57.17 56.85 57.43 57.42 57.98 56.78 57.69 56.57 55.77 54.73 53.45 52.49 52.40 51.64 51.15 51.10 50.79 50.67 50.65 51.27 50.27 49.55 46.67 49.28 51.58 53.07 54.39 53.44 51.89 53.00 51.98 52.39 51.91 51.26 49.82
57.44 57.82 57.57 57.77 57.74 57.64 57.43 57.13 56.53 56.46 56.74 55.43 55.40 55.23 56.57 55.84 54.79 54.75 53.86 52.87 51.50 50.87 49.52 49.40 49.55 48.81 48.02 49.24 50.10 48.05 44.41 43.04 46.44 49.67 50.68 51.33 52.66 52.52 52.89 52.56 52.62 52.15 50.89
57.26 58.29 57.80 57.71 57.35 57.15 56.85 55.47 55.24 54.12 53.00 53.89 54.26 53.69 54.25 54.81 53.54 52.09 51.39 50.94 50.46 50.30 48.82 49.16 50.51 48.61 47.28 45.13 46.70 46.05 44.38 44.06 42.51 42.24 45.82 48.21 49.39 49.06 49.52 49.88 50.00 51.24 51.46
57.84 57.78 57.82 57.41 56.90 57.10 56.54 56.36 54.64 53.13 52.83 52.81 52.50 52.01 51.20 51.76 51.14 50.72 49.92 48.91 49.23 49.09 48.92 48.21 46.33 44.84 44.24 42.69 41.90 41.26 40.52 40.75 40.71 39.45 37.66 39.71 41.64 42.53 43.43 45.88 47.62 48.98 49.78
58.11 57.61 57.64 56.70 56.49 57.03 55.72 55.16 53.58 52.17 51.79 50.53 50.61 49.63 49.36 49.01 48.59 48.53 48.97 48.23 48.33 48.47 48.24 47.17 46.31 43.67 44.09 42.66 41.66 40.08 38.16 37.09 36.60 35.12 34.71 34.09 35.10 38.84 40.98 43.07 43.74 46.23 48.08

GFSSE_sfc_wetblb_027.txt.gz
Wetbulb
68.59 70.99 71.82 72.52 72.41 71.84 71.86 71.97 71.92 72.07 72.62 73.03 73.05 73.06 72.61 71.97 71.53 71.46 71.42 71.33 71.46 71.17 70.72 70.95 71.09 70.62 70.20 69.64 69.54 69.38 69.28 69.59 69.56 70.01 69.66 69.53 70.03 70.28 70.72 71.57 70.74 70.20 71.97
69.69 71.18 71.45 72.14 72.24 72.35 72.55 72.28 72.28 72.36 72.62 73.02 72.46 72.44 71.87 71.31 70.91 70.46 70.70 70.66 70.47 70.08 70.43 70.40 70.42 69.84 69.37 68.61 68.14 68.38 68.43 68.73 68.33 68.52 68.88 68.79 70.06 69.79 70.30 71.07 69.58 70.35 71.48
68.97 70.93 71.61 71.51 72.37 72.71 72.88 72.70 72.57 72.53 72.73 72.53 72.09 71.66 71.14 70.50 70.24 70.02 69.49 69.46 69.30 69.26 69.45 69.86 69.89 69.29 68.51 67.74 67.29 67.32 67.53 68.02 67.88 67.89 68.24 64.34 66.65 68.49 68.59 69.75 70.12 69.70 70.77
68.81 69.45 70.36 70.79 71.35 71.95 72.20 72.30 72.28 72.42 72.01 72.01 71.79 71.31 70.91 69.95 69.60 69.21 68.91 69.18 69.41 69.25 69.47 69.49 69.32 68.95 68.19 67.42 66.87 66.57 66.47 66.91 67.11 67.29 63.45 64.16 67.10 66.98 66.48 67.61 69.56 70.08 70.20
67.07 67.76 68.83 69.24 69.90 70.77 71.00 71.18 71.38 71.48 71.59 71.41 71.07 71.17 70.86 70.13 69.97 68.97 68.68 69.12 68.85 68.71 68.51 68.20 67.44 66.63 66.27 66.64 66.35 66.19 66.07 66.35 66.34 64.94 61.23 63.60 66.12 65.33 66.01 67.33 68.23 69.21 69.16
64.21 64.56 66.66 67.66 68.75 69.82 70.09 70.21 70.22 70.32 70.36 70.40 70.52 70.82 70.01 69.19 68.57 68.07 68.19 68.05 68.13 68.13 67.69 67.22 66.42 65.78 66.01 66.31 66.22 66.01 65.91 65.89 65.89 62.13 61.36 65.24 65.81 67.32 67.76 67.96 68.05 66.87 68.23
61.54 63.51 65.79 67.15 68.34 68.98 68.99 68.86 69.12 69.32 69.28 69.36 69.38 69.45 69.00 68.52 68.36 68.09 68.04 67.88 67.44 66.93 66.79 66.79 66.40 66.10 65.64 65.18 64.62 64.40 64.27 64.06 62.70 60.28 61.17 64.19 62.91 65.49 66.38 67.17 68.34 67.36 68.32
61.03 62.87 65.05 67.72 67.80 68.13 68.02 67.96 67.68 67.91 68.25 68.34 68.38 68.48 68.17 67.93 67.87 67.21 66.81 66.36 66.12 65.77 65.53 65.03 64.77 64.57 64.09 63.93 63.69 63.24 62.74 62.94 61.60 59.53 63.20 63.54 66.19 66.27 67.35 66.77 67.37 67.37 67.76
61.05 61.37 63.13 65.03 66.55 66.64 66.15 66.09 66.11 66.42 66.44 66.52 66.66 66.59 66.57 66.75 66.87 66.86 66.31 65.72 65.19 64.77 64.22 63.72 63.42 63.43 63.56 63.63 63.37 62.81 62.17 62.81 60.59 59.17 61.68 62.56 67.78 67.47 67.07 66.85 67.02 67.32 67.41
61.06 62.15 61.58 63.00 63.70 63.68 64.16 65.32 65.22 65.22 65.09 65.14 65.43 65.37 64.97 65.33 65.84 66.06 65.50 65.38 64.85 64.23 63.48 62.68 63.02 62.99 63.15 63.00 63.03 62.72 62.32 62.41 56.84 57.49 60.69 61.83 66.22 66.05 65.62 65.38 65.15 65.19 66.01
60.80 61.05 62.22 61.72 62.56 62.37 62.63 64.95 65.27 65.73 65.35 64.80 64.88 64.62 63.55 63.09 63.53 64.76 64.07 64.43 64.33 63.94 63.55 63.28 62.98 62.62 62.06 61.72 61.65 61.89 62.00 58.58 57.18 56.99 59.43 63.87 64.90 64.23 64.28 64.42 64.27 64.35 64.85
60.59 61.64 62.10 61.43 62.37 62.58 64.31 63.46 63.09 64.39 64.37 63.84 63.97 63.27 62.72 62.32 62.59 63.78 62.91 63.75 64.05 63.90 63.54 63.30 62.99 62.32 61.78 57.96 56.62 60.89 58.91 57.83 55.81 54.81 58.82 62.78 63.25 62.90 62.73 63.14 64.05 64.42 64.67
61.25 62.15 62.66 61.37 61.42 61.73 60.82 61.52 62.63 62.94 63.17 63.13 63.21 61.38 61.32 61.81 61.58 61.35 60.42 60.73 59.85 62.28 60.27 61.10 60.14 59.45 58.60 57.56 56.78 56.28 56.31 55.00 53.22 53.29 58.53 61.33 61.66 60.88 60.36 60.81 61.72 62.79 63.72
60.05 62.48 63.47 62.62 62.28 61.21 60.91 59.48 59.92 60.66 60.71 62.72 61.98 61.01 59.59 59.69 57.79 58.26 57.22 56.94 57.27 58.12 58.38 57.85 57.03 56.91 56.87 57.17 57.65 56.63 55.36 53.53 52.75 52.18 54.48 58.91 59.61 58.91 58.99 59.28 60.69 61.65 62.48
59.55 63.46 63.90 63.60 62.36 62.29 60.76 59.78 59.39 59.75 60.49 60.01 60.58 60.51 59.35 58.96 57.49 57.66 56.90 56.80 56.06 55.83 54.87 54.67 54.71 55.15 55.47 55.83 55.72 55.58 54.80 53.54 53.15 52.28 50.97 57.13 57.61 58.72 58.14 58.25 59.65 60.93 61.93
59.73 63.68 65.09 64.67 63.89 63.33 61.07 59.48 59.46 59.35 59.66 59.63 59.34 59.06 59.70 58.79 57.60 57.48 55.85 56.75 55.64 55.49 55.60 55.17 54.58 54.30 54.51 55.04 55.35 55.28 54.63 53.10 52.57 52.09 51.53 51.24 56.52 57.70 58.84 58.46 59.17 59.95 60.95
59.06 64.15 65.40 63.40 64.63 63.70 60.28 59.02 58.08 60.19 57.42 57.60 57.48 58.35 58.69 58.11 56.50 56.23 55.38 55.64 56.04 56.37 55.65 55.13 55.04 54.79 54.03 54.85 54.24 54.58 54.56 53.92 52.63 52.02 51.57 51.17 51.57 56.48 57.79 59.75 58.97 59.18 60.44
61.35 63.55 64.52 66.00 63.03 64.13 60.03 57.91 57.52 57.04 56.20 55.75 56.28 57.25 57.26 57.65 57.18 55.58 54.65 54.43 55.67 55.72 54.91 54.46 53.95 53.68 53.30 52.92 52.25 52.43 53.32 53.12 52.63 52.61 52.40 50.96 50.52 51.75 55.27 57.92 59.08 60.44 59.46
58.29 58.48 60.47 62.30 63.40 61.60 59.34 58.21 56.79 56.79 55.89 55.37 55.98 55.61 55.90 56.38 56.66 54.38 53.68 53.95 53.70 54.22 53.56 53.25 52.74 52.18 52.20 51.79 52.68 52.59 51.68 51.53 52.39 54.04 52.22 51.37 50.40 50.66 49.46 54.45 57.23 58.59 59.07
58.86 58.72 58.44 58.41 58.23 59.05 57.77 56.87 55.69 54.48 54.40 54.52 54.09 54.54 54.64 54.86 54.35 52.22 52.20 51.99 51.57 50.70 50.48 50.40 49.55 49.81 50.03 50.72 52.73 52.99 51.72 51.79 52.25 51.56 51.20 51.90 51.06 51.13 50.41 49.83 52.72 53.80 56.67
54.73 55.30 54.77 54.31 53.50 53.81 52.44 51.41 51.31 51.07 51.91 52.59 53.71 53.72 53.49 53.52 53.12 52.10 51.60 50.03 49.83 49.24 48.75 48.64 48.12 47.80 48.62 48.85 47.90 48.62 48.64 49.63 49.99 51.36 52.30 50.97 50.33 51.23 50.92 50.61 50.63 51.02 52.27
52.14 52.73 53.19 53.27 53.04 52.78 51.98 51.54 51.90 51.39 52.07 52.48 53.49 52.81 53.51 52.63 52.14 52.15 50.11 49.69 49.08 48.61 47.58 46.88 46.40 45.86 46.34 47.08 45.25 45.71 43.35 45.37 46.76 48.69 48.78 51.09 49.95 51.65 52.66 52.67 51.31 49.75 48.36
51.03 51.22 52.37 52.57 52.74 52.33 51.85 51.69 51.51 51.62 50.73 50.34 50.62 50.55 51.17 51.09 50.27 48.71 48.06 47.58 46.84 47.66 46.22 45.52 45.88 45.02 44.01 44.78 44.15 42.70 40.15 40.15 41.34 45.53 46.37 46.66 46.54 44.39 45.43 48.92 50.15 51.71 50.92
51.07 51.74 52.08 52.50 52.00 52.83 52.01 51.05 49.92 48.42 47.39 48.59 48.59 48.90 48.96 48.78 48.31 48.32 47.41 46.18 45.96 46.74 45.46 46.25 45.21 43.02 42.14 39.87 41.45 43.41 41.60 42.28 37.22 36.53 42.72 42.76 41.90 41.95 42.05 43.95 46.68 49.66 50.73
51.76 51.15 51.36 51.84 52.12 52.16 52.06 51.20 50.13 48.20 48.94 48.98 48.24 47.29 46.54 46.87 46.61 46.24 46.28 45.51 45.01 45.19 45.49 43.54 42.70 44.31 43.86 42.30 41.30 38.38 37.84 37.82 37.93 35.21 34.02 36.04 37.68 38.64 40.29 41.54 42.75 46.14 48.45
51.35 50.89 50.91 51.20 51.82 51.80 51.15 50.61 49.26 48.16 48.28 47.24 46.02 44.54 44.33 44.15 44.26 44.54 44.82 44.14 44.98 44.76 44.28 45.66 44.72 43.67 43.04 42.21 39.19 37.28 36.87 36.36 34.97 34.42 33.41 32.08 33.23 35.57 37.76 39.82 40.95 42.69 46.33

GFSSE_sfc_wetblb_030.txt.gz
Wetbulb
69.13 70.73 71.61 71.76 71.67 71.67 71.59 71.63 71.91 72.12 72.51 73.13 73.00 72.60 72.03 71.72 71.68 71.63 71.47 71.55 71.54 71.02 70.77 70.92 70.58 70.14 69.67 69.26 68.96 68.80 68.53 68.50 68.74 68.64 68.94 68.83 69.69 69.49 69.83 70.92 71.11 70.11 71.01
69.87 70.91 70.83 71.66 71.97 71.92 71.92 71.87 71.95 72.47 72.73 72.71 72.08 71.76 71.31 71.08 71.01 70.34 70.08 70.04 70.41 70.15 70.20 70.38 70.11 69.52 68.91 68.41 67.80 67.80 67.65 67.93 67.89 67.98 67.60 67.50 69.63 68.53 68.54 69.84 70.40 69.60 70.54
69.94 70.83 71.15 71.34 72.31 72.38 72.43 72.35 72.44 72.94 72.31 71.79 71.25 71.00 70.57 70.10 69.76 69.25 69.05 69.27 69.55 69.60 69.99 70.02 69.45 68.90 68.25 67.55 67.06 66.81 66.76 66.96 67.42 67.40 66.62 62.31 66.60 67.40 68.01 69.02 69.55 70.62 70.20
69.93 70.42 70.71 71.17 71.75 72.26 72.14 72.12 71.76 72.09 71.71 71.55 71.00 70.32 69.97 69.79 69.35 68.94 68.82 69.62 69.37 69.18 68.94 68.70 68.25 67.51 67.10 66.81 66.31 66.35 66.28 66.30 66.56 66.73 61.53 62.75 66.44 66.29 66.54 66.99 68.72 69.11 68.92
67.67 69.01 69.68 69.89 70.45 71.25 71.23 71.39 71.56 71.37 71.25 71.28 71.08 70.32 70.27 69.79 69.17 68.51 68.40 69.08 68.60 68.25 68.13 67.50 66.82 66.10 65.82 65.68 65.74 65.74 65.62 65.72 65.98 63.43 60.54 63.40 65.08 67.06 67.43 66.18 67.12 68.79 68.94
64.17 65.49 67.42 68.36 69.47 70.38 70.69 70.72 70.93 70.79 70.62 70.57 70.55 70.35 69.67 68.83 68.10 67.74 67.97 68.15 67.98 67.55 66.78 66.48 66.35 66.27 65.63 65.43 65.07 64.72 64.51 64.40 64.48 60.27 60.48 64.02 65.30 64.79 66.90 66.99 68.00 68.33 68.34
61.71 63.89 65.73 67.24 68.45 69.14 69.41 69.29 69.66 69.51 69.34 69.42 69.50 69.35 68.55 68.08 68.00 67.85 67.59 67.11 66.35 66.06 66.06 65.91 65.43 64.95 64.60 64.30 64.02 63.88 63.80 63.54 60.41 57.94 60.34 63.19 63.97 67.95 67.68 67.92 68.03 67.78 67.73
62.10 63.85 65.27 67.59 68.06 68.12 68.25 68.18 68.03 68.13 68.39 68.46 68.53 68.65 68.18 67.83 67.45 66.81 66.39 65.94 65.52 65.21 64.61 64.09 63.64 63.73 63.78 63.87 63.94 63.69 62.90 63.19 60.88 57.87 60.34 62.53 63.80 66.90 67.43 67.58 67.52 67.11 67.11
61.88 62.53 63.55 64.81 66.06 66.40 65.85 65.98 65.96 66.54 66.85 66.96 66.98 66.92 66.81 66.63 66.67 66.75 66.09 65.54 64.91 64.35 63.58 62.93 63.09 63.18 63.25 63.20 63.07 62.66 62.12 62.70 58.92 56.79 58.92 61.88 66.62 66.79 65.71 66.30 66.31 66.30 67.15
59.91 61.94 61.70 62.77 63.26 62.74 63.23 65.12 65.06 65.15 65.32 65.49 65.73 65.47 65.15 65.46 65.63 65.96 65.53 65.50 65.03 64.35 63.49 63.26 62.98 62.67 62.66 62.37 61.98 61.61 61.49 61.90 56.80 55.83 58.92 60.66 66.43 66.57 65.94 65.53 65.35 65.28 65.20
59.42 59.67 60.90 61.29 61.82 62.04 62.62 64.20 64.97 65.28 64.92 64.66 64.60 64.50 63.18 62.91 63.53 64.29 63.60 64.16 64.62 64.05 63.49 63.38 63.15 62.42 61.71 61.40 61.42 61.10 61.94 57.60 56.26 55.09 58.09 61.72 65.17 65.99 65.75 65.00 64.51 64.33 64.56
58.66 59.67 60.27 60.71 60.72 61.41 63.65 63.03 62.59 63.73 63.10 62.77 62.77 62.50 62.07 61.37 61.35 63.69 63.38 63.73 64.17 63.73 63.65 63.57 63.29 62.79 61.72 57.81 56.53 59.07 57.15 56.80 55.52 52.92 56.32 61.46 64.00 64.62 64.19 63.98 64.30 64.16 64.51
59.85 61.21 60.73 61.65 61.42 60.19 61.05 61.24 61.12 61.96 62.11 62.28 62.38 62.21 61.18 61.78 61.71 61.21 59.54 60.60 59.39 61.42 59.59 59.99 59.58 58.70 57.99 56.99 56.52 55.68 55.85 55.12 52.68 52.11 54.60 61.44 62.49 62.44 62.44 61.90 61.93 62.39 63.00
59.86 60.61 60.60 60.19 61.21 59.72 59.38 60.35 61.03 61.26 61.87 61.96 61.97 60.66 58.70 58.74 56.39 57.31 58.72 57.75 57.12 56.08 57.44 57.27 56.88 56.43 55.77 56.25 55.83 55.75 55.55 53.95 52.27 51.97 52.55 59.72 60.93 61.40 61.45 60.98 60.79 61.17 61.97
60.03 61.08 60.48 60.60 59.92 59.40 58.66 58.58 58.73 59.35 61.03 61.37 59.99 59.22 58.61 56.83 55.90 55.97 55.61 55.07 54.75 54.41 53.81 53.32 53.28 53.53 53.64 54.24 54.43 54.28 54.32 53.90 52.86 52.15 50.70 56.32 59.14 60.06 60.30 60.49 60.31 60.34 60.88
60.80 61.19 61.38 61.30 61.16 61.29 59.50 59.01 58.66 59.86 58.75 59.26 58.75 58.31 58.60 57.85 56.29 56.30 54.55 54.96 54.46 54.43 54.84 53.91 53.46 53.39 53.72 54.16 54.51 54.94 54.68 53.67 52.72 51.83 51.22 50.82 57.12 58.75 59.48 59.71 60.10 60.03 60.13
61.23 63.11 62.71 63.60 63.41 62.44 62.22 59.80 58.04 58.82 58.02 58.15 57.59 57.86 58.24 57.16 56.02 54.83 54.24 53.97 53.80 54.62 53.74 53.41 52.91 53.15 52.86 53.80 52.72 53.22 53.04 53.37 52.97 52.15 51.44 50.76 51.12 56.96 57.90 59.60 60.59 60.28 59.89
62.64 63.56 63.64 63.41 61.94 60.47 61.64 60.46 58.26 56.28 54.54 55.57 55.87 55.83 56.34 56.48 55.59 54.04 52.89 52.66 52.95 52.90 52.15 51.34 51.26 50.49 50.14 50.21 50.11 51.18 51.44 52.19 52.31 52.20 51.58 50.51 50.65 51.54 54.44 57.77 59.24 60.48 60.39
59.11 62.27 61.07 61.14 59.82 58.48 60.48 58.84 56.33 55.51 53.93 53.99 53.97 54.43 54.84 55.94 55.07 52.53 51.44 50.83 50.94 49.96 49.58 49.74 48.42 48.44 47.54 47.79 49.33 49.73 49.53 50.01 50.53 53.11 51.66 51.16 50.02 51.24 50.29 53.43 57.44 58.24 59.26
56.82 58.16 58.15 58.63 58.98 59.86 57.12 54.91 53.54 53.02 52.31 53.00 52.61 52.37 52.91 52.17 52.15 50.85 50.60 49.72 49.12 48.46 48.30 47.22 46.32 46.78 46.38 46.35 48.99 48.60 48.15 49.15 49.73 49.77 50.29 51.86 50.71 49.58 49.68 49.18 49.94 53.91 56.82
53.26 53.43 53.98 54.01 52.57 52.16 51.67 51.30 51.08 50.10 50.54 51.26 51.32 51.98 51.61 51.18 51.33 49.22 48.24 47.93 47.86 47.31 46.63 46.40 45.98 45.11 44.66 45.50 44.69 45.54 45.67 46.93 46.77 46.41 47.76 48.71 49.34 49.98 50.15 50.62 49.06 49.92 51.85
52.20 51.70 51.73 51.46 51.00 51.20 50.54 49.80 50.13 49.70 50.31 50.02 49.87 49.87 49.71 48.62 48.42 47.67 45.95 45.89 45.60 46.39 45.63 44.63 44.48 44.50 44.64 43.39 41.78 42.14 40.74 43.24 43.32 43.79 45.26 46.97 43.98 44.62 45.06 46.56 48.29 50.28 48.41
49.42 49.85 50.84 50.81 50.83 50.37 50.75 50.39 49.81 49.34 48.64 47.88 47.69 47.24 47.05 47.15 46.77 46.09 45.23 44.65 44.35 45.16 44.14 43.84 43.27 42.84 41.33 41.40 42.17 41.71 37.62 35.50 37.52 41.09 41.11 42.42 41.46 41.14 41.61 43.11 45.74 49.29 50.32
48.89 49.77 50.12 50.65 50.66 51.07 50.73 49.84 48.80 47.17 46.06 46.57 46.38 45.59 45.33 45.64 45.25 45.42 44.49 43.75 43.23 43.91 44.10 43.87 43.63 41.35 42.40 41.21 42.85 43.00 42.22 40.59 35.43 33.05 37.97 39.20 38.72 39.09 38.73 39.93 42.45 45.84 49.10
49.89 49.15 49.35 50.67 51.07 50.69 50.45 49.54 48.20 47.03 46.90 46.60 45.32 43.90 43.79 44.29 44.68 44.40 44.49 44.21 44.20 44.33 43.33 42.53 41.90 41.71 41.10 39.65 39.00 39.72 35.95 35.42 35.21 34.64 30.46 33.30 35.79 36.95 37.66 38.03 41.13 42.43 46.71
49.17 48.63 48.79 49.52 49.35 49.98 49.16 48.22 47.49 46.37 45.50 44.12 43.49 42.05 42.41 42.26 42.30 42.70 44.28 43.57 43.31 42.77 42.39 41.49 41.13 40.35 39.44 38.94 38.21 36.55 35.61 34.03 32.65 34.39 32.81 31.88 31.02 33.86 36.04 36.89 37.89 40.95 43.35

GFSSE_sfc_wetblb_033.txt.gz
Wetbulb
69.03 70.39 71.27 71.84 71.96 71.77 71.79 71.65 71.49 71.88 72.70 72.61 72.48 72.10 71.81 71.67 71.21 71.36 71.07 71.35 71.46 70.50 70.73 70.43 70.04 69.77 69.38 68.84 68.30 68.14 67.87 67.55 67.61 67.86 68.09 68.21 69.22 68.16 69.67 71.12 70.93 69.57 70.43
69.73 70.59 70.35 71.52 71.70 71.68 71.83 71.90 72.11 72.65 72.55 71.57 71.30 71.04 70.86 70.62 69.99 69.78 69.57 69.72 69.92 69.96 70.38 70.04 69.62 69.01 68.54 68.00 67.50 67.28 67.10 67.06 67.06 67.07 67.38 66.34 68.63 67.92 68.88 69.95 69.68 69.56 69.82
69.71 69.98 70.40 70.90 71.62 71.88 72.16 72.55 72.43 72.48 71.77 71.31 70.69 70.13 70.06 69.60 69.24 69.00 69.09 69.56 69.72 69.94 69.31 68.99 68.52 68.31 67.89 67.31 66.98 66.87 66.80 66.65 66.45 66.41 65.08 62.30 65.35 67.26 67.13 68.79 68.96 69.84 69.69
69.98 70.11 70.72 71.05 71.53 71.90 71.73 71.96 71.98 71.99 71.49 70.95 70.39 69.93 69.66 69.27 69.08 68.93 68.87 68.94 68.39 68.38 68.28 67.68 67.02 66.43 65.89 65.80 65.90 65.86 65.99 65.82 65.72 65.35 60.78 61.83 66.00 67.28 65.90 67.36 68.48 68.58 68.55
69.32 69.42 70.41 70.39 70.79 71.43 71.38 71.34 71.60 71.51 71.13 70.98 70.52 69.94 69.72 69.11 68.73 68.08 68.05 68.10 67.79 67.60 66.78 66.57 66.29 66.09 65.57 65.43 65.16 64.77 64.72 64.70 64.47 61.67 59.76 61.67 64.27 66.46 67.10 66.02 66.49 68.26 68.64
65.55 66.91 68.34 69.12 69.82 70.71 71.13 71.15 70.98 70.83 70.48 70.33 70.31 69.93 69.27 68.30 67.55 67.52 67.79 67.57 66.82 66.27 65.96 66.16 65.62 65.04 64.63 64.11 64.10 63.80 63.56 63.32 62.32 57.41 58.98 61.58 64.96 65.56 66.13 67.75 67.89 67.88 67.87
63.42 65.23 66.83 67.71 69.29 70.15 70.26 70.37 70.17 70.10 69.95 69.76 69.61 69.13 67.94 67.51 67.41 67.51 67.28 66.43 65.74 65.61 65.06 64.72 64.22 64.00 63.85 63.75 63.61 63.63 63.00 63.29 59.35 56.17 58.68 61.83 63.44 67.03 67.67 67.87 68.54 67.71 67.56
62.66 63.65 65.20 67.73 68.27 68.55 69.05 68.90 68.41 68.55 68.57 68.52 68.50 68.55 68.16 67.65 67.32 66.59 66.03 65.47 65.01 64.35 63.60 62.95 63.01 62.92 63.07 63.30 63.23 62.66 62.33 62.85 59.40 55.63 56.37 60.19 63.90 65.96 66.69 67.77 67.66 67.23 67.25
62.36 62.22 63.04 64.33 66.11 66.69 66.58 66.76 66.47 66.87 67.20 67.09 67.36 67.36 67.18 66.73 66.37 66.44 65.89 65.05 64.31 63.53 62.94 62.91 62.76 62.34 62.59 62.58 62.17 61.93 61.41 62.24 56.14 55.61 57.05 58.28 63.91 66.27 66.51 66.15 66.73 66.73 67.11
60.21 61.71 61.10 62.05 62.18 62.05 62.92 65.12 65.29 65.45 65.49 65.64 65.82 65.67 65.07 65.16 65.35 65.46 65.10 65.22 64.69 63.87 63.52 63.15 62.72 62.25 62.14 61.99 61.80 61.61 61.28 60.76 55.32 54.73 55.72 59.08 64.34 66.28 66.47 65.67 65.17 65.51 65.94
59.32 60.11 60.74 61.18 61.07 60.84 61.15 63.55 64.54 65.32 64.91 64.85 64.80 64.60 63.21 62.37 62.75 63.45 63.49 63.87 64.50 64.03 63.67 63.54 63.17 62.64 61.86 61.41 61.00 60.93 61.26 56.15 55.27 53.84 52.79 59.86 63.32 65.56 65.94 65.58 64.61 64.92 64.95
57.19 58.77 59.93 59.99 60.07 60.87 63.16 62.28 61.87 63.02 62.44 62.09 62.00 61.84 61.34 60.42 60.31 63.00 63.23 63.88 64.08 63.91 63.87 63.70 63.66 63.13 62.07 57.57 56.19 58.50 55.31 55.35 54.85 53.08 52.08 59.50 62.14 64.11 64.74 64.18 63.74 63.64 64.07
57.77 58.75 59.88 59.52 59.32 59.92 60.69 61.11 60.69 61.42 61.35 61.40 61.37 60.63 60.40 60.90 60.52 60.76 59.73 58.80 58.46 60.15 58.56 59.07 58.07 57.87 56.96 56.16 55.66 55.29 55.31 54.85 53.52 52.52 52.98 58.43 62.12 62.89 62.73 62.80 62.56 62.08 62.49
57.53 58.80 59.61 59.85 59.79 58.65 59.39 60.22 59.78 60.55 61.14 61.24 61.43 61.51 59.96 58.95 58.03 57.29 58.23 56.86 55.35 54.09 53.91 54.38 54.01 54.23 53.22 53.51 54.04 54.08 54.00 54.00 53.71 52.42 52.29 57.47 60.89 61.62 61.78 61.80 61.80 61.65 62.43
58.22 59.69 59.59 59.68 60.05 59.41 58.15 59.03 59.54 60.12 61.44 61.58 61.50 59.84 58.44 56.55 55.15 55.06 54.46 54.16 53.77 53.35 53.31 53.19 52.71 52.78 52.81 53.43 53.66 53.60 53.49 53.41 52.99 52.43 51.31 55.97 57.85 60.43 61.64 61.87 61.83 61.62 61.56
59.44 59.54 58.76 59.24 59.79 59.36 57.43 57.43 58.17 58.84 60.03 60.44 59.83 58.44 58.15 56.44 55.51 55.25 53.62 53.72 53.40 53.54 53.33 52.07 51.68 51.64 50.89 51.44 51.28 51.86 51.85 52.39 52.51 52.35 51.48 50.92 55.57 57.81 59.70 60.93 61.61 61.79 61.44
59.49 59.84 59.47 59.73 60.49 59.91 59.02 58.11 57.41 58.17 57.84 57.96 58.08 56.96 56.99 56.68 55.27 53.70 53.12 52.15 52.40 51.99 50.79 50.45 49.71 49.22 48.63 49.46 48.74 49.64 50.23 51.04 51.41 51.46 51.50 50.92 51.10 54.35 57.30 59.02 59.81 61.31 61.51
59.90 60.22 61.16 63.35 60.44 59.90 60.25 58.79 56.16 54.41 53.64 55.06 55.21 55.24 55.45 55.30 54.16 52.46 51.12 50.38 50.35 49.43 49.06 48.86 47.98 47.16 46.72 46.37 46.10 46.73 47.77 48.69 49.79 50.32 50.78 50.54 49.83 50.78 52.52 56.00 58.32 59.49 61.15
61.34 61.01 60.75 61.12 59.62 60.52 57.59 55.34 53.75 52.24 52.33 52.21 52.54 52.27 52.44 52.15 51.58 49.79 49.06 48.36 48.40 48.15 48.05 47.36 46.51 45.96 44.95 44.78 46.46 46.06 45.72 46.66 47.75 50.34 49.23 49.70 49.92 50.01 49.69 51.70 54.29 55.80 58.49
56.09 57.48 58.13 58.94 59.85 58.92 54.72 52.99 51.33 51.44 51.04 50.86 50.17 49.84 49.74 49.20 48.53 47.17 46.84 46.78 48.31 46.83 46.42 45.70 44.83 45.09 44.25 44.24 46.69 46.80 45.26 46.05 46.31 45.18 45.49 48.22 46.89 46.61 46.00 47.68 48.54 49.44 53.01
53.58 54.88 55.93 55.00 52.54 51.86 52.19 53.15 51.15 48.55 48.23 48.55 48.50 48.45 47.62 47.71 48.65 47.62 46.20 44.91 45.38 45.17 44.64 44.73 44.12 43.57 43.76 42.64 42.09 42.31 43.68 44.06 42.35 40.95 43.07 44.80 43.52 43.86 43.30 43.42 45.22 48.00 49.84
52.88 50.90 50.33 49.91 50.32 50.02 50.01 48.99 49.03 48.35 48.04 47.31 46.79 46.66 46.88 47.42 46.26 45.38 43.75 43.68 44.27 44.66 43.18 42.81 43.62 43.41 43.04 41.53 39.64 39.30 36.49 38.23 39.00 40.86 40.49 42.64 39.96 41.52 40.95 41.90 42.11 45.22 48.30
48.86 48.98 49.34 49.24 49.73 50.03 50.03 49.40 48.71 48.24 47.47 45.93 45.50 44.57 45.03 45.18 45.09 44.04 43.59 43.25 43.00 43.20 42.76 42.48 41.83 40.97 40.29 40.11 40.30 37.27 33.28 31.86 34.81 37.67 37.96 38.55 37.90 38.04 38.41 39.61 40.49 43.08 44.91
47.46 48.10 49.04 49.48 49.22 49.84 49.62 48.89 47.59 46.67 45.27 45.28 44.23 43.79 43.09 44.07 43.47 43.94 44.13 43.80 43.75 43.78 42.59 42.37 42.55 40.01 39.70 37.98 39.12 41.08 38.54 39.17 31.96 30.97 35.17 35.89 36.57 37.04 37.02 37.94 38.36 40.97 42.85
47.72 47.07 47.61 48.75 49.46 49.61 48.97 48.30 47.08 46.63 46.21 45.26 43.72 42.49 42.76 42.61 42.95 44.22 44.21 43.21 42.68 42.75 41.60 40.68 39.74 39.43 39.12 37.78 36.96 37.80 35.10 35.41 35.04 34.20 31.00 33.19 35.01 34.90 36.02 36.31 36.63 38.50 42.24
47.64 47.04 47.03 47.66 48.23 48.53 48.11 48.01 47.30 45.81 44.20 42.82 41.68 42.79 41.95 41.04 40.87 42.14 42.81 42.07 41.76 41.37 40.60 39.95 39.33 38.69 37.43 37.18 37.08 35.88 34.93 34.77 32.45 33.45 33.46 32.92 32.70 33.91 34.61 35.93 35.10 36.29 40.03

GFSSE_sfc_wetblb_036.txt.gz
Wetbulb
68.21 69.50 71.00 72.14 72.08 71.78 71.50 71.25 71.61 72.21 72.24 72.47 72.11 71.91 71.69 71.31 71.00 71.00 71.23 71.48 71.32 70.56 70.19 69.93 69.68 69.14 68.80 68.51 68.11 67.88 67.63 67.25 67.20 67.52 67.80 67.94 69.50 68.40 69.87 70.05 70.30 68.85 70.41
69.14 69.49 70.39 71.39 71.92 71.80 71.75 71.78 72.39 72.35 72.00 71.17 70.97 71.00 70.85 70.38 69.96 69.62 69.82 70.00 70.37 69.89 69.20 69.07 68.80 68.63 68.35 67.75 67.51 67.34 67.16 66.88 66.70 66.91 66.30 66.10 68.46 67.99 68.36 69.60 69.85 69.26 69.99
69.34 69.15 70.13 70.71 71.61 72.08 72.26 72.69 72.54 72.11 71.16 70.69 70.19 70.31 69.87 69.54 69.10 69.31 69.60 69.73 69.41 68.80 68.46 67.93 67.44 67.10 66.68 66.32 66.27 66.30 66.24 65.99 66.07 65.77 65.22 62.18 65.31 67.77 67.72 68.79 68.91 69.43 69.00
69.32 69.47 69.63 70.81 71.38 72.17 72.05 72.17 71.91 71.49 70.99 70.45 70.35 69.86 69.38 69.19 69.18 69.25 68.88 68.53 68.26 68.00 67.31 66.54 66.28 66.34 65.88 65.49 65.03 64.71 64.67 64.64 64.05 63.56 60.62 61.81 64.38 67.46 67.09 67.66 68.29 68.41 67.88
69.54 70.12 70.26 70.35 70.54 71.25 71.52 71.53 71.58 71.33 70.86 70.53 70.28 69.62 69.34 68.98 68.46 67.90 68.11 67.94 67.43 66.35 66.05 65.87 65.49 64.91 64.53 64.14 63.94 63.55 63.30 63.34 62.36 59.12 59.48 60.96 64.24 66.27 67.60 66.91 66.36 67.64 67.80
68.21 69.49 68.89 69.27 70.23 70.94 71.20 71.27 70.93 70.71 70.28 70.05 70.18 69.59 69.09 67.95 67.50 67.60 67.66 66.92 66.19 65.73 65.30 64.87 64.31 64.16 63.81 63.73 63.34 63.24 63.10 63.12 60.43 56.17 57.50 62.16 63.89 67.42 68.07 68.63 68.17 67.71 67.44
66.54 67.28 67.51 68.28 69.67 70.60 70.66 70.37 70.36 70.20 69.97 69.86 69.80 69.23 68.10 67.41 67.34 67.29 66.66 65.75 65.48 64.70 64.13 63.75 63.34 63.13 63.13 63.46 63.41 62.82 62.68 63.06 57.50 55.48 56.17 59.36 62.30 67.00 67.59 67.83 68.43 67.89 67.39
64.35 64.54 66.05 68.63 69.08 69.55 70.00 69.65 69.29 69.22 69.06 68.86 68.69 68.29 67.87 67.45 67.22 66.22 65.54 65.03 64.45 63.76 63.34 63.03 62.96 63.02 63.23 63.20 63.18 62.64 62.12 62.69 57.14 55.26 56.28 58.17 62.71 66.86 67.37 67.31 67.84 67.43 67.37
61.86 62.31 63.35 64.60 66.73 67.65 67.22 67.31 67.20 67.33 67.33 67.44 67.39 67.19 67.12 66.56 66.27 65.96 65.43 64.91 63.91 63.76 63.51 63.60 63.21 62.93 63.36 63.24 62.73 62.32 61.66 62.01 55.35 55.05 56.28 59.00 64.99 66.27 66.41 66.09 66.65 66.78 67.05
60.13 60.85 60.64 61.87 62.75 62.59 63.42 65.66 65.62 65.91 65.95 65.99 66.05 65.59 65.22 65.01 65.14 64.99 64.35 64.46 64.16 64.00 64.31 64.29 63.87 63.55 63.16 62.69 62.05 61.57 61.40 59.07 55.07 54.54 53.10 54.87 63.09 64.22 65.75 66.36 65.76 65.31 65.34
59.55 59.79 59.56 60.32 60.23 60.55 61.25 63.56 65.04 65.41 65.06 64.86 64.86 64.53 63.02 61.77 61.68 61.96 63.43 63.49 64.41 64.17 64.16 64.32 64.20 63.34 62.77 61.02 60.68 60.98 59.95 55.64 55.14 54.74 52.57 57.37 61.37 62.53 64.14 65.32 65.68 64.86 64.56
57.22 58.70 59.54 59.10 59.59 59.85 62.15 61.88 61.12 62.67 62.16 62.03 61.97 61.73 60.89 59.94 59.86 62.23 62.89 63.28 64.00 63.43 63.01 62.64 61.81 61.46 59.55 56.59 56.09 57.48 55.41 55.31 55.05 54.38 53.31 58.33 60.43 61.95 62.77 63.58 65.30 64.44 64.36
56.57 58.05 59.48 59.22 58.85 59.16 60.25 60.49 59.92 60.79 60.50 60.50 60.61 60.36 60.46 60.36 59.75 59.94 59.10 58.26 57.51 59.07 55.96 56.98 55.82 55.93 54.53 53.86 53.90 54.00 54.17 54.26 54.12 54.08 54.27 58.05 59.32 61.58 62.75 62.51 64.16 63.88 63.80
56.01 57.63 59.06 58.95 58.46 58.53 58.82 59.68 59.28 60.11 60.29 60.18 60.86 60.98 59.69 58.94 57.95 57.75 57.74 56.42 54.07 53.23 53.15 52.80 52.82 53.05 52.90 53.35 53.26 52.66 52.54 52.68 53.03 53.37 53.30 57.38 58.56 60.30 61.86 62.74 63.23 64.02 63.65
55.65 57.20 58.37 58.91 58.58 58.32 58.05 58.53 58.41 59.37 60.23 60.38 60.61 60.50 59.20 57.93 55.74 55.01 54.05 53.50 52.83 53.16 52.73 51.98 51.79 51.45 50.60 50.79 50.60 50.77 50.71 51.55 52.03 52.37 52.13 55.68 57.05 58.46 60.31 61.84 62.43 62.54 63.52
56.55 57.64 58.54 58.49 59.31 58.67 57.08 57.50 57.86 58.45 59.05 59.80 59.92 58.22 57.67 55.65 54.58 54.28 52.82 52.31 51.88 51.63 50.71 50.28 49.87 48.91 48.02 48.84 48.34 48.97 49.40 49.81 49.92 50.71 51.53 51.55 55.05 56.11 57.46 59.09 60.43 61.48 62.13
57.07 58.25 57.94 59.34 59.62 59.40 57.52 57.14 56.84 57.92 57.71 57.71 56.82 56.23 56.02 55.21 53.36 52.29 50.66 49.77 49.38 49.02 48.87 48.65 47.70 47.42 46.66 47.33 46.66 47.39 48.36 48.25 48.49 49.40 50.06 50.74 50.87 52.68 54.10 55.34 56.82 58.03 59.57
57.65 58.90 60.61 60.77 60.17 59.20 57.04 56.99 55.90 54.26 53.38 54.14 54.07 53.12 52.12 51.91 50.75 49.02 47.88 47.20 47.88 47.95 47.68 47.02 46.71 46.08 45.57 45.07 45.21 45.63 45.91 46.89 47.81 48.87 48.35 49.43 49.70 48.92 49.98 51.60 52.95 54.99 55.96
59.36 59.75 59.46 59.80 60.25 58.32 55.50 54.26 54.89 53.01 50.88 51.55 50.41 49.12 48.67 49.02 48.74 46.94 46.40 46.00 46.52 46.57 47.16 46.24 45.35 44.96 44.05 44.55 45.21 45.58 45.19 45.17 46.59 45.98 46.30 47.25 46.50 45.77 44.76 46.49 48.28 49.51 52.31
57.50 58.83 59.27 59.91 59.20 55.78 54.97 53.73 51.61 50.45 48.76 48.26 47.35 47.34 47.58 48.77 48.89 47.69 45.64 45.33 45.76 44.53 44.06 43.81 43.31 44.15 43.72 43.55 44.52 45.81 44.08 44.81 42.88 41.46 43.27 44.93 43.86 43.65 43.13 42.80 42.77 44.58 48.87
54.71 56.83 58.22 58.56 58.05 55.32 53.41 50.56 48.46 47.87 46.29 46.12 46.03 46.63 47.00 46.81 45.54 43.77 43.17 43.12 43.58 43.17 42.82 43.16 43.00 42.81 42.99 41.84 41.01 40.59 42.02 43.47 40.28 40.00 42.73 43.23 41.14 41.65 41.25 41.53 41.07 41.90 45.61
53.40 53.60 51.99 50.30 50.08 50.31 49.30 48.03 47.64 46.34 45.70 45.35 44.94 44.84 44.78 44.57 44.18 44.16 42.61 42.52 42.78 42.99 43.00 42.40 41.99 41.42 42.03 40.70 38.14 37.32 34.57 36.80 38.46 39.59 39.01 40.47 38.30 39.42 39.59 40.37 40.48 40.90 43.36
46.97 47.36 48.28 48.66 48.88 49.03 49.27 48.20 47.24 46.88 45.86 44.50 43.87 42.94 43.40 43.73 43.44 43.22 43.26 43.09 43.20 43.20 42.50 41.53 40.36 39.32 38.38 39.19 39.56 37.03 33.04 30.91 34.45 37.06 37.56 37.22 37.17 37.35 38.08 38.41 39.96 40.01 42.50
46.71 47.32 48.00 48.42 48.53 48.87 48.37 47.47 45.99 44.97 43.87 43.88 43.14 42.53 41.99 42.69 42.72 43.70 43.62 42.98 42.42 42.42 41.23 40.78 41.49 39.32 38.38 36.74 37.96 39.99 38.14 36.89 32.36 30.83 35.18 36.40 36.94 37.54 36.94 37.67 38.46 39.09 41.79
46.35 46.10 46.60 48.04 48.86 48.70 48.27 47.41 46.12 44.89 44.37 43.18 42.03 41.43 41.51 41.59 42.24 43.58 43.21 42.51 41.60 41.83 40.78 39.97 39.22 38.73 38.44 37.20 36.42 36.16 35.12 34.82 34.31 34.21 31.83 34.58 36.62 36.26 36.46 36.95 37.89 37.60 40.59
46.45 45.94 46.59 47.81 47.45 47.90 47.30 46.92 46.11 44.72 42.68 41.50 40.88 40.70 40.50 40.14 40.12 41.77 41.93 41.23 41.14 40.66 39.92 39.43 38.76 38.09 37.33 36.53 36.40 35.88 34.92 35.66 34.90 35.03 33.26 33.23 34.24 36.49 36.06 36.82 36.50 36.89 37.83

GFSSE_sfc_wetblb_039.txt.gz
Wetbulb
68.82 71.14 71.29 71.92 72.05 71.70 71.60 71.80 71.90 72.06 72.22 72.30 72.25 72.22 72.01 71.72 71.53 71.58 71.56 71.57 71.12 69.90 70.01 69.72 69.40 68.89 68.67 68.37 68.09 67.79 67.56 67.21 67.23 67.15 67.60 68.01 69.31 68.81 69.63 70.19 70.14 69.09 69.89
70.17 70.94 70.58 71.27 71.69 71.50 71.78 71.96 72.11 72.16 72.12 71.67 71.46 71.21 71.14 70.64 70.33 70.17 70.30 70.89 70.53 69.14 69.10 68.69 68.18 67.75 67.43 66.99 66.68 66.67 66.42 66.40 66.17 66.36 66.73 67.71 68.23 68.88 68.26 69.27 69.60 69.00 69.40
69.77 70.49 71.15 70.60 71.59 71.71 72.37 72.37 72.30 72.08 71.34 70.73 70.55 70.28 69.94 69.66 69.65 70.11 70.04 69.44 68.89 68.59 67.65 67.02 66.80 66.85 66.55 65.77 65.17 64.98 64.79 64.73 64.28 64.25 64.72 67.74 68.70 68.86 67.89 69.39 69.19 69.16 69.03
69.85 70.59 71.04 70.71 71.61 72.12 72.21 72.05 71.79 71.61 70.85 70.76 70.30 69.79 69.33 69.50 69.61 69.33 68.68 69.25 68.01 66.90 66.46 66.07 65.59 65.02 64.45 64.18 63.96 63.63 63.63 63.50 62.72 63.58 66.72 67.05 67.53 68.08 68.33 67.86 67.57 67.86 68.25
69.95 70.66 71.20 70.46 71.16 71.80 71.72 71.59 71.39 71.37 70.92 70.70 70.21 69.54 69.32 69.11 68.44 68.18 68.09 68.05 66.90 65.90 65.48 65.15 64.70 64.12 63.65 63.72 63.69 63.62 63.62 63.33 61.60 63.98 65.90 67.46 68.29 67.84 67.70 68.23 68.03 68.45 68.22
69.30 70.52 69.88 69.39 70.46 71.38 71.59 71.42 71.24 70.82 70.23 70.16 69.93 69.61 68.77 67.89 67.64 67.77 67.10 67.05 65.84 64.97 64.60 64.17 63.50 63.14 63.09 63.95 63.89 63.28 63.34 62.75 62.41 63.29 63.99 64.99 67.19 67.81 68.01 68.04 68.37 68.32 68.14
68.70 69.92 70.77 68.44 70.01 71.06 71.30 70.75 70.51 70.09 69.86 70.02 69.93 69.32 68.03 67.41 67.34 66.64 66.12 65.82 64.98 64.12 63.90 63.59 63.29 63.16 63.81 63.93 63.28 62.89 62.78 62.79 61.76 61.79 62.60 64.34 66.22 67.47 67.45 67.30 68.12 67.99 67.89
68.49 69.56 70.52 69.40 69.61 69.78 70.23 69.92 69.34 69.31 69.27 69.02 68.62 68.33 67.92 67.56 66.98 65.80 65.42 65.02 64.61 64.13 63.73 63.42 63.21 63.31 63.61 63.31 62.93 62.58 62.61 62.52 61.31 60.88 60.93 61.89 65.22 65.99 66.65 66.62 67.15 67.04 66.80
68.40 68.91 69.27 69.52 69.60 68.67 68.11 67.93 67.70 68.08 67.97 67.65 67.51 67.44 67.06 66.30 65.98 65.97 65.56 64.81 64.09 64.52 64.52 64.00 63.94 63.93 63.51 62.95 62.65 62.19 61.84 60.85 62.01 61.46 59.95 60.27 62.74 63.77 64.81 66.36 66.85 66.45 65.84
65.72 66.32 66.83 67.74 68.43 68.81 68.84 66.43 66.34 66.29 66.18 66.33 66.37 65.80 65.07 65.04 64.87 64.84 63.83 64.78 64.81 64.49 64.46 64.44 64.37 63.94 63.57 61.97 61.84 61.62 60.73 60.69 62.24 61.82 61.43 60.77 61.78 62.72 63.34 64.61 65.89 65.88 65.16
62.37 63.84 64.78 64.98 65.72 66.10 66.44 66.24 65.96 66.00 65.62 65.20 65.39 64.62 63.92 65.76 65.57 65.16 63.84 64.33 64.66 64.61 64.24 63.82 63.48 62.74 61.47 60.60 60.59 60.28 60.29 61.63 61.61 61.54 61.58 59.80 61.07 62.80 63.17 63.85 65.84 66.01 65.11
60.40 61.96 63.26 64.04 63.71 64.22 64.09 65.82 65.98 65.67 65.56 65.65 65.51 65.72 65.57 65.53 66.05 65.76 64.50 62.91 62.91 62.23 61.25 61.30 60.85 60.61 60.75 61.01 60.86 60.36 60.20 60.47 60.50 60.65 60.90 59.15 60.86 62.55 63.27 63.85 64.69 65.15 65.27
60.19 61.28 62.55 62.95 63.31 63.19 63.74 64.50 64.37 64.93 65.13 65.42 64.99 65.36 65.41 65.53 66.22 66.37 66.16 65.19 63.65 59.70 60.86 60.76 60.63 60.12 59.99 59.29 58.36 58.04 57.95 58.24 58.60 58.59 58.93 58.15 59.30 61.14 62.39 62.83 63.37 64.86 64.69
59.44 61.24 62.18 62.70 62.52 62.56 63.26 63.66 64.04 64.20 64.52 64.70 65.44 64.86 65.84 65.45 65.62 65.17 64.06 61.01 60.67 60.51 60.23 59.88 59.64 58.74 57.66 56.96 56.26 55.71 55.76 55.25 55.06 55.17 57.05 56.85 57.43 59.19 60.58 61.68 62.34 62.79 64.05
59.05 60.80 62.14 62.62 62.22 62.17 62.37 62.95 63.37 63.77 64.38 65.07 65.31 65.49 65.31 64.64 62.43 61.14 60.10 59.72 59.41 59.18 58.32 57.71 57.18 56.41 55.79 55.23 54.89 54.49 54.19 54.31 54.51 54.65 55.46 55.97 55.80 57.14 58.76 60.21 60.99 61.49 61.77
59.78 60.97 62.23 62.52 63.06 62.66 61.70 61.64 61.72 62.72 63.05 64.07 64.62 63.31 62.44 61.86 60.95 59.62 58.19 56.98 56.33 56.67 56.61 56.32 55.53 55.01 54.44 54.26 53.77 53.93 53.64 53.62 53.50 54.49 54.81 55.75 53.88 54.04 55.47 56.84 57.85 59.13 59.75
59.77 61.61 61.84 62.84 62.69 61.00 59.70 59.30 59.05 57.76 59.79 61.45 61.25 60.76 59.83 59.29 58.76 57.39 56.21 55.50 55.31 55.52 55.50 55.19 54.47 54.43 53.40 52.81 52.44 52.56 52.66 52.83 53.23 53.30 53.21 53.74 53.97 51.70 50.41 51.79 53.00 54.22 55.78
61.13 62.19 62.79 62.12 60.60 60.44 59.52 59.15 56.62 56.17 57.06 57.22 58.28 57.68 56.68 55.97 55.84 54.79 54.01 53.64 54.04 53.64 53.38 52.87 52.28 51.58 51.32 50.99 51.10 51.56 51.90 52.13 53.29 50.69 51.43 51.59 51.08 50.34 49.80 48.63 49.54 50.24 51.66
62.00 61.57 61.64 61.70 60.73 60.10 57.46 55.00 54.60 54.33 54.82 54.06 53.32 53.26 53.85 53.11 53.38 53.04 52.44 52.24 52.80 52.13 51.54 50.89 50.64 50.57 49.56 50.13 49.89 50.36 50.76 50.71 52.02 49.26 49.59 49.25 49.07 48.62 48.05 47.09 46.88 47.31 48.33
61.06 60.58 60.97 60.40 58.75 56.30 54.26 54.03 54.41 52.40 52.02 52.43 52.16 52.04 52.84 52.58 52.36 52.11 51.48 51.16 51.21 50.71 50.28 50.45 50.08 50.28 50.36 49.73 47.36 48.22 48.25 50.21 50.73 48.66 48.19 48.08 47.66 47.21 47.01 46.65 46.63 46.54 46.10
61.91 61.87 59.54 59.64 58.96 56.56 54.32 53.30 51.71 51.88 50.92 51.20 51.89 51.87 51.73 51.34 51.23 51.46 50.73 50.47 50.63 49.18 49.28 49.55 48.95 48.08 47.67 48.27 46.64 45.30 46.47 49.87 47.99 47.72 47.28 47.20 46.45 46.11 46.55 45.98 45.79 45.70 46.25
60.38 61.21 61.08 58.52 57.77 56.61 55.96 55.39 55.09 53.31 52.55 51.56 51.03 50.82 50.89 50.66 50.41 50.14 50.05 49.61 49.36 48.37 47.99 48.00 47.64 45.72 46.38 47.49 43.52 42.96 40.19 42.71 46.83 45.94 45.92 45.45 45.34 45.48 45.23 45.31 45.42 45.48 45.40
57.04 57.66 59.25 58.32 57.09 56.66 55.50 54.29 53.27 52.72 51.57 50.76 50.39 50.21 49.62 49.40 49.53 49.85 49.66 50.13 49.77 48.65 46.79 47.18 47.16 45.83 43.44 45.80 45.61 42.52 38.09 36.78 40.24 43.57 43.72 44.41 44.32 44.35 44.67 44.67 44.89 45.00 45.15
52.94 53.80 54.68 54.55 54.34 54.09 54.44 54.22 53.70 53.76 52.88 51.84 50.91 50.18 50.12 48.96 49.26 49.54 49.31 49.49 49.14 49.05 47.28 46.93 47.51 46.66 45.74 42.40 43.79 44.31 44.32 42.16 34.99 33.92 40.84 41.38 42.99 42.61 43.89 44.21 43.84 44.51 45.06
52.85 53.27 53.71 53.84 53.83 53.59 54.06 54.28 53.88 51.89 51.07 50.34 49.87 48.90 49.35 49.47 48.27 48.54 48.63 48.77 48.50 48.21 47.72 47.25 46.72 46.19 46.03 43.52 42.30 41.84 41.38 40.99 40.82 36.19 33.46 37.13 40.36 40.57 42.71 42.06 43.11 43.70 44.26
52.58 53.18 53.38 53.05 52.22 53.18 53.42 53.09 52.48 51.41 50.00 49.68 49.66 49.39 49.20 48.18 47.85 47.79 48.01 48.17 48.17 47.68 46.99 46.65 46.50 45.90 45.03 44.10 43.14 42.04 39.93 37.24 36.32 35.51 33.30 35.06 35.36 38.09 40.48 41.30 41.29 41.85 43.15

GFSSE_sfc_wetblb_042.txt.gz
Wetbulb
70.29 72.01 71.79 72.11 72.30 72.03 71.99 72.13 72.06 72.18 72.39 72.33 72.41 72.43 72.09 71.59 71.52 71.64 71.62 71.31 70.87 70.00 69.40 69.28 68.86 68.53 68.18 68.01 67.57 67.32 66.97 66.86 67.04 67.34 67.80 68.57 69.39 69.52 68.86 69.38 69.88 69.41 69.69
71.65 71.76 71.01 71.92 72.09 71.90 71.99 72.04 72.22 72.07 72.38 71.66 71.43 71.06 70.87 70.66 70.52 70.50 70.67 70.43 69.54 69.09 68.61 67.91 67.45 67.38 67.12 66.37 65.70 65.17 65.22 64.94 65.11 65.86 66.95 68.16 69.52 68.89 68.42 68.57 69.92 69.15 69.38
71.11 71.46 71.74 70.99 71.64 71.93 72.29 72.29 72.33 72.14 71.38 70.81 70.71 70.31 70.12 70.10 70.27 70.31 69.47 69.11 68.25 67.40 67.06 66.83 66.15 65.18 64.71 64.30 64.19 64.19 64.12 63.93 64.14 65.24 66.46 68.30 69.29 69.34 68.07 68.79 69.08 68.79 68.42
70.35 71.71 72.02 70.53 71.33 72.14 72.10 72.07 72.00 71.72 71.00 70.82 70.31 69.83 69.83 69.94 69.58 68.84 68.76 68.93 67.54 66.37 65.88 65.01 64.60 63.98 63.95 64.07 64.11 64.14 64.42 63.75 63.21 65.24 68.14 68.15 68.31 68.45 68.51 68.15 68.81 68.13 68.13
70.91 72.20 72.04 70.42 70.94 71.53 71.65 71.53 71.47 71.42 71.23 70.95 70.33 69.73 69.60 68.93 68.52 68.34 67.74 67.77 67.01 65.61 64.97 64.43 63.84 63.34 63.62 63.81 63.92 63.82 63.98 63.24 64.05 65.89 66.47 68.38 68.66 68.27 68.25 67.49 67.99 68.27 67.91
70.94 72.25 70.49 69.81 70.35 71.46 71.37 71.45 71.31 71.04 70.51 70.18 70.22 69.52 68.38 68.06 67.91 67.28 66.97 67.29 65.40 64.77 64.49 64.10 63.29 62.86 63.44 63.94 63.73 63.45 63.36 62.78 63.80 63.73 64.96 66.40 68.04 67.72 67.56 67.47 68.04 67.94 68.14
70.53 71.54 71.71 68.73 69.69 71.03 71.69 71.36 70.84 70.41 70.21 69.98 69.97 69.08 68.07 67.74 66.80 66.19 66.04 65.48 65.00 64.52 64.19 63.93 63.76 63.75 63.75 63.77 63.41 63.26 62.99 62.84 62.79 63.00 63.27 64.51 64.04 65.81 67.04 66.94 66.54 66.61 66.51
69.60 70.49 70.83 70.02 70.20 70.56 70.73 70.24 69.55 69.48 69.55 69.29 68.82 68.64 68.01 67.31 66.55 65.40 65.07 64.74 64.24 64.24 64.04 63.80 63.79 63.89 63.97 63.44 63.04 62.66 62.56 62.46 62.45 61.61 61.25 61.99 63.69 63.97 64.51 66.15 67.24 66.24 65.93
70.38 70.41 70.77 71.01 70.38 68.98 68.41 68.30 68.23 68.54 68.20 67.87 67.69 67.60 66.97 66.48 66.13 65.72 65.64 64.86 64.70 64.65 64.26 64.13 64.06 64.02 63.57 62.79 62.31 61.69 61.30 61.48 63.49 62.75 61.62 62.34 62.64 63.80 63.98 64.08 65.39 66.25 65.69
70.30 69.81 68.69 68.71 69.26 69.55 69.59 67.43 67.18 67.02 66.68 66.63 66.65 65.94 65.26 64.91 64.92 64.44 65.04 64.98 64.62 64.38 64.40 64.20 63.78 63.13 61.89 61.31 61.27 60.97 61.05 62.42 62.87 62.68 62.62 62.59 62.33 63.69 64.44 64.07 63.99 64.85 65.41
67.09 67.50 67.16 67.09 67.76 67.83 67.73 67.82 66.36 66.39 65.98 65.67 65.65 64.94 64.56 66.75 66.58 65.82 64.10 64.65 64.34 63.59 63.26 62.98 62.24 61.43 61.80 61.41 60.87 60.78 61.86 62.17 62.04 61.86 62.14 60.60 61.57 63.22 63.76 64.07 64.84 65.46 65.58
63.02 64.02 65.62 65.99 65.99 66.37 65.07 66.76 66.95 65.91 66.67 67.43 67.09 67.06 67.83 68.13 67.95 66.45 65.02 63.00 62.56 61.47 61.35 60.90 61.01 61.71 62.67 63.07 62.47 61.65 60.91 61.13 61.09 60.89 61.06 58.97 59.77 61.45 62.43 62.81 63.36 63.88 65.31
62.16 62.91 64.27 65.31 65.92 65.56 65.57 65.87 65.68 66.63 67.40 67.95 68.21 68.73 68.57 68.73 69.17 68.91 68.55 67.57 67.08 61.71 65.28 64.23 64.77 63.46 62.21 61.47 60.54 60.13 59.57 59.57 59.40 58.87 59.91 57.54 58.29 60.15 61.05 61.78 62.27 62.77 63.48
61.95 62.89 63.86 64.74 65.30 65.63 65.32 65.82 66.55 67.21 68.01 68.35 68.44 68.81 69.18 68.16 69.11 68.27 67.54 66.75 65.73 65.45 64.36 63.74 63.15 61.74 60.74 59.54 58.80 58.92 58.84 58.50 58.57 58.16 59.14 56.43 56.65 58.52 59.93 60.60 61.07 61.41 61.72
62.20 63.28 64.04 64.49 64.79 65.24 65.78 66.53 66.85 67.85 68.19 68.18 69.00 68.45 68.03 67.61 67.10 66.92 66.06 65.65 63.95 63.71 62.76 61.91 61.19 60.27 59.33 58.94 58.97 58.25 57.85 57.96 57.69 57.31 57.63 55.88 55.00 56.19 57.21 58.02 58.74 59.44 59.77
63.40 64.00 65.35 65.21 65.53 65.56 65.43 65.69 65.18 64.84 65.67 67.70 67.38 66.25 64.23 64.70 64.16 65.30 64.80 63.59 62.67 61.13 60.26 59.62 58.63 58.25 57.94 58.00 57.49 57.54 56.99 56.90 56.87 56.81 56.61 57.65 53.42 51.79 52.72 54.04 55.09 55.82 56.46
63.81 64.99 64.98 65.57 65.41 64.92 64.51 63.87 62.97 62.62 63.29 62.52 64.36 64.05 63.63 64.38 64.14 63.32 61.94 60.37 58.74 58.21 58.19 57.59 56.62 57.44 56.67 56.51 55.99 56.04 55.76 56.00 55.34 55.40 54.77 55.10 55.75 51.95 50.03 50.44 51.30 51.85 52.68
63.60 64.73 65.23 64.76 64.36 63.64 62.28 59.95 59.61 59.37 60.57 61.38 62.26 62.07 61.23 60.55 59.89 58.22 57.71 56.43 56.85 56.98 56.17 56.24 55.56 54.85 54.53 54.09 53.91 53.39 53.34 53.76 53.60 54.07 53.19 53.79 53.30 52.50 53.59 49.32 48.93 49.38 49.78
64.44 65.02 63.98 64.65 63.52 62.60 61.65 59.09 58.97 57.34 57.86 57.62 57.77 56.66 56.21 55.75 56.31 55.77 55.72 56.40 56.73 55.88 55.30 53.92 52.85 52.35 50.99 51.03 50.50 50.06 51.19 51.16 51.32 51.73 51.91 52.23 52.02 51.22 50.86 50.73 48.38 48.32 47.64
65.17 65.25 63.99 64.18 59.49 57.99 58.95 58.40 56.33 55.30 54.29 54.65 54.76 55.12 55.57 55.57 56.07 56.48 56.11 55.67 54.84 53.02 51.65 51.59 50.99 51.27 50.77 50.74 49.30 48.92 50.61 50.38 51.28 51.71 51.21 50.33 50.72 50.29 50.23 49.84 49.66 49.71 47.78
62.82 63.55 63.43 62.45 60.89 60.25 61.51 58.22 55.76 54.00 55.37 56.34 56.84 56.23 55.98 55.94 55.89 55.95 54.59 53.35 52.27 51.26 51.21 51.11 50.34 49.45 48.76 50.31 48.09 47.40 48.11 49.66 51.55 51.03 50.23 49.60 49.29 49.19 49.07 49.20 49.13 48.79 48.99
62.60 63.07 63.43 63.99 64.10 63.33 61.81 60.15 59.50 58.43 58.41 57.80 56.66 55.95 55.65 55.50 54.47 53.27 52.73 51.93 51.52 50.57 50.73 50.34 49.67 48.15 48.12 48.94 46.14 45.34 42.23 44.70 47.28 50.03 48.53 48.25 48.36 48.36 47.68 48.22 48.33 48.14 48.43
63.08 63.96 64.01 63.55 62.64 61.33 60.51 59.57 58.93 57.83 56.66 55.56 55.41 55.04 54.65 54.46 53.87 52.56 52.42 51.95 51.38 50.92 49.38 49.86 49.30 48.10 45.84 47.29 48.03 44.76 40.80 39.27 42.63 45.86 46.10 46.14 46.84 46.24 47.06 47.28 47.39 47.07 47.45
62.01 62.50 60.99 60.87 60.41 60.00 59.61 58.52 57.72 57.69 56.64 57.06 57.75 56.12 55.61 53.86 52.41 51.75 51.63 51.67 51.31 51.17 50.21 49.80 48.91 48.56 47.30 44.89 46.15 46.12 45.65 43.63 36.92 36.25 42.98 43.88 44.61 44.47 45.26 45.50 45.86 45.82 46.58
58.71 59.38 59.60 59.33 58.51 58.71 58.69 58.27 58.66 57.24 56.93 56.62 55.98 54.24 54.56 54.48 52.63 51.35 51.30 51.49 51.09 50.80 50.49 49.97 49.06 48.29 47.44 45.50 44.25 42.05 41.74 40.97 41.05 38.27 36.00 38.90 41.95 43.15 44.11 43.42 44.32 44.25 44.94
58.20 58.29 58.40 57.97 57.63 58.03 58.21 57.94 57.34 55.98 54.55 54.60 54.08 52.64 52.68 51.96 51.46 51.35 51.01 51.02 50.79 50.28 49.66 49.19 48.94 47.57 46.52 45.58 43.99 42.34 40.02 37.53 37.29 36.42 36.21 36.42 37.49 40.31 42.23 42.72 41.87 42.74 43.49

GFSSE_sfc_wetblb_045.txt.gz
Wetbulb
70.28 71.48 71.78 72.30 72.29 72.31 72.27 72.25 72.41 72.25 72.40 72.60 72.38 72.02 72.07 71.66 71.73 71.54 71.38 70.62 70.21 69.45 69.28 68.66 68.26 67.93 67.34 66.66 66.09 65.95 65.69 65.95 66.15 66.77 67.45 69.51 69.87 69.07 68.80 69.29 69.42 67.94 70.00
70.82 71.56 71.22 71.94 72.05 72.14 72.42 72.44 72.20 72.39 72.35 71.61 71.51 71.23 71.43 71.11 71.09 70.74 70.08 69.61 68.99 68.61 67.95 67.66 66.96 65.74 64.84 64.43 64.51 64.43 64.44 64.47 65.72 66.54 66.90 68.68 69.39 69.01 68.93 68.83 69.62 68.43 69.24
70.90 71.61 70.86 71.26 71.90 72.32 72.31 72.50 72.44 72.07 71.54 71.17 70.66 70.51 70.53 70.60 70.31 69.61 69.15 68.90 67.72 67.10 66.59 65.39 64.58 64.36 64.66 64.96 64.71 64.92 64.75 64.16 64.66 65.83 68.15 68.25 68.57 69.08 68.58 69.51 69.58 68.59 68.58
70.81 71.00 70.61 70.95 71.55 72.20 72.18 72.08 71.95 71.44 70.93 70.63 70.26 70.19 70.36 69.77 69.07 68.83 67.93 68.37 67.27 65.74 65.11 64.40 64.30 64.63 64.51 64.44 64.51 64.68 64.37 64.58 65.84 66.77 67.28 66.98 67.31 68.67 68.17 67.89 68.96 67.64 67.88
70.13 70.90 71.13 70.62 71.28 72.06 71.91 71.74 71.35 71.38 71.21 70.54 70.27 70.01 69.29 68.61 68.59 67.59 67.25 67.76 66.44 65.05 64.45 63.66 64.01 64.08 64.15 64.30 64.27 64.04 64.01 64.83 65.55 65.25 65.78 66.20 66.98 67.99 67.97 67.20 67.48 67.71 67.42
70.36 71.48 70.05 69.98 71.03 71.40 71.63 71.30 70.99 71.01 70.69 70.49 70.25 69.16 68.44 68.22 67.38 66.94 66.84 66.70 65.24 65.16 64.51 63.75 63.98 64.15 64.18 64.25 64.01 63.92 64.00 64.67 63.78 63.15 64.16 65.72 65.02 66.74 67.46 67.20 67.32 66.67 67.31
69.27 70.73 71.49 69.45 70.39 70.73 71.13 70.76 70.70 70.38 70.30 70.24 69.55 68.90 68.12 67.08 66.43 66.28 65.57 65.16 64.85 64.63 64.51 64.33 64.06 64.17 64.11 63.95 63.50 63.42 63.60 63.71 63.12 61.07 61.41 63.03 63.06 64.66 65.09 66.45 66.84 66.48 66.21
69.74 70.21 70.84 69.88 69.91 70.33 70.62 70.25 69.84 70.05 69.91 69.35 68.96 68.58 67.54 66.48 65.98 65.16 64.90 64.73 64.54 64.25 64.13 64.10 64.19 64.24 63.77 63.34 62.95 62.67 62.87 63.31 63.60 62.28 61.48 62.76 63.92 64.46 64.60 64.40 66.58 67.09 66.28
69.87 70.12 70.70 70.70 70.22 69.25 68.73 68.62 68.48 68.75 68.40 68.05 68.06 67.54 66.88 66.66 66.30 65.98 65.60 64.84 64.65 64.41 64.29 64.17 64.09 63.78 62.57 62.10 61.92 61.91 62.02 63.36 63.46 62.68 62.38 62.57 63.40 64.34 64.78 64.68 64.72 65.25 65.52
69.46 69.50 68.42 68.91 68.96 68.99 69.10 67.70 67.75 67.45 67.02 67.12 66.83 65.87 65.21 64.94 65.12 65.50 65.53 65.21 64.73 64.65 64.30 63.96 63.12 62.44 61.39 61.48 61.70 61.61 62.37 63.01 62.42 62.11 63.04 61.38 62.38 63.69 64.34 64.55 64.58 64.75 65.88
67.31 66.72 67.42 66.83 67.41 67.50 68.08 68.20 66.91 66.97 66.50 66.05 65.28 65.28 64.04 65.60 65.46 65.67 64.62 64.97 63.85 62.85 62.87 62.65 61.81 61.40 61.90 61.71 61.32 60.98 61.41 61.59 61.58 61.46 61.74 60.55 60.69 62.16 62.99 63.20 63.42 63.85 64.28
64.39 65.23 66.34 66.57 66.61 66.51 65.05 66.61 66.49 65.54 66.04 66.78 66.55 66.62 67.42 67.28 67.35 66.16 65.27 64.34 62.58 62.03 62.09 61.94 61.48 62.07 62.71 62.87 62.31 62.89 61.11 61.07 60.77 60.36 60.65 59.89 59.18 60.11 61.31 62.10 62.29 62.85 63.32
62.85 63.31 64.04 65.29 66.30 65.39 65.46 65.73 65.29 65.86 67.09 67.64 67.89 68.16 68.13 67.61 67.52 66.64 66.84 65.68 66.36 63.17 64.48 63.65 63.89 63.48 62.90 61.99 61.18 61.01 60.50 60.73 60.46 60.08 60.59 58.51 57.88 58.60 59.72 60.50 61.31 61.81 62.05
61.78 62.64 63.94 65.18 65.72 65.82 64.96 64.89 66.07 66.32 67.01 67.08 68.36 68.14 68.12 67.37 67.61 67.03 65.85 65.26 64.82 64.78 64.34 63.86 62.91 62.55 61.89 61.41 60.75 60.33 60.21 59.88 59.52 59.27 59.90 57.37 56.97 57.42 58.29 58.96 59.31 59.60 59.81
61.94 62.99 63.45 64.66 65.34 66.21 66.61 66.91 67.22 67.12 67.57 68.40 68.74 68.30 68.29 67.94 67.01 66.12 65.28 64.81 64.21 63.44 62.73 62.15 61.70 61.02 60.54 60.52 59.98 59.78 59.18 59.00 58.99 58.48 58.58 56.68 55.77 55.14 55.28 56.48 57.18 57.23 57.53
63.19 63.82 64.33 64.78 65.94 67.00 67.01 67.19 66.47 66.50 66.84 67.64 67.80 66.81 65.68 66.31 65.42 65.23 65.41 63.98 63.09 61.74 60.97 60.21 59.24 58.40 58.41 58.89 58.41 58.43 57.83 57.71 57.48 57.56 56.92 56.92 54.57 53.63 52.26 52.25 53.65 54.57 54.81
64.43 64.98 65.42 65.91 66.52 66.37 65.24 64.23 64.09 64.00 64.16 64.05 64.44 65.19 64.92 65.19 65.01 64.22 62.43 60.56 59.19 59.01 58.60 57.64 57.91 57.90 56.79 56.70 55.98 55.90 55.88 55.37 54.94 55.18 55.52 54.84 54.77 52.88 51.22 50.77 50.71 51.45 51.65
65.57 65.51 65.91 65.61 66.21 65.10 63.58 62.21 61.81 61.27 60.56 61.13 62.74 62.69 61.68 61.04 61.15 60.56 58.68 57.53 57.51 57.58 57.24 56.39 54.85 53.37 52.86 52.60 53.11 52.86 52.26 52.25 53.09 53.15 53.23 53.51 53.60 53.15 52.86 49.94 49.94 49.86 49.99
65.90 66.21 65.33 65.98 65.15 62.50 60.98 59.91 58.90 58.56 57.56 58.50 59.36 59.09 57.81 58.27 58.18 57.40 56.90 57.31 57.68 56.27 55.02 53.54 52.59 52.08 51.03 50.83 50.74 51.49 51.63 50.97 52.22 51.26 51.85 52.93 53.13 52.05 51.38 52.27 50.89 51.82 48.83
65.55 66.53 65.70 64.57 63.21 61.82 62.01 61.56 60.31 58.68 57.40 57.39 56.56 56.57 57.03 57.57 58.02 57.95 57.21 56.43 55.21 54.00 53.27 52.57 51.63 51.36 50.38 49.76 48.86 49.52 51.27 50.41 50.49 50.99 52.35 52.19 51.51 51.41 50.64 50.01 49.92 49.86 51.56
65.84 65.59 64.04 62.56 62.02 63.75 63.77 60.89 59.87 57.87 57.94 57.86 57.97 57.98 57.98 57.78 57.48 57.02 55.61 54.62 54.01 52.82 52.05 52.30 51.18 50.01 49.19 50.01 47.62 47.54 48.31 50.78 51.38 50.93 51.00 50.77 50.04 49.74 49.91 49.04 49.04 48.81 48.67
64.21 64.14 63.16 63.21 63.78 64.71 64.12 62.57 61.24 59.56 58.81 58.70 58.39 58.21 58.01 57.30 56.01 55.57 54.43 53.63 53.15 51.82 51.76 51.42 50.52 48.69 48.56 49.71 45.60 45.32 42.57 44.74 47.16 49.00 49.01 48.38 49.40 48.09 48.00 47.88 48.24 47.86 48.15
61.93 62.59 63.38 64.33 64.14 63.37 61.82 60.75 60.28 59.61 58.81 57.41 57.15 56.84 56.80 56.13 55.41 54.62 53.68 53.16 52.63 51.83 50.33 50.68 50.32 48.57 45.97 47.71 48.58 44.69 40.62 38.91 42.57 45.47 46.45 46.74 47.66 46.74 46.72 46.78 46.64 46.46 46.74
64.12 64.83 64.88 62.93 61.55 60.93 60.88 59.41 58.58 57.04 55.35 57.14 58.62 58.00 56.70 55.44 54.62 53.52 52.96 52.76 52.32 51.76 50.67 50.24 49.84 49.13 48.36 45.23 46.64 46.42 46.14 44.48 38.48 37.39 42.55 43.58 44.71 44.65 46.12 45.29 45.55 45.15 45.58
63.02 62.16 61.37 60.90 60.45 60.42 60.11 59.86 59.00 58.05 58.73 58.53 57.87 56.17 55.69 55.57 54.00 52.48 52.40 52.21 51.56 50.89 50.64 50.25 50.19 49.22 47.96 45.39 44.45 43.92 43.71 43.20 42.81 38.97 35.91 38.67 42.05 43.23 44.18 44.41 44.97 44.59 44.13
61.33 61.04 60.75 60.04 59.22 59.86 59.74 59.71 58.75 57.53 56.29 55.76 54.95 54.30 53.52 53.14 52.18 52.24 51.80 51.76 51.35 50.39 49.29 48.92 49.42 48.16 46.87 46.18 45.04 43.87 42.37 40.14 39.24 38.61 37.03 37.48 37.49 40.22 42.82 43.21 43.73 43.61 44.10

GFSSE_sfc_wetblb_048.txt.gz
Wetbulb
67.25 69.61 71.98 72.55 72.74 72.70 72.54 72.42 72.36 72.28 72.30 72.44 72.44 72.39 72.13 71.84 71.61 71.29 70.89 70.55 69.96 68.85 68.42 67.76 66.64 65.71 65.32 65.14 65.00 65.10 65.09 65.74 66.60 67.11 69.32 69.80 69.22 69.23 68.75 69.58 68.91 67.23 70.66
68.29 69.58 71.28 72.10 72.41 72.41 72.47 72.30 72.28 72.05 72.10 72.20 71.90 71.80 71.61 71.55 71.02 70.78 70.13 69.64 68.97 67.52 66.64 65.54 65.09 65.36 65.48 65.49 65.55 65.57 65.33 66.33 66.96 67.22 68.62 69.56 69.64 68.99 69.11 69.29 69.23 68.64 69.83
68.56 69.39 70.29 71.29 72.02 72.19 72.35 72.45 72.26 72.11 71.87 71.00 71.38 71.35 71.15 70.60 70.04 69.61 69.06 68.52 67.84 65.77 65.52 65.24 65.71 65.65 65.44 65.21 65.07 65.28 65.62 66.65 66.79 67.12 67.91 66.57 67.00 68.78 68.35 69.61 68.94 69.03 68.93
69.14 68.86 69.51 71.09 71.90 72.22 71.96 71.91 71.86 71.62 71.35 71.00 70.88 70.81 70.04 69.63 69.10 67.94 68.25 67.57 67.12 65.37 64.96 65.66 65.48 65.22 64.81 64.78 64.72 64.68 65.39 66.23 65.98 66.40 64.87 66.74 66.26 68.85 67.94 68.32 68.86 66.99 68.18
69.45 69.53 70.17 70.73 71.19 71.62 71.64 71.45 71.55 71.37 71.04 70.80 70.60 69.73 69.00 68.33 67.40 67.04 67.72 66.87 66.69 65.14 64.65 65.25 65.01 64.83 64.54 64.64 64.85 64.95 65.28 65.27 65.21 64.10 62.03 62.48 63.43 66.98 67.87 67.36 66.85 66.97 67.21
69.43 69.59 69.49 69.82 70.79 71.13 71.37 71.34 71.32 70.87 70.65 70.31 69.37 69.18 68.28 67.06 66.99 66.63 67.10 66.92 65.93 65.28 65.28 65.04 64.88 64.57 64.71 65.00 64.80 64.70 64.62 64.64 64.62 59.46 60.23 62.46 61.97 65.66 65.99 67.11 67.81 67.50 67.12
68.11 68.37 69.83 68.43 70.11 70.78 71.16 71.15 70.62 70.26 69.94 69.25 69.13 68.76 67.83 66.75 66.27 66.37 66.62 66.29 65.73 65.14 64.86 64.76 64.51 64.38 64.40 64.66 64.32 63.95 63.86 63.78 61.96 58.00 59.44 60.31 62.02 65.62 65.04 65.12 66.96 67.37 67.23
66.58 68.82 69.15 69.77 69.85 70.08 70.20 69.94 69.72 69.60 69.07 68.73 68.64 67.98 67.26 66.83 66.37 66.20 66.10 65.81 65.51 65.18 64.50 64.61 64.65 64.13 63.92 63.66 63.33 62.91 62.82 63.55 61.44 59.30 60.45 60.84 64.73 65.39 65.33 65.13 66.10 65.87 65.94
67.93 68.48 68.91 69.47 69.46 68.72 68.43 68.31 68.27 68.17 67.78 68.01 67.78 67.06 66.58 66.24 66.01 65.92 65.95 65.78 65.65 65.50 64.87 64.46 64.05 63.78 62.96 62.38 62.09 61.88 62.22 63.02 59.67 58.91 60.45 59.57 64.78 64.49 64.61 64.70 64.74 65.49 66.12
67.26 67.42 68.24 68.77 68.99 68.23 67.82 67.49 67.01 66.43 66.72 66.62 66.12 65.45 64.88 64.60 65.33 65.56 65.43 65.61 65.32 64.84 64.36 63.56 63.63 63.45 62.72 62.24 61.38 60.61 61.79 62.08 57.53 57.96 58.03 59.15 63.28 62.51 63.01 63.36 63.64 63.85 65.15
65.63 66.77 67.12 66.74 67.43 67.48 67.48 67.25 66.54 66.54 66.29 65.55 65.20 64.89 63.31 62.71 63.13 64.29 64.55 65.06 64.69 63.91 63.58 63.13 63.11 62.55 62.85 62.75 62.23 60.39 61.63 57.72 57.28 57.15 56.57 61.21 61.56 61.28 61.19 61.35 62.22 62.78 63.48
63.12 64.12 65.36 65.75 65.54 66.05 65.62 65.70 64.90 64.73 64.33 64.35 64.13 63.86 64.02 65.60 64.65 64.35 64.15 64.59 64.03 63.41 63.45 63.24 62.60 62.45 62.32 59.61 58.86 61.40 57.88 58.30 57.44 56.95 55.50 60.46 60.61 60.62 60.37 60.61 61.09 61.66 62.06
62.63 63.19 63.98 65.00 65.44 64.48 63.29 64.88 63.64 64.11 65.84 66.44 66.32 66.19 66.30 66.05 64.68 63.79 64.26 63.38 62.64 62.65 62.05 60.58 61.35 61.41 60.18 59.14 58.03 58.07 57.80 57.05 56.29 56.49 57.17 59.27 58.77 59.28 59.39 58.92 59.30 59.68 59.52
60.99 62.12 63.54 64.84 65.60 64.68 63.77 63.69 63.84 65.09 66.17 65.59 66.61 66.51 66.06 65.59 65.20 64.93 64.50 63.87 62.79 61.30 61.43 60.67 59.97 59.78 59.32 58.90 58.72 57.71 57.46 56.91 55.32 55.82 56.54 58.11 57.81 57.73 57.53 57.62 57.45 57.56 57.48
60.24 61.66 62.64 64.33 64.58 64.54 65.84 65.98 65.50 65.40 65.74 65.73 65.79 66.26 65.50 65.74 64.54 64.49 63.18 63.02 61.61 60.56 58.84 58.05 57.32 57.00 56.19 56.00 56.54 57.02 56.14 55.23 55.32 54.53 53.88 56.90 56.65 55.51 55.52 55.72 55.59 55.55 55.52
60.79 61.37 62.64 63.55 65.26 66.48 65.33 64.95 63.89 63.79 64.87 65.61 65.45 64.98 65.22 64.76 63.73 63.49 62.19 59.69 57.80 57.21 56.74 55.39 54.51 54.56 54.56 54.77 53.61 54.07 53.95 53.86 52.60 52.42 52.33 52.82 55.77 54.59 53.47 53.70 53.42 53.57 53.54
61.86 62.13 62.99 64.18 65.95 64.57 62.79 61.83 61.16 61.71 62.27 62.57 62.99 63.18 61.90 61.78 60.82 59.94 58.58 56.55 56.26 56.04 55.48 55.11 53.81 51.93 50.77 51.62 49.90 50.28 50.55 49.15 49.07 49.51 50.22 50.11 52.19 54.56 52.72 51.10 51.09 52.04 52.53
62.88 62.90 64.04 65.17 64.21 62.25 61.04 60.59 60.38 59.88 59.56 60.88 60.92 60.16 59.50 59.73 59.55 57.83 55.79 55.20 55.27 54.87 54.15 52.21 50.63 49.00 48.43 48.23 47.40 47.79 48.66 47.92 47.82 49.30 49.06 49.04 49.22 49.81 52.45 51.80 51.11 51.53 52.32
63.87 63.88 63.85 64.55 62.68 62.06 60.85 60.51 59.29 59.76 59.14 58.65 58.34 57.48 56.71 56.90 57.12 55.77 55.27 54.95 54.28 52.75 51.78 50.23 49.16 48.27 46.61 46.22 46.56 45.58 46.70 46.56 47.28 48.87 48.03 48.34 49.40 48.37 47.60 51.73 52.77 52.83 50.20
65.19 64.70 64.66 63.18 62.07 61.13 61.26 61.32 60.61 59.22 57.22 56.68 55.83 55.49 56.17 56.13 56.74 56.39 55.13 53.51 52.11 50.99 49.80 48.83 47.97 47.92 46.86 46.02 47.43 46.55 45.59 46.48 45.84 46.31 46.99 49.73 48.65 48.52 47.09 46.66 45.59 45.93 51.51
65.15 64.32 63.37 61.74 61.79 61.09 62.06 60.11 58.26 56.93 55.92 56.01 56.18 56.56 56.70 56.27 56.20 54.28 53.49 52.04 50.99 49.87 48.97 48.66 47.24 46.07 45.21 45.90 43.60 43.18 43.22 44.64 44.75 44.94 44.71 44.93 46.46 47.36 46.46 46.11 44.48 44.00 44.45
63.95 63.22 63.01 62.66 61.83 62.31 63.06 60.83 59.99 57.61 56.50 56.49 56.63 56.65 56.77 56.02 54.47 54.14 51.79 51.09 50.49 48.91 48.62 48.25 46.90 45.50 44.56 45.18 41.56 41.53 38.46 40.15 42.60 44.04 42.95 43.23 41.69 43.68 44.08 44.15 43.32 44.12 43.09
63.30 62.41 62.20 62.76 62.26 63.19 62.07 60.69 59.16 58.39 56.76 55.36 55.52 55.11 55.25 55.01 54.05 52.68 51.62 50.77 49.57 48.58 47.02 47.14 46.46 45.33 42.54 43.34 44.27 41.28 37.18 34.22 38.37 40.69 40.58 41.37 40.61 40.66 41.71 42.73 42.80 43.16 42.62
61.69 62.82 63.02 63.14 63.25 62.23 60.15 58.44 56.77 55.12 53.71 55.14 54.73 55.43 54.53 54.20 53.07 52.23 50.99 49.94 49.12 48.57 47.35 46.51 46.67 45.31 44.20 41.49 42.21 44.03 41.33 39.61 35.47 34.07 37.99 38.99 39.71 40.26 39.57 40.18 40.30 41.62 41.77
62.61 62.60 63.36 63.04 60.89 59.65 59.55 58.50 57.21 56.93 54.72 56.25 55.26 54.54 54.45 54.18 53.38 51.66 50.40 49.47 48.47 47.74 47.40 46.70 45.67 44.26 43.63 41.86 40.62 39.80 39.22 38.94 38.27 35.91 33.06 34.37 37.55 38.26 39.03 39.48 38.95 39.51 40.74
63.17 62.50 60.29 59.12 58.54 59.15 58.99 59.01 58.08 57.32 55.25 53.99 53.26 52.68 52.29 52.43 50.89 50.58 50.36 49.02 48.31 47.46 46.29 44.99 44.43 43.67 42.96 42.29 41.54 40.53 39.43 37.41 36.43 36.00 32.96 33.07 33.16 35.75 37.44 38.30 37.37 37.83 38.53

GFSSE_sfc_wetblb_054.txt.gz
Wetbulb
68.82 70.96 71.84 72.69 72.49 72.11 71.80 71.68 71.62 71.67 71.97 71.93 71.61 71.40 70.98 70.73 69.98 69.58 69.00 67.90 67.36 66.11 66.23 66.33 66.05 66.00 66.10 66.33 66.50 66.09 66.19 67.10 69.12 69.63 69.39 69.25 69.26 68.37 68.30 68.77 69.05 67.79 69.27
69.98 71.17 71.50 72.13 72.34 71.88 71.79 71.76 71.59 71.64 71.75 71.36 71.41 70.75 70.20 69.68 69.14 68.47 67.85 67.41 67.32 66.52 66.43 66.10 65.66 65.51 65.51 65.58 65.73 65.83 66.00 66.64 67.65 68.76 69.02 68.63 68.48 68.22 67.91 67.88 68.59 67.23 68.25
69.84 71.14 71.16 71.39 71.79 71.82 71.96 71.89 71.85 71.85 71.61 70.52 70.15 70.04 69.51 68.70 68.25 67.81 67.54 67.59 67.42 66.42 66.06 65.57 65.20 64.98 65.10 64.97 66.24 66.95 67.23 66.89 67.20 68.85 68.40 64.82 65.25 67.52 67.26 67.34 67.31 66.31 66.23
69.72 70.90 70.66 71.08 71.26 71.58 71.48 71.47 71.29 71.37 70.82 70.63 69.50 68.85 68.75 67.62 67.47 66.03 66.40 67.30 67.30 66.04 65.67 65.20 65.04 64.58 64.54 65.26 65.92 66.80 67.19 67.65 67.58 64.59 61.42 62.34 63.60 66.45 66.52 66.31 66.31 66.17 65.86
69.42 70.27 70.65 70.29 70.58 71.29 71.11 70.69 70.93 70.89 70.39 69.94 68.97 68.62 68.15 67.01 66.23 66.11 66.87 67.15 67.06 65.74 65.34 65.05 64.67 64.32 64.28 65.15 65.11 65.34 65.16 64.55 63.92 61.56 58.87 59.47 60.50 64.67 65.67 65.43 64.99 65.35 65.32
69.53 70.23 69.52 69.56 70.26 70.76 70.62 70.73 70.57 69.94 69.44 68.78 68.31 67.99 67.45 66.36 66.48 66.27 67.14 66.93 66.14 65.43 65.04 64.72 64.27 64.02 64.62 64.28 64.54 64.24 64.52 63.05 60.75 57.59 59.45 62.99 61.76 65.57 65.70 65.62 65.36 65.41 65.49
67.93 68.71 68.54 68.25 69.69 70.10 70.46 70.49 69.77 69.19 68.68 68.10 67.89 67.54 67.12 66.43 66.19 66.32 66.80 66.44 66.25 65.14 64.68 64.11 63.73 64.33 63.91 64.01 63.68 63.61 63.75 62.14 57.45 57.85 59.43 60.84 62.17 65.40 65.15 64.76 64.53 64.68 64.97
65.80 66.64 67.23 68.27 68.45 68.90 69.63 69.23 68.56 68.32 67.83 67.47 67.19 66.90 66.98 66.78 66.28 66.04 66.26 66.00 65.89 65.36 65.08 64.48 64.12 63.61 63.41 63.88 63.41 62.85 62.44 61.91 58.06 57.37 58.47 59.33 64.51 64.13 63.89 63.59 63.46 63.64 63.91
66.07 65.89 66.37 66.63 67.42 67.73 67.62 67.28 67.13 67.30 66.82 66.59 66.31 66.00 66.00 65.76 65.75 65.97 65.97 65.98 65.71 65.40 64.88 64.36 63.64 62.82 62.88 63.14 63.26 62.11 61.20 60.21 55.04 55.94 58.94 58.00 64.64 63.12 63.00 62.78 62.64 62.58 62.40
64.05 64.52 65.85 66.93 66.72 66.66 66.34 66.14 65.99 65.90 65.45 65.33 65.10 64.73 64.32 64.49 64.88 65.24 65.13 65.47 65.42 64.93 64.04 63.71 62.94 62.27 62.13 62.34 62.61 61.75 60.41 59.20 53.70 54.06 55.50 58.37 63.75 62.31 62.04 61.61 61.46 61.28 60.56
64.11 63.71 65.76 65.09 65.58 65.91 65.08 65.58 65.61 65.54 64.78 64.36 64.29 63.97 62.53 61.40 61.87 62.84 63.23 64.51 64.53 63.86 63.21 63.22 62.47 61.82 61.03 61.61 61.83 60.97 59.06 54.28 53.66 53.65 54.35 61.24 61.87 61.29 60.91 60.27 60.12 59.68 59.14
61.95 63.73 64.86 64.69 65.25 65.05 64.83 63.57 63.05 63.11 62.13 61.55 61.14 60.70 60.16 60.22 60.74 62.66 62.73 63.71 63.83 62.88 62.93 62.63 62.31 61.06 58.69 55.54 55.50 57.09 54.27 54.15 53.45 52.76 53.98 60.74 60.52 60.02 59.62 58.93 58.49 58.04 57.36
62.31 62.45 63.94 64.59 64.96 63.28 62.53 61.74 61.50 60.73 60.47 60.07 60.29 59.71 60.20 61.07 61.12 60.59 60.62 60.95 59.80 61.09 58.64 57.78 55.73 54.79 53.52 53.10 52.73 51.98 52.17 52.26 51.26 51.45 55.76 59.55 58.95 58.61 58.57 57.93 56.97 55.92 55.32
60.85 61.96 64.24 64.61 63.20 61.65 61.24 60.22 60.39 60.18 60.75 60.74 60.58 61.46 61.10 61.41 60.58 60.67 60.48 59.59 57.39 55.21 53.36 52.70 52.19 52.21 50.87 50.87 49.87 49.13 49.06 47.74 47.19 47.71 52.69 57.62 58.64 57.34 57.35 56.71 55.90 55.31 54.75
60.70 61.08 62.96 63.52 60.77 60.68 60.73 60.37 61.12 61.95 62.57 62.77 62.75 62.86 62.68 61.13 59.69 57.31 55.69 54.99 53.69 52.89 51.87 50.41 49.33 48.47 48.07 47.70 47.26 47.25 47.34 45.91 45.53 45.39 46.57 56.25 56.71 56.58 55.70 55.09 54.71 54.07 54.16
60.12 59.45 61.08 61.70 60.19 62.00 61.00 61.73 61.73 62.56 62.16 61.41 61.19 60.95 61.55 59.14 56.19 55.23 53.95 52.68 51.70 51.54 49.83 47.96 46.44 45.72 45.13 45.76 45.76 45.44 46.18 44.97 44.74 44.83 44.68 44.63 54.77 56.76 55.09 53.83 53.10 52.93 53.77
59.57 59.95 59.56 61.14 61.29 60.51 60.47 60.22 59.80 60.86 60.61 59.17 58.24 58.31 57.88 57.52 55.68 54.05 52.96 51.87 51.00 49.83 47.75 46.69 45.77 45.21 44.65 45.41 44.05 43.60 44.65 44.16 45.04 44.05 44.56 44.12 48.96 55.10 54.83 52.61 52.07 52.00 51.39
59.60 59.25 61.30 61.53 59.69 58.53 57.90 58.10 58.84 58.97 58.45 57.44 56.45 55.75 56.65 55.28 53.58 51.69 51.12 50.46 49.15 47.52 46.39 45.58 44.67 43.80 43.13 42.70 41.57 41.45 42.08 42.72 43.59 43.51 43.65 44.45 44.68 48.17 49.55 52.98 51.37 50.73 49.99
59.16 59.04 59.46 58.72 57.93 57.57 56.64 56.56 56.32 56.50 55.56 54.81 53.35 53.05 53.46 53.53 52.92 50.83 48.83 48.03 47.75 46.55 45.41 45.90 44.05 43.33 41.96 42.15 43.06 41.63 41.45 41.31 41.61 43.93 42.30 42.62 42.68 43.05 43.11 47.67 49.25 51.15 49.53
59.03 60.31 58.75 58.20 57.45 56.50 56.20 55.90 55.08 54.20 53.43 52.54 51.67 51.63 52.13 52.39 52.52 50.60 47.74 47.17 46.60 45.39 45.07 44.21 42.88 43.00 42.18 41.36 44.72 42.45 40.42 40.31 40.34 40.06 40.04 42.27 41.52 41.09 41.37 43.07 42.71 43.94 48.98
59.09 59.22 58.53 57.49 56.76 56.66 56.02 56.10 54.91 52.07 51.65 50.60 50.77 51.71 52.00 51.64 51.93 48.89 47.24 46.13 45.51 45.16 44.27 43.96 42.86 42.09 41.36 41.31 38.94 38.82 38.97 39.47 39.45 39.37 39.14 39.09 39.70 40.33 40.17 40.54 40.18 40.45 41.98
59.46 59.09 58.44 57.79 57.06 56.85 57.70 56.12 55.05 52.90 50.86 50.35 50.66 51.15 51.91 50.60 49.08 48.32 46.67 45.47 45.07 44.20 43.56 42.89 42.22 41.31 40.42 40.67 38.35 36.62 34.45 36.18 38.11 40.68 38.23 39.18 36.81 38.22 39.06 40.09 39.19 39.59 38.99
58.89 58.82 58.38 58.15 57.56 57.52 58.57 57.16 53.37 51.48 50.18 49.59 49.56 49.69 49.66 50.00 49.81 48.23 46.82 45.67 44.76 44.09 42.64 42.14 41.30 40.27 38.82 39.22 39.35 37.32 33.22 31.28 34.08 36.35 37.33 36.93 36.55 36.06 36.44 37.44 38.69 38.71 37.78
58.94 59.23 59.10 58.75 58.19 58.05 59.25 56.80 52.34 50.21 49.40 49.22 49.38 49.61 49.33 49.94 49.03 48.21 47.15 45.69 44.52 43.97 42.77 42.48 42.38 39.97 38.80 36.73 37.96 40.70 37.66 36.57 32.50 31.29 34.95 36.86 36.08 37.26 35.57 35.78 35.76 36.63 36.98
59.34 59.17 59.25 59.27 59.28 58.66 59.24 56.51 52.88 49.66 49.69 49.35 49.74 49.14 48.98 48.42 48.21 47.05 45.75 44.61 43.78 43.39 41.72 40.17 39.05 38.67 38.44 37.24 36.91 36.47 35.84 35.55 34.55 32.36 31.38 31.65 34.55 35.46 35.71 35.63 34.73 33.93 35.20
59.66 59.58 59.47 59.32 58.73 58.34 57.88 54.51 53.07 50.55 49.73 49.55 49.45 48.72 48.56 48.36 46.49 46.44 44.98 43.67 42.46 40.97 39.85 39.20 38.29 37.46 36.75 36.55 36.93 36.86 36.52 35.12 34.20 33.81 33.53 34.35 34.43 33.51 34.58 34.47 33.23 33.73 34.20

GFSSE_sfc_wetblb_057.txt.gz
Wetbulb
68.53 70.99 71.81 72.16 71.92 71.56 71.54 71.45 71.27 71.32 71.51 71.45 71.33 70.95 70.11 69.66 69.01 68.12 67.80 67.79 67.55 66.50 66.53 66.30 66.04 66.06 66.02 66.00 66.05 66.49 68.61 68.99 68.97 69.08 69.28 68.53 68.29 68.01 67.73 67.41 67.36 66.11 68.60
69.93 70.96 71.12 71.63 71.62 71.41 71.59 71.55 71.51 71.36 71.26 70.22 70.11 69.80 69.32 68.67 68.07 67.80 67.87 67.92 67.35 66.29 66.09 65.90 65.76 65.71 66.43 66.91 66.51 66.30 67.14 68.68 68.59 68.65 68.01 67.77 67.41 67.43 67.20 66.80 67.16 64.74 66.18
69.83 70.75 71.01 70.98 71.50 71.37 71.51 71.49 71.64 71.35 70.34 69.33 68.81 69.00 68.59 68.07 67.78 68.02 68.02 67.94 67.36 65.75 65.54 65.67 65.48 66.23 67.61 68.29 68.61 67.12 67.60 68.41 67.82 67.78 66.71 63.04 63.18 66.16 66.30 65.92 66.10 65.87 66.01
70.44 70.67 70.71 70.83 70.98 71.33 71.17 71.19 71.35 71.15 69.93 69.13 68.55 68.16 67.68 67.29 67.07 67.02 67.27 67.39 67.08 65.85 65.60 65.28 65.33 65.27 65.71 66.89 67.51 68.08 67.41 65.88 65.30 63.50 59.53 60.17 62.50 65.60 65.50 65.03 64.74 64.77 64.72
69.88 70.03 70.40 69.98 70.31 70.87 70.84 70.92 70.90 70.60 69.81 68.83 68.41 67.97 67.05 66.88 66.27 66.78 67.57 66.86 66.72 65.66 65.20 65.09 64.66 64.47 64.84 65.23 65.37 65.36 65.37 64.76 64.03 61.97 59.79 60.22 60.96 64.50 65.63 65.57 65.15 65.39 64.94
69.66 70.00 68.96 68.84 69.56 70.40 70.79 70.77 70.39 69.84 68.74 68.30 67.90 67.72 67.07 66.27 66.27 66.69 66.98 66.73 66.59 65.23 64.89 64.83 64.62 64.67 64.63 64.79 64.81 64.04 63.74 62.90 61.43 59.20 59.79 62.54 61.09 65.01 64.86 64.41 64.47 64.74 64.92
68.87 69.25 68.02 67.66 69.07 70.22 70.60 70.37 69.68 69.13 68.28 67.93 67.67 67.49 67.43 67.19 66.90 66.94 66.76 66.63 66.20 65.39 64.40 64.34 65.05 64.75 64.00 63.82 64.35 63.54 63.03 62.23 57.83 57.59 58.59 59.75 60.95 64.18 64.24 63.86 63.56 63.80 64.00
65.88 66.71 67.67 68.37 68.23 68.83 68.88 69.02 68.49 68.16 67.81 67.30 67.05 66.99 67.27 67.16 66.81 66.71 66.56 66.28 66.10 65.57 65.05 64.37 64.44 64.61 64.19 63.45 62.84 62.78 61.89 60.40 57.15 56.68 57.70 58.28 63.50 63.47 63.38 62.87 62.68 62.07 62.04
65.17 65.21 65.95 66.25 66.44 66.48 66.70 67.57 67.23 67.18 67.02 66.79 66.67 66.53 66.15 65.88 65.72 66.01 66.01 65.84 65.61 65.25 64.99 64.46 63.89 63.96 64.14 63.51 62.39 60.80 60.63 59.85 54.44 55.66 58.15 57.93 63.72 62.67 62.32 62.04 61.44 60.84 60.63
64.96 65.16 64.62 64.70 65.67 65.90 65.84 66.34 66.07 65.94 65.78 65.82 65.91 65.42 64.80 64.87 65.19 65.44 65.26 65.48 65.29 65.01 64.54 64.06 63.51 63.14 63.49 62.85 61.88 60.56 59.23 58.10 52.52 53.70 54.94 58.21 62.63 61.62 61.36 60.96 60.39 59.79 59.49
62.75 62.77 62.97 64.57 65.08 64.19 64.83 65.87 65.72 65.65 65.02 64.62 64.36 64.12 61.98 61.07 61.31 61.45 63.56 64.25 64.48 64.27 64.12 63.82 62.90 61.33 59.93 59.80 60.13 59.58 57.53 52.68 52.50 52.54 53.49 60.96 61.14 60.96 60.38 59.86 59.25 58.56 57.95
59.75 61.08 62.22 63.76 63.89 64.41 64.85 63.81 62.73 62.91 61.73 61.16 61.01 60.27 59.24 59.49 60.42 61.66 62.91 63.55 63.65 63.41 62.91 61.65 60.08 58.48 55.46 52.03 51.46 53.53 51.47 50.97 50.18 51.33 53.38 60.30 60.08 59.75 59.09 58.48 57.76 56.94 56.07
60.79 62.60 63.59 63.78 64.17 63.17 62.62 61.88 61.44 60.49 59.91 59.69 59.53 59.28 59.31 60.23 60.64 59.97 59.81 59.55 57.92 58.72 54.56 54.21 52.41 51.23 50.08 49.35 48.64 48.12 47.37 46.86 45.43 47.60 54.57 58.88 58.67 57.51 57.75 57.02 56.36 55.83 55.33
59.99 61.51 63.11 63.74 63.77 62.07 60.96 60.49 60.11 59.22 59.17 59.13 59.17 59.69 59.89 59.37 59.62 59.38 58.34 57.23 53.80 52.42 51.27 50.34 49.29 48.61 47.46 47.52 46.90 46.61 45.41 44.24 43.84 44.60 47.40 57.34 57.27 56.30 56.67 56.05 55.22 54.97 54.52
59.94 61.08 61.96 63.07 61.53 60.74 59.39 58.17 58.79 59.75 59.99 61.56 62.03 61.99 61.42 59.91 58.27 56.60 54.09 52.80 51.76 50.60 48.64 47.68 48.30 46.44 45.76 45.45 44.95 45.28 44.38 43.84 43.82 43.47 43.32 51.23 55.29 56.54 55.34 54.95 53.97 54.06 53.35
60.30 60.39 62.93 62.83 59.55 60.18 59.62 59.61 60.22 61.35 61.90 61.52 61.09 61.26 60.37 57.45 55.27 53.81 52.49 51.38 49.89 48.38 47.11 46.79 45.47 44.55 43.74 43.99 43.21 43.94 43.42 43.15 42.97 42.67 42.86 42.83 52.55 56.24 55.01 53.69 53.11 53.05 52.70
60.35 59.91 61.25 59.83 60.28 60.78 60.39 60.50 60.11 60.66 60.22 58.93 58.82 59.13 57.22 55.69 54.07 52.38 51.33 49.87 48.54 47.07 46.21 45.34 44.36 43.92 43.34 43.89 42.22 42.45 42.32 41.91 42.68 42.37 42.50 44.25 48.57 54.27 54.19 51.95 51.85 51.01 50.32
58.56 59.09 60.24 61.66 60.21 59.36 59.29 59.11 59.63 59.01 58.16 57.50 57.05 56.72 55.77 54.53 53.25 51.66 50.74 49.42 47.62 46.47 45.21 44.12 43.48 42.60 41.99 41.52 40.46 40.45 40.89 41.13 41.87 41.40 41.56 42.02 42.65 43.30 46.65 50.27 50.69 49.99 49.82
58.22 59.01 59.68 59.25 58.34 57.62 56.94 56.98 56.90 56.66 55.94 54.89 54.18 54.10 53.27 52.41 51.97 49.63 48.64 46.91 46.34 45.20 44.74 44.87 43.08 42.33 40.99 40.97 42.11 40.95 39.88 39.57 40.49 41.84 40.57 40.73 40.87 40.60 40.65 45.90 48.34 49.82 49.48
57.55 59.47 58.63 57.97 56.70 55.98 55.80 55.16 54.27 53.80 52.97 52.11 51.67 51.86 52.09 51.76 50.57 47.99 47.04 46.07 45.52 44.89 44.06 43.03 41.68 41.78 41.34 40.65 43.30 41.74 38.47 38.96 39.10 38.88 38.84 40.63 39.76 39.74 39.61 39.85 39.08 39.99 47.24
57.41 57.74 57.01 56.56 55.64 55.90 54.98 53.54 52.19 51.68 50.92 50.40 50.37 51.38 51.73 51.52 50.06 46.87 45.94 44.91 44.92 44.09 42.96 42.83 41.88 41.12 39.66 39.63 38.09 37.84 38.04 38.09 37.73 38.04 37.96 37.36 38.35 38.86 38.30 39.06 38.16 37.78 38.90
57.64 57.58 56.91 56.88 55.94 55.75 55.61 54.63 54.12 51.84 50.71 49.96 50.24 50.61 51.11 50.71 48.76 47.13 45.47 44.35 44.63 43.82 42.70 42.00 41.35 40.31 39.29 39.33 37.14 35.35 32.97 35.22 37.29 38.78 37.28 38.31 36.16 37.02 38.00 38.85 37.82 37.80 36.67
57.15 57.21 57.42 57.16 56.42 56.00 56.55 54.69 51.76 50.26 49.48 48.62 48.72 48.96 49.64 48.93 48.17 47.06 45.63 44.56 43.58 43.24 41.92 41.07 40.32 39.55 37.91 38.06 38.25 35.97 31.58 29.71 32.95 35.78 36.33 36.18 36.21 35.26 35.93 36.45 37.49 37.26 36.01
57.27 58.20 58.28 57.57 56.54 56.48 57.37 54.60 51.79 50.03 48.13 48.38 48.54 48.92 48.68 48.89 48.08 46.96 45.94 44.51 43.58 42.83 41.89 41.24 41.24 39.68 37.97 35.85 37.01 39.83 36.85 35.58 32.29 30.67 34.25 35.61 35.02 36.63 35.50 35.09 35.28 35.49 35.20
57.79 58.00 57.96 57.63 57.19 57.46 57.69 56.30 52.61 49.21 48.72 48.80 48.76 48.48 47.66 47.48 47.24 46.21 45.10 43.90 42.93 42.63 40.22 38.95 38.26 37.72 37.96 37.66 35.86 35.29 34.72 34.12 33.32 32.16 29.24 31.73 34.41 35.93 35.88 35.45 34.62 33.24 34.13
58.03 58.12 57.48 57.57 57.46 57.83 57.93 55.94 53.10 50.33 48.82 48.50 47.77 47.45 47.14 46.02 44.79 44.60 44.41 43.56 42.80 39.83 38.97 38.61 37.59 37.18 35.71 35.15 35.41 35.07 35.20 34.18 33.48 32.10 30.19 30.89 31.31 33.91 34.69 34.56 32.83 32.72 33.31

GFSSE_sfc_wetblb_060.txt.gz
Wetbulb
68.96 70.21 70.93 71.62 71.39 71.21 70.87 70.82 71.05 71.13 71.14 71.33 70.86 70.46 69.93 68.99 68.44 68.27 68.12 68.16 68.00 66.63 66.52 66.82 66.68 66.53 66.84 67.76 69.17 68.92 69.20 69.32 69.14 69.17 68.14 67.79 67.62 67.36 67.03 66.50 66.07 64.20 66.74
70.07 70.39 70.64 71.12 71.37 71.18 71.26 71.12 71.07 71.01 71.05 70.53 69.94 69.27 68.67 68.19 68.22 68.49 68.32 67.97 67.75 66.36 66.73 66.81 67.39 67.83 67.49 66.98 67.90 69.09 68.79 68.64 68.12 67.65 66.96 66.55 66.38 66.38 66.33 66.14 66.80 64.84 65.82
69.95 70.35 70.50 70.55 71.14 71.33 71.52 71.43 71.16 70.94 70.18 69.02 68.19 68.45 68.22 68.29 68.48 68.41 68.07 67.55 67.62 66.88 67.02 68.26 69.07 69.22 68.58 67.42 68.40 68.77 67.35 67.06 66.69 66.20 64.98 61.44 62.47 65.48 65.41 64.87 65.11 64.72 65.05
70.07 70.02 70.19 70.36 70.85 71.26 71.24 71.15 70.78 70.21 69.50 69.01 68.53 67.93 68.00 68.10 68.39 67.86 67.71 67.04 67.48 67.56 66.46 67.56 67.92 68.68 68.35 68.76 68.12 66.86 66.08 65.33 64.91 63.72 60.42 61.23 62.86 65.41 65.49 65.32 65.37 65.51 65.18
69.81 70.02 69.94 70.05 70.25 70.80 70.99 70.74 70.21 69.64 68.89 68.37 67.92 67.66 67.40 68.07 67.88 66.88 67.23 66.83 67.14 66.98 65.49 65.96 66.18 66.26 66.61 66.22 66.27 66.26 65.43 64.91 64.01 62.21 60.52 60.77 61.38 64.06 64.80 64.65 64.70 64.94 64.87
69.01 69.37 68.80 68.97 69.51 70.57 70.93 70.73 69.93 69.05 68.43 67.84 67.79 67.80 67.40 67.90 67.35 67.25 67.22 66.72 66.99 66.82 64.94 65.36 65.22 65.14 65.14 64.61 64.89 64.94 64.29 63.57 61.88 59.36 59.62 62.13 61.00 64.51 64.44 63.86 63.69 63.69 63.93
68.28 68.53 68.11 67.82 68.99 70.43 70.75 70.08 69.20 68.65 67.97 67.73 67.61 67.48 67.63 67.80 67.51 67.41 66.76 66.56 66.43 66.55 65.31 64.91 64.85 65.32 64.95 64.13 64.25 63.81 63.10 61.70 57.76 58.07 58.76 59.72 60.94 63.91 63.80 62.92 62.33 62.17 62.62
66.79 67.00 67.40 68.34 68.14 68.30 68.16 68.74 68.30 68.01 67.69 67.60 67.40 67.42 67.58 67.35 66.94 66.82 66.46 66.11 65.86 65.67 65.47 65.08 64.44 63.93 63.80 64.04 63.59 62.09 61.26 60.51 57.46 57.02 57.87 58.58 63.15 63.01 62.87 62.05 61.29 60.98 61.06
65.90 65.67 66.05 66.64 66.80 66.13 66.82 67.49 67.02 67.08 67.07 66.76 66.88 66.92 66.66 66.31 66.03 66.25 65.81 65.79 65.46 65.15 65.24 65.26 64.58 63.79 63.52 62.74 62.18 61.55 60.47 59.75 54.63 55.98 58.57 58.89 62.78 62.11 61.79 61.04 60.38 59.94 59.76
64.62 64.81 64.67 65.04 64.76 65.02 65.52 65.90 66.00 66.08 65.86 65.95 66.10 65.41 64.77 64.86 65.25 65.28 65.17 65.39 65.19 65.08 64.81 63.79 63.37 63.09 62.61 61.83 60.69 59.46 58.95 56.87 52.55 53.52 55.50 59.31 61.86 61.43 60.92 60.22 59.55 58.94 58.61
62.78 62.69 63.33 63.68 64.11 64.32 64.22 65.80 65.44 65.95 65.50 65.15 64.80 64.20 61.92 61.25 61.22 60.71 63.97 64.42 64.53 64.41 63.33 61.97 60.43 58.79 57.63 58.47 58.69 57.65 54.61 50.96 52.35 52.59 54.14 61.24 61.31 60.56 60.15 59.34 58.21 57.63 56.99
58.51 59.17 60.02 62.39 62.90 63.61 64.76 63.72 62.75 63.37 61.75 61.40 61.13 59.73 59.58 59.20 58.89 61.64 62.69 63.73 63.81 62.27 61.05 59.33 57.32 55.80 52.27 49.18 49.26 50.59 47.23 47.01 47.97 52.45 54.16 60.72 59.69 59.26 58.64 57.77 57.11 56.65 56.06
58.44 59.41 61.11 62.39 62.99 63.48 62.83 61.84 60.81 59.98 59.75 59.68 59.32 58.91 58.73 60.56 59.73 59.72 58.84 58.30 56.13 55.63 51.74 51.07 49.51 48.46 47.65 47.68 46.88 45.58 45.21 44.98 44.42 45.79 53.71 58.26 57.98 57.16 57.65 56.54 56.28 55.81 55.45
58.50 59.17 60.42 61.95 63.31 62.55 61.74 60.85 59.65 58.50 58.59 58.63 58.39 59.16 59.31 58.99 58.50 58.46 57.44 53.46 52.35 50.42 48.75 47.93 47.27 46.58 46.21 46.68 45.78 44.77 44.50 43.70 43.42 43.97 45.89 53.82 56.36 56.64 57.25 55.85 55.73 55.04 54.32
59.47 59.73 60.77 62.76 62.17 61.28 60.40 59.33 58.80 58.54 58.68 59.05 59.08 59.94 60.63 58.98 58.60 55.34 52.78 51.25 49.51 48.24 46.93 46.40 47.18 47.16 45.66 44.52 44.41 43.80 43.65 43.23 43.37 43.41 43.32 50.64 53.95 56.29 55.64 55.08 54.27 54.93 53.30
59.67 59.66 60.88 61.68 61.15 60.13 58.39 57.59 58.09 59.35 60.21 60.76 60.84 60.95 60.38 58.26 55.44 53.23 51.45 49.32 47.53 46.54 46.22 47.67 46.54 45.35 42.67 43.07 42.77 43.04 42.70 42.69 42.40 42.60 43.94 47.70 56.02 56.57 54.92 54.06 53.31 53.26 52.30
59.88 60.67 61.31 61.30 59.72 59.27 58.28 58.24 59.48 60.45 60.77 60.33 60.09 59.66 57.49 55.94 54.43 52.17 50.60 47.33 46.16 45.63 45.83 46.73 44.56 43.10 42.59 43.15 41.82 42.11 41.86 42.21 42.14 41.88 42.45 45.07 45.59 51.94 52.00 51.88 51.90 51.33 50.65
58.87 58.94 61.34 61.99 60.15 59.51 58.83 58.82 59.29 58.97 58.87 58.26 58.08 57.08 56.04 54.69 53.13 50.44 48.96 47.08 46.47 45.52 45.31 43.59 43.12 42.06 41.49 41.26 40.53 40.59 40.17 41.31 41.09 41.35 41.28 41.46 41.68 41.90 44.40 49.87 50.21 51.41 51.20
58.09 58.22 58.73 59.20 58.63 58.13 57.48 57.42 57.66 57.48 56.62 56.24 56.06 55.66 53.32 52.34 51.80 50.55 48.77 46.42 45.94 44.89 44.27 44.17 42.32 42.04 40.71 40.91 41.91 40.81 39.49 39.91 40.29 41.50 40.98 41.18 41.41 41.04 41.10 45.37 47.20 47.25 49.19
56.65 58.04 58.66 57.82 56.46 55.80 55.39 55.23 54.47 54.39 54.11 53.96 54.02 52.77 51.70 51.01 50.26 49.04 46.94 45.49 44.96 44.20 43.07 42.29 41.67 41.58 40.91 40.42 42.73 40.45 38.89 39.20 39.26 38.96 39.55 41.09 40.41 40.37 40.21 40.76 39.69 40.30 46.05
56.35 57.36 57.26 56.14 55.18 56.06 55.19 53.26 52.26 51.93 51.64 51.40 51.43 51.60 51.17 50.77 48.61 46.97 45.56 44.45 44.42 43.47 42.41 41.99 41.41 40.79 39.83 39.74 38.28 37.50 37.93 38.35 38.76 38.57 38.93 38.74 39.42 39.75 39.80 39.78 39.17 39.04 39.08
56.57 57.52 56.62 56.85 55.68 56.50 56.75 53.47 53.18 51.83 50.72 50.23 50.10 50.52 51.01 49.53 47.20 46.36 44.59 43.76 43.67 42.90 42.23 41.59 41.52 39.99 39.37 39.06 36.80 35.09 33.00 35.46 37.53 38.74 37.77 38.79 37.84 38.52 39.00 39.37 38.90 39.11 38.42
55.92 56.83 56.86 56.93 56.16 56.27 55.66 54.07 50.80 50.03 49.80 48.61 48.42 48.67 49.49 49.64 47.61 46.09 44.62 44.06 43.37 42.58 41.38 40.54 39.90 39.26 37.45 37.95 38.31 35.51 30.62 29.60 33.12 36.31 37.06 37.23 37.64 37.23 37.80 37.92 38.35 38.50 37.35
55.40 56.77 57.00 56.93 56.04 55.48 55.64 53.47 51.51 50.85 48.65 48.40 48.86 48.65 48.67 48.45 47.16 45.69 44.65 43.75 42.68 42.33 40.96 40.52 40.67 39.13 37.43 35.69 36.54 39.58 36.81 35.32 32.54 31.26 35.19 36.21 36.63 37.27 37.65 37.15 37.28 37.32 36.63
55.13 55.94 56.38 56.54 56.04 55.72 56.07 54.91 53.01 50.70 50.63 50.27 48.50 48.72 47.64 46.44 46.34 45.45 44.28 42.99 42.27 42.07 40.72 40.95 40.08 39.40 38.19 36.63 35.70 35.03 34.63 34.44 33.98 32.86 30.24 32.97 35.29 36.58 37.53 37.20 37.16 35.72 35.42
54.98 55.26 56.00 56.12 56.22 56.24 56.46 55.64 54.00 53.27 50.69 49.66 47.76 48.01 46.36 44.73 43.98 43.59 43.27 42.39 40.80 40.45 41.45 40.37 38.10 38.05 36.54 36.18 36.00 35.59 35.57 33.90 33.41 32.14 30.40 30.75 31.46 34.45 36.11 36.65 35.36 34.06 34.04

GFSSE_sfc_wetblb_063.txt.gz
Wetbulb
68.91 70.32 71.13 71.79 71.83 71.40 71.27 71.23 71.13 71.24 71.50 71.61 71.18 70.44 69.55 69.04 68.75 68.79 68.62 68.44 68.47 68.25 68.02 68.11 68.47 69.73 70.13 69.37 69.31 69.27 69.16 68.96 68.52 68.53 67.63 67.29 67.17 67.27 67.07 66.71 66.86 65.60 65.97
69.87 70.25 70.37 71.39 71.40 71.08 71.19 71.08 71.19 71.25 71.09 70.84 70.15 69.17 68.52 68.69 68.70 68.72 68.62 68.21 68.76 68.01 68.00 68.19 67.95 68.26 69.43 68.96 68.56 68.45 68.12 67.90 67.24 66.99 67.10 66.04 65.83 65.84 65.75 65.46 66.64 65.67 65.81
69.30 69.90 70.74 70.50 71.18 71.20 71.35 71.33 71.46 71.23 70.36 69.25 68.88 68.66 68.74 69.03 68.67 68.45 68.25 68.39 68.97 68.86 69.81 69.82 69.02 68.01 69.35 68.82 68.29 67.53 66.90 66.63 66.57 66.24 66.26 64.77 65.28 65.97 66.17 65.58 65.70 65.43 65.26
69.81 69.76 70.40 70.20 70.75 71.14 71.10 70.99 70.65 70.37 69.69 68.88 68.74 68.81 68.96 68.84 68.33 68.23 68.23 67.99 69.25 70.21 69.98 69.85 68.98 68.66 69.01 67.64 67.29 66.73 65.97 65.50 64.93 65.55 64.48 64.36 64.27 65.26 65.51 65.44 65.36 65.46 65.26
69.65 69.60 70.17 69.93 70.22 70.65 70.48 70.10 69.71 69.37 68.72 68.27 68.27 68.76 68.84 68.50 68.21 68.11 67.75 67.53 68.19 68.92 68.89 69.47 69.40 68.71 67.35 66.77 66.76 66.69 65.58 65.10 64.95 64.56 64.44 64.58 64.63 64.68 64.62 64.24 63.94 64.38 64.85
69.51 69.48 69.26 68.88 69.73 70.39 70.38 69.90 69.38 68.75 67.93 67.68 67.78 68.54 68.60 68.31 68.16 67.70 67.24 66.92 67.44 67.90 67.20 68.11 67.31 65.95 65.80 65.78 65.74 65.31 64.74 63.72 63.83 63.51 63.90 64.45 64.39 64.16 63.69 62.84 62.81 63.23 63.25
68.76 69.37 70.04 67.95 68.92 70.45 70.47 69.77 68.76 68.23 67.84 67.49 67.80 68.17 68.18 68.18 68.05 67.52 67.11 66.64 66.64 66.81 66.42 66.01 65.45 65.39 64.96 64.91 64.80 63.84 62.97 62.83 62.56 62.83 63.21 63.46 63.85 63.55 62.90 62.06 61.55 61.59 62.00
68.70 68.44 68.77 68.33 68.74 68.43 68.78 68.51 67.90 67.63 67.42 67.47 67.42 67.72 67.90 67.69 67.42 67.07 66.66 66.31 66.08 65.75 65.49 65.57 65.17 65.08 64.50 64.09 63.49 62.49 61.86 61.84 61.97 62.29 62.29 62.64 63.47 62.50 62.02 60.88 60.26 60.42 60.83
66.72 66.31 66.78 66.92 66.92 66.76 67.30 67.07 66.78 66.85 66.78 66.98 67.21 67.15 66.84 66.47 66.26 66.22 65.93 65.72 65.83 65.66 65.08 64.71 64.36 63.76 63.57 63.16 62.29 61.26 60.46 59.85 61.44 61.77 61.41 62.06 61.97 61.67 60.99 59.93 59.25 59.26 59.21
65.42 65.43 65.17 64.71 63.22 64.27 66.13 66.12 65.89 65.85 65.87 66.07 66.05 65.45 65.00 64.95 65.32 65.49 65.16 65.32 65.51 65.51 65.31 64.00 63.54 62.86 61.66 60.87 60.03 59.30 58.62 58.88 59.87 60.92 61.34 61.82 61.57 60.99 60.41 58.98 58.43 58.33 57.73
63.44 64.37 64.29 62.03 63.57 63.33 64.28 65.58 65.76 65.78 65.51 65.20 65.04 64.45 63.20 63.93 63.46 63.71 64.24 64.94 64.59 63.74 62.55 60.72 59.31 58.93 58.93 58.06 56.17 54.73 56.55 58.34 59.08 59.53 60.61 62.11 61.04 60.35 59.39 58.44 57.66 57.28 57.19
59.01 60.80 61.94 61.85 61.52 62.24 64.39 64.64 65.33 64.99 64.79 64.43 63.94 63.48 62.80 63.36 63.52 62.98 63.57 63.50 62.74 61.62 60.38 58.31 56.64 55.85 55.50 54.10 53.74 54.14 53.56 54.12 56.39 58.25 59.33 60.17 59.54 59.15 58.72 57.62 57.14 56.68 56.55
58.23 58.53 58.61 59.72 62.47 62.19 62.45 63.50 63.34 63.29 63.50 63.36 63.00 62.41 62.66 62.82 63.57 63.04 62.91 61.47 59.58 57.28 54.74 53.81 53.98 54.09 53.77 53.60 53.13 52.94 52.80 52.69 53.04 53.57 55.12 56.13 58.37 57.38 58.06 56.74 56.34 55.84 55.50
57.55 58.90 58.25 58.76 58.98 64.09 63.69 63.01 62.33 61.46 61.92 61.70 61.37 62.41 63.41 62.53 63.06 62.83 61.42 58.71 56.43 55.01 54.41 53.62 53.57 53.52 52.96 52.50 52.38 51.91 51.88 51.89 52.10 52.37 52.69 53.50 55.69 57.24 57.83 56.13 56.00 54.96 53.92
57.93 58.05 58.01 59.62 63.18 63.94 63.57 63.04 61.72 61.44 61.77 62.69 62.49 63.30 64.03 62.93 63.00 61.02 57.64 55.77 54.09 54.19 53.42 53.13 52.57 51.56 51.92 51.56 51.08 50.91 50.41 50.90 51.58 52.65 53.89 57.05 57.28 55.98 56.43 55.31 54.71 54.59 53.38
58.56 59.38 60.23 62.35 64.31 63.89 62.96 62.69 61.57 61.56 62.42 62.30 63.09 63.34 64.41 63.26 61.06 57.23 55.63 54.02 53.08 53.55 53.40 52.76 51.47 50.54 51.03 51.01 50.19 50.26 50.03 50.14 51.68 53.51 54.74 54.92 54.73 54.84 54.96 54.21 53.23 53.17 51.98
59.69 60.05 60.24 62.98 64.46 63.73 62.63 61.94 61.67 61.70 62.48 62.20 62.69 63.53 63.37 61.91 59.18 57.39 55.43 53.64 53.08 53.42 52.61 49.85 51.25 51.58 50.77 50.23 49.79 49.38 49.78 49.67 49.78 50.52 51.78 52.22 52.73 51.14 51.48 51.54 51.60 51.62 51.43
60.56 60.95 62.13 62.80 63.57 63.02 61.87 61.69 61.84 62.29 63.50 64.06 64.30 63.21 62.13 60.39 58.68 56.84 54.36 52.86 52.96 52.93 51.87 51.55 51.40 50.45 50.34 50.17 49.95 48.80 49.06 48.97 49.08 49.26 49.32 49.83 50.03 49.75 48.36 49.67 49.84 50.32 50.88
61.54 61.87 62.35 63.74 63.45 63.46 62.40 62.02 62.67 63.46 63.68 63.33 62.72 61.98 60.08 58.95 57.53 55.76 53.86 52.75 53.41 52.73 52.62 51.62 50.56 50.62 49.79 49.82 49.48 49.31 49.03 48.45 48.62 48.30 48.68 48.83 48.57 48.66 49.15 46.54 46.93 46.82 48.05
62.06 62.43 63.20 63.64 63.37 62.30 61.75 61.69 62.30 62.46 62.08 61.80 62.14 60.93 59.04 57.95 56.61 55.27 53.57 53.00 52.89 52.07 51.21 51.04 50.58 50.32 50.02 49.74 48.00 47.65 48.90 47.96 48.47 49.25 48.70 48.11 48.70 48.53 48.94 48.05 48.04 47.44 45.24
61.60 61.67 62.26 62.02 62.04 60.78 59.69 59.02 58.84 59.83 59.86 59.42 59.98 58.85 57.71 56.69 55.80 53.40 53.47 52.47 52.68 52.07 50.96 51.14 50.18 49.59 48.85 49.71 47.72 47.05 47.85 47.18 46.98 47.89 48.62 48.29 47.56 47.63 48.09 47.70 47.43 47.13 46.60
59.91 61.04 61.34 61.49 60.61 60.89 61.10 60.67 60.55 60.18 58.95 58.60 58.06 57.70 57.01 55.89 54.24 52.83 52.74 51.73 51.95 50.50 50.39 50.55 50.44 48.72 49.00 48.72 45.78 44.96 42.76 43.97 45.99 46.99 47.04 46.68 46.90 48.11 46.79 46.39 46.80 46.12 46.09
59.21 60.19 60.66 61.19 60.83 61.25 61.48 60.07 57.53 56.92 56.35 55.58 55.90 55.56 54.68 53.75 52.51 52.83 52.21 51.72 51.45 51.34 50.16 50.41 50.03 48.42 46.52 46.62 46.05 43.79 40.08 39.05 41.04 45.40 45.37 45.92 46.05 46.88 46.49 46.12 45.57 45.91 45.69
59.53 60.77 60.90 61.03 60.68 60.75 60.56 59.85 58.40 58.69 56.79 56.64 55.95 54.15 52.95 52.77 52.26 52.27 51.70 51.71 50.97 50.58 50.07 49.59 48.60 48.25 46.56 43.66 45.24 45.22 45.03 43.31 38.64 37.63 43.88 44.75 45.30 45.01 45.79 45.95 45.25 45.05 44.92
60.01 60.22 61.03 60.83 60.40 60.28 59.79 59.99 59.15 58.27 57.79 56.02 54.94 53.12 52.92 52.81 53.06 51.61 51.39 50.72 50.36 50.29 49.53 49.13 47.11 44.76 43.84 43.13 43.75 43.73 43.22 43.43 42.96 39.58 36.85 40.10 43.67 44.60 45.16 45.07 45.11 44.20 43.16
59.53 60.11 60.35 60.13 59.75 59.66 59.47 59.14 58.61 57.37 55.37 53.82 54.22 52.88 52.74 52.91 51.98 51.15 50.26 50.48 50.31 48.73 47.71 44.88 46.45 43.07 43.12 42.82 43.07 43.65 42.41 40.75 40.12 39.94 38.51 39.27 39.49 41.42 43.33 43.97 43.90 43.42 42.84

GFSSE_sfc_wetblb_066.txt.gz
Wetbulb
71.09 71.13 71.15 72.07 72.30 72.13 71.91 71.77 71.61 71.59 71.73 71.69 71.09 70.20 69.55 69.33 69.23 69.23 69.38 69.67 69.85 70.58 70.79 70.83 70.99 70.04 69.83 69.84 69.09 68.74 68.71 68.57 68.14 67.89 66.95 66.50 66.53 66.59 66.70 66.93 67.55 66.19 66.26
71.02 71.35 70.69 71.54 71.93 71.84 71.80 71.70 71.56 71.50 71.61 71.12 70.05 69.35 69.16 69.26 69.14 68.94 69.23 69.54 69.80 69.31 69.44 70.37 70.27 69.44 69.28 68.24 67.87 67.60 67.09 67.35 67.01 67.46 67.42 66.69 66.49 66.57 66.46 66.04 66.64 66.41 66.08
70.57 70.60 71.92 70.71 71.33 71.43 71.69 71.89 71.63 71.52 70.94 70.13 69.35 69.13 69.16 69.23 69.18 68.84 69.23 69.37 69.76 69.26 68.99 69.47 69.96 69.45 67.99 67.46 67.42 66.89 66.38 66.42 66.59 66.61 67.66 65.41 65.95 66.10 66.15 65.82 66.25 66.03 65.94
70.54 70.37 70.72 70.32 70.71 71.12 71.14 71.23 70.97 70.70 69.93 69.39 69.32 69.42 69.23 69.06 68.99 69.40 69.53 70.18 70.77 70.72 69.39 69.40 70.14 68.45 67.12 67.17 67.13 66.67 65.94 65.47 66.26 66.57 65.29 65.00 64.48 64.97 64.91 64.80 65.13 65.60 66.04
70.05 69.69 70.84 70.05 70.44 70.89 70.84 70.49 70.09 69.52 68.80 68.80 69.07 69.25 68.92 68.75 68.97 69.06 69.30 69.98 70.70 70.90 70.25 70.05 69.62 66.88 66.88 67.16 67.09 66.59 65.57 65.60 65.99 65.59 64.79 65.34 64.87 64.05 63.71 63.55 64.43 63.98 64.24
71.05 69.86 69.46 69.12 69.98 70.50 70.36 70.00 69.42 68.57 68.27 68.34 68.62 68.71 68.70 68.89 68.75 68.53 68.23 68.82 69.92 70.65 70.48 69.62 67.36 66.44 66.80 66.43 66.27 65.33 64.93 65.00 64.88 64.61 64.78 65.01 64.26 63.24 62.61 62.15 62.30 62.74 62.70
69.49 70.26 70.83 68.32 69.50 70.14 70.27 69.66 68.62 68.19 67.99 68.12 68.28 68.10 68.45 68.55 68.28 67.79 67.63 67.81 68.03 69.25 68.52 66.56 65.78 65.91 65.93 65.52 64.93 63.81 63.39 63.39 63.75 63.78 63.90 64.17 63.91 62.60 61.75 61.10 61.31 61.61 61.70
67.69 69.03 70.76 68.77 69.14 69.24 69.07 68.37 67.56 67.31 67.53 67.70 67.78 67.72 68.00 67.82 67.67 67.56 67.04 66.85 67.26 67.03 66.43 65.89 65.44 65.17 64.79 64.35 62.99 62.70 62.14 62.65 63.46 62.88 63.23 63.30 62.54 61.80 60.88 60.16 60.07 60.12 60.30
68.63 68.86 67.68 67.91 68.49 67.57 66.85 66.78 66.64 66.87 66.97 67.39 67.24 67.05 66.65 66.20 66.12 66.39 66.24 66.32 65.99 65.74 65.57 65.40 65.11 64.56 63.80 62.74 61.68 60.87 60.41 60.92 62.83 62.64 62.11 63.05 61.75 61.23 60.15 59.21 59.21 58.97 58.91
67.08 66.61 64.08 63.59 63.37 61.68 62.20 64.81 65.90 66.16 66.30 66.36 65.84 65.42 64.89 64.95 65.50 65.56 65.46 66.11 65.87 65.34 64.82 63.67 63.19 62.82 61.77 60.95 59.77 59.02 59.57 60.33 61.76 61.33 62.07 62.26 61.35 60.60 59.45 58.54 58.36 58.18 58.19
64.25 61.92 61.66 62.17 61.39 62.01 62.98 64.80 65.89 66.21 65.87 65.11 64.83 64.11 63.14 63.00 62.88 63.41 64.57 65.17 65.14 64.06 63.18 61.87 61.23 59.86 58.83 57.26 56.16 56.82 57.81 60.72 60.61 60.59 61.00 62.11 60.65 60.43 59.15 58.20 57.75 57.38 57.62
60.81 60.14 61.36 61.61 61.72 61.28 61.39 61.43 64.57 64.92 64.42 64.00 63.18 63.93 63.96 64.46 64.51 64.11 63.77 63.35 62.66 61.45 60.25 58.32 58.04 58.37 59.92 59.27 57.64 57.38 57.44 57.60 58.20 59.02 59.37 59.11 59.10 59.67 58.58 57.68 57.18 56.84 56.64
60.63 61.40 60.94 61.27 61.54 60.36 60.28 62.41 63.18 62.98 64.23 64.16 64.36 63.71 64.81 64.89 64.19 64.71 63.18 62.28 61.27 60.17 58.71 58.45 59.15 59.67 59.20 58.34 57.55 57.04 56.14 56.06 55.67 55.60 55.70 55.78 58.44 58.25 58.10 57.27 56.45 55.86 55.50
58.08 58.87 60.18 60.53 60.31 60.53 61.25 63.06 63.97 62.95 63.40 63.07 63.65 64.59 64.08 63.73 63.99 64.45 63.77 63.22 61.69 60.94 60.13 59.83 58.38 58.01 56.72 56.39 55.62 55.24 55.17 54.57 54.31 54.54 55.68 56.78 56.14 57.69 57.89 56.93 56.11 54.76 53.99
57.10 57.95 58.44 60.17 59.59 60.54 60.79 62.69 62.68 62.82 62.71 62.71 63.63 64.06 64.01 63.52 63.97 64.47 63.55 62.43 61.34 60.42 59.37 58.37 57.42 56.14 55.78 55.13 54.72 54.06 53.60 53.89 54.17 55.11 57.27 57.15 57.46 56.15 57.33 55.49 55.31 54.68 53.53
57.48 57.21 57.40 58.24 58.90 60.14 63.31 63.80 62.74 62.94 64.10 63.62 63.83 64.72 65.34 64.60 64.73 63.64 62.30 60.60 59.47 59.51 59.10 57.92 57.00 56.39 55.13 54.35 53.77 53.27 52.68 53.14 54.00 55.51 56.29 56.01 54.97 55.27 55.12 54.46 53.50 53.61 52.61
59.56 60.21 58.18 60.05 62.90 63.90 64.89 64.43 63.04 63.00 62.97 62.64 63.03 65.69 66.32 65.70 64.45 63.33 60.61 58.10 59.21 59.63 58.42 56.58 55.96 55.64 54.30 53.32 52.41 53.01 53.21 52.72 53.29 53.74 54.52 55.56 54.45 51.45 51.50 51.57 52.13 52.64 53.02
60.10 59.18 60.99 62.50 64.64 65.62 65.53 64.19 62.79 62.94 63.00 63.06 64.00 65.52 66.65 65.72 64.17 61.26 60.48 59.55 59.16 58.01 56.73 55.79 55.63 54.09 53.89 53.99 53.65 54.04 53.92 53.08 53.25 53.06 52.95 54.03 54.86 52.99 50.39 49.50 49.02 49.12 49.69
60.25 60.43 61.77 64.39 65.39 65.87 64.98 64.02 63.62 63.61 63.28 65.15 66.14 65.98 66.08 65.48 63.59 62.11 60.47 59.14 58.55 57.19 56.84 55.73 55.10 54.71 53.43 54.10 53.79 54.75 54.13 52.84 52.45 51.92 52.06 51.90 52.63 50.60 50.27 47.89 46.47 46.36 47.18
62.60 63.63 64.02 64.63 65.64 66.07 66.38 64.84 63.63 63.48 64.09 66.22 66.14 65.44 64.63 64.06 62.74 61.89 60.15 58.83 58.51 57.33 56.39 55.25 54.40 54.31 54.70 55.29 52.13 52.65 53.30 52.52 52.73 52.09 50.97 50.38 51.51 50.37 50.48 49.93 50.20 50.36 45.98
63.06 63.40 63.80 64.03 65.39 65.59 64.95 62.79 61.87 62.01 64.08 65.15 65.20 65.63 64.58 63.80 62.67 61.37 59.66 58.37 58.34 56.97 55.98 55.78 54.46 53.41 53.20 54.79 53.58 52.91 51.92 51.56 51.13 50.96 51.11 50.07 49.90 49.44 50.37 49.50 49.28 49.09 48.64
63.33 63.89 64.11 64.68 65.85 65.91 64.88 63.49 62.53 62.78 63.64 65.00 64.55 64.43 63.84 62.44 61.60 60.16 59.18 57.99 57.70 56.36 55.55 54.85 54.35 53.01 53.62 53.42 50.90 49.46 48.30 49.14 49.92 50.30 50.69 49.28 49.75 49.47 48.90 48.92 48.97 48.45 48.35
62.49 63.44 64.09 65.29 65.61 65.80 65.06 63.65 63.31 64.46 64.34 63.38 62.45 62.55 62.65 60.49 60.98 58.91 57.68 58.37 57.17 56.24 54.83 54.99 54.76 53.53 51.63 51.18 50.39 47.28 42.02 44.07 46.04 49.32 48.28 48.51 48.69 48.78 49.15 48.89 48.56 48.14 48.14
62.53 63.45 64.68 65.37 65.46 65.46 65.19 63.56 62.16 61.56 61.20 62.79 62.72 62.85 59.59 59.63 58.22 56.89 57.57 57.62 56.72 56.30 55.55 54.82 54.39 53.55 51.51 48.13 49.33 45.65 46.20 44.75 42.40 41.66 46.90 47.46 48.16 47.61 48.25 48.45 48.30 48.26 47.65
63.39 63.77 63.80 64.48 65.14 65.61 65.58 64.93 63.42 62.60 63.56 64.13 62.80 61.69 59.86 58.07 56.89 56.21 56.83 56.92 56.30 55.94 55.70 54.58 53.38 51.21 48.56 49.24 46.37 44.45 44.45 46.60 46.09 43.10 41.39 43.90 46.06 46.98 47.55 47.62 47.60 47.48 47.13
64.75 64.58 64.50 63.84 64.07 65.14 65.29 65.05 64.46 63.85 63.39 61.50 60.89 59.44 56.56 56.53 54.66 55.56 56.14 56.31 56.27 55.61 54.58 53.38 52.08 49.63 47.97 46.99 45.62 45.14 45.70 44.00 43.39 43.14 41.74 42.37 42.41 44.54 46.01 46.55 46.35 46.47 46.62

GFSSE_sfc_wetblb_069.txt.gz
Wetbulb
69.21 71.10 71.72 72.85 72.60 72.34 72.14 71.99 71.82 71.68 71.91 71.77 71.19 70.74 70.25 70.26 70.23 70.21 70.48 70.48 71.29 71.97 71.26 70.63 70.49 69.80 68.80 68.93 68.60 67.94 68.35 68.21 67.63 67.87 67.14 66.89 66.91 66.89 66.72 67.34 67.16 65.71 66.71
69.56 71.10 71.17 72.17 72.38 72.26 72.26 71.94 71.83 71.77 71.77 71.17 70.42 69.91 69.81 69.84 69.82 70.09 70.36 71.10 71.56 71.77 70.94 70.16 69.56 68.53 68.06 67.77 67.41 67.36 66.78 67.51 67.65 67.99 67.87 66.91 66.64 66.64 66.68 66.66 66.90 65.79 66.13
69.31 71.31 72.55 71.33 72.10 72.19 72.18 72.06 71.97 71.84 71.26 70.61 69.96 69.66 69.62 69.45 69.84 70.06 70.14 70.36 70.77 71.38 70.45 69.60 68.19 67.66 67.27 66.81 67.30 66.73 66.61 66.59 66.54 67.89 68.73 64.25 64.53 65.57 65.79 65.63 66.75 66.20 65.93
70.01 70.86 72.37 70.85 71.48 71.82 71.50 71.60 71.41 71.19 70.36 69.66 69.69 69.60 69.60 69.53 69.94 70.09 70.19 69.99 70.11 70.97 70.23 69.25 67.68 67.17 66.93 67.00 66.78 66.15 65.84 65.89 65.69 66.16 65.08 63.89 62.93 64.12 64.74 64.66 64.65 64.98 65.75
69.47 69.92 71.89 70.36 70.61 71.22 71.16 70.90 70.58 69.88 69.36 69.14 69.29 69.60 69.50 69.67 70.01 70.88 70.82 70.66 70.33 70.67 70.39 68.21 67.31 66.83 66.91 67.17 66.75 66.10 65.60 65.44 66.11 65.39 64.09 63.85 62.41 62.78 63.08 62.98 63.35 63.39 63.48
67.86 70.03 69.76 69.36 70.03 70.77 70.82 70.46 69.65 69.05 68.76 68.79 68.58 69.08 69.55 69.79 70.25 70.43 70.42 70.55 70.46 70.65 69.75 66.98 66.78 66.52 66.63 66.45 65.92 65.05 64.48 64.84 64.69 64.10 64.00 63.53 62.12 62.27 62.24 62.25 62.41 62.51 62.48
67.86 70.28 70.91 68.69 69.76 70.21 70.50 69.56 68.69 68.56 68.48 68.41 68.34 68.54 68.83 68.83 68.94 68.93 69.23 69.96 69.99 70.08 67.84 66.32 66.22 65.75 65.89 65.25 64.18 63.85 63.70 64.32 63.14 63.32 63.22 62.47 61.97 61.54 61.29 61.19 61.08 61.03 61.24
66.97 68.81 69.64 69.36 69.49 69.43 68.99 68.32 67.91 68.11 68.10 67.78 68.05 67.96 68.13 67.84 67.84 67.96 68.05 68.50 68.14 67.32 66.96 66.44 65.93 65.29 64.75 63.65 62.71 62.44 62.45 63.44 63.25 62.62 63.36 62.15 61.74 60.88 60.53 60.12 59.74 59.75 60.07
67.76 67.67 67.33 68.38 68.42 67.08 66.58 66.60 66.76 67.37 67.27 67.33 67.53 67.26 66.97 66.57 66.44 66.53 66.79 67.04 66.60 66.20 65.88 65.44 64.78 64.24 63.38 62.14 61.25 60.88 60.71 62.30 62.72 62.41 62.31 61.86 61.30 60.25 59.94 59.34 59.12 59.23 59.05
66.99 66.36 65.06 63.43 65.01 63.86 64.92 65.88 66.17 66.55 66.73 66.55 66.25 65.77 65.32 65.33 65.48 65.87 65.43 65.74 65.76 65.41 64.86 63.90 63.74 63.13 61.70 60.69 60.24 59.78 59.72 61.70 61.08 61.41 61.80 61.32 60.97 60.09 59.23 58.79 58.54 58.47 58.38
62.77 62.81 60.62 60.41 61.26 62.40 62.79 64.61 66.10 66.17 65.68 65.04 64.89 64.40 63.48 63.16 63.30 63.95 64.79 64.97 64.84 64.20 63.69 62.84 61.89 60.70 59.43 58.13 57.60 57.96 59.02 59.64 59.96 60.45 60.99 61.88 60.78 60.24 58.96 58.20 57.70 57.87 57.51
60.37 60.53 59.45 58.70 58.41 59.05 60.66 62.14 64.70 65.52 64.34 64.04 63.68 63.64 62.67 64.71 64.62 63.86 63.81 63.36 63.27 62.58 61.66 61.47 60.77 60.18 60.75 59.35 58.48 58.10 57.57 57.58 56.83 58.13 58.86 59.40 59.67 59.94 58.76 57.96 57.25 56.98 56.52
60.44 59.76 59.59 58.65 58.25 58.35 60.66 62.65 61.92 63.10 62.89 63.19 64.32 64.59 64.41 64.94 64.97 64.25 62.85 61.66 61.27 61.18 59.67 58.87 58.44 60.64 61.25 60.24 58.63 57.35 56.47 56.04 55.54 55.45 55.50 55.93 58.29 59.24 58.76 57.55 56.56 55.87 55.61
59.29 59.05 59.67 59.37 59.18 59.42 61.53 61.30 62.04 61.31 61.80 62.98 63.93 66.20 65.55 64.68 64.62 63.44 62.49 62.39 61.72 61.41 60.61 61.49 60.79 60.21 58.96 57.65 56.49 55.83 55.40 54.94 54.55 54.66 56.37 56.50 56.19 57.93 58.27 57.61 56.31 54.95 54.21
58.16 58.63 58.67 59.12 58.86 58.50 59.60 58.93 59.15 61.44 62.78 63.61 64.25 65.56 64.78 64.57 65.73 64.20 64.10 62.80 62.35 62.27 61.65 61.08 59.58 58.15 57.49 56.80 55.80 54.88 54.35 54.77 55.02 55.45 57.02 57.17 57.96 56.49 58.02 55.85 55.83 55.21 53.85
57.29 57.05 57.81 58.42 59.14 58.90 58.05 57.05 57.72 62.21 61.93 63.12 63.95 64.05 66.20 65.56 65.84 64.58 64.12 63.16 62.42 62.09 61.54 60.82 59.38 58.34 57.36 56.18 54.80 54.17 53.74 54.01 54.60 55.59 56.64 55.69 55.81 55.88 55.64 54.78 54.00 53.89 53.58
57.32 58.16 57.89 57.96 58.13 58.28 59.03 60.68 62.07 62.47 63.29 62.57 62.86 65.74 65.07 65.66 65.34 64.85 63.60 62.30 61.85 62.21 61.55 60.52 59.27 58.33 57.01 55.20 53.71 53.74 53.64 53.80 54.05 54.26 54.82 56.07 54.19 53.96 52.93 52.08 52.25 52.23 52.04
56.16 56.29 57.08 57.69 58.65 60.16 61.58 62.78 63.24 62.96 63.61 63.53 63.67 64.38 65.53 66.19 65.94 64.81 62.42 61.24 61.66 61.38 60.21 59.12 58.36 57.06 55.48 54.67 54.42 54.61 54.59 54.06 53.55 53.24 53.53 53.53 54.06 52.95 51.98 50.71 49.43 48.07 48.39
59.94 58.70 57.82 59.32 60.73 63.05 64.07 64.64 63.92 64.71 62.85 62.51 63.91 65.10 66.19 66.23 65.51 64.14 62.80 62.76 61.71 60.35 59.25 58.46 57.75 56.94 54.80 54.63 54.27 54.80 54.62 53.64 53.14 52.34 52.26 52.17 52.63 51.15 50.63 49.77 48.92 48.34 47.18
60.60 60.48 61.67 62.93 63.87 64.89 65.65 64.31 62.96 62.81 62.86 63.63 64.94 65.61 66.24 65.88 64.72 63.69 63.49 62.47 60.86 59.54 58.97 58.50 57.49 56.10 55.75 55.50 52.92 53.41 54.66 53.95 53.83 53.18 52.08 51.48 51.69 51.31 50.83 50.76 50.46 50.59 48.68
60.67 60.54 62.14 63.23 64.26 64.68 64.10 62.61 61.53 60.49 61.87 63.22 65.38 65.52 65.67 65.55 64.78 64.42 62.95 61.22 60.54 59.73 59.36 57.95 56.40 55.20 54.36 55.26 53.86 54.07 54.01 53.79 53.31 52.83 52.87 52.17 51.39 51.23 50.90 50.49 49.93 49.83 49.50
61.59 62.92 63.23 63.49 64.44 64.70 64.36 63.34 62.09 61.71 62.05 63.38 65.87 65.36 65.53 65.07 64.45 63.50 62.76 61.06 60.39 59.77 58.84 57.32 56.23 54.68 55.33 55.17 52.67 52.07 50.00 51.58 51.86 52.30 52.38 51.85 51.41 50.79 50.20 50.32 49.98 49.62 49.19
62.06 62.88 63.29 63.85 64.21 64.98 65.10 63.92 62.74 62.59 62.59 62.53 64.39 63.59 64.05 64.48 64.47 63.72 62.70 61.53 60.67 60.05 57.69 56.87 56.17 55.57 53.60 53.95 52.73 51.06 47.82 46.60 48.30 51.65 51.51 50.13 50.61 49.80 50.40 50.34 50.02 49.61 49.20
63.31 64.55 64.85 64.79 64.82 65.48 65.24 63.93 62.26 60.76 60.11 62.23 63.53 63.65 62.78 63.81 63.17 61.68 61.63 61.21 60.86 59.84 58.32 56.89 56.65 56.48 55.25 52.57 52.31 50.82 50.67 48.15 44.85 44.53 49.40 48.98 49.48 48.84 49.66 49.49 49.26 49.45 49.21
63.69 64.11 64.90 64.89 65.18 65.54 65.74 65.20 62.98 61.97 62.68 63.63 64.12 63.27 63.34 62.56 61.75 60.77 60.23 60.36 60.13 58.82 58.64 58.45 57.09 55.74 53.93 52.00 48.94 49.01 47.75 48.47 48.87 45.15 42.67 45.94 48.66 48.60 48.68 48.61 48.52 48.39 48.13
65.38 65.11 64.39 64.47 64.85 65.55 65.80 65.55 64.75 63.41 63.29 62.63 63.95 62.06 61.96 61.29 60.06 58.26 58.30 59.61 59.35 57.12 57.88 57.20 56.21 54.69 51.97 50.76 48.78 47.23 47.29 47.04 46.36 45.33 43.47 44.05 43.97 45.90 47.28 47.35 47.24 47.10 47.29

GFSSE_sfc_wetblb_072.txt.gz
Wetbulb
68.91 70.78 72.38 72.58 72.49 72.30 71.90 71.83 71.61 71.46 71.58 71.57 71.31 71.07 71.17 71.10 71.20 70.99 71.22 71.37 71.78 71.66 70.90 69.91 69.67 68.66 68.16 67.35 67.20 67.89 68.43 68.14 67.87 68.19 67.44 66.89 67.03 67.34 66.99 67.43 66.70 64.87 66.78
69.19 71.67 71.57 72.12 72.34 72.12 71.92 71.78 71.63 71.66 71.66 71.41 70.85 70.58 70.36 70.51 70.59 70.63 71.46 71.61 71.46 71.43 70.13 68.83 68.19 67.78 67.24 67.27 67.17 67.53 68.09 68.11 67.64 67.65 67.03 66.05 66.30 66.29 67.48 66.87 67.02 64.69 66.03
63.24 71.51 72.18 71.53 72.06 71.93 71.97 71.98 72.04 71.86 71.51 70.87 70.48 70.19 70.12 70.37 70.38 71.11 71.26 71.22 71.09 70.46 69.02 68.20 67.52 66.91 66.57 66.63 67.26 67.21 67.09 67.28 67.69 67.97 65.77 60.51 61.86 65.62 65.55 65.26 66.18 65.94 65.91
68.77 71.14 72.05 71.10 71.64 71.67 71.53 71.64 71.60 71.53 70.83 70.29 70.12 69.81 69.86 70.35 70.50 70.87 70.82 70.62 70.70 70.13 67.98 67.86 67.35 66.91 66.42 66.48 66.73 66.50 66.58 66.67 66.82 67.40 61.02 59.69 60.38 63.94 64.44 64.05 64.03 64.57 65.08
68.52 70.78 71.71 70.48 70.88 71.22 71.33 71.26 70.74 70.41 69.81 69.64 69.24 69.56 70.03 70.18 70.37 70.64 70.07 70.17 70.41 69.86 67.77 67.58 67.09 66.61 66.23 66.49 66.04 65.95 65.57 65.81 65.43 62.55 59.65 58.92 58.39 62.17 63.29 63.08 62.72 63.12 63.53
68.36 70.67 69.63 69.79 70.33 70.86 71.01 70.66 70.02 69.35 68.99 68.92 68.89 69.51 70.15 70.83 71.03 70.92 69.89 70.00 70.28 68.94 67.33 67.09 66.85 65.98 66.15 65.12 64.57 64.60 65.09 65.09 64.92 60.47 59.43 60.25 58.45 61.98 62.34 61.76 61.73 61.75 61.92
67.45 69.92 69.89 68.19 70.10 70.42 70.61 69.99 69.19 68.77 68.68 68.47 69.00 69.26 70.25 70.64 70.74 70.44 69.87 69.73 69.07 68.09 67.24 66.51 65.96 65.26 65.09 64.24 63.86 63.84 63.88 63.49 60.92 59.56 58.88 58.20 58.06 61.40 61.29 60.77 60.87 60.91 61.29
66.60 66.42 68.53 68.66 69.13 68.97 69.15 68.55 68.16 68.16 68.14 68.10 68.48 68.40 68.80 68.96 69.37 69.76 69.48 68.89 67.57 67.46 67.22 66.49 65.77 64.75 64.37 63.59 62.73 62.07 62.35 63.39 61.85 60.30 59.01 57.94 60.74 60.74 60.62 60.37 60.00 59.86 60.02
66.42 63.27 63.11 65.55 67.81 67.61 67.13 67.11 67.17 67.40 67.44 67.55 67.50 67.13 67.13 67.27 67.58 68.02 67.70 67.51 67.26 66.72 66.27 65.60 64.80 64.14 63.12 62.12 61.09 60.61 61.26 62.17 58.15 59.48 59.75 58.08 60.57 60.12 60.01 59.75 59.47 59.31 59.58
66.38 65.46 63.83 65.40 64.68 65.13 65.84 66.25 66.22 66.49 66.45 66.36 66.13 65.73 65.24 65.55 66.24 66.27 65.97 66.18 66.08 65.69 65.05 64.41 63.76 62.90 61.95 60.43 59.80 59.39 60.74 60.95 57.35 58.55 58.40 58.74 60.84 59.82 59.45 59.04 58.86 58.84 59.33
61.41 63.24 64.61 63.41 63.32 63.49 63.84 65.60 66.05 66.16 65.53 65.11 64.81 64.28 63.07 63.14 63.52 63.80 64.74 65.12 65.20 64.85 64.28 63.33 62.49 61.38 59.82 58.97 59.05 58.68 58.98 54.90 56.49 57.97 58.36 62.12 60.79 59.86 58.99 58.30 58.20 58.04 58.36
58.44 59.55 60.88 60.24 60.19 60.89 62.46 63.42 64.33 65.02 63.99 63.57 62.62 62.60 61.43 61.79 62.52 63.23 63.63 63.92 64.07 63.78 63.54 62.75 61.88 60.67 59.35 54.52 54.39 57.78 53.40 53.72 55.47 57.15 56.78 60.99 60.91 60.04 59.00 57.89 57.41 57.03 57.05
58.06 58.66 59.21 58.94 58.54 57.98 57.93 58.57 59.48 62.29 62.09 62.36 62.92 61.94 62.91 62.24 61.93 61.36 60.26 59.95 59.30 60.39 57.81 58.93 58.42 56.98 58.07 56.55 54.73 53.02 53.26 52.73 52.48 52.86 55.71 58.71 60.03 59.90 58.88 57.55 56.83 56.40 55.91
57.67 57.10 57.46 58.46 59.31 58.94 59.16 60.66 61.60 60.91 61.01 60.91 62.29 62.74 63.31 61.96 61.82 60.79 59.81 59.51 58.82 58.61 56.59 56.73 58.31 57.71 55.42 54.76 53.26 52.58 52.13 51.49 50.57 52.67 55.54 56.94 58.53 59.80 59.09 57.71 56.40 55.35 54.76
57.38 57.19 57.66 58.71 58.98 59.69 59.07 59.54 60.34 60.68 59.94 60.93 61.48 62.98 63.20 62.53 61.56 61.36 60.67 59.81 58.78 58.74 58.65 58.68 56.98 55.64 54.70 53.63 52.78 51.96 51.43 51.13 51.49 53.92 53.50 58.22 58.23 58.52 58.51 56.96 56.75 55.61 54.37
56.57 56.92 57.55 57.53 57.67 57.14 56.49 57.27 58.20 59.18 60.15 61.41 62.17 62.18 63.52 63.40 62.67 62.25 61.54 60.59 59.93 59.55 59.36 58.32 56.48 55.30 54.54 52.66 51.37 51.01 50.60 50.90 51.20 52.94 52.69 53.59 56.91 57.93 57.37 55.97 54.69 54.64 54.11
56.14 56.33 55.90 55.81 56.51 55.79 55.71 56.38 57.54 58.59 59.06 59.22 60.88 62.43 63.16 63.36 62.88 62.63 62.10 60.99 59.92 59.67 59.54 58.35 56.72 55.89 53.28 52.73 50.79 50.64 50.44 50.41 50.60 50.29 52.24 52.28 52.83 55.73 55.93 54.77 54.19 52.33 51.26
56.16 55.68 56.80 56.45 55.41 55.72 56.30 56.63 57.38 58.90 59.86 60.53 61.39 61.91 63.35 63.46 63.22 62.56 61.41 60.25 60.04 59.59 58.16 56.49 55.29 53.79 52.59 50.84 49.68 49.16 49.65 50.13 49.82 49.24 49.48 49.85 51.39 51.35 53.22 53.25 51.73 50.52 49.19
57.09 56.47 56.40 56.23 56.00 56.31 57.75 57.83 59.22 60.49 60.72 61.51 61.64 62.25 63.00 63.45 63.60 62.25 60.41 59.47 59.64 58.75 57.23 56.63 55.41 53.83 51.10 50.70 51.17 50.30 49.59 49.23 49.20 50.85 49.08 48.40 48.17 47.33 48.18 52.04 51.99 51.04 49.35
57.22 57.29 56.73 56.79 57.55 58.17 58.55 60.62 60.75 61.20 60.93 61.47 62.65 63.12 63.88 64.08 63.96 62.78 61.13 60.13 59.36 57.97 56.48 55.26 54.43 53.66 51.77 51.46 52.17 50.91 49.83 49.58 49.62 48.69 48.40 49.07 48.37 47.64 46.88 46.77 46.20 47.06 50.60
57.93 57.36 56.73 57.14 57.89 59.83 60.02 59.32 59.43 59.12 59.82 60.32 61.71 63.34 63.93 63.90 64.08 61.79 61.94 60.62 58.48 57.13 55.85 56.32 54.10 51.93 50.18 50.82 49.61 49.44 49.75 49.66 48.72 48.34 48.80 47.50 48.11 48.18 47.15 46.38 45.57 45.02 45.76
57.49 57.22 57.16 58.12 61.38 62.11 61.99 61.52 60.55 59.92 60.11 60.58 62.39 63.50 64.08 63.90 63.83 62.89 61.86 59.36 58.17 57.32 57.40 54.76 53.10 50.85 51.34 51.85 48.18 47.65 44.97 46.79 48.87 49.26 48.41 48.73 47.54 47.06 47.01 47.35 46.52 45.68 45.05
57.72 58.24 59.55 61.13 62.34 62.70 62.85 62.28 60.89 60.31 60.01 59.56 62.57 62.94 63.34 63.90 63.53 62.34 61.69 59.70 58.40 58.29 56.05 54.64 53.60 52.00 49.90 49.94 49.29 46.70 42.73 42.21 42.78 46.92 47.38 47.20 45.86 45.38 45.38 46.39 47.08 46.64 45.63
57.71 59.88 61.28 62.13 62.98 63.39 63.24 61.56 59.67 58.36 57.24 58.94 61.88 62.89 62.74 63.02 63.01 62.62 61.64 60.41 59.29 58.31 56.55 54.89 55.19 52.48 51.90 48.53 48.15 48.75 47.77 45.72 41.74 39.69 44.74 44.82 45.47 45.72 44.91 45.09 45.11 46.17 45.84
60.66 61.27 62.22 62.69 62.67 62.24 63.09 62.65 60.83 59.33 59.11 59.80 61.03 61.95 61.75 62.03 62.17 61.88 60.37 59.30 58.97 58.31 57.14 55.40 53.82 53.72 52.33 47.69 47.27 46.17 45.23 43.98 45.57 41.19 38.59 41.48 44.17 44.82 45.14 45.15 44.31 44.27 44.60
61.62 62.33 63.16 63.11 62.77 63.06 63.52 62.52 62.46 59.94 60.42 60.14 61.56 60.97 61.04 60.95 60.39 60.16 59.49 58.59 57.82 57.50 55.66 55.01 54.40 53.81 48.67 47.11 46.20 45.12 44.97 43.97 44.18 41.60 38.71 39.00 38.92 41.26 43.36 43.23 42.10 42.37 42.78

GFSSE_sfc_wetblb_075.txt.gz
Wetbulb
62.21 69.17 71.70 72.64 72.58 72.07 71.80 71.65 71.43 71.38 71.46 71.67 71.64 71.67 71.65 71.61 71.69 71.45 71.89 71.72 71.48 70.65 69.36 68.69 69.30 69.18 68.07 67.87 67.60 68.90 68.73 68.07 67.59 67.74 66.80 66.95 67.65 67.71 66.79 66.21 66.75 64.38 66.76
63.18 65.18 67.82 72.10 72.30 71.94 71.92 71.73 71.56 71.32 71.39 71.55 71.47 71.34 71.25 71.19 71.39 71.86 71.72 71.45 70.81 69.87 68.83 67.81 68.25 68.03 68.15 67.95 68.19 68.66 68.23 67.13 66.26 66.28 65.52 66.01 66.11 66.89 66.75 66.36 66.84 64.78 66.08
63.88 64.00 67.85 71.00 71.89 72.08 71.94 72.05 71.67 71.67 71.50 71.45 70.98 70.93 70.87 71.14 71.51 71.54 71.32 70.57 69.90 69.36 68.08 67.36 67.30 67.32 67.20 67.06 68.08 67.85 67.64 66.95 66.55 64.66 63.50 60.18 61.76 65.15 65.28 65.02 65.23 65.40 65.46
63.80 65.62 66.53 69.92 71.13 71.74 71.60 71.55 71.40 71.35 71.05 70.66 70.49 70.57 70.77 71.34 71.46 71.34 70.63 69.61 69.29 69.22 67.50 66.96 66.56 66.58 66.50 66.49 66.69 66.58 66.68 65.45 63.92 62.62 58.49 58.78 60.94 64.06 64.08 63.87 64.18 64.51 65.44
62.33 63.72 63.81 69.65 70.57 71.43 71.34 71.25 70.71 70.39 69.95 69.82 69.88 70.42 70.99 71.20 71.34 71.14 69.97 68.61 69.00 69.03 67.32 66.68 66.27 65.95 65.60 65.52 65.42 65.67 65.80 64.89 63.12 60.11 56.91 56.58 59.03 62.02 63.09 62.71 62.76 63.14 64.15
64.29 68.04 68.15 69.08 70.14 71.08 71.31 70.78 70.18 69.84 69.11 69.05 69.47 70.17 70.79 70.94 70.89 70.73 69.69 68.61 68.73 68.56 66.95 66.13 65.63 64.78 64.91 64.61 64.67 64.52 64.90 63.48 61.15 57.02 56.52 58.90 58.05 62.11 62.36 61.98 61.77 62.12 62.40
66.49 68.14 69.11 68.53 70.06 70.90 70.93 70.24 69.43 68.96 68.61 68.84 69.22 69.61 70.26 70.41 70.29 70.17 68.95 68.16 68.02 67.98 66.82 65.62 64.70 64.63 64.26 63.59 63.57 63.75 63.83 62.37 57.86 56.60 55.64 55.45 57.47 61.48 61.70 61.28 61.02 61.23 61.27
64.84 66.06 66.10 67.93 68.42 69.56 69.68 68.89 68.32 68.20 68.26 68.62 69.33 69.77 70.04 69.92 69.71 69.63 68.10 67.67 67.66 67.43 66.84 65.89 65.11 64.42 63.35 62.97 62.91 62.25 62.90 62.02 59.06 56.93 55.97 55.37 60.05 60.96 60.99 60.43 60.50 60.50 60.40
64.45 65.34 64.84 63.73 65.13 67.57 67.37 67.27 67.07 67.56 67.86 68.09 68.18 68.43 68.85 68.71 68.69 68.44 67.63 67.62 67.45 66.88 66.04 65.21 64.26 63.24 62.63 61.91 61.55 61.13 61.08 61.87 57.51 57.35 57.58 55.53 60.58 60.53 60.73 60.20 60.25 60.24 59.70
63.15 62.48 63.92 64.87 64.71 65.58 66.42 66.40 66.29 66.54 66.45 66.56 66.69 66.63 66.41 66.72 67.09 66.99 66.81 66.82 66.68 65.95 65.24 64.25 63.30 62.36 61.44 60.40 60.18 59.19 60.02 60.59 56.90 57.21 56.90 58.11 60.47 60.01 60.29 59.57 59.74 59.32 59.08
63.64 63.20 63.50 63.32 63.43 63.65 64.50 65.58 65.63 66.03 65.56 65.27 65.20 64.87 64.14 64.58 64.26 64.06 65.21 65.54 65.49 64.89 64.38 63.70 62.73 61.46 60.41 59.09 58.15 58.25 57.35 56.38 56.64 56.93 57.31 61.46 60.46 59.73 59.40 58.85 58.86 58.65 58.60
60.57 61.17 62.20 62.50 62.81 62.81 63.37 64.18 63.41 63.73 62.48 62.27 61.75 60.56 61.22 61.89 62.91 63.56 64.19 64.58 64.75 64.26 63.76 63.25 61.87 60.88 57.20 52.68 52.91 54.80 50.61 55.34 56.46 56.10 57.81 61.58 60.36 59.68 58.73 58.04 57.61 57.38 57.18
59.28 59.54 59.78 60.28 61.29 61.71 61.55 61.57 62.42 62.25 61.27 61.21 60.62 60.60 61.57 61.76 61.23 60.86 60.40 59.97 59.98 61.30 58.78 59.15 57.36 54.82 55.05 52.76 50.33 49.64 50.07 50.58 50.48 52.55 57.91 61.20 60.41 59.70 58.78 57.84 57.19 56.74 55.99
56.41 57.81 57.71 57.92 58.37 58.98 59.24 59.46 60.36 60.88 60.24 60.39 60.81 61.68 60.73 60.07 58.68 58.53 57.85 57.15 55.86 55.75 54.66 53.76 54.58 52.99 51.61 51.24 50.46 49.57 48.95 48.68 49.19 50.50 53.89 58.59 60.61 59.69 58.99 57.74 56.76 56.10 55.58
55.41 57.09 57.19 57.33 57.11 57.14 57.06 57.83 57.67 60.39 59.92 60.31 61.37 62.28 61.60 60.11 58.55 58.72 57.56 57.66 56.29 54.91 54.32 55.08 53.57 52.66 51.34 50.55 49.57 49.43 48.87 48.58 50.55 51.54 52.18 56.76 57.84 60.19 59.10 58.57 56.70 55.98 54.66
56.17 56.53 57.35 57.69 58.16 58.98 58.18 58.40 58.83 59.38 59.47 60.58 60.91 61.50 61.50 60.85 59.66 58.86 58.11 57.32 56.54 55.62 55.88 54.62 53.44 52.36 50.82 49.42 48.38 48.37 48.34 48.74 51.04 51.01 51.65 54.57 58.57 59.73 58.97 57.09 55.73 55.67 54.50
56.51 56.63 55.74 56.07 57.40 57.31 56.89 56.51 56.55 57.26 58.42 58.68 59.96 60.50 61.41 61.32 60.11 60.06 58.46 57.79 57.66 56.86 56.40 54.54 53.59 52.41 50.20 50.06 48.06 48.50 47.80 48.59 48.46 50.62 51.24 51.55 53.84 56.94 57.36 56.16 55.74 54.31 52.74
55.42 55.20 56.36 56.71 55.59 55.57 55.17 54.99 55.68 55.86 56.59 56.75 58.56 59.42 60.63 61.72 61.00 60.57 59.27 58.51 57.74 57.54 56.00 54.86 53.45 51.21 49.69 47.21 46.44 46.10 47.16 47.74 47.78 47.38 50.36 50.69 50.41 51.61 54.54 55.60 53.48 51.86 50.56
55.79 55.55 55.08 54.50 54.45 54.59 54.92 55.09 55.20 55.79 56.25 55.33 57.30 58.94 60.50 61.34 61.24 59.96 58.94 57.77 57.07 56.01 55.36 54.60 52.86 51.50 48.70 47.71 47.37 47.38 46.64 46.60 46.89 48.85 46.56 47.90 48.93 47.88 47.15 53.53 53.41 52.49 50.64
55.04 55.56 54.41 53.77 53.75 54.21 54.43 54.22 54.53 55.91 56.77 56.47 58.04 59.05 60.21 60.57 61.28 60.14 58.34 56.91 56.77 55.59 54.88 53.83 52.45 51.59 49.44 48.52 51.06 49.13 46.29 46.82 46.01 45.83 45.43 46.83 46.04 46.29 46.52 46.38 46.83 47.40 51.88
54.90 55.08 54.17 53.27 53.75 55.04 54.49 54.41 55.39 56.31 57.34 57.91 58.79 60.15 61.21 62.58 62.25 60.34 59.03 57.32 57.13 55.82 54.45 53.14 52.82 50.12 48.59 48.48 47.28 46.21 46.47 45.94 46.60 45.87 45.98 44.85 45.83 45.39 44.42 44.32 43.28 43.13 46.79
54.47 54.84 54.54 54.27 54.60 55.50 55.65 56.24 56.76 57.15 57.94 58.07 58.61 60.93 61.69 61.72 61.83 60.42 59.71 58.50 57.02 55.63 54.00 53.32 51.07 48.77 48.26 48.34 45.88 45.31 42.76 44.01 45.75 46.65 46.20 46.34 44.43 45.56 45.66 45.19 44.11 43.67 42.96
54.30 54.03 54.24 54.64 55.58 56.27 57.62 58.47 58.29 56.27 56.34 55.61 56.22 59.06 60.94 62.03 61.89 61.40 60.04 58.31 56.74 55.86 54.77 52.62 50.50 48.89 47.00 48.03 47.51 45.54 41.05 40.11 41.49 44.18 45.49 45.49 45.17 43.97 43.70 44.28 45.52 44.48 43.57
54.47 55.12 54.83 55.49 56.14 57.39 59.68 59.36 58.11 56.28 55.05 56.61 57.82 59.98 60.87 61.69 62.03 62.01 60.76 59.29 56.65 56.33 54.69 53.41 52.99 50.99 49.22 48.09 46.43 46.88 44.49 42.50 39.91 39.59 42.48 43.40 43.68 43.71 42.86 43.38 44.49 44.57 44.61
54.81 54.71 55.29 55.93 56.99 60.51 60.65 60.27 58.91 56.14 56.30 55.83 59.22 60.39 60.88 61.25 61.44 61.48 61.65 59.46 56.97 56.31 55.67 54.23 52.35 51.39 52.12 49.60 46.88 45.15 43.71 42.52 41.42 39.80 38.65 40.78 41.54 42.41 42.52 42.43 42.85 42.99 43.53
55.44 56.14 56.84 57.31 58.95 60.90 60.73 60.55 59.18 55.96 55.91 55.32 56.96 59.47 60.04 60.39 61.13 60.75 60.24 58.89 57.54 57.01 56.40 55.48 54.14 53.05 50.46 48.83 47.18 44.99 44.14 42.08 41.77 42.49 40.45 38.33 37.84 40.37 41.36 42.13 40.79 41.55 41.36

GFSSE_sfc_wetblb_078.txt.gz
Wetbulb
64.62 68.27 71.75 72.39 72.28 71.92 71.66 71.31 71.26 71.43 71.50 71.86 72.01 72.05 71.73 71.86 71.69 71.42 70.91 70.71 70.49 69.93 68.57 68.84 69.87 69.69 68.25 68.00 67.34 67.64 67.70 67.58 67.30 67.45 67.22 66.98 67.05 66.95 66.26 65.85 66.29 63.77 66.31
64.28 67.53 70.37 71.98 71.87 71.81 71.59 71.40 71.27 71.50 71.58 71.73 71.57 71.38 71.23 71.62 71.36 71.22 70.52 70.23 69.92 69.15 68.64 68.74 68.54 68.35 68.23 67.52 68.00 66.79 65.85 66.27 66.10 65.75 65.62 65.70 65.73 65.97 66.36 66.05 65.48 64.84 65.84
63.85 67.28 69.51 71.10 71.77 71.72 71.59 71.59 71.62 71.69 71.62 71.38 71.25 71.28 71.50 71.48 71.46 70.73 69.93 69.64 69.33 69.19 68.25 68.61 68.32 68.19 68.13 67.73 67.31 66.62 65.78 65.06 64.69 63.93 63.75 60.33 61.51 64.82 65.14 64.68 64.92 65.94 66.53
64.46 65.06 69.06 69.49 69.75 71.19 71.35 71.25 71.23 71.70 71.42 70.96 70.96 71.06 71.43 71.48 71.04 70.10 69.66 68.78 68.58 68.83 68.16 67.98 67.78 67.10 66.16 66.16 66.51 65.75 64.82 63.46 62.85 61.81 58.81 59.26 60.77 64.04 64.54 64.54 64.92 66.00 66.02
64.05 64.82 68.98 68.63 67.94 70.20 71.33 71.10 70.76 70.63 70.21 70.14 70.37 71.18 71.33 71.02 70.51 69.66 68.93 68.32 68.34 68.38 67.32 67.37 66.72 65.51 65.15 65.47 66.01 64.97 64.02 62.66 62.29 59.00 55.52 56.72 58.78 62.02 63.21 62.97 63.64 63.90 64.03
62.36 63.96 66.59 68.81 69.54 70.41 71.23 70.94 70.39 69.93 69.48 69.54 69.85 70.76 71.18 70.89 69.87 69.14 68.51 68.32 68.22 67.90 66.53 66.06 65.12 64.75 64.53 64.86 65.30 64.35 62.87 61.64 59.58 55.61 55.92 59.09 58.03 62.35 62.52 62.40 62.00 61.72 61.58
65.01 65.92 64.33 67.75 68.99 70.07 71.14 70.79 69.80 69.30 69.10 69.13 69.93 70.27 70.62 70.14 69.21 68.66 68.23 68.00 67.57 67.18 65.78 64.65 64.49 64.80 63.94 64.00 64.68 63.26 61.92 60.92 56.09 54.36 54.45 55.54 57.84 61.51 61.93 61.82 61.34 61.08 60.80
65.64 66.14 65.59 66.66 67.48 68.57 69.89 69.40 68.57 68.56 68.65 68.96 69.36 69.61 69.93 69.47 68.47 68.20 67.93 67.49 67.15 66.66 65.95 65.27 64.61 64.00 63.53 63.08 63.74 62.41 61.45 60.28 57.16 55.33 55.17 55.26 60.27 61.09 61.44 61.28 60.68 60.07 59.72
65.39 65.39 65.13 65.14 64.40 64.50 68.38 67.79 67.13 67.72 68.10 68.24 68.64 68.58 68.76 68.17 67.41 67.51 67.52 67.39 66.70 65.81 65.09 64.34 63.74 63.24 62.98 62.14 62.13 62.45 60.96 60.21 55.38 55.74 56.30 55.19 60.62 60.78 61.11 60.97 60.15 59.52 59.21
63.42 63.45 63.85 63.35 62.25 62.96 67.10 66.42 66.75 67.24 67.44 67.78 68.05 67.65 67.29 66.72 66.78 66.83 66.69 66.50 66.03 65.31 64.72 63.78 62.81 62.12 61.73 60.83 62.25 61.68 61.03 59.85 54.53 55.08 55.46 57.48 60.48 60.52 60.67 60.20 59.76 59.15 58.61
62.70 63.22 63.37 62.43 62.07 62.39 63.54 65.47 65.46 66.39 66.57 66.42 66.80 66.42 65.71 65.86 65.30 64.59 65.18 65.35 65.40 64.63 63.97 63.22 62.57 60.65 58.56 59.58 60.50 60.59 59.37 56.19 55.86 56.30 56.05 60.77 60.08 60.08 59.78 59.51 59.16 58.69 58.18
60.69 61.24 62.16 62.09 62.05 61.78 61.38 61.53 62.41 62.78 64.57 64.73 64.40 62.97 63.21 62.83 63.12 63.71 64.13 64.52 64.44 63.91 63.54 62.55 61.61 59.36 56.53 50.98 50.71 56.74 55.02 55.89 55.84 56.30 57.12 61.11 59.85 59.50 58.92 58.40 57.98 58.19 57.75
60.22 61.00 61.83 61.45 61.41 60.59 59.46 60.02 62.22 61.00 60.94 60.88 61.10 62.07 62.46 62.57 62.26 61.96 61.77 60.96 60.61 61.18 58.47 57.56 54.49 53.87 52.61 49.36 48.28 49.50 51.69 52.50 52.60 54.94 59.16 60.99 60.22 59.46 58.76 57.79 57.29 56.70 56.11
58.20 58.94 60.93 61.50 60.97 60.17 59.65 58.94 61.32 60.52 60.30 60.10 61.22 61.03 60.23 59.59 58.14 58.05 58.10 57.51 57.08 55.69 54.68 52.92 53.18 50.52 49.55 49.20 48.12 48.33 48.81 48.89 49.35 50.91 57.06 60.49 60.62 59.57 59.09 57.86 57.06 56.52 55.59
56.31 56.71 57.83 59.36 59.86 60.04 59.60 59.87 60.31 59.97 60.14 60.64 60.69 60.59 59.61 57.60 56.76 55.72 56.05 55.54 54.90 53.52 52.58 53.51 51.39 50.29 48.91 48.68 47.70 47.35 47.62 48.16 48.24 49.35 49.96 58.61 60.42 60.00 59.18 58.21 57.22 56.15 54.87
56.49 55.89 56.71 57.29 57.89 58.58 58.50 58.51 58.94 59.74 60.07 61.01 60.94 60.61 59.19 57.93 57.29 56.00 55.48 54.95 54.87 53.44 54.10 53.19 51.60 50.33 48.98 47.32 46.33 47.17 47.92 48.83 48.59 49.56 50.69 52.53 57.67 60.26 59.45 58.00 56.69 56.62 54.82
56.21 56.65 56.69 57.18 57.84 57.05 56.62 57.28 59.04 59.31 60.72 60.62 60.73 60.99 59.52 59.11 57.81 56.35 54.78 55.10 54.84 53.47 54.78 53.01 51.46 50.94 48.56 48.29 46.72 46.59 47.28 49.04 49.28 49.56 51.07 52.21 55.21 58.30 58.07 57.59 56.44 55.87 54.55
55.81 55.79 57.17 57.93 57.34 56.93 56.47 56.86 56.88 57.72 59.36 59.51 60.07 60.58 60.49 59.61 58.98 57.34 56.02 55.69 55.86 54.63 54.49 52.88 52.02 50.85 48.62 47.53 45.65 45.62 46.03 46.94 48.68 49.37 50.07 51.03 51.08 52.75 55.89 57.21 55.79 53.50 51.69
56.05 56.09 55.89 56.42 55.77 55.37 54.98 55.28 54.93 55.48 55.92 56.25 58.30 58.78 59.44 59.97 59.42 59.17 57.37 56.74 56.20 55.57 54.44 54.10 52.05 50.75 47.85 45.94 45.79 44.66 45.37 45.79 45.45 49.50 49.11 49.48 49.33 49.56 48.82 55.26 54.86 53.74 51.89
55.86 55.46 55.07 55.53 55.22 54.83 55.10 55.11 54.51 55.42 55.73 55.28 55.38 56.79 58.00 59.10 59.61 58.67 57.71 56.35 55.77 54.44 53.38 52.25 51.51 50.69 48.61 47.08 48.83 47.32 44.62 45.08 44.63 44.53 44.89 48.90 47.94 47.64 46.62 47.19 48.66 47.93 52.97
55.36 54.46 53.34 53.47 54.07 54.50 54.14 53.03 53.23 53.14 53.74 54.30 54.43 56.75 58.13 58.72 59.42 58.36 57.20 55.52 55.46 54.35 53.87 52.58 51.09 50.08 48.24 47.35 45.84 45.09 45.13 44.82 44.24 44.11 43.55 43.09 44.45 45.55 45.35 45.02 44.35 43.27 46.83
53.96 53.44 52.48 52.26 52.75 53.33 53.45 53.23 52.84 53.18 55.14 54.92 55.21 56.44 58.20 59.39 59.80 58.73 57.50 56.19 55.75 54.31 53.12 52.29 51.45 48.56 48.15 47.59 45.31 44.15 42.45 44.83 45.28 45.65 44.37 44.35 42.86 44.24 44.02 44.45 43.48 42.82 42.71
53.12 53.46 52.92 52.37 52.50 53.68 53.64 53.37 54.59 54.69 54.94 54.55 54.99 55.54 58.21 59.70 60.75 60.05 58.82 57.99 56.29 55.37 53.63 51.96 50.70 49.11 47.86 47.95 47.12 46.36 41.95 41.04 41.50 43.52 44.44 44.55 44.77 43.49 43.92 44.12 43.83 43.97 43.43
53.15 53.93 53.92 53.80 52.89 53.82 54.86 54.25 54.23 54.33 53.11 55.15 55.65 56.64 59.08 59.91 60.35 60.59 59.88 58.97 56.67 56.32 54.18 52.97 51.49 49.71 49.75 48.65 47.92 47.83 45.05 43.56 40.29 39.08 42.13 42.72 43.55 44.16 43.38 42.41 43.06 43.64 42.86
54.00 53.74 53.45 53.74 53.87 54.34 55.28 55.32 55.31 54.90 56.01 55.58 55.00 55.90 58.80 59.76 60.30 60.76 60.43 59.35 57.13 55.56 55.08 53.99 52.93 51.93 51.86 50.34 47.92 46.21 45.02 43.88 42.66 41.15 39.05 41.13 43.42 43.50 42.88 42.39 42.01 42.11 42.73
54.32 54.10 53.20 53.18 53.94 54.74 55.09 56.28 57.10 56.34 56.21 54.80 54.42 55.90 57.61 59.18 60.06 60.52 60.54 59.14 58.64 56.53 55.44 54.33 52.95 52.79 51.98 49.56 47.98 46.02 45.67 44.95 43.83 42.96 40.83 41.32 41.00 42.49 42.14 40.82 40.51 40.34 41.08

GFSSE_sfc_wetblb_081.txt.gz
Wetbulb
67.98 70.72 71.78 72.29 71.93 71.64 71.58 71.45 71.43 71.19 71.16 71.37 71.37 71.42 71.69 71.77 71.54 71.25 70.99 70.28 69.81 70.13 69.20 68.75 69.31 67.93 67.57 67.42 67.02 66.87 66.78 67.53 67.63 66.56 66.44 66.19 66.49 66.49 66.14 65.81 65.98 63.62 66.85
66.23 70.18 71.28 71.66 71.73 71.45 71.61 71.38 71.44 71.14 71.36 71.42 71.15 71.32 71.16 71.09 70.85 70.59 70.13 69.42 69.86 70.04 69.04 68.66 68.23 67.75 67.25 66.41 66.22 66.10 65.96 66.18 66.35 66.12 65.82 65.98 66.07 65.99 65.85 65.35 65.86 63.67 65.57
64.77 67.02 70.92 70.81 71.37 71.35 71.54 71.54 71.73 72.07 71.93 71.76 71.46 71.16 70.94 70.63 70.36 69.93 69.30 69.42 69.81 69.83 68.78 68.55 68.41 67.93 67.41 67.41 64.81 64.54 64.67 64.57 64.84 64.01 63.70 59.71 61.47 65.60 65.69 66.73 67.27 66.46 65.96
64.24 65.68 70.14 70.38 70.65 71.03 71.16 71.37 71.41 71.85 71.83 71.43 71.40 70.99 70.92 70.39 70.17 69.57 69.08 68.86 69.52 69.76 68.79 68.63 68.10 67.33 66.73 67.01 65.34 63.80 63.48 63.01 62.66 61.66 58.20 58.72 61.25 64.53 65.78 65.65 65.48 65.52 65.71
63.54 64.08 68.80 69.74 69.47 70.03 70.35 70.91 70.99 71.02 70.95 70.88 70.83 71.04 70.65 70.20 69.88 69.28 68.55 68.47 69.20 69.35 67.91 67.20 65.99 65.91 66.24 65.39 64.60 63.49 62.50 62.09 61.49 58.79 55.63 56.69 58.75 62.34 64.12 63.26 62.99 63.76 63.65
63.22 63.39 67.16 68.09 68.40 68.50 69.06 70.23 70.62 70.37 70.07 70.18 70.35 70.81 70.43 69.85 69.49 68.69 67.96 68.04 68.64 68.81 66.76 65.42 65.31 65.64 65.84 64.69 63.70 62.94 61.78 61.04 59.15 55.37 56.05 59.36 58.24 63.00 62.93 62.17 61.77 61.56 61.56
61.68 62.94 64.11 67.62 67.13 68.60 69.77 70.62 70.18 69.85 69.57 70.06 70.12 70.21 69.69 69.48 68.85 68.24 67.43 67.33 67.65 67.36 65.98 64.54 64.94 66.30 64.89 63.46 62.87 62.11 61.29 59.78 54.60 53.81 54.78 55.39 58.18 62.55 62.48 61.54 61.16 60.80 60.73
63.44 63.49 64.88 66.37 67.52 68.05 69.52 69.17 68.85 68.98 69.03 69.47 69.75 69.50 68.88 68.60 68.21 67.83 67.23 67.01 66.55 65.97 65.22 64.53 64.59 65.16 64.25 63.40 62.46 61.76 60.93 59.90 56.08 54.72 54.92 56.24 60.84 62.01 62.01 61.02 60.19 59.70 59.70
65.15 63.14 62.96 64.03 64.32 64.64 66.57 67.00 67.50 67.66 68.35 68.89 69.02 68.26 67.63 67.34 67.23 67.22 66.93 66.52 65.47 64.89 64.12 63.74 62.93 63.90 64.01 63.04 62.23 60.90 60.02 58.89 53.73 54.97 56.07 56.22 61.47 61.71 61.45 60.67 59.78 59.38 59.05
63.36 62.48 62.22 63.49 62.62 62.94 63.16 66.10 66.02 66.77 67.40 68.01 68.06 67.23 66.32 66.36 66.62 66.37 65.78 65.39 65.11 64.37 63.58 62.78 62.24 62.82 63.33 62.90 61.40 60.73 60.13 58.27 53.12 53.83 54.65 57.80 61.31 61.42 61.05 60.34 59.41 58.85 58.41
62.74 62.72 63.33 62.13 61.57 61.55 61.94 62.74 64.96 66.77 66.80 67.09 67.42 66.37 64.82 65.33 64.91 64.04 64.20 64.61 64.72 64.04 63.45 62.00 60.71 62.38 62.62 61.84 61.62 60.49 58.42 54.51 54.44 54.82 55.78 60.86 60.86 61.00 60.63 59.74 58.90 58.46 57.93
60.63 61.61 61.54 61.48 60.20 60.71 61.32 63.58 63.42 64.57 65.95 66.70 66.62 65.51 64.58 63.90 63.03 63.40 63.69 63.95 63.86 63.44 62.74 61.67 60.02 58.42 56.74 54.93 58.34 58.36 54.84 55.13 55.13 55.03 56.19 60.63 60.05 60.30 59.79 59.35 58.69 57.98 57.45
60.40 61.10 60.99 60.67 60.54 59.76 58.89 60.03 61.26 61.60 62.43 63.95 64.09 64.02 62.70 62.65 62.92 61.90 61.34 60.78 59.78 59.55 56.03 54.16 53.36 50.22 48.16 50.29 51.28 52.73 53.97 54.19 54.13 55.23 58.50 60.42 60.04 59.74 59.09 58.38 57.85 57.50 56.77
59.54 60.16 60.77 60.81 60.00 58.76 58.78 58.33 60.16 59.91 61.18 62.51 62.37 62.34 61.77 60.37 58.65 59.03 58.32 56.95 56.60 55.11 53.27 52.09 49.85 48.56 47.40 48.90 50.65 51.46 51.74 51.53 52.38 54.11 57.96 60.30 60.19 59.51 59.07 58.24 57.41 56.64 55.98
56.97 59.42 60.25 60.17 58.81 58.01 57.83 57.69 59.70 60.41 60.48 61.12 61.61 61.49 60.58 59.15 57.76 56.76 55.58 54.65 55.19 53.18 53.46 50.98 49.17 47.94 47.08 46.60 47.64 49.01 48.71 48.85 50.02 51.64 53.77 59.76 59.91 59.65 58.98 58.47 57.57 56.43 55.39
56.61 56.85 58.87 59.71 59.15 58.22 57.76 59.08 58.91 60.78 61.05 61.02 60.55 59.88 58.98 58.04 56.65 55.87 53.80 53.18 53.16 52.53 53.85 51.15 49.16 47.60 46.69 46.11 45.73 46.68 47.08 46.49 47.18 48.17 50.02 55.27 59.35 59.92 59.67 58.40 58.19 56.93 55.20
56.43 56.75 57.19 58.01 59.55 58.68 57.56 58.35 59.49 59.53 60.54 60.53 60.28 59.02 58.10 57.29 55.33 54.61 53.47 52.83 52.27 52.64 53.02 51.21 49.53 47.94 45.80 45.91 45.20 46.59 47.66 47.25 47.05 47.89 49.44 50.87 54.17 58.82 59.29 58.51 56.81 56.41 55.75
56.41 56.73 57.50 58.07 58.04 57.56 57.14 58.52 58.86 59.72 60.02 60.08 59.74 58.45 57.64 57.62 56.62 55.39 54.08 53.35 53.31 53.37 53.23 51.12 49.93 48.21 46.39 45.33 44.09 43.98 46.57 47.99 46.87 47.82 49.19 50.90 52.14 53.74 56.83 57.97 57.26 55.36 53.29
56.35 56.45 57.01 56.93 56.25 55.98 55.88 55.55 56.32 57.99 59.29 59.61 59.65 58.54 58.03 58.18 57.74 56.00 54.63 54.35 54.64 53.64 53.10 52.24 50.52 49.54 46.97 45.67 44.88 43.97 43.85 45.41 47.22 49.21 48.39 49.86 50.21 50.87 50.89 56.86 56.36 55.01 53.37
56.15 56.40 56.48 56.03 55.21 55.47 55.51 54.82 54.70 54.81 55.21 56.90 57.68 59.07 59.22 58.67 58.36 56.95 55.55 54.96 54.74 53.66 52.75 51.74 50.43 49.16 47.69 45.95 47.32 45.29 43.24 43.62 43.54 45.38 47.04 48.92 48.44 49.13 48.65 49.42 50.32 49.52 53.68
55.13 54.78 55.16 54.60 54.51 54.84 54.24 53.65 54.38 55.64 54.04 54.63 55.61 57.83 58.97 58.68 58.45 57.60 56.53 55.29 54.98 54.29 53.43 52.04 50.00 49.17 47.14 45.81 44.67 43.93 43.74 43.50 43.07 42.27 43.14 44.89 46.51 47.11 46.33 45.66 45.73 43.87 47.41
54.60 54.00 53.99 54.18 54.19 54.37 54.46 54.23 55.49 55.34 55.21 54.99 54.77 56.25 56.32 57.25 58.12 57.76 56.71 55.45 54.86 53.41 52.15 51.13 50.55 48.58 48.49 46.59 44.40 42.84 41.17 42.86 44.05 44.09 42.86 42.34 42.27 43.18 44.73 44.60 43.82 43.41 41.98
53.10 52.97 52.73 53.84 53.88 54.41 54.71 53.33 54.22 54.07 54.68 54.08 53.62 52.96 55.37 57.13 58.09 58.31 57.02 55.71 54.90 53.90 52.65 51.70 50.62 49.25 47.54 46.36 46.70 45.79 41.41 40.88 42.96 44.43 43.43 42.85 42.26 41.25 42.32 42.65 43.42 43.16 42.16
52.77 53.89 52.21 52.27 53.50 54.24 54.14 51.68 51.27 52.03 51.35 50.25 50.83 52.71 54.09 57.14 58.06 58.72 58.07 56.56 55.43 54.86 53.00 52.23 52.54 50.06 50.66 47.21 47.54 47.85 46.23 44.36 42.55 41.98 43.90 43.90 45.11 44.92 43.22 42.19 42.42 42.72 42.96
53.37 53.04 52.65 52.42 52.08 53.03 53.10 52.59 51.92 51.08 50.76 51.14 52.81 53.18 53.53 55.25 57.36 58.40 58.56 57.58 56.41 55.65 55.10 53.34 51.72 51.00 50.77 50.25 49.13 46.09 45.03 43.90 43.69 42.63 41.10 42.04 43.75 43.95 44.66 44.56 44.22 43.43 43.02
52.63 52.83 52.63 52.19 52.21 52.37 52.92 52.92 52.42 52.27 52.50 53.08 52.77 53.53 54.20 54.80 56.82 57.80 58.79 58.74 58.33 57.16 55.71 54.36 54.52 51.89 50.55 50.82 49.49 47.26 46.22 45.65 44.90 44.28 42.57 42.69 42.86 44.87 44.31 43.57 42.20 42.57 42.43

GFSSE_sfc_wetblb_084.txt.gz
Wetbulb
67.48 70.15 71.23 72.08 71.92 71.83 71.42 71.65 71.96 71.88 72.07 72.24 72.11 72.14 72.00 72.07 71.75 71.47 71.23 70.84 70.69 70.65 69.39 68.78 68.52 67.91 67.87 68.06 67.79 67.69 68.05 67.40 66.91 67.39 66.75 66.79 66.92 66.85 66.16 65.92 66.53 64.95 67.51
69.01 70.60 70.80 71.55 71.61 71.49 71.63 71.43 71.75 72.03 72.30 72.21 71.99 71.84 71.72 71.59 71.28 70.88 70.35 70.15 69.95 70.13 68.78 68.14 67.78 67.52 67.27 67.28 67.03 66.71 66.17 66.09 66.45 66.95 66.53 66.84 66.32 65.90 66.06 66.87 65.49 64.13 66.48
67.50 70.67 70.43 70.64 71.55 71.38 71.70 71.67 71.75 72.03 72.29 72.14 71.91 71.56 71.51 71.20 70.77 70.10 70.03 69.86 70.07 69.84 68.65 68.27 67.60 66.78 66.72 66.21 65.91 65.52 65.06 64.80 65.37 64.92 64.50 61.89 64.04 67.57 67.44 67.21 67.03 66.11 65.64
65.47 68.91 70.01 70.44 71.01 71.43 71.38 71.32 71.35 71.78 71.83 71.59 71.59 71.22 71.12 70.72 69.88 70.22 70.07 69.42 69.56 69.92 68.45 68.57 68.51 67.59 65.47 64.96 64.65 64.43 64.16 63.67 63.13 61.86 58.59 60.99 63.31 66.46 66.29 65.76 65.23 64.78 64.69
64.40 65.45 69.97 69.99 70.40 71.13 70.81 71.33 71.08 70.93 70.88 70.92 70.72 70.85 70.66 70.19 69.78 70.05 69.46 69.02 69.37 69.73 68.93 68.51 67.93 66.74 65.30 64.78 64.13 63.39 62.94 62.67 62.00 58.98 56.87 58.00 61.20 63.03 63.87 63.72 63.23 62.85 62.50
63.26 63.98 66.63 68.67 69.81 70.68 71.15 71.25 71.09 70.70 70.31 70.07 70.03 70.17 70.40 70.00 69.73 69.53 69.13 68.77 69.00 68.93 67.25 67.44 67.15 65.27 64.89 63.99 63.53 62.66 61.86 61.39 59.43 55.65 57.34 60.83 59.58 63.21 62.90 62.55 61.72 61.39 61.37
62.49 62.84 64.14 66.94 68.00 70.05 70.94 70.91 70.51 70.07 69.85 69.82 69.68 69.47 69.64 69.53 69.07 68.74 68.45 68.28 67.64 67.16 66.74 66.89 65.69 64.81 64.29 63.63 62.80 62.13 61.59 59.98 54.94 54.38 55.38 57.19 59.63 62.52 62.81 61.98 61.15 60.98 60.66
62.41 63.03 63.96 65.69 67.55 67.81 69.10 69.94 69.54 69.52 69.42 69.57 69.13 68.97 68.92 68.37 68.10 68.03 67.95 67.26 66.45 65.95 66.96 66.96 65.63 64.45 63.77 62.93 61.80 61.51 61.08 59.93 56.08 54.85 55.71 58.26 61.62 62.07 61.93 61.01 60.56 60.09 59.90
63.78 63.22 63.45 63.93 64.54 66.61 65.73 67.33 67.96 68.57 68.74 68.80 68.35 67.75 67.44 67.30 67.02 67.22 66.83 66.24 65.46 65.58 66.37 65.66 64.26 63.54 63.11 62.46 61.84 60.91 60.12 58.77 54.24 55.33 56.71 58.32 61.67 61.58 61.22 60.75 60.26 59.69 59.13
63.29 62.36 61.61 62.82 63.04 63.59 63.73 65.49 65.96 67.07 67.60 67.90 67.52 66.95 66.25 66.44 66.36 66.24 65.23 64.98 64.84 64.31 65.43 65.36 63.88 63.23 62.64 61.82 61.13 60.37 59.92 58.06 53.68 54.45 55.50 59.50 61.69 61.63 61.25 60.50 59.77 59.21 58.65
61.94 60.74 61.61 62.08 61.94 61.85 62.80 64.06 65.86 66.35 66.85 66.51 66.63 66.09 65.12 65.18 64.23 63.07 63.48 63.93 63.74 63.20 63.64 64.41 63.93 63.06 61.80 61.43 60.89 60.22 57.51 54.07 54.38 54.83 56.41 61.62 61.65 61.65 60.83 59.86 59.35 58.74 58.41
60.52 61.00 61.89 61.11 60.64 60.50 62.10 62.02 64.19 63.45 64.63 65.85 65.72 65.10 64.63 63.94 61.72 62.13 63.42 63.40 62.79 62.10 62.84 63.94 63.81 62.39 60.39 58.00 58.16 57.77 54.20 54.59 54.64 55.05 56.91 61.55 61.20 61.32 60.52 59.65 58.98 58.38 57.73
60.89 61.13 60.98 59.88 59.92 59.53 60.06 60.54 62.30 63.22 63.79 65.09 64.89 64.03 63.63 62.31 61.75 60.61 60.64 60.05 58.38 58.88 55.72 55.85 54.81 53.90 54.69 54.54 53.39 53.80 54.23 54.16 54.55 55.47 58.86 61.02 60.59 60.67 60.39 59.52 58.62 57.97 57.21
60.03 60.39 60.55 59.94 59.42 59.09 60.07 62.36 62.25 62.52 63.19 63.84 63.57 62.99 62.35 61.21 59.45 58.56 57.72 56.47 54.29 52.85 51.32 49.80 49.36 49.87 51.20 52.76 53.36 53.21 53.23 53.26 53.99 55.04 58.54 60.24 60.41 59.81 59.43 58.83 58.19 57.29 56.56
58.98 59.89 59.96 59.45 58.37 57.76 58.65 59.93 60.84 61.90 62.52 62.30 62.99 62.15 61.70 60.15 58.62 57.60 55.77 54.62 53.83 52.64 51.21 48.77 48.02 48.87 50.16 50.60 51.67 52.00 51.98 52.44 53.38 54.45 55.62 59.58 60.00 59.93 59.23 58.69 58.00 57.15 56.22
57.09 59.36 59.40 58.31 57.90 57.35 57.83 58.65 60.03 60.52 61.16 61.87 61.74 61.02 60.45 59.33 57.58 56.55 54.27 53.81 53.02 53.13 50.83 49.66 48.41 47.81 48.10 48.61 48.88 49.43 49.94 49.91 51.22 52.68 53.88 57.12 59.32 59.86 59.43 58.49 57.89 56.83 56.03
57.01 57.76 59.08 58.23 57.77 57.38 56.97 57.26 59.12 61.14 61.24 60.79 60.56 59.83 58.78 58.21 57.04 55.84 54.29 53.27 53.01 53.27 50.95 49.28 48.07 47.35 46.48 46.75 46.76 46.98 47.69 47.41 48.42 49.87 51.62 53.79 57.26 58.92 59.41 59.58 58.59 56.96 56.24
56.71 56.91 58.18 59.01 58.31 57.50 57.77 57.45 58.40 59.75 60.54 60.61 59.70 59.23 58.04 57.26 56.23 54.84 54.26 53.28 52.98 53.43 51.47 49.62 48.19 46.08 45.51 45.02 44.69 46.41 47.79 47.87 47.73 48.26 49.73 52.06 53.48 55.88 58.38 57.90 58.25 56.99 55.34
56.85 57.19 56.99 57.47 57.31 56.57 57.27 58.00 58.99 58.97 59.50 59.42 58.83 58.11 57.62 57.26 56.17 55.24 54.50 54.07 53.46 53.80 52.14 50.82 49.33 48.09 46.15 44.98 45.33 45.06 46.27 47.61 47.61 48.72 48.90 50.77 52.26 53.47 53.01 57.33 57.28 56.52 55.04
56.71 57.17 56.31 55.85 55.89 55.99 55.42 55.85 57.13 56.87 57.24 59.36 58.14 57.87 57.52 57.24 56.31 55.35 54.49 54.37 53.85 53.36 52.13 50.83 49.82 49.14 47.55 46.47 46.74 45.30 44.14 44.90 45.29 46.41 47.55 49.47 50.42 51.21 51.11 52.83 53.77 52.42 54.50
55.74 56.15 55.36 54.88 55.17 55.64 55.18 55.26 55.88 56.08 55.69 56.86 57.48 57.84 57.72 57.65 57.00 55.61 54.98 54.92 54.45 52.76 52.51 51.21 50.11 49.03 47.51 45.99 45.08 44.51 44.66 44.24 43.97 43.25 45.19 46.83 48.17 49.32 49.31 49.08 49.58 48.35 49.54
54.35 55.22 55.04 54.74 54.86 55.93 55.81 55.81 56.78 56.16 54.68 55.23 56.05 57.61 58.24 57.93 57.52 56.93 56.18 54.71 54.27 53.34 52.20 51.41 50.52 49.09 48.77 46.22 44.31 43.16 42.11 43.75 44.62 44.60 43.35 44.66 46.17 47.18 47.51 47.68 46.39 46.44 44.80
53.79 53.84 54.39 54.21 54.56 55.39 56.03 54.13 53.44 53.96 54.56 54.33 54.33 54.71 56.42 57.71 58.27 58.19 56.85 55.87 54.58 54.14 52.98 51.97 50.38 49.43 48.05 46.36 46.19 45.08 41.52 40.61 42.91 44.57 44.33 44.33 43.72 43.37 44.97 45.64 45.90 45.59 45.41
53.43 53.77 54.27 54.24 54.02 54.73 55.22 54.02 52.34 54.10 53.59 54.49 53.01 54.26 54.93 56.84 57.22 57.50 57.20 56.09 54.72 54.63 52.71 52.79 52.04 49.87 49.27 47.01 46.17 46.74 46.40 46.65 44.09 42.67 43.72 45.09 45.08 44.71 44.03 44.20 43.96 44.57 44.68
53.53 53.57 52.99 53.53 53.18 53.55 54.10 53.81 51.30 53.49 54.35 49.65 50.88 51.17 52.07 54.35 56.05 57.28 57.01 55.89 54.94 54.52 54.23 52.57 51.30 49.62 49.72 48.98 47.48 45.99 45.84 44.11 44.50 43.91 43.10 42.35 44.31 45.31 46.17 45.92 45.58 44.81 44.46
53.23 53.34 53.07 51.72 52.08 53.14 53.16 52.12 50.90 50.19 50.00 50.06 50.16 50.91 51.68 52.53 54.26 55.56 56.93 56.99 56.79 55.84 54.80 53.83 52.97 51.86 51.92 51.37 49.48 48.04 47.02 45.36 45.59 44.08 43.88 44.26 44.38 45.84 45.42 44.56 43.46 44.15 44.09

GFSSE_sfc_wetblb_087.txt.gz
Wetbulb
68.79 71.22 70.96 72.16 72.11 72.07 72.40 71.94 71.63 71.67 72.15 72.25 72.20 71.98 71.96 71.94 72.02 72.07 71.97 71.83 71.51 71.36 70.49 69.75 70.07 69.33 68.38 68.05 67.72 68.40 68.21 67.99 67.94 68.16 67.93 67.93 67.51 67.43 67.29 67.80 68.35 67.90 68.47
69.95 71.61 70.73 71.82 72.00 71.76 72.33 72.11 71.95 72.00 72.27 72.33 71.99 71.80 71.71 71.74 71.80 71.73 71.41 71.14 71.12 70.68 69.47 68.84 68.38 68.29 68.27 67.60 67.58 67.45 67.73 67.54 66.95 67.29 67.32 66.98 66.81 66.74 66.14 66.54 67.29 66.59 66.95
70.38 71.58 71.51 71.02 71.46 71.73 72.33 72.57 72.44 72.62 72.55 72.31 71.94 71.81 71.65 71.66 71.45 70.99 70.48 70.24 70.11 69.70 68.49 68.06 67.83 67.65 67.75 67.18 66.81 66.38 66.27 66.59 66.51 66.32 67.00 66.70 66.82 67.08 67.10 67.35 66.43 65.72 65.82
70.37 71.61 71.38 70.34 70.83 71.61 71.68 72.12 72.28 72.57 72.28 71.89 71.88 71.73 71.43 71.03 70.55 70.28 70.09 69.60 69.55 69.51 68.07 67.78 67.53 66.87 66.44 66.08 65.85 65.23 64.96 64.37 63.82 64.81 66.24 66.35 65.94 66.73 66.37 65.65 65.15 64.77 64.88
68.37 70.20 71.13 70.14 69.84 71.06 71.26 71.86 71.95 71.77 71.40 71.31 71.25 71.26 70.85 70.52 70.52 70.35 69.79 69.11 69.40 69.54 68.91 67.82 66.83 65.84 65.21 65.41 64.92 64.62 63.97 63.41 64.09 64.52 63.97 63.67 63.24 64.69 64.86 64.06 63.31 62.94 63.17
67.34 65.93 65.38 68.15 68.92 70.63 71.27 71.43 71.46 71.12 70.67 70.62 70.70 70.57 70.27 70.57 70.49 69.81 69.24 69.11 69.26 69.34 68.74 67.72 65.93 64.71 64.85 64.37 64.17 63.68 62.79 62.21 63.31 63.89 63.53 63.57 63.13 63.90 63.06 62.44 62.06 62.20 61.92
66.59 65.75 65.29 66.20 68.17 69.26 71.26 71.21 70.88 70.55 70.13 70.01 70.18 69.76 69.68 70.09 69.90 69.33 68.75 68.88 68.62 68.79 68.67 66.67 64.96 64.04 64.25 63.77 63.26 62.57 62.05 62.22 62.24 62.52 62.38 62.59 62.84 63.04 62.84 62.44 61.87 61.35 61.12
65.73 65.99 64.96 66.14 67.59 67.62 68.90 69.90 69.66 69.57 69.34 69.29 69.11 68.86 69.28 69.20 68.97 68.72 68.45 67.99 67.57 67.67 67.54 66.17 64.93 63.99 63.46 63.07 62.20 61.71 61.43 61.42 61.95 61.95 62.13 62.25 62.88 62.48 62.48 61.73 61.09 60.57 60.32
64.64 65.77 66.26 65.85 66.23 64.74 66.30 67.22 67.73 68.52 68.58 68.54 68.17 67.78 68.05 67.76 67.62 67.84 67.33 66.69 67.06 67.12 66.63 65.54 64.45 63.69 63.29 62.55 61.97 61.24 60.33 61.48 61.70 61.74 61.31 61.85 61.71 62.04 61.94 61.33 60.60 60.20 59.66
64.27 64.61 65.35 65.94 66.63 65.76 64.72 65.14 65.73 67.21 67.65 67.62 67.36 66.96 66.45 66.59 66.83 66.39 65.62 65.96 67.05 67.17 66.04 64.52 63.80 63.32 62.88 62.11 61.26 60.81 60.44 60.75 61.55 61.70 61.51 61.61 61.85 62.01 61.64 60.91 60.29 59.82 59.24
63.57 63.55 63.55 64.20 65.25 66.05 64.57 65.53 66.27 66.96 66.79 66.80 66.98 66.09 65.51 67.65 66.84 65.33 64.42 65.00 66.46 65.87 64.73 64.21 63.43 62.54 61.85 61.24 60.98 60.44 59.93 60.44 61.20 61.35 61.53 61.99 61.94 61.97 61.26 60.44 59.90 59.22 58.82
61.33 62.51 63.04 62.66 63.09 62.84 65.01 64.67 65.79 66.40 66.90 66.77 66.51 67.19 66.90 66.95 65.75 64.36 63.90 63.53 64.86 65.19 64.33 63.72 62.96 62.00 60.71 60.31 59.96 59.23 59.57 60.41 60.76 61.07 61.39 62.08 61.70 61.59 60.91 60.04 59.41 58.76 58.35
62.02 61.94 62.50 61.91 62.07 61.21 61.81 62.71 65.04 64.77 65.51 65.82 65.24 66.49 65.60 64.72 64.04 63.43 63.42 62.10 63.90 64.38 63.55 62.96 61.63 60.86 60.55 59.87 58.88 59.16 59.82 59.98 60.42 60.95 61.27 61.70 61.42 61.10 60.58 59.65 58.98 58.28 57.64
61.70 61.94 61.65 60.76 60.54 60.67 60.77 61.06 62.99 63.49 64.08 64.36 64.23 64.54 64.64 62.94 62.35 61.42 61.14 60.26 60.77 62.25 63.43 62.58 60.57 60.82 60.05 59.38 58.93 58.98 59.35 59.36 59.80 60.25 60.94 60.60 61.40 60.77 60.44 59.42 58.66 58.04 57.21
59.87 60.30 59.98 59.46 59.79 59.29 59.64 61.41 62.18 62.40 63.49 63.66 63.63 64.42 63.78 61.74 60.88 60.72 60.02 58.72 58.47 58.33 59.25 59.32 58.93 59.39 58.87 58.64 58.66 58.70 58.73 59.13 59.64 59.62 60.08 59.92 60.36 60.29 59.61 59.30 58.52 57.76 56.82
58.24 59.92 59.11 58.30 58.83 58.17 59.74 61.65 62.17 62.44 63.10 62.58 63.21 63.97 62.53 61.56 60.34 59.05 58.52 57.60 56.86 56.90 57.81 58.20 58.47 58.64 58.43 58.33 57.98 58.31 58.29 59.02 59.24 59.46 59.49 59.63 59.58 60.11 59.78 58.96 58.31 57.64 56.82
57.62 59.27 58.15 57.92 58.12 57.92 58.32 60.64 61.69 62.22 62.40 61.81 61.91 62.68 61.20 60.03 59.15 58.04 57.54 57.44 57.29 56.15 55.57 54.35 55.84 57.15 56.95 56.96 56.44 57.02 57.39 58.20 58.75 58.99 59.39 59.52 59.46 58.69 59.45 59.83 58.31 57.41 56.77
57.40 58.09 58.44 58.30 58.06 58.49 58.24 59.39 60.42 60.91 60.94 61.34 61.08 61.17 60.25 59.84 59.02 58.15 56.96 57.41 57.78 56.09 54.72 54.38 53.75 54.65 54.65 54.67 53.15 53.86 54.46 55.46 57.24 58.46 58.89 59.34 59.71 59.32 58.82 59.69 59.95 58.67 57.07
57.59 57.61 57.83 57.99 57.54 58.27 58.33 59.84 60.08 60.12 60.80 60.52 60.25 59.94 59.53 58.69 58.38 57.76 56.92 57.21 58.06 56.62 55.84 54.79 53.24 53.36 52.36 52.24 52.05 53.26 53.77 53.26 53.17 53.18 55.89 57.80 59.21 59.53 59.52 58.38 58.24 57.79 57.41
57.71 57.39 57.33 57.58 57.40 57.23 57.69 58.63 58.97 59.15 59.71 59.64 59.12 59.61 59.73 59.20 58.94 58.68 58.18 57.10 57.31 56.82 55.88 54.92 54.04 54.07 52.89 52.31 49.92 50.48 52.34 53.44 54.04 53.27 53.46 53.92 57.64 58.94 59.56 59.03 57.83 56.58 55.93
57.44 56.74 55.91 56.13 56.69 56.77 57.75 57.31 57.07 56.63 58.25 58.04 58.65 58.64 59.30 59.53 58.87 59.21 58.04 57.38 57.62 56.96 56.83 56.43 54.77 54.14 52.82 52.48 51.08 51.02 51.03 51.72 52.31 52.99 53.79 53.67 54.34 56.06 58.65 58.24 58.17 57.27 55.09
56.13 56.11 55.85 55.63 55.95 56.59 57.69 57.50 57.23 56.64 57.37 57.85 58.30 58.38 58.26 58.27 58.60 59.20 58.86 58.03 57.45 57.13 57.53 56.65 56.42 55.09 55.41 53.09 52.60 52.28 50.17 50.91 51.25 51.79 52.04 52.69 54.25 54.79 53.77 53.28 54.85 56.18 53.89
55.33 55.61 55.66 55.62 56.19 56.54 56.82 56.38 55.61 55.66 55.93 56.16 56.89 57.25 58.31 58.97 59.61 59.06 59.10 58.77 58.78 58.39 57.24 57.86 57.55 56.83 55.56 53.70 53.52 54.51 49.30 49.60 51.31 52.25 51.67 48.80 49.81 52.44 52.73 50.01 51.09 51.97 50.64
55.44 56.11 56.03 55.79 55.87 56.73 56.83 56.36 55.29 54.70 55.18 56.31 56.33 57.26 57.81 58.97 59.74 59.65 59.68 59.69 59.60 59.11 59.01 58.98 58.16 57.78 57.25 54.64 52.30 52.28 53.50 54.02 51.97 51.12 48.14 48.83 51.70 47.62 51.17 47.22 46.95 47.84 49.21
55.42 55.32 56.52 55.35 55.39 56.34 56.90 57.16 56.49 56.29 57.34 56.78 56.57 56.86 57.77 59.91 60.66 60.36 60.73 60.95 60.54 60.42 60.09 59.60 58.16 57.32 57.11 57.63 55.64 53.80 52.75 52.20 52.24 50.83 50.12 49.20 47.75 51.27 51.29 51.14 47.59 46.46 47.58
54.80 55.11 54.89 55.12 55.49 55.75 56.74 57.39 55.78 57.55 57.15 54.75 56.75 56.17 56.55 57.68 58.85 59.96 60.82 61.15 61.15 60.38 60.05 59.72 59.41 58.87 58.25 57.36 57.27 56.29 54.27 53.21 51.22 50.13 48.82 49.57 48.52 48.32 51.37 49.51 51.45 49.14 47.91

GFSSE_sfc_wetblb_090.txt.gz
Wetbulb
71.74 72.51 71.27 72.37 72.52 72.99 72.76 72.01 71.76 72.07 72.21 72.60 72.36 72.02 72.00 72.32 72.30 72.20 71.86 71.82 71.75 71.74 70.82 69.96 70.37 70.06 69.52 69.12 68.52 69.15 69.04 69.01 68.99 69.32 68.82 68.85 68.93 69.03 69.18 69.59 69.47 68.92 69.26
71.96 72.89 70.33 72.17 72.28 72.74 72.63 71.94 71.91 72.20 72.42 72.61 72.07 71.83 71.83 72.15 72.12 71.86 71.87 71.69 71.65 71.26 70.03 69.29 69.39 68.36 68.39 67.99 68.10 68.05 68.07 67.82 67.80 68.15 68.39 67.39 67.19 67.94 68.10 68.26 68.22 67.68 67.37
71.42 73.02 72.02 71.39 71.98 72.52 72.48 72.34 72.24 72.57 72.65 72.48 71.88 71.83 71.87 72.12 72.18 71.83 71.49 71.13 70.93 70.65 69.29 68.87 68.83 68.47 68.20 67.41 67.50 67.74 67.64 67.43 67.54 67.64 68.12 66.87 67.02 67.05 66.96 66.64 67.00 66.26 66.21
70.49 72.26 72.62 71.04 71.05 71.35 71.77 72.14 72.34 72.65 72.73 71.85 71.83 71.95 71.85 71.95 71.61 71.42 70.76 70.07 69.85 69.74 68.45 68.25 68.62 67.90 67.46 66.93 66.58 66.18 65.61 65.88 66.12 67.66 65.82 65.33 65.66 66.31 66.26 65.49 65.45 65.40 64.99
68.41 71.75 72.15 70.30 70.29 71.09 71.55 71.95 71.43 72.16 71.76 71.43 71.57 71.92 71.83 71.58 71.02 70.61 69.75 69.12 69.19 69.20 67.76 67.55 67.33 67.12 66.41 66.32 65.99 65.73 64.98 65.01 65.92 67.11 66.56 64.83 65.23 65.11 64.91 64.16 64.22 64.04 64.49
68.76 70.95 69.30 67.31 69.26 70.49 71.48 71.45 70.59 71.01 70.91 70.78 70.86 71.17 71.21 70.92 70.73 69.85 69.01 68.70 68.83 68.82 67.62 66.93 66.33 65.59 65.55 65.34 65.09 64.39 64.69 64.85 65.25 65.55 65.37 65.49 64.56 63.66 63.58 63.54 62.92 62.50 62.36
68.72 70.73 68.97 65.16 68.05 68.14 68.89 70.03 70.69 70.79 70.49 70.52 70.54 70.34 70.37 70.45 70.03 69.20 68.74 68.73 68.80 68.63 67.08 65.76 65.09 64.63 64.83 64.53 63.99 63.53 63.22 63.36 64.22 64.01 64.09 64.28 63.96 63.24 63.44 62.61 62.07 61.83 61.48
68.69 69.66 69.51 66.25 68.14 67.57 66.77 65.99 69.35 70.14 69.95 69.81 69.69 69.69 69.82 69.62 69.09 68.78 68.54 68.71 68.57 67.86 66.55 65.22 64.62 63.90 63.81 63.44 62.84 62.61 62.32 63.27 63.60 63.66 63.89 63.76 63.45 63.18 62.71 62.19 61.34 61.06 60.99
67.68 67.81 68.30 69.11 68.93 65.50 63.49 62.89 63.97 69.00 68.99 69.00 68.59 68.65 68.49 68.19 67.87 68.38 68.17 68.12 68.02 66.93 65.67 64.90 64.25 63.80 63.27 62.75 62.32 62.11 62.14 63.76 63.60 63.42 62.94 62.94 62.54 62.47 62.31 61.51 60.92 60.42 60.30
65.61 66.75 67.44 68.11 66.98 67.86 66.80 65.48 65.90 67.53 67.35 67.74 67.77 67.51 66.99 67.13 67.40 66.95 66.79 67.44 67.07 66.11 65.42 64.81 63.86 63.37 62.78 62.27 61.68 61.12 61.21 62.31 63.17 62.96 62.80 62.82 62.28 62.35 61.98 61.18 60.59 60.19 59.79
64.95 65.25 65.21 66.80 66.18 65.59 66.11 67.02 65.89 66.51 66.94 66.83 67.36 66.69 65.89 68.72 67.88 67.20 66.33 66.59 66.53 65.53 64.79 64.20 63.64 62.75 62.09 61.57 61.33 60.96 61.04 62.87 62.77 62.70 62.26 62.33 62.28 62.33 61.67 60.89 60.24 59.91 59.34
64.53 64.99 65.14 65.79 66.87 65.52 66.06 66.64 66.46 66.16 66.99 68.14 68.63 68.39 67.88 67.89 67.80 66.78 66.23 66.32 65.76 64.49 64.19 63.60 63.05 62.03 61.25 61.16 61.32 60.44 62.09 62.62 62.70 62.52 62.49 62.39 62.14 61.95 61.37 60.26 59.75 59.54 58.98
64.82 64.46 64.59 63.88 65.28 64.19 66.18 66.64 67.22 65.21 65.67 66.15 66.92 67.71 67.40 67.26 67.28 65.67 66.46 66.95 66.21 63.89 63.18 62.70 61.90 62.11 62.41 61.11 60.61 61.32 61.71 62.10 62.35 62.42 62.06 61.99 61.79 61.58 61.04 60.20 59.36 58.92 58.45
63.22 64.20 63.67 63.19 63.77 63.54 62.82 63.84 64.68 64.28 64.50 64.06 64.35 64.97 67.73 65.42 65.47 64.98 65.33 65.99 65.31 64.64 63.48 63.20 62.34 63.50 62.69 61.57 61.02 61.24 61.35 61.44 61.93 62.39 61.87 61.36 61.73 61.25 60.92 60.13 59.29 58.58 57.82
61.85 62.78 62.50 61.71 62.10 62.27 60.66 61.57 62.64 63.73 64.53 64.09 63.69 63.91 64.43 65.04 64.54 63.53 64.46 65.13 65.13 65.14 64.43 63.49 63.53 63.02 61.90 60.86 60.80 60.74 60.74 61.13 61.46 61.78 61.83 60.79 61.25 61.02 60.60 60.06 59.39 58.58 57.63
61.06 60.61 61.12 59.95 60.46 61.18 60.27 61.06 61.60 62.94 64.21 63.55 63.51 63.27 63.16 64.28 64.28 62.84 62.90 62.88 64.13 65.15 64.99 63.89 63.12 61.98 60.91 60.54 60.21 60.39 60.50 60.87 60.96 61.83 61.71 61.14 59.97 60.84 60.55 59.76 59.01 58.34 57.67
60.19 59.78 59.45 59.05 59.63 59.11 60.17 60.70 62.57 61.78 63.69 63.00 62.23 62.03 61.71 64.21 63.16 62.39 61.39 61.45 62.02 63.00 63.26 62.77 62.56 61.58 60.48 60.15 59.57 59.98 60.11 60.71 60.55 60.97 61.38 61.21 60.18 59.19 59.81 60.36 58.83 58.18 57.38
59.28 59.49 58.80 59.03 58.36 59.11 59.67 60.32 61.78 63.21 62.78 62.56 61.49 60.68 60.57 61.73 62.11 61.13 59.62 59.20 60.04 60.87 60.43 60.71 60.09 59.57 59.45 59.08 58.93 58.93 59.10 59.92 60.53 60.50 60.74 61.24 60.70 60.02 59.05 59.88 59.94 58.64 57.86
58.83 58.62 58.58 58.41 58.53 58.89 59.80 60.60 60.99 60.91 60.89 61.22 61.30 59.99 60.06 60.85 60.78 60.23 59.45 59.01 58.44 57.83 57.97 58.81 58.63 59.34 57.94 57.74 57.24 57.51 57.87 58.14 59.60 59.33 59.33 60.05 60.69 60.65 60.47 59.01 59.56 59.46 59.13
58.72 59.25 58.65 59.00 58.32 58.95 59.91 59.29 59.96 59.69 59.96 60.36 60.55 60.01 60.89 60.47 60.35 59.43 59.11 59.53 58.75 57.71 58.23 58.41 57.34 58.40 57.73 56.77 54.46 54.87 56.73 57.00 57.27 56.73 57.91 59.10 59.99 60.87 61.06 61.04 59.79 59.12 57.64
57.73 58.11 58.54 58.96 58.43 58.44 58.12 57.51 57.66 57.65 58.58 58.85 59.59 60.17 60.61 60.06 59.87 60.38 59.18 59.39 59.15 58.88 59.50 59.40 58.44 56.88 55.32 56.33 53.11 54.36 55.18 56.38 56.78 57.12 57.44 57.36 57.29 59.59 60.59 60.70 60.33 58.26 57.67
56.99 57.09 57.87 59.33 58.59 59.22 58.82 58.19 58.41 58.33 58.54 58.49 59.04 59.82 61.16 60.80 60.67 61.46 61.11 59.84 60.55 59.35 59.61 58.68 57.62 56.72 57.44 56.56 56.10 57.23 54.61 55.36 55.93 56.41 57.41 57.04 57.67 57.12 57.10 59.60 59.83 58.69 56.13
57.36 57.80 56.93 57.58 58.20 59.17 59.97 58.21 57.28 57.48 57.30 56.96 57.69 58.49 59.81 61.69 61.69 61.71 61.53 61.14 60.75 60.75 59.39 59.35 59.84 59.99 58.24 58.78 58.61 57.85 55.49 53.94 58.20 58.23 56.64 56.70 56.65 55.89 56.05 55.96 58.19 56.73 57.35
58.24 58.82 59.37 57.61 57.61 58.79 58.63 58.04 57.06 56.36 56.33 57.22 56.90 57.99 59.15 61.46 61.67 61.31 61.68 61.63 61.28 60.67 60.39 60.88 60.94 61.07 60.64 59.16 58.81 57.88 59.06 58.98 55.61 54.38 57.27 56.16 56.51 54.07 52.80 52.88 55.37 56.91 56.76
57.89 58.89 59.18 58.37 57.61 57.78 58.94 58.09 56.43 55.66 59.34 58.56 57.77 57.08 57.90 59.09 59.56 60.41 61.31 61.25 61.29 61.38 61.48 61.85 61.09 61.04 61.26 60.34 59.59 59.03 58.05 58.28 58.54 56.20 54.50 55.86 55.96 55.69 53.90 54.34 54.01 54.93 55.19
57.59 58.14 59.47 59.13 57.44 57.50 57.98 57.95 56.40 55.47 56.31 56.74 56.47 56.78 57.19 57.00 58.24 59.32 61.32 61.87 61.93 61.44 61.24 61.79 62.52 61.99 61.34 61.20 61.06 60.62 59.33 57.66 57.21 56.40 54.64 56.06 55.91 57.86 56.33 53.12 55.28 55.67 53.90

GFSSE_sfc_wetblb_093.txt.gz
Wetbulb
71.54 73.55 72.43 72.81 73.03 73.36 72.47 72.26 72.20 72.31 72.45 72.72 72.09 72.34 72.48 72.46 72.34 72.19 71.98 71.72 71.70 71.62 70.75 70.81 70.85 70.88 70.41 70.10 69.98 70.25 70.17 69.78 69.60 70.10 70.35 70.02 70.14 70.07 69.75 69.93 69.68 68.97 70.01
72.00 73.70 71.19 72.56 72.74 73.16 72.81 72.31 72.36 72.31 72.71 72.75 72.21 72.23 72.23 72.01 71.94 72.00 71.86 71.87 71.75 71.39 70.33 69.79 69.81 69.60 69.11 68.88 69.26 69.24 69.24 68.79 68.52 68.68 69.15 68.80 69.00 68.97 68.75 68.88 68.58 67.87 68.31
70.21 73.02 72.46 71.78 72.48 73.12 72.83 72.05 72.55 72.91 72.93 72.68 72.16 72.18 72.08 72.28 71.98 71.81 71.69 71.40 71.30 70.90 69.48 68.79 68.90 68.72 68.49 67.91 68.52 68.23 68.20 68.23 68.02 68.37 69.22 67.30 66.70 67.71 67.71 67.17 67.20 66.93 67.10
69.72 72.71 72.98 71.11 71.78 72.46 71.56 72.17 72.40 72.89 72.83 72.36 71.99 72.26 72.36 71.97 71.90 71.86 71.40 70.49 70.47 70.36 69.27 69.16 68.77 68.20 67.63 67.60 67.54 67.57 67.91 67.93 68.18 68.20 65.87 65.12 65.84 66.77 66.87 66.07 65.93 66.02 65.97
69.27 71.31 72.71 70.31 70.77 71.40 71.16 71.28 71.60 72.00 71.56 71.69 71.67 72.14 72.28 72.19 71.73 71.37 70.26 69.70 69.76 69.95 69.39 69.00 68.39 67.65 66.59 66.82 66.69 66.63 65.88 65.82 66.55 66.85 64.98 64.81 64.75 64.93 65.46 65.23 64.90 64.80 65.45
68.23 69.78 70.00 67.59 70.10 70.76 70.79 71.75 71.67 71.19 70.11 70.86 71.06 71.64 72.01 71.67 71.24 70.38 69.16 69.02 69.29 69.26 69.08 68.14 67.65 66.53 66.19 65.94 65.82 65.47 65.12 65.93 65.91 65.96 65.07 64.89 64.26 65.01 64.75 63.87 63.42 63.32 63.46
69.17 69.64 72.06 66.25 66.91 68.58 69.85 68.04 68.53 69.82 69.73 70.55 70.93 71.11 71.17 71.08 70.18 69.40 68.62 68.49 68.32 68.49 67.95 66.79 66.22 65.60 65.47 65.23 65.04 64.61 64.48 63.91 64.84 64.38 64.11 63.48 63.42 63.84 63.63 63.14 62.83 62.54 62.47
69.00 70.41 70.95 68.59 67.02 68.51 68.42 63.51 63.10 65.96 68.52 69.61 70.34 70.25 70.25 69.67 69.11 68.78 68.27 68.25 67.71 67.29 66.77 66.09 65.34 64.93 64.63 64.43 63.71 62.95 62.61 63.29 64.27 63.86 63.40 62.83 63.92 63.27 63.13 62.45 61.95 61.62 61.48
68.87 68.92 69.12 70.21 69.95 67.66 65.88 64.89 64.06 64.89 64.66 67.54 69.22 69.08 68.92 68.14 67.84 68.23 68.47 68.07 66.90 66.26 65.83 65.28 64.97 64.53 64.07 63.40 62.96 62.32 61.82 63.48 63.84 63.65 62.89 62.64 63.61 62.76 62.45 61.93 61.53 61.06 61.08
68.12 68.47 68.88 68.57 70.09 70.04 68.84 63.22 64.15 64.29 63.86 66.66 68.17 68.12 67.27 67.12 67.47 67.91 67.48 66.99 66.19 65.66 65.16 64.61 64.08 63.66 63.33 62.59 61.98 61.51 61.51 62.91 63.20 62.72 62.34 62.10 62.73 62.61 62.24 61.51 61.11 60.66 60.56
66.41 66.96 67.68 67.72 69.19 68.53 67.16 64.43 64.39 63.59 63.07 65.18 67.82 67.23 66.43 68.93 68.86 68.12 67.12 66.04 65.60 65.17 64.66 64.03 63.77 62.96 62.31 61.85 61.47 61.42 61.80 62.86 62.95 62.27 61.85 62.65 62.43 62.44 61.91 61.20 60.59 60.21 60.02
66.19 65.76 65.69 66.84 67.99 67.64 65.05 65.72 64.67 62.71 61.91 62.94 69.65 68.55 69.60 69.55 68.80 67.88 66.50 65.45 65.08 64.58 64.08 63.71 62.75 61.89 61.30 60.74 61.17 60.78 62.57 62.99 62.55 61.90 61.51 62.78 62.43 62.28 61.58 60.80 60.26 59.81 59.48
65.58 65.73 65.35 65.88 66.87 66.57 65.54 65.72 64.62 63.40 64.22 66.03 69.34 68.41 69.16 69.34 68.35 67.98 67.16 65.75 64.34 63.29 62.03 61.97 60.90 60.86 60.90 60.23 60.93 62.35 62.69 63.03 62.43 61.81 61.74 62.43 62.31 61.91 61.49 60.78 60.10 59.56 59.02
64.02 65.10 65.80 65.06 65.40 66.21 66.01 65.94 64.96 64.55 62.21 65.93 67.08 68.07 67.86 68.03 67.47 67.06 66.68 65.36 63.99 62.87 62.12 61.26 61.25 63.14 62.03 61.19 61.72 61.66 62.04 62.03 62.19 61.75 61.51 61.74 62.10 61.58 61.27 60.64 59.83 59.17 58.75
62.82 63.42 64.51 64.67 64.67 64.82 64.87 64.35 65.25 64.06 64.29 63.81 64.51 66.26 67.34 66.67 66.55 65.83 66.36 65.91 64.37 64.16 63.18 62.44 62.74 62.57 61.83 61.34 61.49 61.34 61.28 61.93 62.55 61.64 61.34 61.39 61.57 61.61 60.97 60.46 59.85 58.90 58.19
62.28 62.96 62.96 62.83 63.22 62.80 64.60 63.96 62.84 65.29 64.23 63.58 63.42 64.36 64.80 64.81 64.61 64.94 66.15 65.85 64.94 64.51 64.18 63.37 63.41 62.50 61.44 60.90 60.59 61.15 61.13 61.41 61.96 61.99 61.38 61.01 60.77 61.14 61.09 60.41 59.80 59.04 58.42
61.55 61.89 61.50 61.11 61.10 61.06 62.67 62.72 64.08 64.63 63.85 63.36 63.15 64.41 64.22 62.94 64.09 64.75 65.64 65.68 65.40 65.75 66.35 64.38 63.45 62.17 60.44 60.23 60.16 60.50 60.66 61.09 61.52 62.02 61.40 61.19 60.30 59.88 60.32 60.80 59.64 58.97 58.13
61.55 61.15 60.63 60.45 59.73 60.77 61.37 62.65 62.77 63.17 64.01 63.19 62.95 63.23 62.90 63.11 64.43 65.03 64.38 64.50 65.63 65.71 64.02 62.91 62.11 60.07 59.77 59.63 59.58 59.78 60.26 60.79 60.91 61.37 61.71 61.43 60.55 59.86 59.22 59.96 60.38 59.89 58.51
61.04 60.68 60.11 59.25 60.33 61.20 61.41 62.08 62.36 62.71 63.04 62.52 62.14 61.55 61.20 61.60 62.76 63.97 63.18 63.42 64.13 63.11 63.10 62.42 60.96 60.45 59.84 58.88 59.01 59.39 59.79 60.01 60.55 60.19 60.46 61.15 61.65 60.72 59.92 58.96 59.65 59.52 59.64
60.67 60.01 59.37 59.81 60.66 60.44 60.12 60.13 60.13 61.50 61.57 61.12 60.45 59.77 59.54 59.99 61.20 63.00 61.17 60.47 60.64 59.16 59.63 59.85 59.65 61.17 59.40 58.91 57.14 57.46 58.24 58.63 59.62 59.93 59.69 59.93 60.47 60.95 61.38 61.22 59.12 58.32 58.86
59.99 59.61 60.14 58.52 59.28 59.54 59.51 58.16 57.74 57.63 59.11 58.83 59.02 59.09 58.83 58.98 59.66 61.11 60.25 59.43 59.32 59.10 58.29 59.04 59.24 59.20 58.95 58.78 55.94 55.40 56.79 58.08 57.99 57.49 57.86 58.56 59.41 59.87 60.90 60.94 61.55 60.07 59.06
58.62 58.68 59.50 59.82 59.47 59.80 59.62 60.09 58.46 57.75 58.48 58.45 58.84 58.75 58.91 59.03 59.36 59.34 59.21 59.16 59.29 59.29 58.92 59.57 59.49 58.18 58.15 57.91 55.09 56.24 54.12 54.92 56.43 57.57 58.64 58.14 59.63 58.52 59.11 60.79 61.06 61.15 60.42
58.45 58.78 59.22 59.43 59.67 60.02 59.58 59.84 59.71 59.15 58.27 57.45 57.86 57.84 58.13 59.27 59.89 59.99 60.25 60.02 59.79 59.40 60.13 61.18 60.54 59.54 57.39 57.40 58.94 57.97 55.18 53.78 56.03 58.04 58.40 58.87 60.08 59.08 59.02 59.26 59.00 58.92 59.82
59.71 60.02 59.11 59.51 59.04 59.95 61.43 59.84 57.82 57.15 56.08 57.55 57.38 58.40 59.00 59.81 59.73 59.62 60.78 60.54 60.75 61.93 61.60 59.28 60.43 60.30 61.39 58.64 59.50 58.92 60.73 59.00 55.61 54.59 58.38 58.75 59.28 58.67 58.87 58.16 58.19 59.23 58.06
59.31 60.43 60.37 58.90 58.54 59.80 59.78 60.15 59.15 57.47 56.51 57.48 57.57 57.81 59.05 57.40 58.19 58.93 61.05 62.21 61.03 61.62 62.02 61.41 61.86 62.23 62.00 60.69 60.10 59.90 58.82 58.49 59.17 56.04 53.64 56.73 58.61 58.81 58.33 58.00 57.91 57.01 58.17
60.11 59.37 60.78 59.03 58.49 58.98 59.83 59.75 59.21 57.00 56.52 56.75 56.31 55.92 57.17 57.54 56.84 58.41 61.35 61.95 63.02 62.37 62.02 62.68 62.90 62.54 61.75 61.77 61.89 60.84 59.53 57.54 56.76 57.09 56.13 56.65 56.59 58.28 57.87 56.21 56.19 56.09 56.16

GFSSE_sfc_wetblb_096.txt.gz
Wetbulb
71.18 71.37 72.55 73.44 73.37 72.64 72.08 72.17 72.38 72.32 72.55 72.60 72.61 72.95 72.73 72.57 72.18 71.87 71.70 71.61 71.39 71.68 70.84 71.33 71.76 71.22 71.27 71.05 70.60 70.88 70.72 70.26 70.34 70.87 71.07 70.75 70.50 70.26 69.85 70.21 69.67 68.50 70.46
71.81 72.35 71.93 72.83 73.43 72.79 72.23 72.15 72.44 72.34 72.62 72.42 72.68 72.48 72.35 72.34 72.11 71.82 71.81 71.59 71.61 71.95 71.53 71.27 70.55 70.36 70.31 69.94 70.08 69.84 69.64 69.27 69.23 69.53 69.83 69.87 69.53 69.53 69.23 69.41 69.01 68.30 69.34
70.84 71.88 71.77 71.86 73.01 72.98 72.64 72.47 72.70 72.88 72.96 72.45 72.68 72.48 72.39 72.17 72.08 71.85 71.68 71.49 71.62 71.41 70.64 70.47 70.01 69.62 69.21 69.13 69.29 69.23 68.96 68.63 68.85 69.09 68.53 65.89 66.42 68.31 68.40 68.11 68.52 68.11 67.80
69.41 72.47 72.21 71.46 72.29 72.85 72.34 72.07 72.27 72.83 73.00 72.31 72.43 72.27 72.29 72.25 71.84 71.95 71.38 70.70 70.75 70.85 69.89 69.90 69.57 68.92 68.26 68.50 68.54 68.56 68.47 68.55 68.26 67.99 64.69 64.63 65.65 67.56 67.61 67.19 66.92 66.86 66.71
69.17 70.76 72.34 70.52 71.34 72.44 72.05 72.02 71.88 72.04 72.12 71.83 72.06 72.19 72.15 72.06 71.94 71.77 70.81 70.03 70.07 70.45 69.43 69.10 68.89 67.90 67.63 67.31 67.42 67.57 68.01 68.16 67.34 64.90 62.39 62.86 63.51 65.78 66.32 66.04 65.41 65.39 65.27
69.62 70.52 69.71 69.94 70.31 71.22 72.09 71.86 70.71 70.68 70.03 70.74 71.38 71.65 71.91 72.13 71.77 71.15 70.04 69.76 70.02 70.31 69.45 68.43 67.61 66.84 66.66 66.57 66.24 66.33 66.06 65.90 65.75 62.45 62.13 64.02 63.51 65.86 65.44 64.67 64.24 64.33 64.80
69.69 70.56 70.56 68.58 68.46 68.33 71.11 70.67 68.80 66.65 66.37 69.14 70.29 70.00 70.78 70.95 70.84 69.80 69.35 69.25 69.35 69.23 68.96 67.78 66.61 66.05 66.02 65.34 65.36 64.40 63.90 64.33 63.78 61.19 61.00 61.17 62.42 64.19 64.46 63.79 63.40 63.28 63.02
70.50 71.36 69.73 68.15 67.55 67.21 69.16 67.22 66.47 66.32 63.72 66.29 68.13 69.21 70.35 70.15 69.57 69.02 68.81 68.63 68.39 68.24 67.73 67.18 66.46 65.88 65.55 64.96 63.73 62.89 62.75 63.39 63.27 60.45 60.22 60.32 63.48 63.77 63.55 63.05 62.31 62.27 62.13
70.18 69.85 70.50 70.85 69.19 67.45 67.49 65.58 65.24 65.64 64.55 64.37 63.19 65.47 69.04 68.45 68.03 68.28 68.08 68.03 67.53 67.03 66.77 66.20 65.61 65.08 64.80 63.87 62.54 61.90 61.96 63.25 60.95 60.36 61.20 60.08 63.58 63.05 62.91 62.42 61.96 61.72 61.60
68.64 69.23 68.70 68.94 69.44 69.17 66.62 64.44 63.83 64.82 63.81 62.99 63.39 63.86 67.00 66.70 67.24 67.53 66.94 66.82 66.72 66.14 65.46 64.94 64.91 64.40 63.67 62.65 61.72 61.89 61.60 63.34 60.26 59.90 59.81 60.49 62.77 62.82 62.51 62.06 61.75 61.51 61.18
66.59 67.65 67.80 67.34 68.58 69.08 68.26 65.13 64.29 65.15 63.08 61.62 63.38 61.92 65.93 66.87 66.84 67.12 65.90 65.72 65.82 65.27 64.86 64.31 63.76 63.08 62.25 61.54 61.92 61.49 61.75 59.33 59.96 59.62 59.55 62.59 62.80 62.79 62.21 61.57 61.16 60.83 60.73
66.25 66.34 65.36 66.58 66.71 67.31 66.72 65.64 63.82 63.66 63.94 62.72 62.56 61.51 66.76 66.51 66.98 66.65 65.01 64.95 65.04 64.55 64.05 63.57 62.84 61.84 60.71 58.11 58.41 60.07 58.65 60.33 59.46 59.10 59.53 62.70 62.75 62.49 61.95 61.05 60.76 60.39 60.08
65.55 65.04 65.17 65.32 66.34 66.44 65.19 65.08 63.23 62.98 62.51 61.88 61.58 60.17 66.44 66.84 66.31 65.53 63.76 63.41 62.80 63.24 61.27 60.73 59.73 57.97 56.87 56.92 57.89 58.56 59.68 59.91 59.23 58.96 60.51 62.32 62.84 62.23 61.83 61.00 60.46 59.92 59.38
64.55 65.40 65.31 65.90 65.49 65.48 65.79 64.33 63.45 62.19 60.73 62.68 62.79 64.00 66.11 65.79 65.42 64.42 62.85 61.83 60.06 59.85 58.41 57.24 57.34 57.72 56.82 57.26 58.56 58.99 58.94 59.86 59.16 58.97 59.72 61.87 62.14 61.95 61.57 61.22 60.49 59.57 58.87
64.01 64.31 65.11 64.54 64.76 64.55 64.11 64.60 64.04 62.80 62.26 62.93 63.96 64.86 66.22 65.10 64.84 64.44 62.80 60.21 58.96 59.26 58.13 57.09 58.41 58.36 57.99 57.24 58.54 58.39 58.28 59.66 58.84 58.90 58.28 60.97 61.60 61.97 61.24 60.94 60.33 59.77 58.99
63.28 63.24 64.02 63.84 64.21 63.71 63.84 63.75 63.96 63.36 62.22 63.55 64.77 65.51 65.45 64.98 64.27 63.89 62.27 60.14 60.14 59.74 59.47 58.87 59.55 58.61 57.46 57.88 57.92 58.22 58.00 58.83 58.74 58.67 58.57 58.53 60.52 61.18 61.52 60.63 60.14 59.47 58.96
62.13 62.01 62.19 61.95 61.82 62.15 62.93 63.21 63.00 63.83 63.31 62.54 62.81 63.42 64.74 64.62 63.88 63.20 62.86 60.96 61.82 60.74 59.84 60.05 59.84 58.84 57.09 57.39 57.35 57.69 57.94 57.79 58.93 58.48 57.97 57.93 58.23 59.91 60.43 61.12 60.53 59.47 59.01
61.55 60.71 61.26 60.89 60.64 60.76 62.82 62.31 61.92 63.84 62.71 61.99 62.46 62.95 62.56 62.53 63.51 63.03 62.58 61.79 62.02 61.72 60.60 61.01 59.05 57.10 56.09 55.87 55.49 55.90 56.55 56.98 57.97 58.64 58.22 58.01 57.73 58.10 59.05 60.43 60.61 60.49 59.30
61.40 60.51 60.22 60.22 60.08 60.72 61.69 62.44 62.38 62.43 63.10 62.24 62.16 62.71 62.24 61.70 62.12 62.61 62.52 62.07 62.51 62.26 61.44 60.19 58.04 56.73 55.61 55.46 55.96 56.01 56.61 56.28 56.97 57.95 57.90 57.62 57.46 57.09 57.07 59.03 59.61 59.74 59.84
60.42 60.13 60.15 59.38 60.62 60.71 60.75 60.76 61.88 62.32 62.44 62.86 61.49 61.96 61.76 60.96 61.32 61.48 60.72 61.04 61.18 60.53 59.10 58.35 56.93 57.07 55.87 55.73 56.48 55.93 54.84 55.91 56.90 56.08 56.27 58.08 57.58 57.29 56.79 56.60 56.77 57.12 58.74
59.10 59.37 59.26 59.27 59.54 59.52 58.45 57.91 59.44 59.66 61.04 60.94 61.51 61.47 61.02 60.00 59.35 59.07 58.35 58.63 57.98 57.23 56.98 57.93 56.51 54.86 54.68 54.80 53.46 53.15 52.50 54.65 54.91 55.17 55.99 55.63 56.50 57.87 57.40 57.86 56.32 56.13 56.33
58.52 59.02 59.07 58.58 59.21 59.39 58.92 58.54 58.49 58.96 59.19 58.92 58.92 58.87 59.16 58.32 58.76 57.93 57.10 57.10 57.52 57.21 56.59 56.71 55.79 55.06 54.46 54.68 51.69 50.82 49.30 51.45 52.93 54.09 53.44 54.01 54.20 56.18 57.46 57.64 56.88 56.57 56.33
57.67 58.12 58.92 59.42 59.52 59.08 59.34 58.41 57.92 58.04 57.89 57.25 57.03 57.10 57.77 58.04 58.20 58.12 57.89 57.15 57.85 57.42 56.90 57.40 56.84 55.72 53.98 54.65 54.27 54.10 51.66 50.06 51.05 52.95 53.07 53.91 53.21 54.34 54.09 56.03 57.26 57.17 57.01
57.59 58.76 58.95 59.71 59.85 58.93 59.63 58.28 57.07 55.99 54.98 55.92 56.30 56.58 57.36 57.52 58.14 58.54 59.10 58.89 58.17 58.53 57.98 57.85 58.35 57.09 56.77 53.72 53.97 55.49 56.02 55.66 51.58 49.96 52.48 53.95 54.97 55.30 54.10 53.86 53.63 55.64 55.72
59.18 59.44 58.90 59.35 59.57 59.46 59.20 58.93 57.53 56.43 56.33 55.79 55.03 55.01 56.50 57.24 57.51 58.29 59.00 58.91 58.74 58.64 58.62 58.69 58.08 57.60 57.78 57.76 56.67 55.63 54.80 54.93 54.97 52.90 50.40 52.75 54.14 54.91 55.65 55.15 54.49 53.40 54.46
59.45 58.76 59.31 58.44 58.72 59.48 59.81 58.68 57.90 56.73 55.83 54.96 54.48 53.83 54.91 56.34 57.19 57.68 58.25 58.85 58.91 58.43 58.75 58.85 58.75 58.59 58.56 58.46 57.85 57.54 55.97 54.58 53.80 52.77 51.85 52.11 52.09 53.86 55.42 55.27 54.43 54.66 53.66

GFSSE_sfc_wetblb_099.txt.gz
Wetbulb
69.15 71.78 72.40 72.60 72.30 72.11 71.85 72.00 72.29 72.23 72.29 72.96 73.05 72.80 72.66 72.37 72.28 71.80 71.58 71.46 71.66 72.21 71.77 72.10 72.45 71.56 71.56 71.61 71.81 71.58 71.06 70.80 70.71 71.00 71.01 70.66 70.72 70.65 70.28 70.35 70.08 68.57 70.66
70.09 71.73 71.82 72.23 72.17 71.95 72.15 72.16 72.43 72.54 72.50 73.03 72.90 72.43 72.10 72.04 71.86 71.65 71.44 71.37 71.69 72.02 71.57 71.61 71.39 70.85 71.29 70.91 70.66 70.40 70.18 69.77 69.81 70.18 70.49 70.26 70.14 69.97 69.72 69.39 69.14 68.75 69.77
70.23 71.04 72.20 71.91 72.08 72.12 72.36 72.38 72.58 72.73 72.60 73.06 72.85 72.53 72.12 71.97 71.83 71.54 71.38 71.46 72.03 72.28 71.13 70.55 70.30 70.68 70.43 70.33 69.95 69.83 69.65 68.93 68.40 68.55 68.72 66.93 66.85 69.16 69.03 69.19 68.84 68.36 68.15
70.63 70.41 70.89 71.65 71.87 72.13 72.04 72.27 72.42 72.88 72.68 72.76 72.61 72.59 72.20 72.02 71.73 71.84 71.62 71.23 71.53 71.31 70.36 70.35 70.30 70.26 69.90 69.61 69.16 69.19 69.24 68.39 67.81 67.37 65.12 65.60 66.57 68.57 68.30 67.83 67.53 67.26 67.35
68.29 70.74 70.79 70.81 71.63 71.98 71.87 71.82 72.02 72.43 71.84 71.96 72.01 72.40 72.31 71.95 72.03 71.66 70.85 70.46 70.65 70.90 70.00 69.67 69.65 69.01 68.86 68.43 68.33 68.55 68.38 67.11 66.16 63.81 62.22 63.84 64.40 66.88 67.50 66.70 65.65 65.82 65.67
66.68 70.46 69.32 69.69 70.88 71.87 72.02 71.83 71.96 71.95 71.42 71.45 71.46 71.87 71.99 71.80 71.85 71.13 70.32 69.90 70.09 70.29 69.96 68.57 68.43 68.24 67.32 66.98 67.16 67.09 67.03 65.77 63.55 61.05 62.32 64.48 64.15 66.35 66.15 65.33 65.47 64.57 64.05
66.96 68.84 69.13 68.80 70.04 71.31 72.23 71.96 70.85 70.32 70.85 70.03 69.63 70.13 70.04 69.87 70.86 70.39 69.73 69.53 69.35 69.33 68.80 68.36 67.94 67.20 66.51 66.30 66.05 64.94 63.85 63.96 61.06 60.49 60.33 62.32 62.95 65.07 64.83 64.22 63.62 63.55 63.24
65.94 68.62 68.22 68.99 68.72 69.05 70.02 70.96 68.71 67.63 68.35 68.12 68.13 68.40 68.17 69.17 69.52 69.74 69.47 69.26 68.94 68.55 67.93 67.62 66.92 66.53 65.94 65.49 64.50 62.86 62.31 63.50 61.16 59.62 59.07 60.72 63.63 64.07 64.33 63.15 62.93 62.60 62.57
65.54 66.07 67.23 66.97 67.67 67.86 67.93 67.57 66.52 66.34 67.60 67.14 67.21 64.64 65.24 67.37 67.90 68.94 68.82 68.81 68.40 67.87 67.31 66.76 66.17 65.73 65.26 64.28 62.89 61.65 62.57 62.26 59.68 59.74 60.06 60.07 63.48 63.29 63.22 62.79 62.39 62.11 62.12
65.03 65.57 65.80 66.27 66.38 65.75 65.81 65.67 65.78 65.00 65.72 65.92 65.63 65.05 64.08 62.76 66.70 67.54 67.55 67.76 67.57 67.28 66.68 65.78 65.27 64.73 64.01 62.62 61.64 62.02 62.51 61.88 59.30 59.10 59.04 60.24 62.82 62.96 63.01 62.63 62.32 61.79 61.43
63.70 64.30 63.96 64.92 66.31 66.21 63.84 63.69 64.41 65.52 64.74 64.65 64.43 64.10 62.40 61.35 66.16 66.31 66.30 66.48 66.71 66.11 65.84 65.27 64.50 63.57 62.47 61.68 61.50 61.59 60.66 58.87 58.86 59.02 58.97 62.83 62.79 63.01 62.77 62.25 61.65 61.36 61.22
62.33 62.98 63.35 63.92 64.85 66.16 65.65 63.47 61.88 62.70 62.08 60.93 62.37 61.44 60.42 62.65 65.03 65.21 65.38 65.45 65.53 65.18 64.72 64.23 63.53 62.65 59.96 56.52 56.96 59.24 58.56 58.50 58.54 58.41 59.23 62.62 63.03 62.91 62.37 61.68 61.27 60.92 60.73
63.49 62.75 62.16 62.92 64.60 64.34 63.54 63.00 62.18 62.54 62.99 61.06 61.36 61.13 60.35 64.11 65.38 64.08 63.61 63.39 62.77 63.48 61.66 61.10 60.33 56.58 56.12 55.89 55.53 56.10 57.69 58.10 58.26 58.52 60.79 62.62 62.79 62.46 62.25 61.42 60.95 60.68 60.00
62.53 61.96 62.18 62.27 63.35 63.11 62.81 61.95 61.77 61.05 62.59 61.94 61.51 60.93 61.44 64.01 64.04 62.94 61.88 61.06 60.89 59.81 58.05 56.64 54.88 54.48 54.76 56.16 56.53 57.11 57.40 57.57 57.77 58.07 60.16 61.71 62.38 62.13 61.90 61.40 60.79 60.15 59.32
62.05 62.05 61.61 61.74 61.39 62.09 62.23 62.50 62.23 61.33 60.84 61.82 60.92 60.75 60.58 64.44 63.21 61.85 60.26 59.53 58.41 57.65 56.05 54.28 54.54 54.67 53.85 54.78 56.33 56.43 57.26 57.24 57.68 58.30 58.02 60.85 61.51 62.13 61.73 61.59 60.88 60.06 59.24
61.54 61.15 61.04 61.25 60.93 61.13 61.09 61.83 62.48 61.83 60.66 60.99 61.95 61.97 61.58 64.76 63.00 60.52 58.77 56.98 56.84 56.78 54.88 54.27 54.89 54.46 53.67 55.18 54.90 56.53 57.36 57.36 57.30 57.63 57.72 58.63 60.37 61.46 61.71 61.17 61.03 60.44 59.80
59.84 60.14 59.38 60.30 61.03 59.60 62.07 61.01 62.55 61.85 62.20 63.02 63.02 62.31 64.49 64.81 63.16 59.67 57.05 57.11 56.85 56.23 55.58 56.07 55.77 55.11 54.40 55.39 55.13 55.15 56.97 56.71 57.09 57.25 57.23 56.94 58.11 59.63 60.50 61.40 60.87 60.11 59.81
58.10 58.74 58.90 60.78 59.49 60.11 61.71 60.35 61.67 61.85 61.71 62.54 63.75 63.15 64.55 64.28 62.63 59.64 57.18 58.08 57.90 57.67 56.82 58.00 56.67 54.13 53.53 53.92 53.02 53.85 54.50 56.51 56.73 56.79 57.13 57.06 56.47 57.50 59.13 60.48 61.09 60.83 59.70
58.41 58.19 58.55 59.50 58.99 59.76 60.65 59.80 59.90 62.30 61.15 61.93 63.11 62.62 63.33 62.54 62.45 60.58 58.39 59.40 58.56 58.70 57.61 58.48 55.47 54.86 52.68 52.70 53.32 52.74 53.31 54.74 56.42 57.16 56.35 56.27 56.08 55.81 55.77 59.27 59.80 60.03 60.24
57.44 58.38 59.17 58.26 58.34 60.10 59.38 59.38 59.13 60.28 61.28 60.83 62.06 61.89 61.50 61.31 61.96 61.23 60.09 59.88 59.59 58.46 58.17 57.32 54.78 53.80 53.56 53.48 55.70 53.94 53.09 54.51 54.49 55.10 56.50 56.59 56.12 55.95 56.06 55.83 57.06 56.97 58.80
56.90 58.72 57.81 58.35 59.18 58.31 58.35 58.25 58.39 59.57 60.96 60.57 60.88 61.55 61.10 60.33 59.19 59.75 60.01 59.14 58.36 58.76 58.36 57.10 53.95 53.84 52.56 52.93 51.79 50.46 51.57 53.24 54.17 54.07 54.08 55.43 55.72 55.49 55.35 55.58 55.77 55.76 56.43
57.41 58.18 58.42 58.87 58.31 58.90 58.20 58.28 59.19 60.25 61.02 60.56 60.97 61.10 60.67 59.11 57.86 58.27 58.55 57.09 57.62 56.73 56.19 54.38 54.22 52.70 52.16 51.70 50.81 50.29 47.67 49.33 51.96 52.30 52.38 53.82 53.70 55.59 55.74 55.52 55.11 54.96 55.02
57.37 57.93 57.87 58.17 57.81 58.96 58.35 58.48 58.35 58.69 58.91 58.89 59.87 59.65 58.62 58.67 57.56 57.12 57.68 57.61 56.77 56.21 55.03 54.66 54.45 53.28 51.71 52.26 52.37 50.06 49.33 47.59 48.74 51.24 51.28 50.89 51.39 52.36 53.79 55.94 55.77 55.56 55.09
56.73 58.27 58.70 58.53 58.46 58.72 57.10 57.55 57.06 56.44 55.83 57.44 58.18 59.16 57.82 58.07 57.59 57.25 57.85 57.45 56.90 56.73 56.25 55.28 55.45 54.26 53.60 51.47 52.09 53.57 53.99 54.91 51.18 48.79 50.92 50.85 51.70 51.65 52.00 52.26 55.35 55.56 55.74
56.56 57.21 58.24 58.86 58.25 58.62 57.96 56.97 57.03 56.30 56.60 57.18 56.66 56.58 56.82 57.31 58.04 58.14 58.41 57.67 57.07 57.08 57.12 56.95 56.46 56.47 55.80 53.51 53.14 52.84 51.87 52.36 52.69 50.88 48.54 50.40 51.08 52.05 53.19 53.02 53.30 52.79 55.37
56.35 57.11 58.21 58.34 57.67 58.27 58.28 57.77 57.03 55.52 55.05 54.33 55.27 55.29 55.43 56.26 56.87 57.28 57.73 57.69 57.50 57.36 57.64 58.18 57.72 57.18 56.67 56.35 56.16 55.41 54.72 52.33 51.54 51.39 49.93 50.58 51.11 52.45 53.04 53.61 54.09 54.45 54.12

GFSSE_sfc_wetblb_102.txt.gz
Wetbulb
69.10 71.43 71.74 72.35 72.48 72.11 71.85 71.94 72.00 72.21 72.62 72.77 72.76 72.73 72.62 72.58 72.68 72.66 72.64 72.45 72.75 73.25 72.35 72.68 73.22 73.05 72.73 71.99 72.22 71.89 71.55 71.08 70.80 70.95 70.98 70.74 70.80 70.78 70.63 70.55 70.07 68.67 71.01
69.54 71.71 71.16 71.98 72.22 72.05 72.12 72.22 72.08 72.34 72.82 72.84 72.70 72.40 72.21 72.12 72.01 72.02 72.14 72.32 72.68 72.98 72.11 72.38 72.36 71.89 71.52 71.43 71.30 71.06 70.74 70.23 69.98 70.30 70.92 70.66 70.02 70.00 70.01 69.79 69.71 69.12 69.98
69.81 71.76 71.32 71.12 71.97 72.12 72.37 72.54 72.60 72.60 72.86 73.07 72.54 72.27 72.01 71.78 71.77 71.58 71.67 71.65 72.28 72.53 71.36 71.51 71.77 71.42 70.83 70.87 70.37 70.15 69.65 69.44 69.18 69.05 69.46 67.42 67.73 69.46 69.56 69.19 69.33 69.53 69.16
69.69 71.17 71.47 70.92 71.48 72.02 72.11 72.37 72.43 72.77 72.96 72.74 72.54 72.20 71.92 71.83 71.52 71.52 71.60 71.26 71.52 71.96 70.38 70.76 71.18 70.93 70.60 69.88 69.51 69.15 68.79 68.41 67.79 67.76 66.20 66.48 67.49 69.23 69.01 68.40 68.11 67.80 67.42
69.22 70.16 71.33 70.50 70.73 71.64 71.82 72.05 72.28 72.10 72.24 72.11 72.05 72.00 71.92 71.83 71.74 71.79 71.37 71.00 70.59 70.74 69.68 70.90 70.56 70.25 69.63 68.87 68.50 68.31 67.67 66.88 65.86 64.03 62.25 63.67 65.56 67.43 67.89 67.10 66.47 66.25 66.04
68.88 69.64 69.58 69.98 70.48 71.45 71.66 72.00 72.08 72.03 71.72 71.52 71.59 71.79 71.71 71.95 71.83 71.47 70.82 70.51 70.58 70.83 70.44 70.29 70.30 69.60 68.53 67.94 67.63 66.76 65.72 64.73 63.81 61.31 63.46 65.47 65.00 67.15 66.33 65.44 65.51 65.44 65.29
67.98 68.85 68.92 68.93 70.36 71.44 71.82 71.82 71.67 71.48 71.15 71.15 70.83 70.21 69.88 69.81 69.66 70.02 70.13 69.98 69.88 69.79 69.70 69.52 69.07 67.85 67.23 67.04 66.41 65.36 64.63 64.07 61.24 60.53 61.44 63.30 64.02 66.01 65.61 64.49 63.96 63.93 63.78
67.15 67.83 67.98 69.37 69.95 70.91 71.36 71.03 70.38 70.09 69.96 69.71 68.94 67.48 66.29 67.48 67.18 68.24 69.46 69.18 68.84 68.57 68.03 68.35 67.58 67.01 66.28 65.44 64.46 64.01 63.56 63.25 61.10 59.07 61.32 62.79 65.12 65.28 64.74 63.99 63.49 63.10 62.94
67.02 66.39 66.50 67.22 68.32 68.45 68.40 69.54 68.32 68.24 68.74 68.04 67.89 66.62 66.26 66.53 66.10 67.44 67.77 68.49 68.37 67.85 67.89 67.45 66.60 65.85 65.31 64.44 63.47 63.37 62.48 62.21 58.85 59.07 60.71 62.03 64.56 64.25 63.81 62.94 62.33 62.28 62.42
64.64 65.53 65.17 65.65 66.06 65.90 66.27 66.95 65.88 66.24 66.88 65.95 66.75 65.93 64.70 64.88 65.63 66.55 67.03 67.91 67.88 67.53 67.16 66.58 65.85 65.04 64.06 63.26 63.07 62.56 62.07 61.93 58.46 58.03 58.24 60.89 63.25 63.29 63.23 62.85 62.35 62.05 61.99
63.36 63.82 64.37 64.93 64.80 65.24 64.51 66.07 65.65 66.62 66.48 66.01 65.86 64.82 63.27 62.79 65.12 65.35 66.05 66.73 67.25 66.65 66.26 65.63 65.14 63.93 62.79 62.55 62.67 62.22 61.25 58.85 58.44 57.99 57.58 61.67 63.08 63.44 63.01 62.35 62.06 61.79 61.51
61.23 62.27 62.57 63.22 63.88 64.73 64.79 63.48 64.29 64.52 65.16 64.66 63.91 63.74 62.86 62.32 62.02 62.64 65.28 66.04 66.42 65.99 65.57 65.06 64.35 63.01 60.34 58.24 60.18 60.70 58.44 58.20 58.20 58.00 58.63 62.73 63.13 63.27 62.85 62.04 61.63 61.53 61.18
62.00 61.84 61.72 62.29 63.86 64.55 63.65 62.52 62.11 63.12 62.18 61.21 60.90 60.65 61.37 61.31 63.13 63.19 64.86 64.80 64.16 64.57 62.62 62.15 61.73 58.10 56.40 55.88 56.45 57.16 57.39 57.43 57.56 58.44 60.37 62.47 63.09 62.92 62.66 62.01 61.49 61.20 60.77
61.81 61.25 61.04 61.57 62.89 62.64 62.71 62.26 61.93 62.09 61.83 59.79 60.84 59.42 59.73 61.28 61.32 63.65 63.85 62.49 61.91 60.95 58.94 57.90 56.70 55.17 55.25 55.61 56.81 56.66 56.74 56.87 56.73 58.05 60.41 61.92 62.48 62.49 62.52 62.01 61.33 60.73 60.15
61.14 60.75 60.28 60.83 61.06 61.63 61.52 61.46 61.18 61.03 61.98 61.94 60.97 60.65 60.29 62.69 61.51 63.54 62.20 61.31 59.95 58.10 57.02 54.72 53.37 53.96 54.21 55.49 56.77 56.38 56.30 56.30 57.18 57.77 58.48 61.03 61.63 62.34 61.99 62.04 61.49 60.77 59.92
61.57 60.29 59.89 59.81 60.49 60.70 60.59 62.54 61.98 60.89 61.13 62.18 61.58 60.97 60.86 62.14 63.18 62.14 60.38 59.26 57.51 56.40 55.04 53.72 52.61 52.84 53.07 55.11 55.10 56.25 56.28 56.35 56.90 56.76 57.36 58.84 60.62 61.54 61.97 61.45 61.28 60.74 59.91
61.22 60.23 59.15 59.43 59.37 59.69 60.02 61.48 62.48 61.57 61.07 60.91 61.19 60.85 61.57 62.70 62.36 60.47 58.74 56.80 55.81 54.06 53.05 53.40 52.46 52.89 52.93 55.18 55.06 55.84 56.07 55.75 56.43 56.40 56.33 56.45 58.26 59.91 60.99 61.81 61.20 60.58 60.00
59.84 59.08 58.70 60.07 59.01 59.79 59.58 60.05 62.37 61.48 61.53 61.71 61.65 61.69 61.31 63.16 61.01 58.55 56.64 55.46 54.93 52.98 54.12 54.62 53.79 52.71 53.33 54.00 54.08 55.19 55.04 55.60 55.79 55.98 55.95 56.21 56.06 56.97 59.25 60.64 61.26 61.20 60.59
58.43 57.60 57.08 57.12 58.03 58.75 60.92 58.64 61.82 60.37 61.92 62.37 62.64 61.68 63.25 62.27 59.59 56.93 55.84 55.01 55.53 53.57 54.83 55.69 54.14 53.93 52.80 52.47 53.58 53.01 53.52 54.36 55.02 56.53 55.66 55.65 55.36 55.64 55.64 59.53 59.90 60.01 60.34
57.36 57.20 56.96 56.88 57.66 59.72 59.90 58.98 59.79 61.26 60.45 62.01 62.52 61.56 63.79 61.30 58.86 56.40 56.32 55.21 55.18 54.42 55.96 55.75 53.61 52.56 52.47 52.55 54.56 53.29 53.95 54.20 54.49 54.78 55.58 56.58 55.47 55.07 55.24 55.52 56.73 57.04 58.95
56.34 56.18 56.44 56.30 58.10 58.96 57.92 57.76 57.50 59.29 59.81 60.38 61.92 62.49 62.72 61.16 58.92 56.71 57.59 56.21 56.81 55.44 56.50 55.06 53.50 52.68 51.06 51.83 50.65 49.54 50.83 53.60 54.63 54.74 55.80 55.14 54.87 54.90 54.34 55.06 55.61 55.08 56.14
55.98 55.46 55.84 56.82 58.73 58.46 58.01 57.48 57.20 58.80 60.37 60.09 60.94 61.76 61.66 61.27 59.91 57.99 58.68 57.02 58.48 56.97 56.07 54.59 53.39 51.15 50.88 51.67 50.03 48.68 47.69 49.20 51.14 52.61 54.22 55.07 53.93 55.07 54.86 54.94 54.54 55.02 54.99
55.06 55.30 56.54 56.66 57.95 57.93 58.28 58.50 58.63 58.97 60.45 59.27 59.69 59.07 59.71 59.36 59.95 59.37 59.10 58.47 58.27 57.81 56.36 55.21 54.28 52.97 52.50 51.00 52.64 49.31 46.65 45.53 47.63 50.03 50.90 52.91 52.59 52.80 54.31 54.72 54.64 54.84 54.80
54.80 55.84 56.34 56.44 56.34 57.18 58.28 58.02 57.82 58.00 57.94 58.81 59.74 59.16 57.48 57.84 58.10 58.65 57.85 58.22 57.56 56.97 55.71 55.32 54.99 52.97 52.42 51.20 51.09 52.91 53.61 52.40 48.27 48.56 50.74 50.07 50.69 51.85 53.22 53.54 54.79 54.91 54.62
55.68 56.18 55.90 56.50 56.72 56.91 57.55 57.81 57.45 57.38 58.22 58.99 59.34 57.76 56.54 56.83 57.43 58.85 58.25 57.23 56.78 56.65 56.16 55.09 54.31 53.56 52.75 52.18 51.37 50.82 50.04 51.19 52.13 50.33 47.26 49.35 50.03 50.69 50.71 51.48 52.55 54.19 55.26
55.10 56.08 56.32 56.06 56.68 57.04 56.86 57.46 56.95 56.34 56.26 56.46 57.40 56.94 56.28 56.43 56.92 57.94 58.39 58.03 57.21 56.93 56.37 57.00 56.75 55.25 54.62 53.44 53.34 53.51 52.38 51.05 50.69 50.48 48.82 49.41 49.60 51.20 51.90 52.66 52.36 52.76 53.42

GFSSE_sfc_wetblb_105.txt.gz
Wetbulb
68.84 70.19 71.57 72.22 72.36 72.07 72.01 71.98 72.06 72.17 72.73 73.22 73.35 73.24 73.12 73.18 72.98 72.65 72.69 72.92 72.73 73.18 72.98 73.30 72.98 73.11 72.86 72.11 71.78 71.77 71.37 71.01 70.90 71.12 71.13 71.03 71.05 70.79 70.58 70.53 70.47 68.50 70.65
69.07 70.63 70.93 71.98 72.24 71.91 72.08 71.96 72.29 72.39 72.84 72.98 73.01 72.96 72.82 72.77 72.72 72.73 72.88 72.91 72.73 72.88 72.33 72.56 73.20 72.15 71.92 71.61 71.38 71.14 70.84 70.18 70.12 70.44 70.69 70.66 70.27 70.00 69.99 69.71 69.77 68.85 70.18
69.53 70.91 70.57 71.12 71.82 71.95 72.17 72.11 72.60 72.65 72.96 73.02 72.55 72.50 72.59 72.66 72.62 72.49 72.55 72.41 72.50 72.51 71.89 72.06 72.31 71.97 71.30 70.95 70.94 70.73 70.32 69.99 69.60 69.64 69.72 67.88 67.88 69.71 69.53 68.94 69.29 69.28 69.28
70.01 70.77 70.28 70.71 71.46 71.78 71.95 72.16 72.35 72.89 72.72 72.54 72.31 72.19 72.24 72.37 72.24 72.32 72.33 71.79 71.55 70.76 71.91 72.04 71.70 71.07 70.79 70.34 69.82 69.44 69.17 68.76 68.54 68.48 67.16 67.10 67.51 69.21 69.19 68.46 68.77 68.70 68.43
69.42 70.77 70.30 70.33 70.71 71.45 71.73 71.85 72.17 72.34 72.03 71.76 71.82 71.93 71.89 71.68 71.78 71.73 71.45 71.24 71.08 70.35 70.64 71.82 71.37 70.31 69.71 68.93 68.47 68.14 67.74 67.43 66.85 65.61 65.36 64.64 65.66 67.85 68.41 67.72 66.93 67.02 66.92
68.15 70.18 69.94 69.51 70.13 71.40 71.80 71.94 71.91 71.96 71.58 71.34 71.31 71.41 71.62 71.37 71.61 71.47 70.75 70.36 70.47 70.36 71.34 71.06 70.12 69.60 68.49 67.85 67.42 66.69 66.21 65.75 64.36 63.21 64.99 66.01 65.03 67.39 67.16 66.31 66.20 66.04 66.20
67.29 68.21 69.07 68.55 69.73 71.16 71.86 71.83 71.58 71.49 71.18 70.96 69.98 68.95 68.94 70.03 69.95 69.62 69.76 70.05 69.91 70.03 70.61 69.98 69.02 68.53 67.76 66.91 66.29 65.70 65.20 64.50 61.45 61.59 62.60 63.95 64.46 66.66 66.19 65.39 65.28 64.62 64.50
67.09 67.54 67.94 69.52 69.85 70.38 71.07 71.09 70.75 70.56 70.25 69.90 68.52 68.58 68.52 67.85 67.96 68.20 68.20 68.74 69.00 68.46 68.50 68.40 67.83 67.55 66.54 65.83 65.30 64.48 63.80 63.39 61.51 61.38 62.05 63.28 65.89 65.63 65.30 64.66 63.79 63.75 63.27
66.55 66.34 66.52 67.49 69.29 69.75 69.27 69.38 68.93 69.18 68.55 68.01 67.42 67.44 67.04 66.84 66.57 66.75 66.62 67.68 67.85 67.85 68.08 67.49 66.98 66.24 65.28 64.61 64.28 63.61 62.58 62.08 59.34 61.03 62.40 62.86 65.65 64.88 64.53 63.61 63.06 62.63 62.48
65.01 64.88 65.03 65.57 66.20 66.34 67.54 68.26 68.06 67.92 66.82 66.60 66.15 65.51 65.63 65.86 65.53 64.79 65.95 66.46 66.99 67.46 67.47 66.80 66.14 65.02 64.16 63.86 63.52 62.64 62.03 61.53 58.33 57.67 60.06 62.65 64.62 64.20 63.79 63.08 62.42 62.28 61.74
62.79 63.68 63.97 64.33 64.49 64.29 64.72 65.84 66.93 66.93 66.78 66.42 65.79 65.03 64.55 65.17 65.46 65.66 65.37 65.89 66.61 66.94 66.64 66.21 65.30 63.76 62.88 63.65 62.95 62.32 61.11 58.46 57.82 57.09 57.52 63.36 63.25 63.38 62.98 62.30 62.14 61.99 61.90
60.88 61.64 63.06 63.50 63.27 63.16 65.14 64.60 64.05 65.37 65.58 65.65 65.24 64.45 63.84 63.73 63.95 63.96 64.71 65.33 65.92 66.13 65.82 65.55 64.24 62.60 61.92 60.76 60.97 60.73 58.65 58.08 57.36 56.62 57.07 62.72 63.47 63.12 62.78 62.14 61.88 61.75 61.56
61.53 61.31 61.62 61.96 62.91 64.01 63.26 63.48 64.36 64.91 64.84 64.75 64.04 63.21 62.73 63.01 63.51 62.27 63.15 64.58 64.51 64.91 63.06 63.01 61.09 56.55 57.70 59.16 56.70 57.56 57.58 57.12 56.19 56.83 59.55 62.55 63.41 62.98 62.68 62.19 61.92 61.70 61.42
60.38 61.06 60.94 61.17 63.27 64.54 63.01 62.13 62.15 63.35 62.29 62.08 63.25 62.54 61.57 61.35 61.51 61.67 63.64 64.51 63.17 62.15 60.35 59.95 56.36 55.11 55.16 55.89 56.90 56.97 56.88 56.77 55.72 56.67 59.30 61.80 62.88 62.73 62.78 62.40 62.01 61.41 60.95
60.16 60.37 59.81 60.50 61.74 62.65 62.72 61.92 60.78 62.00 61.80 60.90 61.57 61.13 61.36 60.50 60.94 61.96 63.42 63.23 62.10 59.83 59.30 57.93 55.00 54.12 54.61 56.04 56.55 56.34 55.86 55.89 56.38 57.04 57.36 60.90 61.68 62.83 62.38 62.40 61.99 61.29 60.69
61.12 60.13 59.22 60.03 60.63 60.62 60.52 61.92 61.44 61.42 62.00 61.07 61.01 60.55 60.40 61.23 60.94 61.73 62.36 62.17 60.26 59.72 58.04 56.65 54.69 54.42 54.14 55.11 55.07 56.04 55.78 56.13 56.28 56.30 56.94 58.76 60.45 61.65 62.27 61.87 61.59 61.13 60.47
61.21 59.89 59.16 58.98 59.12 59.47 59.31 62.12 61.85 60.94 61.42 61.96 60.95 60.86 59.98 61.92 61.32 62.68 62.06 60.78 59.62 57.91 55.21 53.07 52.27 52.24 52.90 55.41 54.62 55.57 55.79 55.68 56.23 56.14 56.04 56.34 58.23 60.02 60.90 61.93 61.16 60.61 60.16
59.90 59.32 58.66 59.86 58.20 58.36 58.43 62.00 62.02 61.91 61.05 60.99 61.62 61.58 60.66 61.74 62.32 61.79 60.79 58.95 57.17 55.01 54.63 53.83 52.56 51.46 53.90 54.56 53.73 54.14 54.73 55.52 55.42 55.58 55.56 55.72 56.06 57.25 59.30 60.80 61.22 60.91 60.19
59.94 59.00 58.12 57.44 57.30 57.96 58.19 59.01 61.97 61.55 60.46 61.13 61.37 60.85 60.81 60.86 62.58 61.32 59.22 56.73 54.81 54.01 54.03 53.35 51.00 52.21 52.88 53.44 53.68 52.90 53.80 54.37 55.07 56.31 55.31 55.13 55.64 56.01 56.54 59.48 60.07 60.23 60.77
58.76 58.48 57.24 56.34 56.50 57.64 59.11 59.13 60.54 60.72 61.14 62.10 61.92 61.45 60.59 61.88 60.72 59.73 56.78 54.31 53.47 53.23 53.24 52.29 52.31 51.44 52.36 53.15 54.60 53.21 52.60 53.20 54.13 54.37 54.97 55.91 55.96 55.69 55.48 55.21 56.24 56.65 58.90
56.14 55.90 55.84 55.75 56.00 57.50 58.65 57.97 57.85 59.11 59.59 60.58 62.06 61.23 61.55 60.17 59.35 57.35 54.68 53.62 52.21 52.85 53.81 52.79 51.97 51.63 50.43 52.36 51.80 50.11 50.80 52.23 52.64 53.74 54.50 54.46 54.81 55.11 54.81 54.77 54.44 54.68 55.64
55.46 55.70 55.33 55.56 56.76 57.18 57.56 56.56 58.06 58.97 60.14 59.55 60.90 61.47 60.75 59.11 57.33 56.42 54.07 53.13 52.16 53.88 54.18 53.20 52.20 50.35 50.09 51.95 50.08 48.96 46.29 48.62 51.51 52.74 53.77 54.12 53.40 54.61 54.82 54.61 54.12 54.75 54.53
54.91 54.73 55.44 56.52 56.98 56.94 58.19 57.80 57.90 58.05 59.61 59.15 59.48 61.28 59.74 58.27 56.96 56.63 54.65 53.98 53.68 55.65 54.54 53.40 53.02 50.96 51.10 49.41 51.98 49.52 45.73 45.80 47.04 49.50 51.41 53.08 53.15 53.38 54.32 54.38 54.43 54.79 54.63
54.78 54.70 55.52 57.21 55.72 56.14 56.84 57.02 57.15 56.58 57.48 58.74 59.01 59.89 60.35 58.77 57.94 58.34 55.73 55.74 55.61 56.82 55.89 54.60 54.47 52.53 52.41 50.60 49.51 53.24 53.05 50.84 47.27 46.01 49.55 50.51 53.09 53.27 53.08 53.43 54.33 54.35 54.44
54.42 55.20 55.92 56.02 54.65 55.38 57.45 57.45 56.40 57.94 58.77 59.13 58.02 57.52 58.94 59.40 58.72 59.03 58.39 57.81 57.01 57.16 56.54 55.52 53.88 52.61 53.66 52.26 51.86 50.23 50.36 51.68 51.29 49.19 46.71 48.95 49.62 51.36 52.80 53.50 54.14 54.31 54.19
54.52 54.55 55.13 56.30 56.22 55.70 56.28 57.69 57.52 57.36 57.66 58.16 57.44 55.86 57.26 58.28 58.13 58.28 58.25 57.82 56.74 56.33 55.40 55.06 54.28 53.67 53.60 52.91 52.43 52.20 51.31 50.62 50.31 50.63 49.59 49.67 49.35 50.39 51.13 51.42 51.28 52.53 53.38

GFSSE_sfc_wetblb_108.txt.gz
Wetbulb
67.30 68.71 71.31 72.23 72.43 71.54 72.00 72.18 72.19 72.68 73.30 73.29 73.22 73.28 73.33 73.41 73.23 72.94 72.76 72.87 73.05 73.45 73.59 73.77 73.49 73.55 73.00 72.60 72.45 71.97 71.68 71.44 71.03 71.34 71.91 71.56 71.29 71.00 70.74 70.67 70.15 68.85 70.57
67.83 69.32 70.78 71.53 72.15 72.05 72.11 72.04 72.31 72.73 73.55 73.70 73.27 73.22 73.05 72.88 72.69 72.68 72.85 72.84 73.32 73.70 73.22 73.32 73.32 73.17 72.88 71.95 71.68 71.19 70.98 70.37 70.24 70.36 70.98 71.27 70.71 70.51 70.45 70.17 69.88 69.16 70.32
68.17 69.77 70.26 70.72 71.94 72.01 72.18 72.26 72.67 73.19 73.69 73.55 73.34 73.02 72.85 72.89 72.72 72.86 72.77 72.49 72.85 72.98 72.64 72.65 73.15 72.38 71.75 71.31 70.46 69.98 70.50 70.14 69.71 69.65 69.97 68.26 68.34 69.94 69.74 69.90 69.88 69.99 69.64
68.98 69.71 69.79 70.87 71.50 71.92 71.89 71.92 72.35 73.25 73.37 73.32 72.60 72.78 72.81 72.73 72.76 72.69 72.42 71.99 72.23 72.30 72.14 72.17 72.11 71.76 71.03 70.75 70.35 70.06 69.77 69.48 68.96 68.63 67.48 67.47 67.87 69.55 69.16 69.01 69.27 69.23 69.16
69.03 69.34 69.47 70.46 70.75 71.62 71.67 71.91 72.02 72.54 72.40 72.30 72.27 72.38 72.73 72.70 72.51 72.40 71.55 71.08 71.34 71.99 71.79 71.66 71.39 70.89 70.17 69.38 69.02 68.78 68.47 67.78 67.66 66.69 65.20 66.01 67.05 68.48 68.85 68.38 68.15 67.96 68.13
68.33 69.28 68.74 69.30 70.31 71.19 71.66 71.83 72.02 72.14 71.49 71.27 70.80 71.38 71.78 72.23 71.71 70.70 70.42 70.29 70.63 71.10 70.83 70.98 70.87 69.56 68.78 68.00 67.72 67.50 67.02 66.71 66.28 65.26 65.53 66.54 66.14 68.11 67.66 66.95 67.31 67.29 66.98
66.82 68.35 68.49 68.62 69.81 71.28 71.92 71.77 71.70 71.34 71.10 71.06 70.01 69.58 69.45 69.89 69.66 69.77 69.69 69.21 69.72 70.12 70.18 70.07 69.47 68.89 67.89 66.99 67.10 66.61 65.75 65.31 63.40 62.55 63.46 64.32 65.78 67.80 67.27 66.35 65.72 66.13 65.75
66.01 67.09 68.06 69.16 69.56 70.55 71.15 70.86 70.47 70.57 70.34 69.35 68.88 68.61 68.35 68.56 68.34 68.14 67.78 69.10 68.65 69.12 68.56 68.90 68.49 67.93 66.99 66.59 65.88 65.09 64.52 64.48 62.75 62.63 62.95 63.90 66.61 66.76 66.47 65.13 64.59 64.82 63.83
66.15 65.94 66.37 67.88 69.12 69.48 69.21 69.37 68.85 68.42 68.48 68.17 67.81 67.51 67.30 66.88 66.98 67.37 67.56 68.04 68.26 68.34 67.81 67.77 67.17 66.70 66.19 65.71 64.87 63.86 63.04 63.09 61.27 62.71 63.11 63.60 66.37 65.77 65.20 64.27 63.06 63.26 62.67
65.08 65.33 64.97 66.23 67.27 68.26 69.24 68.08 68.06 67.54 67.12 67.07 66.91 66.22 65.27 65.55 65.90 66.43 66.68 67.21 67.58 67.39 67.48 67.19 66.08 65.39 65.37 64.56 63.61 62.58 62.32 62.30 59.54 60.82 61.57 63.76 65.72 64.86 64.26 63.92 63.35 62.56 62.09
62.93 63.77 63.95 64.76 65.34 66.77 67.81 67.59 68.42 65.92 66.94 66.31 66.25 66.14 64.60 64.85 65.31 65.71 65.66 66.58 66.76 67.14 66.64 66.46 65.10 64.22 63.99 63.59 62.91 62.30 60.95 58.34 58.36 59.04 60.76 64.26 64.43 64.71 63.57 62.84 62.39 62.14 61.85
60.93 61.82 62.88 63.59 63.97 63.47 65.10 64.37 66.07 66.80 66.18 65.85 64.80 64.44 64.39 64.42 64.12 64.05 64.25 65.70 66.47 66.62 66.13 65.62 63.96 63.28 62.60 60.82 61.00 60.30 58.04 57.55 57.67 57.81 59.94 63.38 63.67 63.37 63.01 62.18 62.09 61.69 61.82
60.40 61.03 62.36 62.98 62.76 62.34 64.42 65.10 65.14 66.02 65.87 65.75 64.02 63.74 63.66 64.50 64.38 64.02 63.91 64.85 65.16 65.64 64.21 62.84 61.11 59.27 59.39 59.54 56.78 56.96 57.18 57.31 57.45 57.58 60.49 62.89 64.02 63.12 62.81 62.51 61.90 61.55 61.33
59.73 60.94 61.66 61.45 62.71 64.35 63.44 63.47 64.63 64.32 65.23 64.97 64.29 63.71 62.73 63.69 62.98 61.90 62.35 63.51 63.78 63.15 61.95 60.11 57.29 56.15 57.34 56.27 56.71 56.85 56.72 56.93 56.59 57.22 59.88 61.87 62.45 63.05 62.93 62.23 61.76 61.78 61.29
58.99 60.04 60.39 60.24 63.20 63.30 62.94 62.72 62.91 63.47 63.43 64.03 63.69 63.09 62.66 62.60 62.21 61.37 62.46 63.73 62.76 61.82 60.87 57.69 55.11 55.58 55.38 55.91 56.70 56.48 55.92 56.19 56.81 57.58 57.65 60.97 61.56 61.85 62.58 62.28 61.85 61.47 60.83
60.11 60.17 60.11 59.98 61.91 62.98 62.96 62.10 61.76 62.56 62.10 62.14 62.60 62.11 62.22 61.81 61.41 61.57 62.44 63.00 60.85 60.79 60.03 58.01 55.35 54.83 55.12 56.10 56.04 56.10 56.22 56.62 56.88 56.93 57.51 59.28 60.59 61.96 62.84 62.32 62.02 61.13 60.88
59.94 59.74 59.55 59.69 60.07 61.73 62.04 62.15 61.61 61.69 61.71 61.03 61.49 61.61 61.55 61.51 61.66 61.81 62.38 62.09 61.03 60.10 58.05 55.68 53.25 54.44 54.58 55.77 55.35 55.20 56.05 56.08 56.10 56.31 56.87 57.49 59.21 60.09 61.21 62.11 61.71 61.07 60.80
58.94 59.05 59.37 60.45 59.21 59.15 59.99 62.03 61.79 61.59 61.67 61.84 61.32 61.50 61.33 61.67 61.48 61.93 62.06 61.48 60.81 58.76 56.78 55.56 53.33 53.03 53.93 54.82 54.20 54.29 54.96 55.68 55.60 55.80 56.21 56.63 57.04 58.06 59.85 60.89 61.51 61.39 60.57
59.43 59.05 58.79 58.84 58.36 57.56 57.66 61.82 61.95 61.91 61.17 61.35 61.85 61.22 60.83 61.09 61.77 62.19 61.48 60.84 58.38 57.78 56.35 55.80 52.70 53.34 53.18 53.33 53.81 53.11 53.98 54.48 54.98 56.04 55.56 55.80 56.05 56.74 57.27 60.02 60.10 60.13 60.76
58.71 58.95 58.85 58.40 57.14 56.88 57.88 60.19 61.50 61.44 61.03 61.09 61.07 61.16 61.40 60.44 62.03 62.07 61.40 58.65 58.01 56.63 54.72 54.56 51.89 51.96 53.54 53.65 54.40 52.55 52.61 53.42 54.30 54.44 54.96 55.96 55.46 55.91 56.54 57.11 58.31 58.15 59.28
57.46 57.92 57.62 57.40 56.03 58.40 58.78 58.70 59.47 59.57 60.15 60.69 61.23 61.44 60.86 60.65 61.20 61.58 59.39 56.68 56.77 55.49 53.71 53.22 52.08 52.18 50.63 53.20 51.79 50.71 51.12 52.47 52.75 53.45 54.55 54.71 55.06 55.65 55.79 56.08 55.87 56.07 56.97
57.81 56.96 56.66 57.24 56.74 58.61 58.68 58.63 58.83 58.66 59.93 60.30 61.14 61.21 60.54 60.85 60.76 59.21 56.68 55.86 55.04 54.28 52.58 52.51 52.57 50.36 50.01 53.34 50.92 49.81 48.37 50.22 52.37 53.65 53.66 54.51 54.41 55.57 55.51 55.34 55.28 55.46 55.71
56.70 56.28 56.52 56.26 57.38 57.47 56.26 58.05 56.94 58.58 59.19 59.07 59.41 60.33 60.69 59.73 58.81 56.97 56.26 54.43 53.45 53.87 52.10 52.45 52.70 51.76 51.43 50.41 53.80 49.78 46.14 46.99 49.01 50.49 52.29 53.21 53.94 53.66 54.67 55.04 55.37 55.44 55.65
56.19 55.92 54.95 56.29 56.62 55.99 56.14 56.17 55.23 56.34 57.06 58.44 58.84 60.53 60.03 58.64 57.39 55.48 54.77 52.86 53.25 54.02 52.72 52.80 53.36 51.47 53.25 50.06 50.42 52.49 51.19 49.16 47.40 46.35 49.37 51.78 53.20 53.44 53.92 54.41 55.12 55.11 55.36
55.50 54.95 56.10 56.91 55.82 54.65 54.93 56.73 56.19 55.98 57.83 58.90 57.40 58.95 57.48 57.14 56.90 55.02 54.26 53.21 54.20 54.70 53.98 53.32 52.49 52.21 53.61 51.53 51.69 50.34 51.62 51.59 51.27 48.44 46.33 48.77 49.98 53.12 54.49 54.18 54.81 54.64 55.02
54.74 55.56 56.07 55.40 55.54 54.03 54.88 57.07 55.92 55.40 57.86 57.62 56.78 56.65 56.66 56.76 56.93 55.12 55.68 55.04 56.13 56.05 54.83 54.11 53.92 53.50 53.75 53.54 52.39 51.98 52.06 51.61 51.52 51.13 49.45 49.67 49.49 51.41 52.08 53.32 54.12 54.66 54.99

GFSSE_sfc_wetblb_111.txt.gz
Wetbulb
70.29 71.54 71.47 72.08 71.41 72.28 72.36 72.47 72.77 73.16 73.12 73.39 73.38 73.57 73.50 73.61 73.50 73.63 73.49 73.19 73.39 73.82 73.74 73.64 73.69 73.57 73.40 72.87 72.90 72.59 71.96 71.61 71.27 71.48 71.91 72.11 71.76 71.79 71.11 71.20 70.88 70.60 71.18
71.02 72.01 70.98 71.70 71.37 71.40 72.32 72.58 72.90 73.16 73.35 73.58 73.57 73.40 73.29 73.40 73.30 73.17 73.10 72.99 73.25 73.67 72.71 73.37 73.77 73.67 73.22 72.82 72.08 71.76 71.26 70.86 70.73 70.69 71.08 71.07 71.00 71.07 70.65 70.76 70.41 70.92 70.95
70.91 71.72 71.61 71.06 71.01 71.71 72.45 72.59 73.26 73.78 73.83 73.70 73.65 73.34 73.29 73.20 72.91 73.09 73.12 73.11 73.10 73.42 73.09 73.09 73.62 72.88 72.35 71.93 71.19 71.02 70.83 70.41 70.13 70.13 70.68 70.36 69.63 70.24 70.30 70.44 70.27 70.45 70.78
70.85 71.58 71.66 70.30 71.14 71.98 72.11 72.60 73.00 73.86 73.74 73.52 73.41 73.17 72.83 73.01 73.03 73.09 72.75 72.38 72.60 72.95 72.89 72.59 72.65 71.91 71.64 70.88 70.54 70.55 70.22 70.01 69.29 69.39 69.20 69.20 69.30 69.85 69.92 69.66 70.39 70.44 70.12
70.53 71.18 71.52 70.10 70.73 71.58 71.96 72.21 72.71 73.16 72.94 72.48 72.33 73.07 72.74 72.54 72.75 72.68 72.10 71.72 71.96 72.63 72.77 72.09 71.88 71.29 70.45 69.66 69.55 69.37 69.13 68.65 68.34 68.85 69.72 69.54 69.63 69.32 69.57 69.42 69.41 69.51 69.06
70.63 71.04 70.05 69.47 70.41 71.40 71.77 72.04 72.25 72.19 71.98 71.76 72.07 72.38 71.83 72.03 71.76 71.17 71.14 71.41 70.75 71.96 72.13 71.89 71.11 70.53 69.17 68.50 68.21 68.20 67.82 67.72 67.78 69.05 69.31 69.02 68.69 68.75 68.48 68.10 68.32 68.52 68.38
70.62 71.19 71.41 68.79 70.20 71.11 71.58 72.06 71.72 71.48 71.17 70.45 70.53 70.94 70.29 69.97 69.40 69.26 69.46 69.56 69.91 70.80 70.64 70.24 70.28 69.07 68.19 67.96 67.54 67.05 66.58 66.59 68.98 69.03 68.42 68.29 68.46 68.02 67.40 66.73 67.22 67.00 66.98
70.57 71.26 71.40 69.85 70.03 70.55 70.64 70.03 70.45 70.37 69.14 69.11 70.09 70.19 69.24 68.39 69.33 69.51 69.54 69.35 69.55 69.54 68.93 68.88 68.71 68.15 67.56 67.23 66.34 65.61 65.43 65.96 67.90 68.28 68.25 68.03 67.90 67.41 66.83 65.72 65.69 65.61 65.58
70.68 70.87 71.37 71.65 70.90 69.54 69.15 68.72 69.01 69.21 69.05 68.70 68.46 68.06 68.10 68.33 68.32 68.88 68.62 68.66 68.95 68.74 68.78 68.46 67.26 67.21 67.07 66.19 65.41 64.28 64.04 65.43 67.78 67.56 67.01 67.18 67.40 66.64 65.87 64.86 64.34 63.91 63.57
69.72 70.47 70.84 71.22 71.45 71.96 72.01 68.25 67.94 68.00 67.58 67.48 67.35 66.43 66.47 66.46 66.96 67.48 67.23 67.84 68.38 68.39 68.02 67.62 66.53 66.08 65.34 64.97 64.04 63.58 63.40 64.50 67.35 66.79 66.49 66.21 66.68 65.79 64.78 63.69 63.70 63.14 63.13
68.09 69.14 69.89 70.41 70.82 70.49 70.36 71.15 68.66 67.58 67.13 66.75 67.14 65.81 65.15 67.46 67.19 65.79 66.22 66.96 67.54 67.42 67.36 66.44 65.99 65.08 64.39 63.69 63.47 63.09 63.46 65.99 66.05 65.88 66.07 65.25 65.88 65.27 64.34 63.74 62.48 63.00 62.85
66.70 67.44 69.02 69.90 69.44 68.43 68.25 69.46 70.99 69.57 68.69 68.22 68.40 67.37 67.65 67.24 67.12 66.53 66.32 66.17 66.95 67.00 66.54 65.81 65.24 64.22 64.74 65.87 64.42 62.13 64.84 64.70 64.89 64.36 64.58 64.54 65.26 64.40 64.15 62.96 62.79 62.41 62.02
66.22 67.42 67.95 68.83 70.02 68.38 67.38 67.64 68.27 67.69 67.76 67.55 67.43 67.65 66.94 66.63 66.71 66.89 65.48 66.79 67.23 67.02 66.60 65.61 64.62 64.02 65.31 64.89 63.79 63.76 63.61 63.85 63.68 63.88 63.57 63.40 64.70 64.11 63.47 62.71 62.28 62.01 61.87
64.39 66.18 67.42 68.19 68.28 68.08 67.33 66.66 66.36 66.35 66.65 65.68 65.52 66.08 66.76 66.01 65.97 65.62 64.24 65.09 65.43 67.22 66.04 64.96 62.23 63.03 64.15 63.96 63.35 62.80 62.89 62.71 62.89 62.73 62.89 62.45 63.31 63.81 63.79 63.43 62.35 62.47 61.73
63.62 64.98 66.43 67.23 67.58 66.66 65.72 65.43 65.67 65.14 66.38 65.84 64.27 64.65 65.21 66.15 65.34 65.45 64.89 64.86 65.28 65.05 64.79 62.22 62.30 61.72 62.98 62.60 62.66 62.37 62.08 62.00 62.17 62.11 62.18 61.40 62.31 63.54 63.00 62.79 62.75 62.25 61.78
63.68 64.48 65.89 66.24 66.31 65.21 64.97 64.27 64.71 65.25 65.67 66.84 64.54 63.72 63.88 64.39 64.33 64.45 64.38 64.97 63.83 64.95 63.42 62.04 62.01 60.73 61.96 62.38 61.90 62.15 61.72 61.57 61.83 62.10 62.49 62.21 60.90 62.40 63.08 62.85 62.32 61.94 61.59
63.54 64.55 64.58 65.27 65.79 64.77 64.70 64.05 63.74 64.11 64.09 64.19 64.68 64.02 63.79 63.65 63.70 63.98 64.55 63.34 63.97 64.38 62.68 61.34 61.38 61.43 61.22 61.48 61.27 61.15 61.16 61.33 61.55 61.66 61.89 62.29 61.20 60.53 61.56 62.70 62.47 61.52 61.34
62.92 63.50 64.33 64.29 64.46 63.62 63.86 64.37 63.42 63.17 63.07 62.55 62.84 62.76 63.11 63.42 63.64 63.32 63.42 63.19 64.06 62.87 62.06 60.52 60.56 60.38 60.08 59.86 60.49 60.07 60.49 60.68 61.47 61.72 61.85 62.15 62.45 61.97 60.75 61.05 61.74 61.99 61.27
62.34 63.09 63.37 64.35 64.35 62.59 63.23 63.65 62.91 63.41 62.89 62.60 62.44 61.97 62.18 62.66 63.02 62.58 64.08 63.01 63.44 62.18 61.83 59.24 59.85 60.23 58.92 59.26 59.68 59.77 60.12 60.44 60.89 60.92 61.30 61.80 62.28 62.06 62.08 60.51 60.38 60.53 61.31
62.20 63.08 63.63 63.98 64.19 62.74 62.88 63.07 63.00 63.51 62.70 63.58 62.93 62.26 61.84 61.81 61.91 62.11 62.79 62.66 61.36 59.75 59.51 59.58 58.71 59.93 59.72 59.55 57.80 58.31 59.56 60.03 60.61 60.56 60.93 60.97 61.44 61.90 61.90 61.95 61.66 60.73 59.54
61.68 61.97 62.69 62.81 62.72 61.57 61.23 60.46 60.25 59.62 61.42 61.76 62.09 62.12 62.01 61.48 61.75 61.84 61.89 60.15 59.79 58.80 58.64 59.88 58.56 58.13 57.60 59.66 57.36 57.12 57.90 58.82 59.49 59.86 60.61 60.55 60.40 60.96 61.29 61.40 61.50 61.29 60.70
59.96 61.29 61.18 62.03 61.16 61.50 61.11 60.73 62.52 61.95 61.56 62.13 62.54 62.61 62.89 61.59 61.40 61.67 60.95 59.27 58.36 57.20 57.13 57.92 58.75 57.50 57.32 58.76 56.96 56.44 53.32 55.50 57.46 58.60 59.59 59.41 59.91 60.21 60.12 60.51 60.75 60.73 60.67
59.18 58.74 59.43 60.47 60.44 61.37 62.03 61.20 59.95 61.24 61.00 60.76 61.42 61.95 61.74 61.35 61.08 61.05 60.68 59.81 58.47 56.83 55.26 56.04 58.90 58.24 55.71 57.91 59.22 57.21 52.93 52.68 54.65 57.29 58.07 58.67 59.15 59.07 59.46 59.58 59.86 60.03 60.35
58.59 58.48 59.10 60.05 60.06 59.77 60.02 59.51 58.42 58.84 58.43 60.23 60.76 61.86 60.81 60.85 60.77 59.49 58.56 59.12 58.34 56.94 55.18 55.88 58.80 59.34 58.30 56.09 58.04 57.07 58.96 57.42 54.52 52.74 56.32 57.88 58.68 58.43 59.22 59.40 59.49 59.81 59.96
59.24 57.36 58.66 60.57 59.74 57.89 59.00 58.98 58.08 59.14 60.20 60.32 60.36 60.31 60.56 60.13 58.92 57.79 57.25 56.83 56.87 56.57 56.44 55.37 57.27 58.89 59.10 57.67 57.45 56.48 56.41 56.89 56.89 55.22 52.85 54.85 56.83 58.45 58.98 59.32 59.66 59.49 59.23
59.22 56.57 59.10 59.86 57.50 57.40 59.70 59.32 59.13 58.30 58.43 58.86 58.93 58.88 58.64 57.92 56.46 56.42 55.08 55.03 55.69 55.79 55.91 56.52 57.03 59.10 58.68 58.47 58.75 57.92 56.53 56.01 55.71 56.62 55.79 54.85 54.92 56.28 57.92 59.10 58.89 58.96 59.30

GFSSE_sfc_wetblb_114.txt.gz
Wetbulb
70.29 72.80 71.65 72.26 72.79 72.66 72.64 72.88 73.13 73.59 73.64 73.53 73.58 73.77 73.80 73.88 73.93 74.15 74.23 74.32 74.21 74.42 74.00 73.33 73.35 73.43 72.93 72.76 72.98 73.01 72.58 72.01 71.69 72.06 72.26 72.11 71.84 71.89 71.55 71.54 71.29 71.33 71.68
70.65 73.11 71.16 71.85 72.21 72.23 72.59 72.79 73.11 73.44 73.69 73.84 73.68 73.62 73.39 73.75 73.58 73.74 73.70 73.74 73.97 74.27 73.49 73.05 73.28 73.08 72.83 72.92 72.42 71.98 71.61 71.21 71.10 71.20 71.58 71.57 71.45 71.15 70.96 71.15 70.88 71.40 71.43
71.32 73.22 72.58 71.46 71.29 71.95 72.48 72.84 73.36 73.81 73.88 73.88 73.87 73.64 73.47 73.53 73.49 73.33 73.24 73.17 73.45 74.07 73.42 72.87 72.86 72.61 72.53 71.87 71.50 71.33 71.11 70.68 70.38 70.82 71.13 71.41 71.56 70.83 70.92 70.79 70.62 71.05 71.31
71.38 73.00 73.45 70.89 71.06 71.59 72.50 72.97 73.60 74.02 73.90 73.62 73.62 73.67 72.90 73.36 73.15 72.72 72.89 72.61 72.95 73.45 73.55 72.97 72.73 72.41 71.96 71.35 71.06 70.77 70.58 70.13 69.97 70.10 71.10 69.81 69.98 70.39 70.36 70.33 70.69 70.72 70.77
71.02 72.33 73.17 70.41 70.76 71.75 72.43 72.78 73.17 73.56 73.33 73.26 73.09 72.92 72.38 72.07 71.64 70.97 70.85 72.14 72.65 73.33 73.43 72.26 72.11 71.81 71.00 70.35 69.95 69.90 69.71 69.50 69.37 70.10 69.53 69.13 70.13 70.17 70.24 69.92 69.54 69.91 69.90
71.00 71.99 70.19 69.29 70.37 71.55 72.34 72.74 72.92 72.96 72.67 72.51 71.25 72.48 72.53 72.17 71.20 70.51 70.34 71.69 72.28 72.53 72.11 71.91 71.89 70.81 69.66 69.25 68.98 68.84 68.52 68.40 68.16 68.74 69.04 69.93 69.18 69.58 69.56 68.94 69.17 69.04 68.85
71.27 72.32 73.02 68.99 70.27 71.33 72.15 72.38 72.29 72.13 71.67 71.68 71.38 70.82 70.93 68.55 67.46 67.99 68.57 69.18 70.69 71.19 71.68 71.33 70.52 69.66 68.08 68.33 68.11 67.81 67.63 67.63 70.16 68.91 69.80 69.02 69.06 68.78 68.39 68.01 67.84 68.12 68.24
72.55 73.02 73.46 70.34 70.14 70.46 71.22 71.29 71.11 70.86 70.85 70.57 70.61 70.38 69.86 67.30 67.84 67.80 69.42 69.57 70.47 70.39 70.45 70.17 69.41 68.76 67.79 67.47 67.22 66.66 66.50 66.75 68.27 68.38 68.63 68.74 68.27 67.76 67.12 66.36 66.79 66.93 66.59
73.50 73.30 73.35 73.45 71.99 69.47 68.97 69.00 69.18 69.69 69.55 69.41 69.33 69.25 68.77 68.16 68.03 69.18 68.62 69.76 69.83 69.38 69.67 69.19 68.30 67.39 67.20 66.58 66.22 65.51 65.33 66.53 68.22 67.79 68.05 67.99 67.66 67.08 66.35 65.42 64.80 64.84 65.43
72.83 73.01 73.12 73.51 73.55 72.80 72.36 68.02 68.12 68.44 68.26 68.19 68.32 67.73 66.47 66.45 67.74 68.29 68.28 68.87 69.12 69.12 69.10 68.39 67.32 66.60 66.02 65.49 64.89 64.63 64.78 65.87 68.39 67.88 67.27 67.13 67.08 66.28 65.75 64.82 64.27 64.08 63.70
71.23 72.26 72.91 72.97 73.22 72.81 72.57 71.39 68.65 68.51 67.61 67.12 67.76 66.71 66.22 70.30 70.33 69.70 67.85 67.85 68.42 68.31 68.32 67.27 66.65 65.66 64.22 64.00 63.84 64.25 64.53 68.39 67.81 67.63 66.79 65.84 66.92 65.80 64.67 64.30 63.65 63.67 63.32
69.83 71.23 72.22 72.73 72.83 71.61 70.31 71.89 72.05 72.65 72.25 71.64 71.03 70.15 70.30 70.50 69.68 68.27 66.46 67.06 67.54 67.33 67.12 66.31 65.51 64.41 65.34 67.47 66.79 64.62 68.18 67.47 67.79 67.40 65.54 65.39 66.06 65.17 64.53 63.32 63.55 63.01 62.63
69.77 70.69 71.42 72.20 72.71 70.40 70.37 70.39 72.05 72.41 72.12 71.59 71.43 70.46 70.19 69.37 68.55 67.00 67.55 68.31 69.77 66.99 68.20 66.87 66.50 67.80 68.02 67.57 67.10 67.29 66.50 66.88 66.21 65.99 64.52 64.43 65.74 64.89 63.97 63.42 63.18 62.84 62.02
67.95 70.16 71.19 71.84 72.28 70.43 69.99 69.65 71.17 70.05 70.74 69.57 69.84 70.00 68.93 68.84 68.39 67.42 67.57 67.56 68.19 67.05 67.88 68.02 67.95 68.00 67.61 67.06 67.06 66.48 65.84 65.76 65.42 64.81 64.49 63.23 64.30 64.49 63.72 63.17 63.18 62.65 62.35
66.79 68.73 70.44 71.44 71.73 70.27 68.82 69.09 69.48 69.32 68.71 68.39 68.36 68.57 68.29 68.87 68.21 67.41 67.21 66.53 67.51 68.13 65.31 66.38 67.09 66.70 66.01 65.97 66.35 65.45 65.13 65.18 64.63 64.21 64.41 61.71 62.75 63.83 63.34 63.44 63.37 62.51 62.18
66.05 68.01 69.79 70.61 71.18 70.21 68.69 68.83 68.10 69.20 68.86 67.66 67.34 68.71 68.68 69.45 66.98 68.07 67.27 66.13 66.52 66.45 65.76 64.84 63.33 64.97 64.67 65.35 65.29 65.08 64.91 64.64 63.72 63.57 63.86 62.49 61.42 62.80 63.37 63.31 63.29 62.81 62.20
65.12 67.36 68.56 70.02 70.77 69.82 69.51 68.98 68.12 68.66 69.12 66.89 66.60 67.76 67.54 67.14 66.46 67.20 67.25 67.59 65.78 66.90 66.31 63.83 62.67 64.37 63.89 64.80 64.42 64.86 64.81 63.91 63.13 63.02 63.20 63.04 61.97 60.74 61.90 63.16 63.10 62.27 62.03
62.29 65.16 67.90 68.53 69.69 68.63 68.44 68.64 67.88 67.69 67.87 67.34 66.69 66.31 66.37 66.09 65.84 65.63 65.88 66.83 66.85 64.44 64.27 62.21 61.86 63.66 63.69 64.06 63.19 64.03 64.03 63.38 63.12 62.60 62.86 62.74 62.68 62.50 61.17 61.90 62.17 62.69 61.76
61.80 63.72 66.63 68.50 68.98 68.36 68.80 67.49 66.67 66.87 66.32 66.00 65.49 66.18 66.73 65.97 65.39 65.07 63.98 66.72 65.88 63.87 64.68 62.31 61.53 64.06 62.89 63.28 62.76 63.35 63.51 62.76 62.75 61.79 62.13 62.87 63.35 63.17 62.97 60.86 60.74 60.95 61.61
63.15 64.66 66.65 67.60 68.42 67.40 66.67 65.68 65.96 66.01 65.39 64.87 65.11 64.43 65.25 64.58 64.65 64.18 63.29 63.57 64.21 62.89 63.65 62.52 62.36 63.56 63.22 63.03 61.42 61.64 62.52 62.25 62.65 61.65 62.01 62.12 62.92 63.20 63.42 63.04 62.35 61.40 59.90
64.35 64.36 65.76 66.47 67.68 64.46 63.94 63.37 64.03 64.00 63.63 64.55 65.69 63.72 63.11 63.61 63.15 63.37 62.51 62.80 62.81 61.95 63.74 62.97 63.65 62.71 62.04 62.92 60.78 60.15 60.53 61.19 61.48 61.30 61.97 61.75 61.95 62.39 62.83 62.90 62.72 62.66 61.43
64.16 64.65 65.15 66.10 67.00 63.63 64.04 65.34 64.80 62.78 62.93 62.99 64.00 63.88 63.88 62.56 62.29 62.50 62.12 62.02 61.47 61.97 61.52 60.86 62.65 62.20 61.69 63.17 59.66 59.26 55.31 57.31 60.13 61.13 61.18 61.00 61.61 61.70 61.65 62.04 62.30 62.55 62.63
63.57 64.48 64.86 65.85 66.81 65.59 66.84 64.53 65.53 65.02 63.53 63.75 63.63 63.70 63.16 62.77 62.30 61.95 61.86 60.99 60.65 60.65 59.58 59.57 62.07 62.35 60.19 61.96 62.64 59.42 55.19 54.34 57.46 60.11 60.17 60.28 60.70 60.76 61.18 61.48 61.78 61.92 61.98
63.11 64.63 64.50 65.62 65.39 65.53 66.86 64.89 64.44 62.76 61.32 62.68 63.61 64.09 63.19 64.67 64.06 62.06 61.79 60.42 59.80 59.96 59.40 58.48 59.68 60.45 62.04 59.69 61.36 61.06 60.93 59.94 55.81 54.80 59.29 59.70 60.20 59.88 60.81 60.92 60.80 61.25 62.25
63.08 63.32 61.89 63.44 63.80 64.91 66.19 65.61 63.90 62.43 62.91 62.71 63.93 63.93 64.27 63.61 62.58 62.37 61.32 60.44 59.58 58.89 58.38 57.87 58.87 59.27 60.54 61.87 60.82 59.63 60.43 59.91 60.47 57.19 54.37 56.62 59.62 60.52 61.41 61.67 61.81 62.10 62.34
63.42 60.79 60.45 62.18 61.69 62.11 63.44 64.33 63.42 62.21 61.24 61.52 62.11 62.56 62.43 62.27 61.45 60.53 59.70 59.91 59.28 58.25 57.38 57.96 58.33 59.16 62.26 62.35 61.75 60.71 59.31 58.31 58.09 57.51 55.86 56.69 56.97 59.01 60.98 61.46 62.01 62.43 62.74

GFSSE_sfc_wetblb_117.txt.gz
Wetbulb
68.41 72.99 72.02 72.81 72.86 72.75 72.95 73.18 73.38 73.82 73.79 73.80 73.69 73.80 74.04 74.12 74.14 74.39 74.60 74.47 74.27 74.45 74.47 73.78 73.60 73.28 72.85 72.71 72.85 73.29 72.72 72.22 72.11 72.55 72.91 72.81 72.03 71.83 71.89 71.65 71.52 71.11 71.87
69.17 72.88 71.18 72.42 72.85 72.62 72.64 72.84 73.26 73.60 73.95 73.85 73.71 73.57 73.73 73.94 73.94 74.30 74.43 74.35 74.32 74.57 73.75 73.38 73.28 73.08 72.96 72.82 72.41 72.23 71.98 71.33 71.29 71.56 71.90 72.29 72.07 71.35 71.78 71.77 71.28 70.97 71.22
69.90 73.30 72.81 71.72 72.42 72.44 72.69 72.88 73.30 73.83 74.19 74.01 73.82 73.67 73.29 73.17 73.27 74.10 73.77 73.91 73.60 73.70 73.35 72.96 72.98 73.13 72.73 72.25 71.74 71.62 71.47 71.18 71.04 71.27 71.30 70.42 71.28 71.27 71.20 70.78 70.93 71.17 71.01
70.26 73.35 73.69 71.15 71.43 72.43 72.70 72.91 73.48 73.97 74.22 73.82 73.62 73.68 73.17 73.19 72.81 72.50 72.64 72.44 72.78 73.45 73.70 73.00 72.83 72.64 72.00 71.73 71.15 71.01 70.86 70.68 70.59 70.77 70.07 70.06 70.29 70.83 70.81 71.01 71.02 71.05 71.01
70.14 72.32 73.75 70.87 70.91 72.22 72.68 72.94 73.60 73.75 73.43 73.38 73.32 73.23 72.30 72.28 71.43 69.78 69.45 70.39 72.04 73.77 73.63 72.83 72.44 72.08 71.46 70.44 70.30 70.10 70.14 69.96 69.15 69.02 69.09 69.65 69.52 70.19 70.51 70.40 70.30 70.22 70.10
69.99 71.38 70.46 69.91 70.90 71.87 72.60 72.79 73.21 73.11 72.66 72.69 72.81 72.67 72.04 70.74 69.43 68.16 68.06 69.10 70.41 71.87 72.71 72.46 72.45 71.33 70.08 69.49 69.48 69.35 69.14 69.13 68.69 68.98 68.85 69.61 69.24 69.85 69.85 69.48 69.75 69.54 69.03
70.06 73.11 73.11 69.44 70.66 71.72 72.46 72.77 72.60 72.34 72.26 72.30 72.23 72.13 71.00 69.10 68.37 68.49 69.01 68.72 68.30 69.67 72.13 72.06 71.16 70.16 69.41 68.84 68.76 68.45 68.30 68.33 69.43 68.39 69.43 69.82 69.55 69.57 69.55 69.08 69.05 69.05 68.69
71.70 73.45 73.28 70.35 70.49 71.15 71.62 71.64 71.56 71.48 71.49 71.64 71.42 70.85 68.78 66.96 67.01 67.41 68.87 68.95 68.12 69.41 70.53 70.59 69.76 69.21 68.58 68.44 68.14 67.47 67.13 65.83 68.38 67.78 68.19 68.69 68.77 68.77 68.58 68.09 67.84 67.67 67.28
73.33 73.64 73.58 72.85 71.75 70.04 69.93 69.90 69.78 69.93 70.32 70.50 70.38 69.71 68.05 67.04 67.31 67.18 67.72 68.88 68.45 69.59 70.23 69.59 68.72 68.09 67.98 67.29 67.14 66.40 66.06 66.29 68.97 67.84 68.17 67.50 68.00 67.52 66.94 66.55 66.02 65.84 66.16
73.18 73.17 73.35 73.36 73.09 73.02 72.79 68.63 68.88 68.97 68.88 68.72 68.98 68.22 66.57 66.41 67.33 67.25 68.40 68.79 69.36 69.68 69.64 68.85 67.69 67.47 66.97 66.39 65.99 65.66 65.49 65.42 68.05 68.27 68.26 67.43 67.47 66.72 66.28 65.54 65.11 64.73 64.72
72.20 72.75 73.07 73.14 73.46 73.55 73.13 71.52 69.11 68.86 68.19 67.85 68.68 66.89 65.93 69.24 67.76 68.89 68.35 68.32 69.02 68.94 68.45 67.47 66.97 66.24 65.28 65.24 65.26 65.17 65.51 68.68 67.92 68.15 67.67 66.45 67.35 66.40 65.64 64.92 64.37 64.03 64.24
70.29 71.88 72.45 73.04 73.16 73.33 71.50 72.59 71.89 72.02 71.88 71.50 71.99 71.11 71.25 70.77 70.04 69.47 68.09 67.57 68.24 67.40 67.13 66.75 66.01 64.80 65.60 68.07 66.85 64.76 67.90 67.80 67.20 67.46 66.36 66.12 66.94 65.66 65.13 64.27 63.84 63.51 63.67
69.96 71.21 72.03 72.73 73.34 73.19 71.74 72.08 71.53 71.64 71.82 72.00 71.53 71.61 71.71 70.25 71.67 69.79 69.76 68.79 69.78 67.85 68.36 67.20 64.96 68.21 68.08 67.85 67.63 68.18 67.55 67.80 66.34 65.73 65.34 65.06 66.26 65.51 64.25 63.82 63.61 62.94 62.89
67.72 70.88 72.07 72.40 72.63 73.02 72.15 71.60 71.90 71.42 71.74 71.37 71.53 72.05 70.51 69.70 69.85 69.29 67.42 66.68 68.15 69.64 68.32 66.08 67.72 68.69 67.76 67.75 67.62 67.23 65.86 66.76 65.05 66.07 64.49 63.97 65.04 65.21 64.13 64.11 63.61 62.83 62.85
64.54 68.79 71.58 72.20 72.70 72.21 71.85 71.18 71.55 71.64 71.57 71.93 71.35 71.87 70.68 69.80 68.59 68.46 68.16 68.10 68.15 69.11 68.80 66.17 67.73 68.04 67.60 67.19 66.74 65.57 65.55 65.01 64.69 65.72 64.55 62.75 63.38 64.60 64.06 64.13 63.30 62.61 62.72
64.07 67.68 70.73 71.72 72.48 72.95 69.95 70.68 71.15 71.22 70.89 70.90 70.68 71.01 70.57 69.69 69.90 68.42 68.84 67.81 66.62 68.66 67.44 65.11 65.28 66.39 66.65 65.96 65.57 65.46 64.79 64.68 64.14 64.35 63.81 62.46 62.16 63.38 63.90 64.19 63.54 62.75 62.21
63.77 66.37 69.12 71.24 72.67 72.53 70.29 69.95 70.40 70.47 70.47 70.10 69.53 71.10 70.35 69.93 69.58 68.94 68.23 67.50 67.43 68.45 65.53 63.99 63.49 63.94 66.38 65.25 63.87 64.51 64.49 64.50 63.17 63.16 63.16 62.61 61.77 61.40 62.55 63.60 63.67 62.93 62.30
62.20 64.91 67.50 69.01 71.73 72.76 71.42 71.14 70.18 69.54 69.56 69.55 68.61 69.81 70.18 69.24 68.95 69.12 68.16 68.18 68.25 67.62 64.88 63.28 63.72 63.03 62.04 63.21 63.79 63.00 62.83 63.50 62.89 62.91 62.83 62.56 62.28 62.34 61.69 62.42 63.23 63.20 62.59
62.16 62.69 65.33 69.64 70.36 72.27 71.64 70.73 70.53 69.87 69.34 69.05 68.75 68.21 68.93 68.58 68.27 68.05 67.78 67.95 67.73 66.88 66.01 63.60 62.68 61.54 60.69 61.41 62.72 62.67 63.43 62.60 62.42 61.67 62.72 62.09 62.35 62.35 61.98 61.38 61.36 61.64 62.06
62.72 63.24 64.60 68.09 70.33 72.14 71.03 70.33 69.79 68.89 67.22 67.93 67.51 67.70 68.22 68.41 67.73 67.32 67.70 67.58 67.43 66.11 64.61 62.00 61.61 61.48 61.07 61.73 61.32 61.30 61.46 62.09 62.61 61.37 61.77 62.14 62.48 63.43 62.57 61.98 61.37 60.82 60.64
63.42 64.28 64.97 66.26 69.17 70.23 68.76 67.70 65.89 65.26 65.06 65.90 66.31 66.62 67.35 67.39 66.72 67.15 66.32 66.24 64.40 63.12 62.63 62.77 61.92 60.75 59.89 63.57 60.71 60.14 60.58 61.99 62.70 60.83 61.35 61.42 61.96 62.52 63.19 62.75 61.49 61.58 60.77
61.64 64.64 65.05 66.34 68.15 69.11 66.97 65.95 67.04 67.56 66.60 67.14 66.46 66.19 66.03 65.67 66.11 65.59 65.57 64.20 63.23 62.79 62.36 60.98 61.39 59.38 59.51 63.02 59.87 58.58 55.17 57.09 59.81 60.38 61.01 61.23 62.88 61.44 61.75 62.60 62.24 62.18 62.55
62.44 64.74 65.17 66.36 67.39 68.30 65.25 66.35 67.47 66.98 65.50 64.09 63.59 64.61 65.45 65.08 64.31 63.66 63.53 63.60 62.83 61.89 61.09 60.81 61.24 59.24 57.79 60.60 62.28 59.06 55.30 53.86 56.88 59.77 60.19 60.47 61.97 61.05 61.53 61.53 61.83 62.12 62.60
62.40 65.14 65.79 66.36 66.87 67.55 65.90 66.47 66.80 64.70 62.61 64.22 64.61 64.94 64.75 65.66 64.40 63.13 62.61 62.29 62.17 61.92 61.35 60.57 61.72 61.42 60.23 59.03 61.18 61.55 61.94 60.35 55.61 54.51 58.88 59.69 60.57 60.09 61.93 61.41 61.47 61.66 61.99
62.29 64.76 66.18 66.59 66.86 66.94 66.78 67.20 66.56 66.25 65.23 65.09 64.70 64.82 64.41 64.73 64.88 63.52 62.31 61.63 60.78 61.13 61.13 60.28 60.21 60.78 60.60 61.03 60.83 60.22 60.61 60.83 60.60 57.38 54.58 56.63 58.58 59.75 60.50 60.75 61.44 61.55 61.55
65.10 65.60 65.51 65.50 66.28 66.53 66.26 67.26 66.52 66.13 65.17 64.08 63.78 63.51 63.54 64.30 65.12 63.65 63.23 61.62 60.48 60.50 60.21 59.74 60.12 60.34 60.42 60.89 62.10 61.88 60.77 59.02 58.54 59.10 57.08 57.41 56.86 58.67 59.88 61.30 61.78 61.97 62.98

GFSSE_sfc_wetblb_120.txt.gz
Wetbulb
68.28 71.21 72.35 73.20 73.33 73.34 73.38 73.46 73.82 73.58 73.57 73.87 73.87 73.70 73.84 74.22 74.45 74.68 74.74 74.49 74.45 74.71 74.72 73.74 73.89 73.99 73.35 73.35 73.04 72.67 72.65 72.45 72.27 72.72 72.90 73.00 72.26 72.04 72.38 71.96 71.29 70.40 71.93
70.42 71.60 71.75 72.79 73.14 72.96 73.18 73.33 73.53 73.83 73.87 73.97 73.69 73.70 73.83 73.99 74.16 74.45 74.49 74.29 74.55 74.49 74.27 73.57 73.30 72.55 72.79 72.95 72.64 72.14 71.96 71.63 71.52 71.66 72.15 72.55 72.48 72.17 72.28 71.55 71.00 70.85 71.60
70.87 71.37 71.67 72.22 72.70 72.83 73.05 72.93 73.27 73.91 74.22 74.03 73.79 73.65 73.70 73.59 73.34 73.18 73.94 73.96 73.66 74.07 73.89 73.37 72.95 73.12 72.83 72.29 71.77 71.68 71.50 71.06 70.68 70.79 71.14 69.37 69.98 71.81 71.38 71.04 71.18 71.29 71.53
71.86 71.64 71.44 71.46 72.09 72.56 72.97 73.08 73.55 73.93 74.22 73.95 73.75 73.60 73.29 72.86 71.51 71.62 71.56 71.19 71.74 73.19 73.47 73.34 73.39 72.82 72.28 71.54 71.36 71.19 70.96 70.80 70.52 70.35 69.38 69.02 69.50 71.16 71.18 71.13 71.29 71.41 71.31
71.33 72.12 71.60 70.70 71.29 72.21 72.65 73.01 73.70 73.88 73.68 73.35 73.15 73.60 72.70 70.42 68.74 69.15 68.27 68.77 69.23 70.41 73.25 73.07 73.05 72.16 71.44 70.47 70.23 70.37 70.13 70.03 69.85 69.33 67.87 68.44 68.31 70.43 70.94 70.54 70.81 70.73 70.04
70.02 73.63 69.37 69.95 70.85 72.10 72.72 73.02 73.44 73.26 72.10 72.63 72.81 72.68 71.76 68.67 67.91 68.31 66.52 68.45 67.86 66.56 70.78 72.38 72.23 71.36 70.07 69.57 69.42 69.03 69.20 69.09 68.16 67.57 67.86 68.93 67.87 70.41 70.26 70.26 69.68 69.71 69.45
71.63 72.33 70.82 69.37 70.74 71.90 72.60 73.03 72.73 72.52 71.77 71.93 72.32 71.85 70.43 68.93 67.95 67.76 67.97 67.85 64.79 64.01 68.62 70.77 71.13 70.14 69.40 68.99 69.04 68.18 68.11 68.28 67.34 67.25 67.36 67.67 68.01 70.09 70.34 69.40 69.55 69.29 68.97
73.02 73.12 71.17 70.16 70.58 71.28 71.68 71.74 71.41 71.62 71.31 71.79 71.61 70.38 70.14 69.16 68.56 67.63 68.00 67.42 65.86 64.83 67.77 69.79 69.87 69.42 68.79 68.53 68.34 66.97 66.23 66.22 67.52 67.40 66.98 67.20 68.73 69.25 69.45 68.84 68.64 68.01 67.76
73.85 72.98 71.42 70.87 70.98 70.35 70.04 70.04 69.99 70.38 70.47 71.08 70.61 69.00 67.85 68.40 67.97 68.66 68.97 67.63 66.25 67.78 69.24 69.61 68.47 68.44 68.37 68.00 67.38 66.18 65.27 66.50 66.49 67.01 66.98 66.51 68.46 68.61 68.68 67.64 67.10 67.01 66.91
72.52 72.95 71.48 71.66 71.40 71.46 70.78 68.90 68.95 69.10 69.24 69.27 69.25 67.61 66.62 66.00 66.59 67.72 68.32 68.67 68.44 68.70 69.60 68.50 67.87 67.88 67.55 66.83 66.41 65.52 65.30 66.42 65.89 66.39 66.38 65.82 67.86 67.75 67.39 66.68 66.08 65.70 65.82
71.69 72.31 72.08 71.65 71.74 72.24 71.84 70.33 68.92 69.35 68.56 68.27 68.70 67.30 65.60 66.57 66.87 66.65 66.75 67.36 68.36 68.28 68.67 67.73 67.12 66.32 65.33 65.39 65.10 64.70 65.18 65.67 65.48 65.90 65.40 66.50 67.56 66.93 66.47 65.79 65.40 65.03 65.03
70.20 71.16 71.82 72.12 71.97 72.35 71.35 70.70 70.47 70.55 70.45 70.48 70.24 67.55 68.20 68.50 66.89 67.19 67.65 67.50 67.69 67.69 67.40 66.83 66.38 65.39 65.52 65.27 64.94 64.46 65.42 65.86 65.80 65.36 65.01 66.36 67.18 66.30 65.73 65.17 64.59 64.82 64.55
69.98 70.90 71.40 72.00 72.57 72.27 70.70 71.15 70.26 70.63 70.26 70.13 70.55 69.85 69.70 69.10 68.84 67.86 67.86 67.68 66.77 67.26 66.70 65.99 65.15 65.34 66.06 65.90 65.21 64.61 65.20 65.06 65.20 64.86 64.86 65.57 66.50 66.47 65.34 64.50 64.03 64.16 63.83
68.15 70.30 71.14 71.82 72.35 72.35 70.94 70.65 70.58 69.36 70.19 70.09 69.77 70.31 69.53 68.56 67.98 67.52 67.28 66.75 66.55 66.63 65.94 65.79 64.72 64.96 65.05 65.25 65.41 65.11 64.49 64.60 64.20 63.92 63.96 64.41 65.29 65.36 64.89 64.41 63.53 63.17 63.46
66.30 69.27 70.50 71.49 71.81 72.16 70.88 70.33 70.60 69.50 69.97 70.11 70.19 70.20 69.43 68.34 67.47 67.42 66.29 65.88 65.67 67.00 66.03 65.43 64.65 64.50 64.27 64.86 65.38 64.87 64.19 63.91 64.07 63.02 62.80 63.14 63.92 64.61 64.43 64.43 63.60 63.31 63.05
63.02 68.79 70.49 70.58 71.82 72.22 70.77 70.38 69.77 71.15 70.10 70.73 70.45 70.15 69.58 68.11 67.75 66.63 65.66 65.94 66.23 66.66 66.59 65.42 64.30 64.37 64.02 64.47 64.10 63.80 63.37 62.26 63.53 62.14 62.24 61.57 62.55 63.63 64.28 64.19 63.27 62.77 62.63
62.37 66.02 70.11 70.37 71.51 71.89 70.33 70.31 70.15 70.51 70.16 69.59 69.48 70.28 69.35 68.48 67.70 66.30 65.69 65.56 65.79 66.32 65.81 64.09 63.46 63.12 63.97 64.15 63.20 63.59 62.17 61.93 60.98 61.72 60.95 60.98 60.70 61.52 62.55 63.70 63.79 63.28 61.99
60.51 63.69 68.54 70.66 70.67 71.37 70.32 69.42 69.26 69.35 69.45 69.19 68.16 69.28 69.20 68.44 67.78 66.73 65.69 65.10 65.52 65.81 64.76 63.20 62.62 61.95 61.91 62.02 61.25 60.74 60.92 60.86 60.18 60.66 60.33 60.22 60.09 60.92 61.50 62.44 63.03 62.94 62.78
60.58 62.45 65.65 68.25 69.64 70.56 70.22 69.51 69.10 68.84 69.04 68.69 68.49 68.04 69.01 68.39 67.56 66.45 65.85 65.28 65.56 65.14 63.47 62.46 62.29 62.04 60.90 60.80 61.06 60.50 60.72 59.69 58.50 60.41 59.53 59.68 59.46 59.68 59.75 61.47 61.70 61.44 62.04
60.88 62.21 65.34 67.42 69.10 70.33 70.78 69.75 69.33 68.60 68.16 68.70 68.23 67.50 67.93 67.80 67.29 66.40 65.77 65.23 65.12 64.33 63.06 62.18 61.43 61.66 61.00 60.66 61.53 60.32 60.68 59.37 58.70 57.45 59.59 59.95 59.31 59.41 59.79 59.58 59.00 58.85 60.35
61.75 63.89 63.75 66.45 68.24 69.36 69.04 67.89 67.39 66.56 66.45 66.47 66.65 66.75 66.20 66.79 66.50 65.90 65.23 64.81 64.75 63.87 62.90 62.11 61.55 60.22 59.36 59.93 59.13 58.51 58.54 58.78 59.61 56.80 59.79 59.03 58.61 59.63 59.45 59.23 58.46 58.19 59.03
61.37 62.86 63.80 63.73 67.74 68.59 69.07 68.49 67.78 66.97 65.13 64.94 65.58 65.55 65.55 66.15 65.91 65.28 64.86 64.08 64.08 63.60 62.58 61.88 61.09 59.83 59.07 59.87 58.13 56.64 53.46 55.64 57.77 58.04 56.88 57.99 58.20 59.49 59.76 59.37 58.86 58.43 58.36
61.41 63.37 63.27 63.65 65.28 67.69 68.64 67.34 65.95 65.08 65.20 64.49 64.86 64.60 64.73 64.98 65.35 64.85 64.55 63.97 63.42 62.91 61.72 61.49 61.07 59.88 57.47 58.75 59.61 56.02 52.55 51.05 53.92 57.13 55.67 56.01 57.62 56.35 59.70 59.81 58.91 58.91 59.03
60.57 63.41 64.04 63.97 64.45 66.68 67.39 65.40 64.72 63.54 63.02 63.71 63.50 63.64 63.90 64.35 63.95 63.86 63.62 63.80 62.93 62.90 61.67 61.42 61.43 60.08 58.80 56.95 58.92 59.63 57.79 56.00 51.89 50.52 54.00 55.48 57.26 57.09 56.92 56.89 57.79 58.49 59.61
60.08 62.96 63.60 64.22 64.64 66.75 65.88 64.97 64.50 64.21 64.25 63.81 63.74 62.46 62.93 63.73 63.58 63.02 63.24 63.06 62.55 62.43 61.85 61.28 61.06 60.01 59.41 57.63 57.55 57.60 57.20 57.29 56.01 53.35 50.47 52.69 55.17 56.11 57.13 57.56 57.20 57.43 58.77
64.57 64.27 65.05 64.57 64.42 65.86 65.24 65.43 64.59 64.65 63.62 63.08 62.99 62.77 62.48 62.90 63.20 62.78 62.18 61.72 62.09 61.67 61.45 61.16 61.14 60.53 59.39 58.91 58.90 58.48 57.21 55.81 54.94 54.52 52.70 52.71 52.70 54.73 55.88 56.40 57.30 57.14 57.86

GFSSE_sfc_wetblb_123.txt.gz
Wetbulb
68.18 71.24 72.13 72.97 73.00 72.87 73.06 73.39 72.96 72.86 73.26 73.76 73.82 73.84 73.93 74.13 74.43 74.24 74.21 74.49 74.41 74.67 74.70 74.11 73.96 73.66 73.15 73.26 73.14 73.17 72.08 71.72 71.54 72.39 72.84 73.41 73.33 72.81 72.36 72.08 71.58 70.89 72.16
69.26 71.17 71.59 72.44 72.68 72.78 72.81 72.93 73.39 72.97 73.71 73.89 73.75 73.67 73.65 73.89 74.10 74.19 74.16 74.49 74.44 74.78 74.11 73.48 73.86 73.83 73.28 72.99 72.36 72.58 72.19 71.48 70.71 71.12 72.44 73.19 72.96 72.71 71.84 71.47 71.15 71.02 71.83
69.24 70.98 71.69 71.63 72.24 72.70 72.93 73.01 73.28 73.94 74.02 73.74 73.72 73.40 73.71 73.04 72.95 72.30 72.81 72.10 72.75 72.69 73.61 73.13 73.11 72.94 72.71 72.43 72.02 71.99 71.54 70.94 70.61 70.77 71.08 69.76 70.53 72.02 71.73 71.40 71.21 71.48 71.46
68.96 70.34 70.97 71.21 71.89 72.40 72.43 72.69 73.07 74.00 73.96 73.70 73.59 73.56 73.10 72.22 71.93 70.77 70.18 69.46 69.71 69.60 72.05 73.14 73.11 72.68 72.24 71.51 71.20 70.95 70.79 70.59 70.26 69.92 68.55 68.97 69.86 71.79 71.29 70.97 71.18 71.34 71.27
68.74 69.83 70.84 70.54 71.16 71.96 72.34 72.59 73.19 73.41 73.16 73.14 73.07 73.26 72.10 71.43 70.72 70.11 69.58 69.03 68.69 67.64 69.33 71.90 72.91 72.09 71.26 70.50 70.23 70.07 70.25 69.95 69.32 68.70 67.27 67.58 69.00 70.81 71.23 70.69 70.80 70.86 70.27
68.98 69.98 69.10 69.40 70.70 71.68 72.26 72.95 73.17 72.84 71.96 72.30 72.44 72.54 70.94 71.00 70.73 70.07 68.97 68.51 66.95 67.73 67.99 70.76 71.53 71.21 70.06 69.52 69.45 69.52 69.06 68.22 67.62 66.64 67.65 69.11 68.39 70.67 70.39 70.33 70.12 69.85 69.62
69.12 68.77 69.04 68.95 70.41 71.50 72.56 72.81 72.60 71.31 71.12 71.75 71.99 71.14 70.49 70.64 70.50 68.87 68.91 67.77 66.58 67.36 68.13 69.18 71.14 70.26 69.50 68.93 69.00 68.33 67.20 66.76 66.57 66.29 66.78 67.29 68.17 70.33 70.47 69.85 69.86 69.31 69.06
68.83 68.77 69.04 69.92 70.32 70.78 71.55 71.44 71.28 70.84 70.40 71.11 71.05 69.89 69.71 69.66 68.75 68.19 68.63 68.22 67.77 68.05 67.55 68.79 69.20 68.95 68.74 68.62 67.96 66.83 66.09 66.31 66.86 66.42 66.65 66.78 69.13 69.80 69.52 69.08 68.53 68.40 68.33
69.77 68.29 68.19 68.80 70.03 70.00 69.65 69.76 69.67 69.75 69.64 70.56 69.76 69.10 69.06 68.57 67.61 67.77 68.17 67.19 67.67 68.09 68.25 68.00 68.57 67.32 67.67 66.96 66.58 65.65 65.16 66.56 66.13 66.37 66.61 66.52 68.94 69.25 68.76 68.26 67.91 67.37 67.31
69.17 68.18 67.68 67.84 68.42 67.83 67.92 68.67 68.73 68.93 68.98 69.45 68.62 67.97 67.25 67.12 67.33 67.48 68.12 67.16 66.81 67.09 67.83 69.49 67.99 67.18 66.98 65.63 65.35 64.71 65.20 66.11 65.36 65.73 65.56 66.41 68.44 68.66 68.23 67.75 67.30 66.42 65.89
69.06 67.85 68.01 68.04 68.44 68.08 67.61 68.69 68.64 68.89 68.85 68.60 68.04 66.89 65.89 65.53 65.33 67.25 67.56 67.36 67.84 67.70 68.02 68.55 67.68 66.89 65.34 64.94 64.82 64.19 65.36 65.38 65.22 64.19 64.94 66.87 68.13 67.86 67.42 66.72 66.36 65.83 65.43
67.34 67.98 68.10 68.10 68.20 68.76 69.81 67.68 67.36 68.49 67.45 67.86 67.61 65.85 64.56 64.36 64.97 66.11 65.96 67.01 67.62 67.53 67.75 67.57 66.82 65.99 65.66 65.37 64.36 64.39 64.72 65.09 64.91 64.01 64.77 66.25 67.24 67.11 66.41 66.05 65.50 65.57 65.37
67.52 68.66 68.24 68.83 68.77 68.89 68.45 67.27 67.83 68.08 67.99 67.92 67.11 65.79 65.22 66.10 64.97 64.07 65.18 65.78 65.85 66.94 66.40 66.02 65.60 64.99 65.09 65.05 64.35 63.83 63.96 64.56 64.29 64.38 65.14 65.44 66.81 66.89 66.00 65.58 65.44 65.29 64.71
67.53 67.93 68.67 69.07 69.35 69.04 67.75 67.66 67.72 68.04 67.52 67.43 67.63 66.69 66.76 66.38 63.81 64.82 65.69 64.88 65.38 65.19 64.87 64.78 64.49 63.68 64.67 65.04 64.67 64.49 63.94 64.05 63.07 63.57 64.23 64.54 65.98 66.61 65.88 65.09 64.86 64.79 64.28
66.84 68.04 68.41 69.27 69.54 69.43 67.78 67.93 67.61 67.01 67.80 67.74 67.63 67.99 67.98 66.40 65.27 65.30 65.20 64.28 64.88 64.77 63.99 63.24 63.20 62.92 63.32 64.54 64.71 64.60 62.59 63.54 62.78 63.30 63.46 63.15 64.05 65.39 65.37 64.52 63.70 64.11 63.94
65.59 67.69 68.48 68.77 69.83 69.49 67.89 67.44 67.23 67.01 66.85 67.78 67.67 68.18 67.44 66.36 65.71 65.27 64.35 64.41 64.38 64.94 64.16 63.42 62.88 62.71 62.97 63.87 64.10 63.83 62.87 62.96 62.35 62.17 62.25 62.50 62.36 63.74 64.36 63.90 63.61 63.66 63.44
60.72 67.47 67.78 68.51 69.52 69.25 68.38 67.53 67.41 67.64 67.22 67.21 68.05 67.94 66.98 66.34 65.93 65.02 64.23 64.24 64.84 65.03 64.44 63.33 62.71 63.35 63.15 63.67 63.09 63.19 61.85 62.29 61.75 61.60 61.16 61.10 61.36 61.63 62.50 63.44 63.46 63.79 62.90
55.04 66.67 67.97 69.17 69.03 69.30 68.75 68.02 67.47 67.41 66.71 66.71 67.43 68.04 66.89 66.09 65.80 64.71 63.84 64.01 65.12 64.73 64.26 62.56 62.45 62.10 62.12 62.25 61.62 61.44 59.60 61.61 61.28 60.69 60.35 60.26 60.16 60.76 61.12 62.06 62.77 63.17 62.82
54.24 63.33 67.18 67.89 68.54 69.01 68.46 68.05 66.71 66.25 65.95 66.24 65.70 66.51 67.03 66.29 65.69 64.64 63.79 63.30 64.36 63.98 62.93 62.02 60.17 61.48 60.96 61.11 61.32 60.81 59.28 60.15 59.90 60.24 59.40 58.89 58.68 59.14 59.36 61.22 61.34 61.08 61.71
53.55 57.61 67.17 67.64 68.05 69.06 68.36 67.18 66.56 65.68 65.12 66.56 65.88 65.76 65.77 66.74 65.76 64.80 63.74 63.25 64.14 63.51 61.34 60.86 60.21 59.68 60.43 60.91 62.03 61.53 58.95 58.76 59.39 58.31 58.44 59.19 58.58 58.64 58.92 59.56 59.42 58.50 60.02
52.12 55.71 65.32 66.56 67.30 68.36 67.10 66.03 65.75 65.16 65.25 64.43 66.25 66.26 65.06 66.29 65.46 64.52 63.95 63.19 63.73 63.25 62.02 60.69 60.01 59.72 59.37 60.67 59.13 58.15 58.39 57.18 56.83 57.81 57.86 57.59 57.97 58.06 58.52 58.77 57.96 57.36 58.89
55.03 57.21 61.41 65.30 66.89 67.93 68.17 67.41 66.42 65.81 65.13 64.82 66.62 66.37 66.40 66.22 65.53 64.29 63.58 62.95 63.33 63.01 61.29 60.40 59.97 59.36 57.62 60.34 58.03 57.14 54.03 55.45 57.06 56.95 57.91 58.13 56.91 57.95 58.17 58.41 57.59 57.11 57.54
54.45 56.54 60.41 63.89 66.72 67.42 67.56 66.67 63.94 63.20 62.66 62.39 63.98 64.18 64.58 65.02 64.91 63.65 63.15 62.86 62.63 63.11 61.87 60.61 60.16 59.36 57.61 58.72 59.61 56.66 52.71 51.70 53.92 55.95 55.35 57.43 55.71 56.12 57.62 57.61 57.28 57.36 57.29
54.72 57.58 59.08 61.37 65.48 66.65 66.95 66.12 64.43 63.56 61.78 61.93 63.15 64.10 63.97 64.40 64.57 64.05 63.00 62.91 62.09 62.77 62.53 61.64 61.07 59.94 59.32 57.41 58.83 59.82 57.21 55.32 52.58 51.54 53.78 53.82 57.43 57.05 57.28 57.87 57.13 57.15 57.51
53.68 58.18 59.44 59.64 62.92 65.18 65.91 65.58 63.94 63.11 63.08 63.06 63.66 63.30 63.28 63.33 63.33 63.21 63.12 63.05 62.70 62.87 62.41 61.62 60.82 60.11 59.73 58.31 58.10 58.26 57.25 55.66 55.58 53.53 50.42 51.69 54.27 56.52 57.78 58.06 57.17 56.72 57.80
55.52 57.21 57.76 58.73 60.57 64.67 64.31 64.31 64.06 63.02 61.68 62.10 62.00 61.48 61.57 62.36 62.39 62.21 62.41 62.58 62.72 62.26 61.81 61.58 61.51 60.45 59.64 58.67 58.67 59.06 57.12 55.19 53.54 53.42 51.53 52.32 52.67 52.67 54.55 55.66 55.52 55.41 56.78

GFSSE_sfc_wetblb_126.txt.gz
Wetbulb
68.50 70.98 71.98 72.85 73.24 72.88 72.59 72.34 72.32 72.73 73.26 73.44 73.55 73.78 74.09 74.33 74.14 74.10 74.09 74.19 74.48 74.75 74.37 73.83 73.95 73.98 74.00 73.50 73.23 72.04 72.13 71.89 71.30 71.78 72.50 72.96 73.06 72.69 72.45 72.42 72.01 71.20 72.36
69.23 71.11 71.29 72.34 72.60 72.79 72.93 72.56 72.57 73.08 73.44 73.53 73.61 73.50 73.73 73.86 73.78 73.72 74.02 73.53 73.94 74.08 73.42 73.65 73.36 73.68 73.48 73.20 72.23 71.76 71.71 71.44 71.26 71.50 72.26 72.68 72.76 72.39 71.93 71.69 71.44 70.89 71.58
69.63 71.11 71.25 71.53 72.31 72.40 72.85 73.25 73.18 73.55 73.63 73.39 73.56 73.53 73.26 73.52 73.65 73.37 72.55 72.29 72.28 73.15 72.82 72.81 73.01 72.78 72.73 72.04 71.28 71.53 71.29 71.11 71.21 71.34 71.85 70.19 70.15 71.33 71.67 71.46 71.18 71.44 71.31
69.92 70.72 70.58 71.06 71.74 72.21 72.36 72.63 73.31 73.94 73.76 73.51 73.49 73.32 73.05 72.89 72.68 71.70 70.98 70.59 70.06 70.89 72.74 72.36 72.54 72.51 71.86 70.99 70.81 70.92 70.69 70.44 70.04 70.07 69.20 69.60 70.05 71.15 71.51 71.13 71.05 70.94 71.26
68.85 70.16 70.63 70.59 71.04 71.75 72.06 72.35 72.91 73.44 73.28 72.91 72.82 73.14 72.34 72.07 71.80 71.21 70.17 69.88 69.81 70.79 70.98 72.06 72.41 72.00 71.02 70.37 70.15 70.20 70.05 69.62 69.02 68.42 67.42 68.63 68.65 70.42 71.07 70.63 70.29 70.80 70.16
67.87 69.70 69.40 69.75 70.62 71.44 72.00 72.50 72.83 72.77 72.18 72.20 72.30 71.96 72.04 71.92 71.69 70.67 69.59 68.94 69.74 70.38 70.60 70.83 72.14 71.29 69.80 69.41 69.36 69.54 68.90 68.59 67.69 66.97 67.93 69.17 68.39 70.90 70.96 70.33 70.05 69.98 69.47
67.48 68.54 68.94 69.08 70.48 71.49 72.34 72.51 72.22 71.96 71.57 71.68 71.53 71.09 71.28 71.53 70.72 69.53 68.39 68.83 69.27 68.99 69.16 69.26 70.80 69.74 69.18 68.64 68.90 67.97 67.18 67.40 66.41 66.27 66.39 66.64 68.24 70.38 70.35 69.91 69.81 69.34 68.88
66.71 67.94 68.58 69.79 70.35 70.94 71.82 71.62 70.59 70.06 70.46 70.84 70.80 70.31 70.80 70.02 69.39 69.18 68.18 68.29 68.79 68.26 69.24 69.14 69.29 69.18 68.66 68.46 67.80 66.70 66.36 67.12 66.98 66.34 66.45 66.77 69.30 69.78 69.65 69.14 68.97 68.64 68.39
66.86 67.17 67.91 68.95 69.93 69.92 69.72 69.58 68.98 69.04 69.19 70.02 69.53 69.22 69.22 68.71 68.06 68.70 68.35 67.49 68.16 68.08 68.67 68.01 68.87 67.82 67.46 66.88 66.01 65.44 65.70 65.92 65.94 66.15 66.83 66.64 69.14 69.55 69.34 68.77 68.22 67.76 67.39
66.74 66.79 66.95 67.91 68.66 68.75 69.33 68.48 68.23 68.01 68.18 68.81 68.59 67.93 67.35 66.84 67.14 67.68 67.11 67.52 67.80 67.96 68.33 68.26 68.11 67.49 67.26 66.17 65.07 64.64 64.59 65.49 65.22 65.13 65.72 66.80 68.90 69.47 69.08 68.24 67.57 67.01 66.79
66.26 65.94 66.52 67.26 67.44 67.28 67.82 69.11 68.36 68.39 68.30 68.09 68.09 67.13 65.51 65.72 65.52 66.75 66.36 66.46 67.32 67.53 67.37 68.54 67.26 66.79 65.89 65.45 64.96 64.89 65.02 64.74 64.64 64.45 65.57 67.20 68.51 69.28 68.56 67.52 66.64 66.27 66.04
65.22 65.15 65.96 66.58 66.85 66.92 68.45 68.27 67.58 68.81 68.91 68.70 66.86 66.03 64.69 63.71 64.52 65.94 66.68 66.14 66.52 66.45 67.39 67.96 67.24 65.96 65.61 65.45 64.19 64.61 64.42 64.34 63.85 63.56 65.30 66.59 68.20 68.68 68.01 66.85 65.79 65.87 65.55
66.49 66.34 66.10 66.68 66.99 67.04 67.44 67.87 68.14 68.02 68.43 68.48 66.32 64.51 62.81 63.51 63.86 64.89 64.97 65.80 64.58 66.41 65.94 65.99 65.97 64.61 64.26 64.66 64.35 63.56 64.18 64.06 63.35 63.93 65.23 65.94 67.53 67.58 67.09 66.27 65.68 65.75 65.20
66.56 67.02 66.68 67.08 67.35 67.73 67.40 66.71 67.57 67.66 67.60 67.49 66.88 64.43 63.43 63.38 62.25 62.62 63.65 63.51 63.96 65.41 65.61 65.13 64.49 63.12 63.79 64.48 64.21 63.94 64.52 63.96 63.05 63.71 64.48 64.53 66.26 67.20 67.02 66.17 66.02 65.78 64.97
65.96 67.04 67.15 67.56 67.66 68.16 67.49 66.43 66.83 66.94 67.22 67.44 66.21 65.65 64.63 64.24 63.02 63.16 63.92 63.85 64.55 64.85 64.62 63.76 63.23 62.74 63.15 63.91 63.86 64.05 63.99 63.75 62.86 63.78 63.57 63.53 64.55 66.41 66.39 66.54 66.00 65.60 64.86
66.35 66.58 67.67 67.65 68.19 68.41 67.67 66.97 66.57 66.90 66.72 66.78 67.13 66.64 66.32 65.70 64.24 63.80 63.94 63.97 63.89 64.03 63.46 62.92 61.85 61.71 61.82 63.31 63.21 63.65 63.92 63.39 62.90 62.89 62.68 63.17 62.93 64.41 65.51 65.87 65.39 64.94 64.63
66.35 67.07 66.96 67.66 68.40 68.38 67.41 67.62 67.02 67.17 67.08 66.68 67.19 66.95 67.04 66.10 64.69 63.98 63.76 63.40 63.89 63.90 62.62 61.03 60.42 61.02 61.65 63.04 62.87 63.33 63.46 62.99 62.43 62.17 62.04 62.17 61.96 61.83 62.97 64.07 62.92 63.94 63.80
63.80 66.00 67.32 68.67 68.44 68.23 67.64 67.84 67.49 66.89 66.75 67.06 66.75 67.53 66.75 66.12 65.55 64.12 63.50 63.13 63.71 63.56 62.90 61.78 60.78 60.40 61.11 62.03 61.49 61.29 61.94 62.14 61.91 61.46 61.08 61.11 60.07 61.11 61.05 62.03 63.06 63.62 63.32
55.01 64.02 66.59 67.59 67.88 68.23 67.90 67.57 67.28 67.30 66.23 66.66 67.38 67.06 66.50 65.95 65.54 64.73 63.65 63.51 63.59 63.32 62.84 61.79 59.58 60.54 59.93 61.12 61.32 60.48 59.77 60.88 61.06 61.09 59.94 60.05 58.86 58.96 59.03 60.61 60.68 61.46 62.13
51.08 63.04 66.35 67.17 67.78 68.30 68.04 67.22 66.35 66.41 66.01 66.43 66.61 66.75 66.32 65.75 65.08 64.35 63.13 63.10 63.71 62.73 62.02 60.90 60.14 58.73 59.69 60.33 61.60 60.46 59.51 59.38 60.25 59.95 59.53 59.81 58.43 58.64 58.56 58.74 58.88 58.85 60.14
51.78 56.86 64.69 65.92 67.12 67.86 66.88 65.53 64.99 64.85 64.95 65.71 65.80 65.96 66.23 65.72 64.85 63.95 62.95 62.41 62.99 62.49 61.37 60.62 58.99 59.09 57.39 59.98 59.23 58.56 58.50 58.16 58.31 58.77 59.11 58.78 58.01 58.51 58.06 58.28 57.33 56.44 58.49
52.53 50.90 62.51 65.56 66.58 67.72 67.44 66.89 66.32 65.85 64.98 65.65 65.74 65.20 65.80 65.74 65.32 65.04 64.23 62.90 62.59 62.08 60.56 60.52 59.41 57.11 57.69 60.44 57.16 57.54 54.76 55.63 56.02 57.68 58.03 57.59 57.30 58.01 58.44 58.54 57.75 56.40 56.51
52.99 50.45 58.37 64.77 66.41 67.94 67.64 66.54 64.03 63.02 62.15 63.28 64.98 64.98 65.41 66.30 65.85 65.44 64.45 63.26 63.15 63.10 61.88 60.74 59.60 58.85 57.04 58.97 58.74 57.05 53.18 52.08 53.66 55.90 56.56 56.72 56.40 56.47 57.44 57.87 57.57 56.83 56.46
52.18 53.74 57.84 64.56 66.19 67.65 67.38 65.88 64.63 64.19 63.10 64.11 64.88 65.19 64.74 65.39 65.27 65.02 64.11 63.55 63.34 63.35 61.93 60.97 60.27 59.74 59.21 57.54 57.15 58.75 56.72 55.46 52.22 50.60 54.91 56.22 56.40 55.88 56.30 56.68 56.54 56.43 56.48
52.93 56.05 60.91 64.37 66.26 67.05 67.09 66.16 64.84 64.04 64.15 63.17 63.68 62.73 64.13 64.21 64.58 64.19 63.85 63.15 62.43 63.15 62.83 61.75 60.71 60.13 59.73 58.41 57.87 58.12 56.53 55.82 56.47 53.03 51.07 52.80 55.25 56.54 56.81 56.51 56.17 56.04 56.13
52.87 54.69 57.37 63.26 65.13 66.00 66.61 66.01 65.04 63.60 62.38 61.89 62.30 62.20 62.78 63.07 63.27 63.39 63.37 63.26 62.87 62.80 62.60 61.95 61.26 60.60 60.02 59.63 59.32 58.78 57.63 55.55 53.99 53.37 51.51 52.73 53.00 54.65 56.98 56.89 56.51 55.90 56.25

GFSSE_sfc_wetblb_129.txt.gz
Wetbulb
67.27 70.46 72.29 72.95 72.99 72.45 72.26 72.38 72.31 72.43 72.88 73.36 73.75 73.95 73.91 73.83 74.05 74.05 74.16 74.09 74.11 74.22 73.70 73.60 74.03 74.10 73.15 73.63 73.43 72.70 72.22 72.29 71.93 71.65 72.71 72.81 72.61 72.24 72.63 72.44 72.11 71.12 72.43
68.82 70.90 71.51 72.58 72.51 72.46 72.40 72.56 72.60 72.70 73.18 73.53 73.66 73.65 73.62 73.65 73.84 73.80 73.58 73.61 73.77 74.18 73.10 72.88 72.76 74.25 73.61 73.11 72.18 71.88 71.95 71.17 70.82 70.91 71.11 72.04 72.84 72.42 72.28 71.85 71.56 70.96 71.56
69.25 70.55 71.19 71.54 72.52 72.58 72.69 72.88 73.07 73.29 73.27 73.22 73.52 73.56 73.64 73.61 73.77 73.44 73.40 73.31 73.62 73.88 73.42 73.08 73.26 72.78 72.44 72.42 71.68 71.09 71.51 71.17 70.78 71.02 71.05 69.91 69.92 71.62 71.87 71.54 71.28 71.23 71.12
69.72 70.31 70.35 71.02 71.71 72.50 72.52 72.62 73.19 73.51 73.21 73.24 73.22 73.35 73.40 73.49 73.08 72.75 71.90 71.69 72.89 73.70 73.45 72.81 72.84 73.01 72.21 71.36 71.15 71.10 71.24 70.93 70.62 70.54 69.17 68.73 69.39 71.28 71.43 70.99 70.88 70.95 70.54
69.16 69.90 70.01 70.42 70.87 71.79 72.12 72.52 72.91 73.07 72.56 72.69 72.65 72.94 73.11 72.99 72.54 71.50 70.85 71.10 72.08 73.16 73.43 72.67 72.61 72.31 70.92 70.33 70.12 70.22 70.18 69.46 68.75 68.71 67.54 67.99 68.71 70.49 71.04 70.51 70.17 70.36 69.83
68.59 69.34 69.34 69.45 70.29 71.16 71.77 72.23 72.74 72.58 72.01 71.93 72.16 72.41 72.59 72.44 71.71 70.50 69.88 70.38 71.67 72.46 72.96 73.18 72.21 71.03 69.84 69.35 69.47 69.50 68.94 68.65 67.94 66.60 67.41 68.66 68.32 70.78 70.76 70.03 69.84 69.92 69.34
67.34 68.40 69.00 68.87 70.21 71.03 71.87 72.21 72.29 71.96 71.61 71.58 71.74 71.67 71.76 71.95 71.24 69.74 69.49 70.16 70.78 71.27 71.57 72.02 71.17 69.95 69.26 68.96 68.96 68.43 67.61 67.56 66.83 65.81 66.15 66.85 68.40 70.50 70.44 69.79 69.79 69.25 69.03
66.67 68.04 68.67 69.52 70.12 70.51 71.29 71.25 71.01 70.96 70.89 70.83 70.73 70.80 71.25 70.81 70.26 69.50 69.03 69.21 69.52 69.70 69.98 70.26 69.79 69.22 68.81 68.34 67.61 66.98 66.58 67.11 66.51 65.72 65.79 66.46 69.45 69.64 69.66 69.34 68.73 68.50 68.46
66.38 67.25 67.99 68.80 69.74 69.68 69.37 69.41 69.09 69.47 69.65 69.93 69.47 69.37 69.47 69.00 68.64 68.63 68.54 68.37 68.71 69.04 69.06 69.39 68.82 68.32 68.15 67.54 66.62 65.89 65.51 66.22 65.24 65.28 66.47 66.44 69.58 69.59 69.53 68.66 68.21 67.84 67.46
65.63 66.31 67.68 68.11 68.76 68.76 69.01 68.17 67.79 68.06 68.47 68.71 68.69 68.01 67.72 67.36 67.61 67.76 66.94 67.46 68.06 68.57 68.51 68.89 68.07 67.65 67.14 66.09 65.58 64.64 64.89 65.29 64.49 64.90 64.99 66.40 69.28 69.67 69.20 68.54 67.76 67.38 66.94
64.31 64.88 66.87 67.63 67.90 67.81 68.06 68.58 67.90 68.01 68.29 67.97 68.06 67.21 65.59 65.02 65.56 66.49 65.65 66.67 67.57 67.61 67.65 68.30 67.54 66.78 65.93 65.29 64.89 64.95 65.25 64.15 64.27 63.90 64.54 67.34 68.47 69.33 69.03 68.15 67.30 66.88 66.44
63.21 63.90 65.69 66.98 67.12 67.29 68.71 68.29 66.64 67.52 67.97 67.79 66.91 65.96 65.04 63.46 63.50 65.53 64.96 66.02 67.13 66.90 67.31 67.54 66.78 65.88 65.42 64.07 64.88 65.39 64.10 63.79 63.82 63.61 64.15 66.54 68.31 69.13 68.62 67.92 66.86 66.30 65.59
64.23 64.44 65.13 65.99 66.55 66.93 67.95 68.33 67.61 67.75 68.80 68.26 65.17 64.61 62.96 62.82 63.14 63.50 63.52 63.81 63.05 65.53 65.59 66.34 65.80 64.69 64.07 63.82 64.47 64.31 64.08 63.99 63.56 63.68 65.04 66.07 67.92 68.55 68.18 67.37 66.58 65.74 65.52
64.21 64.56 64.90 65.68 65.99 66.17 67.41 67.27 67.56 67.79 67.69 68.15 66.21 63.55 62.50 62.12 61.59 61.97 62.96 62.82 62.22 63.20 64.15 64.97 64.70 62.76 63.05 63.72 64.18 63.88 63.88 63.37 63.11 64.17 64.42 64.73 66.48 68.02 67.88 67.18 66.39 65.53 65.07
64.21 64.95 64.57 65.55 65.63 66.28 66.36 66.71 66.68 66.61 67.07 67.36 66.89 63.80 62.94 62.26 61.58 61.75 61.95 62.20 62.70 64.96 64.93 64.00 63.38 62.20 62.57 62.78 63.17 64.16 64.09 63.50 62.98 63.25 63.86 63.66 64.45 66.65 67.23 66.90 66.56 66.30 65.30
63.73 65.28 65.89 65.28 65.69 66.47 65.37 65.76 66.14 66.30 66.82 66.87 66.76 65.41 63.43 62.60 62.16 62.22 61.95 61.79 62.58 64.07 64.07 63.41 62.23 61.59 61.89 62.51 61.99 63.47 63.95 63.66 63.39 63.43 62.69 63.37 63.09 64.74 66.22 66.53 66.35 66.12 65.64
62.62 65.83 66.42 65.96 66.09 66.35 65.86 65.35 65.73 66.20 66.32 66.04 66.22 66.80 64.67 64.00 62.82 62.13 62.60 62.50 62.43 63.56 63.04 60.94 59.80 60.04 60.65 61.76 61.63 62.59 63.64 63.48 63.32 63.18 62.32 62.66 62.75 62.20 63.63 65.27 65.94 65.67 65.04
59.65 64.98 66.64 67.68 66.67 66.49 66.69 66.18 65.76 65.88 66.31 66.09 65.96 66.11 66.22 64.92 63.91 62.93 62.74 62.77 62.45 62.18 61.57 59.74 59.20 58.86 59.26 60.30 60.36 61.43 62.69 62.69 62.64 62.69 62.46 61.76 60.92 61.81 61.93 63.17 63.89 64.57 64.69
58.55 64.19 65.62 66.94 66.83 67.03 66.65 66.81 66.40 65.87 65.89 66.24 66.67 66.15 66.14 65.68 64.61 63.41 63.15 62.33 62.67 62.39 61.26 60.28 58.13 58.99 58.33 59.10 59.74 59.91 61.02 61.46 61.84 62.49 61.36 60.55 60.01 59.65 59.68 60.94 61.26 62.21 63.04
52.08 61.44 65.23 66.52 67.18 67.40 67.14 66.60 66.65 65.72 65.80 66.31 66.29 66.63 66.25 65.93 64.92 63.74 62.86 62.15 62.84 62.28 61.15 59.70 58.25 57.65 58.05 58.83 60.60 59.38 58.93 59.92 61.26 61.04 60.84 60.80 59.51 59.03 58.65 58.25 59.36 60.23 60.69
48.51 52.70 61.93 65.04 66.48 67.20 66.87 65.64 65.31 65.10 65.14 65.56 66.42 66.45 66.22 65.66 64.78 63.86 62.97 62.26 62.65 62.05 61.72 60.46 57.47 57.89 56.59 58.99 59.50 58.08 57.73 58.57 59.23 59.99 60.22 59.36 58.55 58.80 58.04 57.68 56.31 58.52 59.83
49.67 49.95 56.35 63.38 65.85 67.06 66.98 66.67 66.04 65.87 65.76 65.40 66.43 66.65 66.04 65.41 64.61 63.96 62.64 62.09 63.21 61.96 60.24 59.33 57.93 56.18 57.55 60.33 57.11 57.70 54.58 55.54 57.05 58.61 59.07 58.21 57.64 58.68 58.29 58.14 56.98 56.01 56.40
47.88 48.02 54.45 61.55 64.88 66.82 67.31 66.84 64.49 63.28 63.58 64.60 64.76 65.65 65.84 65.28 64.75 64.85 63.32 63.09 62.98 62.22 60.91 60.15 59.88 59.06 57.50 59.62 59.25 57.03 53.65 52.15 53.88 56.21 57.01 57.65 57.29 56.80 57.92 58.19 57.60 56.27 55.89
47.27 49.87 51.01 59.51 64.23 66.39 67.21 66.23 64.60 64.34 63.37 64.72 65.38 65.67 65.82 65.91 65.06 65.31 64.40 63.57 63.16 63.10 61.89 61.06 60.91 60.62 59.63 58.02 58.65 59.10 56.78 54.56 51.53 50.82 55.27 56.53 57.31 56.47 56.76 57.42 57.46 56.43 56.39
48.72 50.48 50.59 56.63 63.60 65.76 66.76 66.24 64.89 64.36 64.55 64.10 65.71 65.31 64.76 65.72 65.73 65.47 64.55 63.65 63.20 63.27 62.90 61.68 60.69 60.36 60.11 59.17 58.78 58.25 55.71 55.66 55.15 52.83 51.52 53.82 55.83 56.47 56.51 56.82 57.35 56.63 56.03
51.62 51.34 56.26 57.15 63.04 65.70 66.48 65.96 65.13 64.44 63.49 63.02 64.11 64.19 64.27 64.28 64.62 64.17 64.11 63.59 63.64 63.28 62.62 61.57 61.43 60.60 59.71 60.03 59.49 59.04 57.97 55.96 53.51 51.59 50.75 53.26 53.70 55.37 56.51 56.67 56.31 56.48 56.18